<?xml version="1.0" encoding="UTF-8"?>
<gpx version="1.1" creator="https://www.youtrack.es" xsi:schemaLocation="http://www.topografix.com/GPX/1/1 http://www.topografix.com/GPX/1/1/gpx.xsd http://www.garmin.com/xmlschemas/GpxExtensions/v3 http://www.garmin.com/xmlschemas/GpxExtensionsv3.xsd http://www.garmin.com/xmlschemas/TrackPointExtension/v1 http://www.garmin.com/xmlschemas/TrackPointExtensionv1.xsd" xmlns:gpxtpx="http://www.garmin.com/xmlschemas/TrackPointExtension/v1" xmlns:gpxx="http://www.garmin.com/xmlschemas/GpxExtensions/v3" xmlns:xsi="http://www.w3.org/2001/XMLSchema-instance">
  <metadata>
    <link href="https://www.youtrack.es">
      <text>YouTrack.es</text>
    </link>
    <time>2026-05-07T22:45:39Z</time>
  </metadata>
  <trk>
    <src>https://www.youtrack.es</src>
    <link href="https://www.youtrack.es/ruta/15569-part1tabola">
      <text>YouTrack.es</text>
    </link>
    <trkseg>
      <trkpt lat="41.682926" lon="2.285328">
        <ele>284.40</ele>
        <time>2020-09-02T12:41:29Z</time>
      </trkpt>
      <trkpt lat="41.682930" lon="2.285323">
        <ele>284.40</ele>
        <time>2020-09-02T12:41:30Z</time>
      </trkpt>
      <trkpt lat="41.682935" lon="2.285319">
        <ele>284.40</ele>
        <time>2020-09-02T12:41:31Z</time>
      </trkpt>
      <trkpt lat="41.682939" lon="2.285314">
        <ele>284.80</ele>
        <time>2020-09-02T12:41:32Z</time>
      </trkpt>
      <trkpt lat="41.682944" lon="2.285309">
        <ele>286.20</ele>
        <time>2020-09-02T12:41:33Z</time>
      </trkpt>
      <trkpt lat="41.682948" lon="2.285304">
        <ele>287.40</ele>
        <time>2020-09-02T12:41:34Z</time>
      </trkpt>
      <trkpt lat="41.682952" lon="2.285300">
        <ele>288.00</ele>
        <time>2020-09-02T12:41:35Z</time>
      </trkpt>
      <trkpt lat="41.682957" lon="2.285295">
        <ele>288.60</ele>
        <time>2020-09-02T12:41:36Z</time>
      </trkpt>
      <trkpt lat="41.682961" lon="2.285290">
        <ele>288.80</ele>
        <time>2020-09-02T12:41:37Z</time>
      </trkpt>
      <trkpt lat="41.682961" lon="2.285290">
        <ele>288.80</ele>
        <time>2020-09-02T12:41:40Z</time>
      </trkpt>
      <trkpt lat="41.682995" lon="2.285086">
        <ele>288.80</ele>
        <time>2020-09-02T12:41:41Z</time>
      </trkpt>
      <trkpt lat="41.682855" lon="2.284474">
        <ele>288.40</ele>
        <time>2020-09-02T12:41:49Z</time>
      </trkpt>
      <trkpt lat="41.682777" lon="2.284239">
        <ele>288.00</ele>
        <time>2020-09-02T12:41:52Z</time>
      </trkpt>
      <trkpt lat="41.682745" lon="2.284067">
        <ele>287.80</ele>
        <time>2020-09-02T12:41:54Z</time>
      </trkpt>
      <trkpt lat="41.682729" lon="2.283976">
        <ele>287.80</ele>
        <time>2020-09-02T12:41:55Z</time>
      </trkpt>
      <trkpt lat="41.682712" lon="2.283885">
        <ele>287.60</ele>
        <time>2020-09-02T12:41:56Z</time>
      </trkpt>
      <trkpt lat="41.682629" lon="2.283512">
        <ele>286.40</ele>
        <time>2020-09-02T12:42:00Z</time>
      </trkpt>
      <trkpt lat="41.682584" lon="2.283328">
        <ele>285.80</ele>
        <time>2020-09-02T12:42:02Z</time>
      </trkpt>
      <trkpt lat="41.682563" lon="2.283242">
        <ele>285.60</ele>
        <time>2020-09-02T12:42:03Z</time>
      </trkpt>
      <trkpt lat="41.682533" lon="2.283155">
        <ele>285.20</ele>
        <time>2020-09-02T12:42:04Z</time>
      </trkpt>
      <trkpt lat="41.682533" lon="2.283155">
        <ele>284.00</ele>
        <time>2020-09-02T12:42:07Z</time>
      </trkpt>
      <trkpt lat="41.682451" lon="2.282796">
        <ele>283.40</ele>
        <time>2020-09-02T12:42:08Z</time>
      </trkpt>
      <trkpt lat="41.682493" lon="2.282716">
        <ele>283.20</ele>
        <time>2020-09-02T12:42:09Z</time>
      </trkpt>
      <trkpt lat="41.682557" lon="2.282673">
        <ele>283.00</ele>
        <time>2020-09-02T12:42:10Z</time>
      </trkpt>
      <trkpt lat="41.682625" lon="2.282647">
        <ele>283.00</ele>
        <time>2020-09-02T12:42:11Z</time>
      </trkpt>
      <trkpt lat="41.682699" lon="2.282628">
        <ele>283.00</ele>
        <time>2020-09-02T12:42:12Z</time>
      </trkpt>
      <trkpt lat="41.682774" lon="2.282607">
        <ele>283.00</ele>
        <time>2020-09-02T12:42:13Z</time>
      </trkpt>
      <trkpt lat="41.682918" lon="2.282567">
        <ele>283.20</ele>
        <time>2020-09-02T12:42:15Z</time>
      </trkpt>
      <trkpt lat="41.683128" lon="2.282509">
        <ele>283.20</ele>
        <time>2020-09-02T12:42:18Z</time>
      </trkpt>
      <trkpt lat="41.683194" lon="2.282500">
        <ele>283.20</ele>
        <time>2020-09-02T12:42:19Z</time>
      </trkpt>
      <trkpt lat="41.683258" lon="2.282490">
        <ele>283.00</ele>
        <time>2020-09-02T12:42:20Z</time>
      </trkpt>
      <trkpt lat="41.683325" lon="2.282478">
        <ele>282.80</ele>
        <time>2020-09-02T12:42:21Z</time>
      </trkpt>
      <trkpt lat="41.683453" lon="2.282455">
        <ele>282.80</ele>
        <time>2020-09-02T12:42:23Z</time>
      </trkpt>
      <trkpt lat="41.683568" lon="2.282451">
        <ele>282.80</ele>
        <time>2020-09-02T12:42:25Z</time>
      </trkpt>
      <trkpt lat="41.683622" lon="2.282458">
        <ele>282.80</ele>
        <time>2020-09-02T12:42:26Z</time>
      </trkpt>
      <trkpt lat="41.683824" lon="2.282509">
        <ele>284.20</ele>
        <time>2020-09-02T12:42:30Z</time>
      </trkpt>
      <trkpt lat="41.683925" lon="2.282529">
        <ele>284.40</ele>
        <time>2020-09-02T12:42:32Z</time>
      </trkpt>
      <trkpt lat="41.684021" lon="2.282536">
        <ele>284.80</ele>
        <time>2020-09-02T12:42:34Z</time>
      </trkpt>
      <trkpt lat="41.684106" lon="2.282530">
        <ele>285.20</ele>
        <time>2020-09-02T12:42:36Z</time>
      </trkpt>
      <trkpt lat="41.684193" lon="2.282529">
        <ele>285.60</ele>
        <time>2020-09-02T12:42:38Z</time>
      </trkpt>
      <trkpt lat="41.684279" lon="2.282534">
        <ele>286.00</ele>
        <time>2020-09-02T12:42:40Z</time>
      </trkpt>
      <trkpt lat="41.684527" lon="2.282539">
        <ele>286.00</ele>
        <time>2020-09-02T12:42:46Z</time>
      </trkpt>
      <trkpt lat="41.684663" lon="2.282557">
        <ele>285.80</ele>
        <time>2020-09-02T12:42:49Z</time>
      </trkpt>
      <trkpt lat="41.684711" lon="2.282569">
        <ele>285.60</ele>
        <time>2020-09-02T12:42:50Z</time>
      </trkpt>
      <trkpt lat="41.684811" lon="2.282590">
        <ele>285.60</ele>
        <time>2020-09-02T12:42:52Z</time>
      </trkpt>
      <trkpt lat="41.685074" lon="2.282657">
        <ele>285.20</ele>
        <time>2020-09-02T12:42:57Z</time>
      </trkpt>
      <trkpt lat="41.685226" lon="2.282689">
        <ele>285.60</ele>
        <time>2020-09-02T12:43:00Z</time>
      </trkpt>
      <trkpt lat="41.685485" lon="2.282761">
        <ele>286.40</ele>
        <time>2020-09-02T12:43:04Z</time>
      </trkpt>
      <trkpt lat="41.685653" lon="2.282809">
        <ele>286.40</ele>
        <time>2020-09-02T12:43:08Z</time>
      </trkpt>
      <trkpt lat="41.685992" lon="2.282913">
        <ele>286.20</ele>
        <time>2020-09-02T12:43:14Z</time>
      </trkpt>
      <trkpt lat="41.686425" lon="2.283049">
        <ele>286.20</ele>
        <time>2020-09-02T12:43:22Z</time>
      </trkpt>
      <trkpt lat="41.686652" lon="2.283097">
        <ele>286.40</ele>
        <time>2020-09-02T12:43:26Z</time>
      </trkpt>
      <trkpt lat="41.686759" lon="2.283146">
        <ele>286.60</ele>
        <time>2020-09-02T12:43:28Z</time>
      </trkpt>
      <trkpt lat="41.686811" lon="2.283180">
        <ele>286.60</ele>
        <time>2020-09-02T12:43:29Z</time>
      </trkpt>
      <trkpt lat="41.686914" lon="2.283246">
        <ele>286.80</ele>
        <time>2020-09-02T12:43:31Z</time>
      </trkpt>
      <trkpt lat="41.687079" lon="2.283350">
        <ele>287.40</ele>
        <time>2020-09-02T12:43:34Z</time>
      </trkpt>
      <trkpt lat="41.687133" lon="2.283387">
        <ele>287.60</ele>
        <time>2020-09-02T12:43:35Z</time>
      </trkpt>
      <trkpt lat="41.687377" lon="2.283605">
        <ele>287.40</ele>
        <time>2020-09-02T12:43:40Z</time>
      </trkpt>
      <trkpt lat="41.687425" lon="2.283654">
        <ele>287.60</ele>
        <time>2020-09-02T12:43:41Z</time>
      </trkpt>
      <trkpt lat="41.687520" lon="2.283756">
        <ele>287.40</ele>
        <time>2020-09-02T12:43:43Z</time>
      </trkpt>
      <trkpt lat="41.687756" lon="2.284002">
        <ele>287.60</ele>
        <time>2020-09-02T12:43:48Z</time>
      </trkpt>
      <trkpt lat="41.688008" lon="2.284268">
        <ele>288.60</ele>
        <time>2020-09-02T12:43:54Z</time>
      </trkpt>
      <trkpt lat="41.688051" lon="2.284313">
        <ele>288.80</ele>
        <time>2020-09-02T12:43:55Z</time>
      </trkpt>
      <trkpt lat="41.688138" lon="2.284402">
        <ele>289.00</ele>
        <time>2020-09-02T12:43:57Z</time>
      </trkpt>
      <trkpt lat="41.688307" lon="2.284577">
        <ele>289.20</ele>
        <time>2020-09-02T12:44:01Z</time>
      </trkpt>
      <trkpt lat="41.688380" lon="2.284650">
        <ele>289.60</ele>
        <time>2020-09-02T12:44:03Z</time>
      </trkpt>
      <trkpt lat="41.688413" lon="2.284681">
        <ele>289.60</ele>
        <time>2020-09-02T12:44:04Z</time>
      </trkpt>
      <trkpt lat="41.688495" lon="2.284760">
        <ele>289.80</ele>
        <time>2020-09-02T12:44:07Z</time>
      </trkpt>
      <trkpt lat="41.688546" lon="2.284809">
        <ele>290.00</ele>
        <time>2020-09-02T12:44:09Z</time>
      </trkpt>
      <trkpt lat="41.688578" lon="2.284841">
        <ele>290.00</ele>
        <time>2020-09-02T12:44:10Z</time>
      </trkpt>
      <trkpt lat="41.688680" lon="2.284950">
        <ele>290.60</ele>
        <time>2020-09-02T12:44:13Z</time>
      </trkpt>
      <trkpt lat="41.688715" lon="2.284994">
        <ele>290.80</ele>
        <time>2020-09-02T12:44:14Z</time>
      </trkpt>
      <trkpt lat="41.688748" lon="2.285044">
        <ele>290.80</ele>
        <time>2020-09-02T12:44:15Z</time>
      </trkpt>
      <trkpt lat="41.688816" lon="2.285141">
        <ele>291.00</ele>
        <time>2020-09-02T12:44:17Z</time>
      </trkpt>
      <trkpt lat="41.688857" lon="2.285180">
        <ele>291.20</ele>
        <time>2020-09-02T12:44:18Z</time>
      </trkpt>
      <trkpt lat="41.688900" lon="2.285214">
        <ele>291.60</ele>
        <time>2020-09-02T12:44:19Z</time>
      </trkpt>
      <trkpt lat="41.689024" lon="2.285279">
        <ele>292.40</ele>
        <time>2020-09-02T12:44:22Z</time>
      </trkpt>
      <trkpt lat="41.689124" lon="2.285296">
        <ele>292.80</ele>
        <time>2020-09-02T12:44:24Z</time>
      </trkpt>
      <trkpt lat="41.689280" lon="2.285312">
        <ele>293.20</ele>
        <time>2020-09-02T12:44:27Z</time>
      </trkpt>
      <trkpt lat="41.689516" lon="2.285295">
        <ele>292.80</ele>
        <time>2020-09-02T12:44:31Z</time>
      </trkpt>
      <trkpt lat="41.689636" lon="2.285268">
        <ele>292.20</ele>
        <time>2020-09-02T12:44:33Z</time>
      </trkpt>
      <trkpt lat="41.689636" lon="2.285268">
        <ele>291.80</ele>
        <time>2020-09-02T12:44:34Z</time>
      </trkpt>
      <trkpt lat="41.689920" lon="2.285180">
        <ele>291.60</ele>
        <time>2020-09-02T12:44:38Z</time>
      </trkpt>
      <trkpt lat="41.690250" lon="2.285132">
        <ele>291.60</ele>
        <time>2020-09-02T12:44:44Z</time>
      </trkpt>
      <trkpt lat="41.690306" lon="2.285134">
        <ele>291.60</ele>
        <time>2020-09-02T12:44:45Z</time>
      </trkpt>
      <trkpt lat="41.690667" lon="2.285158">
        <ele>292.20</ele>
        <time>2020-09-02T12:44:52Z</time>
      </trkpt>
      <trkpt lat="41.690718" lon="2.285157">
        <ele>292.20</ele>
        <time>2020-09-02T12:44:53Z</time>
      </trkpt>
      <trkpt lat="41.690973" lon="2.285150">
        <ele>292.40</ele>
        <time>2020-09-02T12:44:58Z</time>
      </trkpt>
      <trkpt lat="41.691112" lon="2.285132">
        <ele>293.00</ele>
        <time>2020-09-02T12:45:01Z</time>
      </trkpt>
      <trkpt lat="41.691196" lon="2.285111">
        <ele>293.40</ele>
        <time>2020-09-02T12:45:03Z</time>
      </trkpt>
      <trkpt lat="41.691265" lon="2.285036">
        <ele>293.60</ele>
        <time>2020-09-02T12:45:05Z</time>
      </trkpt>
      <trkpt lat="41.691300" lon="2.284862">
        <ele>293.80</ele>
        <time>2020-09-02T12:45:08Z</time>
      </trkpt>
      <trkpt lat="41.691299" lon="2.284564">
        <ele>293.80</ele>
        <time>2020-09-02T12:45:13Z</time>
      </trkpt>
      <trkpt lat="41.691311" lon="2.284500">
        <ele>293.80</ele>
        <time>2020-09-02T12:45:14Z</time>
      </trkpt>
      <trkpt lat="41.691339" lon="2.284449">
        <ele>293.80</ele>
        <time>2020-09-02T12:45:15Z</time>
      </trkpt>
      <trkpt lat="41.691376" lon="2.284407">
        <ele>294.00</ele>
        <time>2020-09-02T12:45:16Z</time>
      </trkpt>
      <trkpt lat="41.691415" lon="2.284362">
        <ele>294.20</ele>
        <time>2020-09-02T12:45:17Z</time>
      </trkpt>
      <trkpt lat="41.691489" lon="2.284267">
        <ele>294.20</ele>
        <time>2020-09-02T12:45:19Z</time>
      </trkpt>
      <trkpt lat="41.691524" lon="2.284217">
        <ele>294.20</ele>
        <time>2020-09-02T12:45:20Z</time>
      </trkpt>
      <trkpt lat="41.691649" lon="2.284008">
        <ele>294.00</ele>
        <time>2020-09-02T12:45:24Z</time>
      </trkpt>
      <trkpt lat="41.691678" lon="2.283955">
        <ele>294.00</ele>
        <time>2020-09-02T12:45:25Z</time>
      </trkpt>
      <trkpt lat="41.691798" lon="2.283738">
        <ele>294.20</ele>
        <time>2020-09-02T12:45:29Z</time>
      </trkpt>
      <trkpt lat="41.691885" lon="2.283573">
        <ele>294.60</ele>
        <time>2020-09-02T12:45:32Z</time>
      </trkpt>
      <trkpt lat="41.691944" lon="2.283470">
        <ele>294.60</ele>
        <time>2020-09-02T12:45:34Z</time>
      </trkpt>
      <trkpt lat="41.691974" lon="2.283420">
        <ele>294.60</ele>
        <time>2020-09-02T12:45:35Z</time>
      </trkpt>
      <trkpt lat="41.692002" lon="2.283370">
        <ele>294.80</ele>
        <time>2020-09-02T12:45:36Z</time>
      </trkpt>
      <trkpt lat="41.692030" lon="2.283321">
        <ele>294.80</ele>
        <time>2020-09-02T12:45:37Z</time>
      </trkpt>
      <trkpt lat="41.692057" lon="2.283272">
        <ele>294.80</ele>
        <time>2020-09-02T12:45:38Z</time>
      </trkpt>
      <trkpt lat="41.692083" lon="2.283219">
        <ele>294.80</ele>
        <time>2020-09-02T12:45:39Z</time>
      </trkpt>
      <trkpt lat="41.692107" lon="2.283166">
        <ele>295.00</ele>
        <time>2020-09-02T12:45:40Z</time>
      </trkpt>
      <trkpt lat="41.692159" lon="2.283060">
        <ele>295.40</ele>
        <time>2020-09-02T12:45:42Z</time>
      </trkpt>
      <trkpt lat="41.692268" lon="2.282867">
        <ele>296.20</ele>
        <time>2020-09-02T12:45:46Z</time>
      </trkpt>
      <trkpt lat="41.692338" lon="2.282719">
        <ele>296.40</ele>
        <time>2020-09-02T12:45:49Z</time>
      </trkpt>
      <trkpt lat="41.692471" lon="2.282542">
        <ele>297.00</ele>
        <time>2020-09-02T12:45:54Z</time>
      </trkpt>
      <trkpt lat="41.692510" lon="2.282541">
        <ele>297.20</ele>
        <time>2020-09-02T12:45:55Z</time>
      </trkpt>
      <trkpt lat="41.692551" lon="2.282546">
        <ele>297.40</ele>
        <time>2020-09-02T12:45:56Z</time>
      </trkpt>
      <trkpt lat="41.692591" lon="2.282552">
        <ele>297.60</ele>
        <time>2020-09-02T12:45:57Z</time>
      </trkpt>
      <trkpt lat="41.692712" lon="2.282566">
        <ele>297.80</ele>
        <time>2020-09-02T12:46:00Z</time>
      </trkpt>
      <trkpt lat="41.692712" lon="2.282566">
        <ele>298.00</ele>
        <time>2020-09-02T12:46:02Z</time>
      </trkpt>
      <trkpt lat="41.692880" lon="2.282595">
        <ele>298.20</ele>
        <time>2020-09-02T12:46:05Z</time>
      </trkpt>
      <trkpt lat="41.693098" lon="2.282629">
        <ele>298.60</ele>
        <time>2020-09-02T12:46:10Z</time>
      </trkpt>
      <trkpt lat="41.693185" lon="2.282647">
        <ele>298.60</ele>
        <time>2020-09-02T12:46:12Z</time>
      </trkpt>
      <trkpt lat="41.693537" lon="2.282711">
        <ele>299.40</ele>
        <time>2020-09-02T12:46:20Z</time>
      </trkpt>
      <trkpt lat="41.693630" lon="2.282716">
        <ele>299.60</ele>
        <time>2020-09-02T12:46:22Z</time>
      </trkpt>
      <trkpt lat="41.693723" lon="2.282688">
        <ele>299.80</ele>
        <time>2020-09-02T12:46:24Z</time>
      </trkpt>
      <trkpt lat="41.693759" lon="2.282657">
        <ele>300.00</ele>
        <time>2020-09-02T12:46:25Z</time>
      </trkpt>
      <trkpt lat="41.693823" lon="2.282518">
        <ele>300.60</ele>
        <time>2020-09-02T12:46:28Z</time>
      </trkpt>
      <trkpt lat="41.693831" lon="2.282468">
        <ele>300.80</ele>
        <time>2020-09-02T12:46:29Z</time>
      </trkpt>
      <trkpt lat="41.693885" lon="2.282212">
        <ele>301.60</ele>
        <time>2020-09-02T12:46:34Z</time>
      </trkpt>
      <trkpt lat="41.693939" lon="2.281991">
        <ele>302.00</ele>
        <time>2020-09-02T12:46:38Z</time>
      </trkpt>
      <trkpt lat="41.694009" lon="2.281783">
        <ele>302.60</ele>
        <time>2020-09-02T12:46:43Z</time>
      </trkpt>
      <trkpt lat="41.694020" lon="2.281754">
        <ele>303.00</ele>
        <time>2020-09-02T12:46:44Z</time>
      </trkpt>
      <trkpt lat="41.694049" lon="2.281717">
        <ele>303.40</ele>
        <time>2020-09-02T12:46:46Z</time>
      </trkpt>
      <trkpt lat="41.694067" lon="2.281713">
        <ele>303.80</ele>
        <time>2020-09-02T12:46:47Z</time>
      </trkpt>
      <trkpt lat="41.694087" lon="2.281707">
        <ele>304.20</ele>
        <time>2020-09-02T12:46:48Z</time>
      </trkpt>
      <trkpt lat="41.694150" lon="2.281700">
        <ele>304.60</ele>
        <time>2020-09-02T12:46:51Z</time>
      </trkpt>
      <trkpt lat="41.694187" lon="2.281702">
        <ele>304.60</ele>
        <time>2020-09-02T12:46:53Z</time>
      </trkpt>
      <trkpt lat="41.694204" lon="2.281703">
        <ele>304.80</ele>
        <time>2020-09-02T12:46:54Z</time>
      </trkpt>
      <trkpt lat="41.694271" lon="2.281698">
        <ele>305.20</ele>
        <time>2020-09-02T12:46:58Z</time>
      </trkpt>
      <trkpt lat="41.694305" lon="2.281694">
        <ele>305.40</ele>
        <time>2020-09-02T12:47:00Z</time>
      </trkpt>
      <trkpt lat="41.694322" lon="2.281694">
        <ele>305.60</ele>
        <time>2020-09-02T12:47:01Z</time>
      </trkpt>
      <trkpt lat="41.694398" lon="2.281691">
        <ele>306.40</ele>
        <time>2020-09-02T12:47:05Z</time>
      </trkpt>
      <trkpt lat="41.694470" lon="2.281681">
        <ele>307.00</ele>
        <time>2020-09-02T12:47:09Z</time>
      </trkpt>
      <trkpt lat="41.694595" lon="2.281650">
        <ele>307.40</ele>
        <time>2020-09-02T12:47:15Z</time>
      </trkpt>
      <trkpt lat="41.694730" lon="2.281615">
        <ele>308.60</ele>
        <time>2020-09-02T12:47:20Z</time>
      </trkpt>
      <trkpt lat="41.694755" lon="2.281612">
        <ele>308.80</ele>
        <time>2020-09-02T12:47:21Z</time>
      </trkpt>
      <trkpt lat="41.694959" lon="2.281613">
        <ele>309.80</ele>
        <time>2020-09-02T12:47:29Z</time>
      </trkpt>
      <trkpt lat="41.695148" lon="2.281606">
        <ele>311.00</ele>
        <time>2020-09-02T12:47:36Z</time>
      </trkpt>
      <trkpt lat="41.695207" lon="2.281545">
        <ele>311.20</ele>
        <time>2020-09-02T12:47:39Z</time>
      </trkpt>
      <trkpt lat="41.695226" lon="2.281503">
        <ele>311.40</ele>
        <time>2020-09-02T12:47:41Z</time>
      </trkpt>
      <trkpt lat="41.695244" lon="2.281423">
        <ele>312.00</ele>
        <time>2020-09-02T12:47:45Z</time>
      </trkpt>
      <trkpt lat="41.695243" lon="2.281363">
        <ele>312.20</ele>
        <time>2020-09-02T12:47:48Z</time>
      </trkpt>
      <trkpt lat="41.695239" lon="2.281324">
        <ele>312.40</ele>
        <time>2020-09-02T12:47:50Z</time>
      </trkpt>
      <trkpt lat="41.695220" lon="2.281215">
        <ele>312.80</ele>
        <time>2020-09-02T12:47:55Z</time>
      </trkpt>
      <trkpt lat="41.695216" lon="2.281191">
        <ele>313.00</ele>
        <time>2020-09-02T12:47:56Z</time>
      </trkpt>
      <trkpt lat="41.695216" lon="2.281191">
        <ele>313.80</ele>
        <time>2020-09-02T12:48:01Z</time>
      </trkpt>
      <trkpt lat="41.695190" lon="2.281023">
        <ele>314.20</ele>
        <time>2020-09-02T12:48:04Z</time>
      </trkpt>
      <trkpt lat="41.695187" lon="2.281002">
        <ele>314.40</ele>
        <time>2020-09-02T12:48:05Z</time>
      </trkpt>
      <trkpt lat="41.695166" lon="2.280903">
        <ele>315.00</ele>
        <time>2020-09-02T12:48:10Z</time>
      </trkpt>
      <trkpt lat="41.695158" lon="2.280878">
        <ele>315.20</ele>
        <time>2020-09-02T12:48:11Z</time>
      </trkpt>
      <trkpt lat="41.695134" lon="2.280809">
        <ele>315.80</ele>
        <time>2020-09-02T12:48:14Z</time>
      </trkpt>
      <trkpt lat="41.695122" lon="2.280719">
        <ele>316.40</ele>
        <time>2020-09-02T12:48:18Z</time>
      </trkpt>
      <trkpt lat="41.695121" lon="2.280611">
        <ele>317.00</ele>
        <time>2020-09-02T12:48:23Z</time>
      </trkpt>
      <trkpt lat="41.695128" lon="2.280501">
        <ele>317.40</ele>
        <time>2020-09-02T12:48:27Z</time>
      </trkpt>
      <trkpt lat="41.695165" lon="2.280417">
        <ele>317.80</ele>
        <time>2020-09-02T12:48:31Z</time>
      </trkpt>
      <trkpt lat="41.695234" lon="2.280286">
        <ele>318.40</ele>
        <time>2020-09-02T12:48:38Z</time>
      </trkpt>
      <trkpt lat="41.695253" lon="2.280246">
        <ele>318.60</ele>
        <time>2020-09-02T12:48:40Z</time>
      </trkpt>
      <trkpt lat="41.695300" lon="2.280172">
        <ele>319.60</ele>
        <time>2020-09-02T12:48:44Z</time>
      </trkpt>
      <trkpt lat="41.695363" lon="2.280086">
        <ele>320.00</ele>
        <time>2020-09-02T12:48:49Z</time>
      </trkpt>
      <trkpt lat="41.695412" lon="2.279975">
        <ele>320.80</ele>
        <time>2020-09-02T12:48:53Z</time>
      </trkpt>
      <trkpt lat="41.695441" lon="2.279921">
        <ele>321.40</ele>
        <time>2020-09-02T12:48:55Z</time>
      </trkpt>
      <trkpt lat="41.695482" lon="2.279850">
        <ele>322.20</ele>
        <time>2020-09-02T12:48:58Z</time>
      </trkpt>
      <trkpt lat="41.695510" lon="2.279775">
        <ele>323.20</ele>
        <time>2020-09-02T12:49:01Z</time>
      </trkpt>
      <trkpt lat="41.695566" lon="2.279691">
        <ele>324.20</ele>
        <time>2020-09-02T12:49:05Z</time>
      </trkpt>
      <trkpt lat="41.695617" lon="2.279592">
        <ele>325.20</ele>
        <time>2020-09-02T12:49:09Z</time>
      </trkpt>
      <trkpt lat="41.695630" lon="2.279565">
        <ele>325.60</ele>
        <time>2020-09-02T12:49:10Z</time>
      </trkpt>
      <trkpt lat="41.695653" lon="2.279511">
        <ele>326.80</ele>
        <time>2020-09-02T12:49:12Z</time>
      </trkpt>
      <trkpt lat="41.695726" lon="2.279370">
        <ele>327.60</ele>
        <time>2020-09-02T12:49:17Z</time>
      </trkpt>
      <trkpt lat="41.695760" lon="2.279312">
        <ele>327.80</ele>
        <time>2020-09-02T12:49:19Z</time>
      </trkpt>
      <trkpt lat="41.695879" lon="2.279079">
        <ele>328.40</ele>
        <time>2020-09-02T12:49:26Z</time>
      </trkpt>
      <trkpt lat="41.695896" lon="2.279043">
        <ele>328.40</ele>
        <time>2020-09-02T12:49:27Z</time>
      </trkpt>
      <trkpt lat="41.695934" lon="2.278974">
        <ele>328.60</ele>
        <time>2020-09-02T12:49:29Z</time>
      </trkpt>
      <trkpt lat="41.695952" lon="2.278938">
        <ele>328.80</ele>
        <time>2020-09-02T12:49:30Z</time>
      </trkpt>
      <trkpt lat="41.696009" lon="2.278827">
        <ele>329.20</ele>
        <time>2020-09-02T12:49:33Z</time>
      </trkpt>
      <trkpt lat="41.696072" lon="2.278714">
        <ele>329.60</ele>
        <time>2020-09-02T12:49:36Z</time>
      </trkpt>
      <trkpt lat="41.696117" lon="2.278633">
        <ele>330.00</ele>
        <time>2020-09-02T12:49:38Z</time>
      </trkpt>
      <trkpt lat="41.696243" lon="2.278380">
        <ele>330.40</ele>
        <time>2020-09-02T12:49:44Z</time>
      </trkpt>
      <trkpt lat="41.696298" lon="2.278238">
        <ele>330.60</ele>
        <time>2020-09-02T12:49:47Z</time>
      </trkpt>
      <trkpt lat="41.696345" lon="2.278084">
        <ele>330.60</ele>
        <time>2020-09-02T12:49:50Z</time>
      </trkpt>
      <trkpt lat="41.696393" lon="2.277932">
        <ele>330.80</ele>
        <time>2020-09-02T12:49:53Z</time>
      </trkpt>
      <trkpt lat="41.696411" lon="2.277884">
        <ele>331.00</ele>
        <time>2020-09-02T12:49:54Z</time>
      </trkpt>
      <trkpt lat="41.696544" lon="2.277638">
        <ele>332.00</ele>
        <time>2020-09-02T12:50:00Z</time>
      </trkpt>
      <trkpt lat="41.696659" lon="2.277548">
        <ele>333.00</ele>
        <time>2020-09-02T12:50:05Z</time>
      </trkpt>
      <trkpt lat="41.696679" lon="2.277541">
        <ele>333.20</ele>
        <time>2020-09-02T12:50:06Z</time>
      </trkpt>
      <trkpt lat="41.696756" lon="2.277517">
        <ele>333.60</ele>
        <time>2020-09-02T12:50:10Z</time>
      </trkpt>
      <trkpt lat="41.696791" lon="2.277526">
        <ele>334.00</ele>
        <time>2020-09-02T12:50:12Z</time>
      </trkpt>
      <trkpt lat="41.696808" lon="2.277534">
        <ele>334.20</ele>
        <time>2020-09-02T12:50:13Z</time>
      </trkpt>
      <trkpt lat="41.696864" lon="2.277538">
        <ele>334.80</ele>
        <time>2020-09-02T12:50:16Z</time>
      </trkpt>
      <trkpt lat="41.696898" lon="2.277524">
        <ele>335.20</ele>
        <time>2020-09-02T12:50:18Z</time>
      </trkpt>
      <trkpt lat="41.696915" lon="2.277521">
        <ele>335.20</ele>
        <time>2020-09-02T12:50:19Z</time>
      </trkpt>
      <trkpt lat="41.696932" lon="2.277518">
        <ele>335.40</ele>
        <time>2020-09-02T12:50:20Z</time>
      </trkpt>
      <trkpt lat="41.697037" lon="2.277540">
        <ele>336.20</ele>
        <time>2020-09-02T12:50:26Z</time>
      </trkpt>
      <trkpt lat="41.697067" lon="2.277555">
        <ele>336.60</ele>
        <time>2020-09-02T12:50:28Z</time>
      </trkpt>
      <trkpt lat="41.697158" lon="2.277652">
        <ele>337.60</ele>
        <time>2020-09-02T12:50:36Z</time>
      </trkpt>
      <trkpt lat="41.697170" lon="2.277668">
        <ele>337.80</ele>
        <time>2020-09-02T12:50:37Z</time>
      </trkpt>
      <trkpt lat="41.697210" lon="2.277733">
        <ele>338.80</ele>
        <time>2020-09-02T12:50:41Z</time>
      </trkpt>
      <trkpt lat="41.697210" lon="2.277733">
        <ele>338.80</ele>
        <time>2020-09-02T12:50:42Z</time>
      </trkpt>
      <trkpt lat="41.697260" lon="2.277839">
        <ele>339.20</ele>
        <time>2020-09-02T12:50:46Z</time>
      </trkpt>
      <trkpt lat="41.697299" lon="2.277950">
        <ele>339.60</ele>
        <time>2020-09-02T12:50:52Z</time>
      </trkpt>
      <trkpt lat="41.697319" lon="2.277986">
        <ele>339.80</ele>
        <time>2020-09-02T12:50:54Z</time>
      </trkpt>
      <trkpt lat="41.697386" lon="2.278069">
        <ele>340.60</ele>
        <time>2020-09-02T12:51:00Z</time>
      </trkpt>
      <trkpt lat="41.697405" lon="2.278094">
        <ele>341.00</ele>
        <time>2020-09-02T12:51:02Z</time>
      </trkpt>
      <trkpt lat="41.697479" lon="2.278154">
        <ele>342.20</ele>
        <time>2020-09-02T12:51:08Z</time>
      </trkpt>
      <trkpt lat="41.697564" lon="2.278198">
        <ele>343.40</ele>
        <time>2020-09-02T12:51:15Z</time>
      </trkpt>
      <trkpt lat="41.697647" lon="2.278235">
        <ele>344.40</ele>
        <time>2020-09-02T12:51:20Z</time>
      </trkpt>
      <trkpt lat="41.697666" lon="2.278229">
        <ele>344.60</ele>
        <time>2020-09-02T12:51:21Z</time>
      </trkpt>
      <trkpt lat="41.697788" lon="2.278175">
        <ele>345.40</ele>
        <time>2020-09-02T12:51:27Z</time>
      </trkpt>
      <trkpt lat="41.697821" lon="2.278136">
        <ele>345.40</ele>
        <time>2020-09-02T12:51:29Z</time>
      </trkpt>
      <trkpt lat="41.697871" lon="2.277991">
        <ele>346.00</ele>
        <time>2020-09-02T12:51:36Z</time>
      </trkpt>
      <trkpt lat="41.697877" lon="2.277948">
        <ele>346.40</ele>
        <time>2020-09-02T12:51:38Z</time>
      </trkpt>
      <trkpt lat="41.697914" lon="2.277876">
        <ele>347.00</ele>
        <time>2020-09-02T12:51:42Z</time>
      </trkpt>
      <trkpt lat="41.697946" lon="2.277777">
        <ele>347.60</ele>
        <time>2020-09-02T12:51:47Z</time>
      </trkpt>
      <trkpt lat="41.697953" lon="2.277736">
        <ele>348.00</ele>
        <time>2020-09-02T12:51:49Z</time>
      </trkpt>
      <trkpt lat="41.697954" lon="2.277651">
        <ele>348.80</ele>
        <time>2020-09-02T12:51:53Z</time>
      </trkpt>
      <trkpt lat="41.697971" lon="2.277615">
        <ele>349.00</ele>
        <time>2020-09-02T12:51:55Z</time>
      </trkpt>
      <trkpt lat="41.697988" lon="2.277536">
        <ele>349.80</ele>
        <time>2020-09-02T12:51:59Z</time>
      </trkpt>
      <trkpt lat="41.698004" lon="2.277498">
        <ele>350.00</ele>
        <time>2020-09-02T12:52:01Z</time>
      </trkpt>
      <trkpt lat="41.698022" lon="2.277420">
        <ele>350.80</ele>
        <time>2020-09-02T12:52:05Z</time>
      </trkpt>
      <trkpt lat="41.698045" lon="2.277364">
        <ele>351.40</ele>
        <time>2020-09-02T12:52:08Z</time>
      </trkpt>
      <trkpt lat="41.698052" lon="2.277302">
        <ele>351.80</ele>
        <time>2020-09-02T12:52:11Z</time>
      </trkpt>
      <trkpt lat="41.698071" lon="2.277239">
        <ele>352.40</ele>
        <time>2020-09-02T12:52:14Z</time>
      </trkpt>
      <trkpt lat="41.698071" lon="2.277239">
        <ele>352.80</ele>
        <time>2020-09-02T12:52:16Z</time>
      </trkpt>
      <trkpt lat="41.698088" lon="2.277181">
        <ele>353.20</ele>
        <time>2020-09-02T12:52:17Z</time>
      </trkpt>
      <trkpt lat="41.698104" lon="2.277119">
        <ele>353.60</ele>
        <time>2020-09-02T12:52:20Z</time>
      </trkpt>
      <trkpt lat="41.698132" lon="2.277035">
        <ele>354.20</ele>
        <time>2020-09-02T12:52:25Z</time>
      </trkpt>
      <trkpt lat="41.698136" lon="2.276994">
        <ele>354.40</ele>
        <time>2020-09-02T12:52:27Z</time>
      </trkpt>
      <trkpt lat="41.698154" lon="2.276913">
        <ele>355.20</ele>
        <time>2020-09-02T12:52:31Z</time>
      </trkpt>
      <trkpt lat="41.698171" lon="2.276854">
        <ele>355.60</ele>
        <time>2020-09-02T12:52:34Z</time>
      </trkpt>
      <trkpt lat="41.698182" lon="2.276776">
        <ele>356.20</ele>
        <time>2020-09-02T12:52:38Z</time>
      </trkpt>
      <trkpt lat="41.698191" lon="2.276736">
        <ele>356.60</ele>
        <time>2020-09-02T12:52:40Z</time>
      </trkpt>
      <trkpt lat="41.698223" lon="2.276619">
        <ele>357.40</ele>
        <time>2020-09-02T12:52:46Z</time>
      </trkpt>
      <trkpt lat="41.698254" lon="2.276477">
        <ele>358.20</ele>
        <time>2020-09-02T12:52:53Z</time>
      </trkpt>
      <trkpt lat="41.698251" lon="2.276454">
        <ele>358.40</ele>
        <time>2020-09-02T12:52:54Z</time>
      </trkpt>
      <trkpt lat="41.698265" lon="2.276322">
        <ele>359.20</ele>
        <time>2020-09-02T12:53:00Z</time>
      </trkpt>
      <trkpt lat="41.698266" lon="2.276277">
        <ele>359.40</ele>
        <time>2020-09-02T12:53:02Z</time>
      </trkpt>
      <trkpt lat="41.698293" lon="2.276184">
        <ele>360.60</ele>
        <time>2020-09-02T12:53:06Z</time>
      </trkpt>
      <trkpt lat="41.698304" lon="2.276166">
        <ele>360.80</ele>
        <time>2020-09-02T12:53:07Z</time>
      </trkpt>
      <trkpt lat="41.698331" lon="2.276025">
        <ele>361.40</ele>
        <time>2020-09-02T12:53:14Z</time>
      </trkpt>
      <trkpt lat="41.698332" lon="2.276003">
        <ele>361.80</ele>
        <time>2020-09-02T12:53:15Z</time>
      </trkpt>
      <trkpt lat="41.698378" lon="2.275871">
        <ele>362.40</ele>
        <time>2020-09-02T12:53:21Z</time>
      </trkpt>
      <trkpt lat="41.698385" lon="2.275762">
        <ele>362.80</ele>
        <time>2020-09-02T12:53:26Z</time>
      </trkpt>
      <trkpt lat="41.698387" lon="2.275719">
        <ele>363.00</ele>
        <time>2020-09-02T12:53:28Z</time>
      </trkpt>
      <trkpt lat="41.698421" lon="2.275553">
        <ele>363.60</ele>
        <time>2020-09-02T12:53:36Z</time>
      </trkpt>
      <trkpt lat="41.698444" lon="2.275459">
        <ele>364.00</ele>
        <time>2020-09-02T12:53:41Z</time>
      </trkpt>
      <trkpt lat="41.698448" lon="2.275423">
        <ele>364.20</ele>
        <time>2020-09-02T12:53:43Z</time>
      </trkpt>
      <trkpt lat="41.698450" lon="2.275366">
        <ele>364.60</ele>
        <time>2020-09-02T12:53:46Z</time>
      </trkpt>
      <trkpt lat="41.698451" lon="2.275279">
        <ele>365.00</ele>
        <time>2020-09-02T12:53:51Z</time>
      </trkpt>
      <trkpt lat="41.698451" lon="2.275279">
        <ele>365.20</ele>
        <time>2020-09-02T12:53:53Z</time>
      </trkpt>
      <trkpt lat="41.698441" lon="2.275173">
        <ele>366.00</ele>
        <time>2020-09-02T12:53:57Z</time>
      </trkpt>
      <trkpt lat="41.698440" lon="2.275153">
        <ele>366.20</ele>
        <time>2020-09-02T12:53:58Z</time>
      </trkpt>
      <trkpt lat="41.698446" lon="2.275026">
        <ele>366.80</ele>
        <time>2020-09-02T12:54:04Z</time>
      </trkpt>
      <trkpt lat="41.698442" lon="2.274984">
        <ele>367.40</ele>
        <time>2020-09-02T12:54:06Z</time>
      </trkpt>
      <trkpt lat="41.698429" lon="2.274851">
        <ele>368.20</ele>
        <time>2020-09-02T12:54:12Z</time>
      </trkpt>
      <trkpt lat="41.698415" lon="2.274782">
        <ele>368.60</ele>
        <time>2020-09-02T12:54:16Z</time>
      </trkpt>
      <trkpt lat="41.698407" lon="2.274746">
        <ele>368.80</ele>
        <time>2020-09-02T12:54:18Z</time>
      </trkpt>
      <trkpt lat="41.698416" lon="2.274613">
        <ele>369.60</ele>
        <time>2020-09-02T12:54:25Z</time>
      </trkpt>
      <trkpt lat="41.698421" lon="2.274577">
        <ele>370.00</ele>
        <time>2020-09-02T12:54:27Z</time>
      </trkpt>
      <trkpt lat="41.698432" lon="2.274451">
        <ele>370.60</ele>
        <time>2020-09-02T12:54:34Z</time>
      </trkpt>
      <trkpt lat="41.698433" lon="2.274437">
        <ele>370.80</ele>
        <time>2020-09-02T12:54:35Z</time>
      </trkpt>
      <trkpt lat="41.698437" lon="2.274286">
        <ele>371.80</ele>
        <time>2020-09-02T12:54:44Z</time>
      </trkpt>
      <trkpt lat="41.698441" lon="2.274268">
        <ele>371.80</ele>
        <time>2020-09-02T12:54:45Z</time>
      </trkpt>
      <trkpt lat="41.698439" lon="2.274148">
        <ele>373.00</ele>
        <time>2020-09-02T12:54:51Z</time>
      </trkpt>
      <trkpt lat="41.698441" lon="2.274107">
        <ele>373.20</ele>
        <time>2020-09-02T12:54:53Z</time>
      </trkpt>
      <trkpt lat="41.698443" lon="2.273943">
        <ele>374.00</ele>
        <time>2020-09-02T12:55:01Z</time>
      </trkpt>
      <trkpt lat="41.698445" lon="2.273791">
        <ele>375.00</ele>
        <time>2020-09-02T12:55:08Z</time>
      </trkpt>
      <trkpt lat="41.698444" lon="2.273770">
        <ele>375.00</ele>
        <time>2020-09-02T12:55:09Z</time>
      </trkpt>
      <trkpt lat="41.698437" lon="2.273618">
        <ele>376.20</ele>
        <time>2020-09-02T12:55:16Z</time>
      </trkpt>
      <trkpt lat="41.698437" lon="2.273597">
        <ele>376.40</ele>
        <time>2020-09-02T12:55:17Z</time>
      </trkpt>
      <trkpt lat="41.698427" lon="2.273512">
        <ele>377.20</ele>
        <time>2020-09-02T12:55:21Z</time>
      </trkpt>
      <trkpt lat="41.698420" lon="2.273414">
        <ele>377.60</ele>
        <time>2020-09-02T12:55:25Z</time>
      </trkpt>
      <trkpt lat="41.698419" lon="2.273338">
        <ele>378.40</ele>
        <time>2020-09-02T12:55:28Z</time>
      </trkpt>
      <trkpt lat="41.698416" lon="2.273193">
        <ele>379.40</ele>
        <time>2020-09-02T12:55:34Z</time>
      </trkpt>
      <trkpt lat="41.698419" lon="2.273170">
        <ele>379.40</ele>
        <time>2020-09-02T12:55:35Z</time>
      </trkpt>
      <trkpt lat="41.698429" lon="2.273010">
        <ele>380.60</ele>
        <time>2020-09-02T12:55:42Z</time>
      </trkpt>
      <trkpt lat="41.698430" lon="2.272988">
        <ele>380.80</ele>
        <time>2020-09-02T12:55:43Z</time>
      </trkpt>
      <trkpt lat="41.698429" lon="2.272807">
        <ele>381.60</ele>
        <time>2020-09-02T12:55:51Z</time>
      </trkpt>
      <trkpt lat="41.698430" lon="2.272781">
        <ele>381.80</ele>
        <time>2020-09-02T12:55:52Z</time>
      </trkpt>
      <trkpt lat="41.698422" lon="2.272579">
        <ele>382.80</ele>
        <time>2020-09-02T12:56:00Z</time>
      </trkpt>
      <trkpt lat="41.698416" lon="2.272402">
        <ele>383.80</ele>
        <time>2020-09-02T12:56:07Z</time>
      </trkpt>
      <trkpt lat="41.698415" lon="2.272378">
        <ele>384.00</ele>
        <time>2020-09-02T12:56:08Z</time>
      </trkpt>
      <trkpt lat="41.698408" lon="2.272287">
        <ele>385.00</ele>
        <time>2020-09-02T12:56:12Z</time>
      </trkpt>
      <trkpt lat="41.698407" lon="2.272212">
        <ele>385.40</ele>
        <time>2020-09-02T12:56:15Z</time>
      </trkpt>
      <trkpt lat="41.698412" lon="2.272135">
        <ele>386.00</ele>
        <time>2020-09-02T12:56:18Z</time>
      </trkpt>
      <trkpt lat="41.698396" lon="2.272040">
        <ele>387.00</ele>
        <time>2020-09-02T12:56:22Z</time>
      </trkpt>
      <trkpt lat="41.698384" lon="2.272025">
        <ele>387.00</ele>
        <time>2020-09-02T12:56:23Z</time>
      </trkpt>
      <trkpt lat="41.698307" lon="2.272029">
        <ele>387.60</ele>
        <time>2020-09-02T12:56:28Z</time>
      </trkpt>
      <trkpt lat="41.698280" lon="2.272059">
        <ele>388.20</ele>
        <time>2020-09-02T12:56:30Z</time>
      </trkpt>
      <trkpt lat="41.698229" lon="2.272141">
        <ele>389.20</ele>
        <time>2020-09-02T12:56:34Z</time>
      </trkpt>
      <trkpt lat="41.698217" lon="2.272159">
        <ele>389.40</ele>
        <time>2020-09-02T12:56:35Z</time>
      </trkpt>
      <trkpt lat="41.698189" lon="2.272249">
        <ele>390.40</ele>
        <time>2020-09-02T12:56:39Z</time>
      </trkpt>
      <trkpt lat="41.698168" lon="2.272291">
        <ele>390.80</ele>
        <time>2020-09-02T12:56:41Z</time>
      </trkpt>
      <trkpt lat="41.698112" lon="2.272342">
        <ele>391.60</ele>
        <time>2020-09-02T12:56:45Z</time>
      </trkpt>
      <trkpt lat="41.698047" lon="2.272383">
        <ele>392.40</ele>
        <time>2020-09-02T12:56:49Z</time>
      </trkpt>
      <trkpt lat="41.698012" lon="2.272392">
        <ele>392.80</ele>
        <time>2020-09-02T12:56:51Z</time>
      </trkpt>
      <trkpt lat="41.697956" lon="2.272406">
        <ele>393.20</ele>
        <time>2020-09-02T12:56:54Z</time>
      </trkpt>
      <trkpt lat="41.697921" lon="2.272413">
        <ele>393.60</ele>
        <time>2020-09-02T12:56:56Z</time>
      </trkpt>
      <trkpt lat="41.697887" lon="2.272421">
        <ele>394.00</ele>
        <time>2020-09-02T12:56:58Z</time>
      </trkpt>
      <trkpt lat="41.697770" lon="2.272428">
        <ele>395.20</ele>
        <time>2020-09-02T12:57:05Z</time>
      </trkpt>
      <trkpt lat="41.697735" lon="2.272423">
        <ele>395.40</ele>
        <time>2020-09-02T12:57:07Z</time>
      </trkpt>
      <trkpt lat="41.697599" lon="2.272395">
        <ele>396.00</ele>
        <time>2020-09-02T12:57:14Z</time>
      </trkpt>
      <trkpt lat="41.697583" lon="2.272388">
        <ele>396.20</ele>
        <time>2020-09-02T12:57:15Z</time>
      </trkpt>
      <trkpt lat="41.697493" lon="2.272362">
        <ele>397.20</ele>
        <time>2020-09-02T12:57:20Z</time>
      </trkpt>
      <trkpt lat="41.697473" lon="2.272357">
        <ele>397.40</ele>
        <time>2020-09-02T12:57:21Z</time>
      </trkpt>
      <trkpt lat="41.697455" lon="2.272347">
        <ele>397.80</ele>
        <time>2020-09-02T12:57:22Z</time>
      </trkpt>
      <trkpt lat="41.697418" lon="2.272310">
        <ele>398.40</ele>
        <time>2020-09-02T12:57:24Z</time>
      </trkpt>
      <trkpt lat="41.697353" lon="2.272246">
        <ele>399.60</ele>
        <time>2020-09-02T12:57:28Z</time>
      </trkpt>
      <trkpt lat="41.697321" lon="2.272220">
        <ele>400.00</ele>
        <time>2020-09-02T12:57:30Z</time>
      </trkpt>
      <trkpt lat="41.697304" lon="2.272209">
        <ele>400.20</ele>
        <time>2020-09-02T12:57:31Z</time>
      </trkpt>
      <trkpt lat="41.697269" lon="2.272192">
        <ele>400.60</ele>
        <time>2020-09-02T12:57:33Z</time>
      </trkpt>
      <trkpt lat="41.697208" lon="2.272159">
        <ele>401.20</ele>
        <time>2020-09-02T12:57:37Z</time>
      </trkpt>
      <trkpt lat="41.697180" lon="2.272149">
        <ele>401.60</ele>
        <time>2020-09-02T12:57:39Z</time>
      </trkpt>
      <trkpt lat="41.697099" lon="2.272107">
        <ele>402.20</ele>
        <time>2020-09-02T12:57:45Z</time>
      </trkpt>
      <trkpt lat="41.697076" lon="2.272092">
        <ele>402.80</ele>
        <time>2020-09-02T12:57:47Z</time>
      </trkpt>
      <trkpt lat="41.697002" lon="2.272080">
        <ele>403.20</ele>
        <time>2020-09-02T12:57:53Z</time>
      </trkpt>
      <trkpt lat="41.696968" lon="2.272072">
        <ele>403.80</ele>
        <time>2020-09-02T12:57:56Z</time>
      </trkpt>
      <trkpt lat="41.696925" lon="2.272043">
        <ele>404.20</ele>
        <time>2020-09-02T12:58:00Z</time>
      </trkpt>
      <trkpt lat="41.696894" lon="2.272041">
        <ele>404.60</ele>
        <time>2020-09-02T12:58:03Z</time>
      </trkpt>
      <trkpt lat="41.696867" lon="2.272041">
        <ele>405.00</ele>
        <time>2020-09-02T12:58:05Z</time>
      </trkpt>
      <trkpt lat="41.696851" lon="2.272038">
        <ele>405.20</ele>
        <time>2020-09-02T12:58:06Z</time>
      </trkpt>
      <trkpt lat="41.696810" lon="2.272009">
        <ele>406.00</ele>
        <time>2020-09-02T12:58:09Z</time>
      </trkpt>
      <trkpt lat="41.696771" lon="2.271961">
        <ele>406.40</ele>
        <time>2020-09-02T12:58:12Z</time>
      </trkpt>
      <trkpt lat="41.696793" lon="2.271841">
        <ele>407.00</ele>
        <time>2020-09-02T12:58:18Z</time>
      </trkpt>
      <trkpt lat="41.696803" lon="2.271829">
        <ele>407.00</ele>
        <time>2020-09-02T12:58:19Z</time>
      </trkpt>
      <trkpt lat="41.696833" lon="2.271807">
        <ele>407.20</ele>
        <time>2020-09-02T12:58:22Z</time>
      </trkpt>
      <trkpt lat="41.696853" lon="2.271788">
        <ele>407.60</ele>
        <time>2020-09-02T12:58:24Z</time>
      </trkpt>
      <trkpt lat="41.696864" lon="2.271781">
        <ele>407.60</ele>
        <time>2020-09-02T12:58:25Z</time>
      </trkpt>
      <trkpt lat="41.696864" lon="2.271781">
        <ele>408.20</ele>
        <time>2020-09-02T12:58:27Z</time>
      </trkpt>
      <trkpt lat="41.696953" lon="2.271726">
        <ele>408.80</ele>
        <time>2020-09-02T12:58:33Z</time>
      </trkpt>
      <trkpt lat="41.697008" lon="2.271682">
        <ele>409.20</ele>
        <time>2020-09-02T12:58:37Z</time>
      </trkpt>
      <trkpt lat="41.697063" lon="2.271646">
        <ele>410.00</ele>
        <time>2020-09-02T12:58:41Z</time>
      </trkpt>
      <trkpt lat="41.697102" lon="2.271611">
        <ele>410.20</ele>
        <time>2020-09-02T12:58:44Z</time>
      </trkpt>
      <trkpt lat="41.697189" lon="2.271571">
        <ele>411.00</ele>
        <time>2020-09-02T12:58:50Z</time>
      </trkpt>
      <trkpt lat="41.697215" lon="2.271553">
        <ele>411.40</ele>
        <time>2020-09-02T12:58:52Z</time>
      </trkpt>
      <trkpt lat="41.697289" lon="2.271491">
        <ele>412.20</ele>
        <time>2020-09-02T12:58:59Z</time>
      </trkpt>
      <trkpt lat="41.697309" lon="2.271468">
        <ele>412.40</ele>
        <time>2020-09-02T12:59:01Z</time>
      </trkpt>
      <trkpt lat="41.697339" lon="2.271402">
        <ele>413.00</ele>
        <time>2020-09-02T12:59:05Z</time>
      </trkpt>
      <trkpt lat="41.697355" lon="2.271371">
        <ele>413.60</ele>
        <time>2020-09-02T12:59:07Z</time>
      </trkpt>
      <trkpt lat="41.697368" lon="2.271296">
        <ele>414.60</ele>
        <time>2020-09-02T12:59:11Z</time>
      </trkpt>
      <trkpt lat="41.697390" lon="2.271189">
        <ele>415.80</ele>
        <time>2020-09-02T12:59:17Z</time>
      </trkpt>
      <trkpt lat="41.697395" lon="2.271149">
        <ele>416.20</ele>
        <time>2020-09-02T12:59:19Z</time>
      </trkpt>
      <trkpt lat="41.697418" lon="2.271086">
        <ele>417.00</ele>
        <time>2020-09-02T12:59:23Z</time>
      </trkpt>
      <trkpt lat="41.697426" lon="2.271059">
        <ele>417.20</ele>
        <time>2020-09-02T12:59:25Z</time>
      </trkpt>
      <trkpt lat="41.697429" lon="2.271030">
        <ele>417.40</ele>
        <time>2020-09-02T12:59:27Z</time>
      </trkpt>
      <trkpt lat="41.697432" lon="2.270978">
        <ele>418.00</ele>
        <time>2020-09-02T12:59:30Z</time>
      </trkpt>
      <trkpt lat="41.697437" lon="2.270873">
        <ele>419.20</ele>
        <time>2020-09-02T12:59:36Z</time>
      </trkpt>
      <trkpt lat="41.697439" lon="2.270859">
        <ele>419.40</ele>
        <time>2020-09-02T12:59:37Z</time>
      </trkpt>
      <trkpt lat="41.697446" lon="2.270832">
        <ele>419.80</ele>
        <time>2020-09-02T12:59:39Z</time>
      </trkpt>
      <trkpt lat="41.697449" lon="2.270802">
        <ele>420.20</ele>
        <time>2020-09-02T12:59:41Z</time>
      </trkpt>
      <trkpt lat="41.697454" lon="2.270754">
        <ele>420.40</ele>
        <time>2020-09-02T12:59:44Z</time>
      </trkpt>
      <trkpt lat="41.697463" lon="2.270693">
        <ele>421.20</ele>
        <time>2020-09-02T12:59:48Z</time>
      </trkpt>
      <trkpt lat="41.697481" lon="2.270641">
        <ele>422.20</ele>
        <time>2020-09-02T12:59:52Z</time>
      </trkpt>
      <trkpt lat="41.697484" lon="2.270630">
        <ele>422.20</ele>
        <time>2020-09-02T12:59:53Z</time>
      </trkpt>
      <trkpt lat="41.697480" lon="2.270604">
        <ele>422.40</ele>
        <time>2020-09-02T12:59:55Z</time>
      </trkpt>
      <trkpt lat="41.697476" lon="2.270559">
        <ele>423.20</ele>
        <time>2020-09-02T12:59:58Z</time>
      </trkpt>
      <trkpt lat="41.697473" lon="2.270535">
        <ele>423.40</ele>
        <time>2020-09-02T13:00:00Z</time>
      </trkpt>
      <trkpt lat="41.697466" lon="2.270508">
        <ele>423.60</ele>
        <time>2020-09-02T13:00:02Z</time>
      </trkpt>
      <trkpt lat="41.697445" lon="2.270447">
        <ele>424.40</ele>
        <time>2020-09-02T13:00:07Z</time>
      </trkpt>
      <trkpt lat="41.697438" lon="2.270438">
        <ele>424.40</ele>
        <time>2020-09-02T13:00:08Z</time>
      </trkpt>
      <trkpt lat="41.697391" lon="2.270375">
        <ele>425.60</ele>
        <time>2020-09-02T13:00:14Z</time>
      </trkpt>
      <trkpt lat="41.697381" lon="2.270365">
        <ele>426.00</ele>
        <time>2020-09-02T13:00:15Z</time>
      </trkpt>
      <trkpt lat="41.697358" lon="2.270352">
        <ele>426.80</ele>
        <time>2020-09-02T13:00:17Z</time>
      </trkpt>
      <trkpt lat="41.697282" lon="2.270361">
        <ele>427.40</ele>
        <time>2020-09-02T13:00:23Z</time>
      </trkpt>
      <trkpt lat="41.697245" lon="2.270373">
        <ele>428.00</ele>
        <time>2020-09-02T13:00:26Z</time>
      </trkpt>
      <trkpt lat="41.697184" lon="2.270397">
        <ele>428.80</ele>
        <time>2020-09-02T13:00:31Z</time>
      </trkpt>
      <trkpt lat="41.697160" lon="2.270408">
        <ele>429.00</ele>
        <time>2020-09-02T13:00:33Z</time>
      </trkpt>
      <trkpt lat="41.697099" lon="2.270452">
        <ele>429.80</ele>
        <time>2020-09-02T13:00:38Z</time>
      </trkpt>
      <trkpt lat="41.697087" lon="2.270459">
        <ele>430.20</ele>
        <time>2020-09-02T13:00:39Z</time>
      </trkpt>
      <trkpt lat="41.697014" lon="2.270474">
        <ele>431.40</ele>
        <time>2020-09-02T13:00:45Z</time>
      </trkpt>
      <trkpt lat="41.696978" lon="2.270460">
        <ele>432.40</ele>
        <time>2020-09-02T13:00:49Z</time>
      </trkpt>
      <trkpt lat="41.696961" lon="2.270424">
        <ele>432.80</ele>
        <time>2020-09-02T13:00:51Z</time>
      </trkpt>
      <trkpt lat="41.696946" lon="2.270391">
        <ele>433.40</ele>
        <time>2020-09-02T13:00:53Z</time>
      </trkpt>
      <trkpt lat="41.696902" lon="2.270366">
        <ele>434.40</ele>
        <time>2020-09-02T13:00:57Z</time>
      </trkpt>
      <trkpt lat="41.696890" lon="2.270357">
        <ele>434.60</ele>
        <time>2020-09-02T13:00:58Z</time>
      </trkpt>
      <trkpt lat="41.696883" lon="2.270344">
        <ele>434.80</ele>
        <time>2020-09-02T13:00:59Z</time>
      </trkpt>
      <trkpt lat="41.696870" lon="2.270298">
        <ele>435.60</ele>
        <time>2020-09-02T13:01:02Z</time>
      </trkpt>
      <trkpt lat="41.696866" lon="2.270282">
        <ele>435.80</ele>
        <time>2020-09-02T13:01:03Z</time>
      </trkpt>
      <trkpt lat="41.696850" lon="2.270223">
        <ele>436.60</ele>
        <time>2020-09-02T13:01:07Z</time>
      </trkpt>
      <trkpt lat="41.696855" lon="2.270169">
        <ele>437.00</ele>
        <time>2020-09-02T13:01:10Z</time>
      </trkpt>
      <trkpt lat="41.696873" lon="2.270107">
        <ele>438.00</ele>
        <time>2020-09-02T13:01:14Z</time>
      </trkpt>
      <trkpt lat="41.696889" lon="2.270040">
        <ele>438.60</ele>
        <time>2020-09-02T13:01:18Z</time>
      </trkpt>
      <trkpt lat="41.696896" lon="2.270023">
        <ele>439.00</ele>
        <time>2020-09-02T13:01:19Z</time>
      </trkpt>
      <trkpt lat="41.696945" lon="2.269926">
        <ele>440.00</ele>
        <time>2020-09-02T13:01:25Z</time>
      </trkpt>
      <trkpt lat="41.696973" lon="2.269894">
        <ele>440.80</ele>
        <time>2020-09-02T13:01:28Z</time>
      </trkpt>
      <trkpt lat="41.697014" lon="2.269847">
        <ele>441.20</ele>
        <time>2020-09-02T13:01:32Z</time>
      </trkpt>
      <trkpt lat="41.697068" lon="2.269790">
        <ele>442.20</ele>
        <time>2020-09-02T13:01:37Z</time>
      </trkpt>
      <trkpt lat="41.697128" lon="2.269753">
        <ele>443.40</ele>
        <time>2020-09-02T13:01:43Z</time>
      </trkpt>
      <trkpt lat="41.697153" lon="2.269710">
        <ele>443.80</ele>
        <time>2020-09-02T13:01:46Z</time>
      </trkpt>
      <trkpt lat="41.697179" lon="2.269698">
        <ele>444.60</ele>
        <time>2020-09-02T13:01:48Z</time>
      </trkpt>
      <trkpt lat="41.697191" lon="2.269690">
        <ele>444.60</ele>
        <time>2020-09-02T13:01:49Z</time>
      </trkpt>
      <trkpt lat="41.697215" lon="2.269646">
        <ele>445.40</ele>
        <time>2020-09-02T13:01:53Z</time>
      </trkpt>
      <trkpt lat="41.697210" lon="2.269614">
        <ele>445.60</ele>
        <time>2020-09-02T13:01:55Z</time>
      </trkpt>
      <trkpt lat="41.697205" lon="2.269599">
        <ele>445.80</ele>
        <time>2020-09-02T13:01:56Z</time>
      </trkpt>
      <trkpt lat="41.697158" lon="2.269516">
        <ele>447.00</ele>
        <time>2020-09-02T13:02:01Z</time>
      </trkpt>
      <trkpt lat="41.697149" lon="2.269503">
        <ele>447.20</ele>
        <time>2020-09-02T13:02:02Z</time>
      </trkpt>
      <trkpt lat="41.697066" lon="2.269427">
        <ele>448.20</ele>
        <time>2020-09-02T13:02:10Z</time>
      </trkpt>
      <trkpt lat="41.696999" lon="2.269400">
        <ele>449.20</ele>
        <time>2020-09-02T13:02:16Z</time>
      </trkpt>
      <trkpt lat="41.696966" lon="2.269383">
        <ele>449.80</ele>
        <time>2020-09-02T13:02:19Z</time>
      </trkpt>
      <trkpt lat="41.696944" lon="2.269370">
        <ele>450.40</ele>
        <time>2020-09-02T13:02:21Z</time>
      </trkpt>
      <trkpt lat="41.696871" lon="2.269343">
        <ele>451.40</ele>
        <time>2020-09-02T13:02:27Z</time>
      </trkpt>
      <trkpt lat="41.696858" lon="2.269342">
        <ele>451.60</ele>
        <time>2020-09-02T13:02:28Z</time>
      </trkpt>
      <trkpt lat="41.696858" lon="2.269342">
        <ele>452.60</ele>
        <time>2020-09-02T13:02:35Z</time>
      </trkpt>
      <trkpt lat="41.696737" lon="2.269324">
        <ele>453.00</ele>
        <time>2020-09-02T13:02:37Z</time>
      </trkpt>
      <trkpt lat="41.696694" lon="2.269325">
        <ele>453.80</ele>
        <time>2020-09-02T13:02:40Z</time>
      </trkpt>
      <trkpt lat="41.696613" lon="2.269346">
        <ele>454.60</ele>
        <time>2020-09-02T13:02:45Z</time>
      </trkpt>
      <trkpt lat="41.696570" lon="2.269376">
        <ele>455.00</ele>
        <time>2020-09-02T13:02:47Z</time>
      </trkpt>
      <trkpt lat="41.696477" lon="2.269487">
        <ele>456.00</ele>
        <time>2020-09-02T13:02:51Z</time>
      </trkpt>
      <trkpt lat="41.696458" lon="2.269508">
        <ele>456.00</ele>
        <time>2020-09-02T13:02:52Z</time>
      </trkpt>
      <trkpt lat="41.696347" lon="2.269544">
        <ele>457.00</ele>
        <time>2020-09-02T13:02:57Z</time>
      </trkpt>
      <trkpt lat="41.696319" lon="2.269542">
        <ele>457.00</ele>
        <time>2020-09-02T13:02:58Z</time>
      </trkpt>
      <trkpt lat="41.696126" lon="2.269507">
        <ele>457.20</ele>
        <time>2020-09-02T13:03:04Z</time>
      </trkpt>
      <trkpt lat="41.695820" lon="2.269477">
        <ele>456.60</ele>
        <time>2020-09-02T13:03:12Z</time>
      </trkpt>
      <trkpt lat="41.695533" lon="2.269545">
        <ele>456.40</ele>
        <time>2020-09-02T13:03:19Z</time>
      </trkpt>
      <trkpt lat="41.695355" lon="2.269578">
        <ele>456.40</ele>
        <time>2020-09-02T13:03:23Z</time>
      </trkpt>
      <trkpt lat="41.695213" lon="2.269605">
        <ele>456.40</ele>
        <time>2020-09-02T13:03:26Z</time>
      </trkpt>
      <trkpt lat="41.695169" lon="2.269606">
        <ele>456.40</ele>
        <time>2020-09-02T13:03:27Z</time>
      </trkpt>
      <trkpt lat="41.695132" lon="2.269599">
        <ele>456.60</ele>
        <time>2020-09-02T13:03:28Z</time>
      </trkpt>
      <trkpt lat="41.695100" lon="2.269582">
        <ele>456.80</ele>
        <time>2020-09-02T13:03:29Z</time>
      </trkpt>
      <trkpt lat="41.695086" lon="2.269554">
        <ele>457.00</ele>
        <time>2020-09-02T13:03:30Z</time>
      </trkpt>
      <trkpt lat="41.695083" lon="2.269524">
        <ele>457.60</ele>
        <time>2020-09-02T13:03:31Z</time>
      </trkpt>
      <trkpt lat="41.695091" lon="2.269496">
        <ele>458.40</ele>
        <time>2020-09-02T13:03:32Z</time>
      </trkpt>
      <trkpt lat="41.695104" lon="2.269472">
        <ele>459.00</ele>
        <time>2020-09-02T13:03:33Z</time>
      </trkpt>
      <trkpt lat="41.695118" lon="2.269456">
        <ele>459.40</ele>
        <time>2020-09-02T13:03:34Z</time>
      </trkpt>
      <trkpt lat="41.695177" lon="2.269413">
        <ele>460.40</ele>
        <time>2020-09-02T13:03:39Z</time>
      </trkpt>
      <trkpt lat="41.695182" lon="2.269396">
        <ele>460.80</ele>
        <time>2020-09-02T13:03:40Z</time>
      </trkpt>
      <trkpt lat="41.695215" lon="2.269372">
        <ele>461.80</ele>
        <time>2020-09-02T13:03:43Z</time>
      </trkpt>
      <trkpt lat="41.695241" lon="2.269369">
        <ele>462.40</ele>
        <time>2020-09-02T13:03:45Z</time>
      </trkpt>
      <trkpt lat="41.695277" lon="2.269363">
        <ele>463.20</ele>
        <time>2020-09-02T13:03:48Z</time>
      </trkpt>
      <trkpt lat="41.695321" lon="2.269348">
        <ele>464.20</ele>
        <time>2020-09-02T13:03:52Z</time>
      </trkpt>
      <trkpt lat="41.695351" lon="2.269322">
        <ele>464.80</ele>
        <time>2020-09-02T13:03:55Z</time>
      </trkpt>
      <trkpt lat="41.695374" lon="2.269308">
        <ele>465.00</ele>
        <time>2020-09-02T13:03:57Z</time>
      </trkpt>
      <trkpt lat="41.695382" lon="2.269294">
        <ele>465.20</ele>
        <time>2020-09-02T13:03:58Z</time>
      </trkpt>
      <trkpt lat="41.695427" lon="2.269276">
        <ele>466.40</ele>
        <time>2020-09-02T13:04:02Z</time>
      </trkpt>
      <trkpt lat="41.695486" lon="2.269264">
        <ele>467.20</ele>
        <time>2020-09-02T13:04:07Z</time>
      </trkpt>
      <trkpt lat="41.695520" lon="2.269237">
        <ele>467.40</ele>
        <time>2020-09-02T13:04:10Z</time>
      </trkpt>
      <trkpt lat="41.695588" lon="2.269179">
        <ele>468.60</ele>
        <time>2020-09-02T13:04:15Z</time>
      </trkpt>
      <trkpt lat="41.695656" lon="2.269145">
        <ele>469.60</ele>
        <time>2020-09-02T13:04:19Z</time>
      </trkpt>
      <trkpt lat="41.695739" lon="2.269123">
        <ele>470.20</ele>
        <time>2020-09-02T13:04:24Z</time>
      </trkpt>
      <trkpt lat="41.695739" lon="2.269123">
        <ele>470.60</ele>
        <time>2020-09-02T13:04:28Z</time>
      </trkpt>
      <trkpt lat="41.695826" lon="2.269115">
        <ele>470.60</ele>
        <time>2020-09-02T13:04:29Z</time>
      </trkpt>
      <trkpt lat="41.695905" lon="2.269111">
        <ele>471.40</ele>
        <time>2020-09-02T13:04:34Z</time>
      </trkpt>
      <trkpt lat="41.695938" lon="2.269111">
        <ele>471.60</ele>
        <time>2020-09-02T13:04:36Z</time>
      </trkpt>
      <trkpt lat="41.695956" lon="2.269111">
        <ele>471.80</ele>
        <time>2020-09-02T13:04:37Z</time>
      </trkpt>
      <trkpt lat="41.696061" lon="2.269093">
        <ele>472.60</ele>
        <time>2020-09-02T13:04:43Z</time>
      </trkpt>
      <trkpt lat="41.696095" lon="2.269079">
        <ele>472.80</ele>
        <time>2020-09-02T13:04:45Z</time>
      </trkpt>
      <trkpt lat="41.696111" lon="2.269072">
        <ele>472.80</ele>
        <time>2020-09-02T13:04:46Z</time>
      </trkpt>
      <trkpt lat="41.696205" lon="2.268989">
        <ele>473.80</ele>
        <time>2020-09-02T13:04:53Z</time>
      </trkpt>
      <trkpt lat="41.696217" lon="2.268973">
        <ele>474.00</ele>
        <time>2020-09-02T13:04:54Z</time>
      </trkpt>
      <trkpt lat="41.696290" lon="2.268847">
        <ele>475.00</ele>
        <time>2020-09-02T13:05:01Z</time>
      </trkpt>
      <trkpt lat="41.696346" lon="2.268750">
        <ele>476.20</ele>
        <time>2020-09-02T13:05:07Z</time>
      </trkpt>
      <trkpt lat="41.696365" lon="2.268720">
        <ele>476.40</ele>
        <time>2020-09-02T13:05:09Z</time>
      </trkpt>
      <trkpt lat="41.696408" lon="2.268655">
        <ele>477.00</ele>
        <time>2020-09-02T13:05:14Z</time>
      </trkpt>
      <trkpt lat="41.696414" lon="2.268642">
        <ele>477.20</ele>
        <time>2020-09-02T13:05:15Z</time>
      </trkpt>
      <trkpt lat="41.696422" lon="2.268629">
        <ele>477.40</ele>
        <time>2020-09-02T13:05:16Z</time>
      </trkpt>
      <trkpt lat="41.696441" lon="2.268598">
        <ele>478.40</ele>
        <time>2020-09-02T13:05:19Z</time>
      </trkpt>
      <trkpt lat="41.696477" lon="2.268541">
        <ele>479.20</ele>
        <time>2020-09-02T13:05:24Z</time>
      </trkpt>
      <trkpt lat="41.696495" lon="2.268514">
        <ele>479.40</ele>
        <time>2020-09-02T13:05:26Z</time>
      </trkpt>
      <trkpt lat="41.696528" lon="2.268448">
        <ele>480.60</ele>
        <time>2020-09-02T13:05:31Z</time>
      </trkpt>
      <trkpt lat="41.696528" lon="2.268448">
        <ele>481.60</ele>
        <time>2020-09-02T13:05:35Z</time>
      </trkpt>
      <trkpt lat="41.696558" lon="2.268364">
        <ele>481.80</ele>
        <time>2020-09-02T13:05:37Z</time>
      </trkpt>
      <trkpt lat="41.696566" lon="2.268315">
        <ele>482.40</ele>
        <time>2020-09-02T13:05:40Z</time>
      </trkpt>
      <trkpt lat="41.696567" lon="2.268300">
        <ele>482.80</ele>
        <time>2020-09-02T13:05:41Z</time>
      </trkpt>
      <trkpt lat="41.696538" lon="2.268189">
        <ele>483.80</ele>
        <time>2020-09-02T13:05:47Z</time>
      </trkpt>
      <trkpt lat="41.696523" lon="2.268157">
        <ele>484.20</ele>
        <time>2020-09-02T13:05:49Z</time>
      </trkpt>
      <trkpt lat="41.696486" lon="2.268089">
        <ele>485.00</ele>
        <time>2020-09-02T13:05:54Z</time>
      </trkpt>
      <trkpt lat="41.696451" lon="2.268051">
        <ele>485.60</ele>
        <time>2020-09-02T13:05:58Z</time>
      </trkpt>
      <trkpt lat="41.696432" lon="2.268031">
        <ele>486.20</ele>
        <time>2020-09-02T13:06:00Z</time>
      </trkpt>
      <trkpt lat="41.696432" lon="2.268031">
        <ele>486.60</ele>
        <time>2020-09-02T13:06:01Z</time>
      </trkpt>
      <trkpt lat="41.696391" lon="2.267982">
        <ele>487.20</ele>
        <time>2020-09-02T13:06:05Z</time>
      </trkpt>
      <trkpt lat="41.696380" lon="2.267974">
        <ele>487.40</ele>
        <time>2020-09-02T13:06:06Z</time>
      </trkpt>
      <trkpt lat="41.696331" lon="2.267940">
        <ele>488.20</ele>
        <time>2020-09-02T13:06:11Z</time>
      </trkpt>
      <trkpt lat="41.696299" lon="2.267903">
        <ele>489.00</ele>
        <time>2020-09-02T13:06:14Z</time>
      </trkpt>
      <trkpt lat="41.696286" lon="2.267888">
        <ele>489.40</ele>
        <time>2020-09-02T13:06:15Z</time>
      </trkpt>
      <trkpt lat="41.696231" lon="2.267770">
        <ele>489.80</ele>
        <time>2020-09-02T13:06:20Z</time>
      </trkpt>
      <trkpt lat="41.696232" lon="2.267624">
        <ele>490.40</ele>
        <time>2020-09-02T13:06:25Z</time>
      </trkpt>
      <trkpt lat="41.696243" lon="2.267571">
        <ele>490.80</ele>
        <time>2020-09-02T13:06:27Z</time>
      </trkpt>
      <trkpt lat="41.696265" lon="2.267476">
        <ele>491.60</ele>
        <time>2020-09-02T13:06:31Z</time>
      </trkpt>
      <trkpt lat="41.696270" lon="2.267454">
        <ele>491.80</ele>
        <time>2020-09-02T13:06:32Z</time>
      </trkpt>
      <trkpt lat="41.696280" lon="2.267408">
        <ele>492.20</ele>
        <time>2020-09-02T13:06:34Z</time>
      </trkpt>
      <trkpt lat="41.696283" lon="2.267361">
        <ele>492.60</ele>
        <time>2020-09-02T13:06:36Z</time>
      </trkpt>
      <trkpt lat="41.696286" lon="2.267149">
        <ele>493.60</ele>
        <time>2020-09-02T13:06:44Z</time>
      </trkpt>
      <trkpt lat="41.696285" lon="2.267119">
        <ele>493.60</ele>
        <time>2020-09-02T13:06:45Z</time>
      </trkpt>
      <trkpt lat="41.696279" lon="2.266944">
        <ele>494.80</ele>
        <time>2020-09-02T13:06:51Z</time>
      </trkpt>
      <trkpt lat="41.696272" lon="2.266864">
        <ele>495.40</ele>
        <time>2020-09-02T13:06:54Z</time>
      </trkpt>
      <trkpt lat="41.696269" lon="2.266788">
        <ele>496.00</ele>
        <time>2020-09-02T13:06:57Z</time>
      </trkpt>
      <trkpt lat="41.696213" lon="2.266649">
        <ele>496.80</ele>
        <time>2020-09-02T13:07:02Z</time>
      </trkpt>
      <trkpt lat="41.696201" lon="2.266622">
        <ele>497.00</ele>
        <time>2020-09-02T13:07:03Z</time>
      </trkpt>
      <trkpt lat="41.696140" lon="2.266469">
        <ele>498.00</ele>
        <time>2020-09-02T13:07:09Z</time>
      </trkpt>
      <trkpt lat="41.696130" lon="2.266446">
        <ele>498.20</ele>
        <time>2020-09-02T13:07:10Z</time>
      </trkpt>
      <trkpt lat="41.696110" lon="2.266402">
        <ele>498.60</ele>
        <time>2020-09-02T13:07:12Z</time>
      </trkpt>
      <trkpt lat="41.696092" lon="2.266359">
        <ele>499.20</ele>
        <time>2020-09-02T13:07:14Z</time>
      </trkpt>
      <trkpt lat="41.696050" lon="2.266235">
        <ele>500.00</ele>
        <time>2020-09-02T13:07:19Z</time>
      </trkpt>
      <trkpt lat="41.696032" lon="2.266185">
        <ele>500.20</ele>
        <time>2020-09-02T13:07:21Z</time>
      </trkpt>
      <trkpt lat="41.695985" lon="2.266013">
        <ele>501.40</ele>
        <time>2020-09-02T13:07:28Z</time>
      </trkpt>
      <trkpt lat="41.695979" lon="2.265991">
        <ele>501.60</ele>
        <time>2020-09-02T13:07:29Z</time>
      </trkpt>
      <trkpt lat="41.695926" lon="2.265814">
        <ele>502.40</ele>
        <time>2020-09-02T13:07:36Z</time>
      </trkpt>
      <trkpt lat="41.695913" lon="2.265762">
        <ele>502.60</ele>
        <time>2020-09-02T13:07:38Z</time>
      </trkpt>
      <trkpt lat="41.695884" lon="2.265667">
        <ele>503.60</ele>
        <time>2020-09-02T13:07:42Z</time>
      </trkpt>
      <trkpt lat="41.695847" lon="2.265548">
        <ele>504.40</ele>
        <time>2020-09-02T13:07:47Z</time>
      </trkpt>
      <trkpt lat="41.695825" lon="2.265470">
        <ele>504.60</ele>
        <time>2020-09-02T13:07:50Z</time>
      </trkpt>
      <trkpt lat="41.695787" lon="2.265280">
        <ele>505.60</ele>
        <time>2020-09-02T13:07:57Z</time>
      </trkpt>
      <trkpt lat="41.695782" lon="2.265253">
        <ele>506.00</ele>
        <time>2020-09-02T13:07:58Z</time>
      </trkpt>
      <trkpt lat="41.695734" lon="2.265105">
        <ele>506.80</ele>
        <time>2020-09-02T13:08:04Z</time>
      </trkpt>
      <trkpt lat="41.695726" lon="2.265082">
        <ele>507.00</ele>
        <time>2020-09-02T13:08:05Z</time>
      </trkpt>
      <trkpt lat="41.695663" lon="2.264935">
        <ele>508.00</ele>
        <time>2020-09-02T13:08:12Z</time>
      </trkpt>
      <trkpt lat="41.695612" lon="2.264808">
        <ele>508.60</ele>
        <time>2020-09-02T13:08:18Z</time>
      </trkpt>
      <trkpt lat="41.695595" lon="2.264769">
        <ele>509.00</ele>
        <time>2020-09-02T13:08:20Z</time>
      </trkpt>
      <trkpt lat="41.695588" lon="2.264751">
        <ele>509.40</ele>
        <time>2020-09-02T13:08:21Z</time>
      </trkpt>
      <trkpt lat="41.695536" lon="2.264633">
        <ele>510.00</ele>
        <time>2020-09-02T13:08:27Z</time>
      </trkpt>
      <trkpt lat="41.695527" lon="2.264614">
        <ele>510.20</ele>
        <time>2020-09-02T13:08:28Z</time>
      </trkpt>
      <trkpt lat="41.695499" lon="2.264548">
        <ele>511.20</ele>
        <time>2020-09-02T13:08:32Z</time>
      </trkpt>
      <trkpt lat="41.695466" lon="2.264491">
        <ele>511.60</ele>
        <time>2020-09-02T13:08:36Z</time>
      </trkpt>
      <trkpt lat="41.695431" lon="2.264426">
        <ele>512.20</ele>
        <time>2020-09-02T13:08:40Z</time>
      </trkpt>
      <trkpt lat="41.695392" lon="2.264358">
        <ele>512.80</ele>
        <time>2020-09-02T13:08:44Z</time>
      </trkpt>
      <trkpt lat="41.695343" lon="2.264247">
        <ele>513.40</ele>
        <time>2020-09-02T13:08:50Z</time>
      </trkpt>
      <trkpt lat="41.695307" lon="2.264178">
        <ele>514.20</ele>
        <time>2020-09-02T13:08:54Z</time>
      </trkpt>
      <trkpt lat="41.695287" lon="2.264146">
        <ele>514.60</ele>
        <time>2020-09-02T13:08:56Z</time>
      </trkpt>
      <trkpt lat="41.695232" lon="2.264063">
        <ele>515.40</ele>
        <time>2020-09-02T13:09:01Z</time>
      </trkpt>
      <trkpt lat="41.695206" lon="2.264009">
        <ele>515.60</ele>
        <time>2020-09-02T13:09:04Z</time>
      </trkpt>
      <trkpt lat="41.695165" lon="2.263910">
        <ele>516.00</ele>
        <time>2020-09-02T13:09:08Z</time>
      </trkpt>
      <trkpt lat="41.695104" lon="2.263812">
        <ele>516.60</ele>
        <time>2020-09-02T13:09:12Z</time>
      </trkpt>
      <trkpt lat="41.695026" lon="2.263711">
        <ele>517.80</ele>
        <time>2020-09-02T13:09:17Z</time>
      </trkpt>
      <trkpt lat="41.694942" lon="2.263590">
        <ele>519.00</ele>
        <time>2020-09-02T13:09:23Z</time>
      </trkpt>
      <trkpt lat="41.694913" lon="2.263548">
        <ele>519.40</ele>
        <time>2020-09-02T13:09:25Z</time>
      </trkpt>
      <trkpt lat="41.694863" lon="2.263489">
        <ele>520.00</ele>
        <time>2020-09-02T13:09:28Z</time>
      </trkpt>
      <trkpt lat="41.694831" lon="2.263446">
        <ele>520.60</ele>
        <time>2020-09-02T13:09:30Z</time>
      </trkpt>
      <trkpt lat="41.694781" lon="2.263385">
        <ele>521.20</ele>
        <time>2020-09-02T13:09:33Z</time>
      </trkpt>
      <trkpt lat="41.694738" lon="2.263316">
        <ele>521.80</ele>
        <time>2020-09-02T13:09:36Z</time>
      </trkpt>
      <trkpt lat="41.694711" lon="2.263266">
        <ele>522.40</ele>
        <time>2020-09-02T13:09:38Z</time>
      </trkpt>
      <trkpt lat="41.694605" lon="2.263161">
        <ele>523.40</ele>
        <time>2020-09-02T13:09:43Z</time>
      </trkpt>
      <trkpt lat="41.694548" lon="2.263050">
        <ele>524.20</ele>
        <time>2020-09-02T13:09:47Z</time>
      </trkpt>
      <trkpt lat="41.694540" lon="2.263016">
        <ele>524.60</ele>
        <time>2020-09-02T13:09:48Z</time>
      </trkpt>
      <trkpt lat="41.694534" lon="2.262982">
        <ele>524.80</ele>
        <time>2020-09-02T13:09:49Z</time>
      </trkpt>
      <trkpt lat="41.694543" lon="2.262752">
        <ele>525.20</ele>
        <time>2020-09-02T13:09:54Z</time>
      </trkpt>
      <trkpt lat="41.694600" lon="2.262634">
        <ele>524.80</ele>
        <time>2020-09-02T13:09:56Z</time>
      </trkpt>
      <trkpt lat="41.694644" lon="2.262587">
        <ele>524.40</ele>
        <time>2020-09-02T13:09:57Z</time>
      </trkpt>
      <trkpt lat="41.694696" lon="2.262546">
        <ele>523.80</ele>
        <time>2020-09-02T13:09:58Z</time>
      </trkpt>
      <trkpt lat="41.694758" lon="2.262524">
        <ele>523.00</ele>
        <time>2020-09-02T13:09:59Z</time>
      </trkpt>
      <trkpt lat="41.694819" lon="2.262509">
        <ele>522.40</ele>
        <time>2020-09-02T13:10:00Z</time>
      </trkpt>
      <trkpt lat="41.694819" lon="2.262509">
        <ele>522.00</ele>
        <time>2020-09-02T13:10:02Z</time>
      </trkpt>
      <trkpt lat="41.695144" lon="2.262486">
        <ele>522.60</ele>
        <time>2020-09-02T13:10:06Z</time>
      </trkpt>
      <trkpt lat="41.695233" lon="2.262479">
        <ele>523.20</ele>
        <time>2020-09-02T13:10:08Z</time>
      </trkpt>
      <trkpt lat="41.695276" lon="2.262469">
        <ele>523.60</ele>
        <time>2020-09-02T13:10:09Z</time>
      </trkpt>
      <trkpt lat="41.695402" lon="2.262428">
        <ele>524.00</ele>
        <time>2020-09-02T13:10:12Z</time>
      </trkpt>
      <trkpt lat="41.695439" lon="2.262400">
        <ele>524.20</ele>
        <time>2020-09-02T13:10:13Z</time>
      </trkpt>
      <trkpt lat="41.695473" lon="2.262368">
        <ele>524.40</ele>
        <time>2020-09-02T13:10:14Z</time>
      </trkpt>
      <trkpt lat="41.695541" lon="2.262234">
        <ele>525.00</ele>
        <time>2020-09-02T13:10:17Z</time>
      </trkpt>
      <trkpt lat="41.695557" lon="2.262185">
        <ele>525.40</ele>
        <time>2020-09-02T13:10:18Z</time>
      </trkpt>
      <trkpt lat="41.695591" lon="2.262029">
        <ele>526.00</ele>
        <time>2020-09-02T13:10:21Z</time>
      </trkpt>
      <trkpt lat="41.695604" lon="2.261872">
        <ele>526.40</ele>
        <time>2020-09-02T13:10:24Z</time>
      </trkpt>
      <trkpt lat="41.695557" lon="2.261576">
        <ele>527.60</ele>
        <time>2020-09-02T13:10:30Z</time>
      </trkpt>
      <trkpt lat="41.695520" lon="2.261435">
        <ele>527.80</ele>
        <time>2020-09-02T13:10:33Z</time>
      </trkpt>
      <trkpt lat="41.695487" lon="2.261308">
        <ele>528.40</ele>
        <time>2020-09-02T13:10:36Z</time>
      </trkpt>
      <trkpt lat="41.695472" lon="2.261228">
        <ele>529.20</ele>
        <time>2020-09-02T13:10:37Z</time>
      </trkpt>
      <trkpt lat="41.695473" lon="2.261028">
        <ele>530.20</ele>
        <time>2020-09-02T13:10:42Z</time>
      </trkpt>
      <trkpt lat="41.695477" lon="2.260990">
        <ele>530.40</ele>
        <time>2020-09-02T13:10:43Z</time>
      </trkpt>
      <trkpt lat="41.695504" lon="2.260884">
        <ele>531.60</ele>
        <time>2020-09-02T13:10:46Z</time>
      </trkpt>
      <trkpt lat="41.695538" lon="2.260733">
        <ele>532.60</ele>
        <time>2020-09-02T13:10:50Z</time>
      </trkpt>
      <trkpt lat="41.695547" lon="2.260693">
        <ele>532.80</ele>
        <time>2020-09-02T13:10:51Z</time>
      </trkpt>
      <trkpt lat="41.695585" lon="2.260542">
        <ele>533.80</ele>
        <time>2020-09-02T13:10:55Z</time>
      </trkpt>
      <trkpt lat="41.695637" lon="2.260307">
        <ele>534.80</ele>
        <time>2020-09-02T13:11:01Z</time>
      </trkpt>
      <trkpt lat="41.695694" lon="2.260108">
        <ele>535.80</ele>
        <time>2020-09-02T13:11:06Z</time>
      </trkpt>
      <trkpt lat="41.695732" lon="2.259942">
        <ele>536.80</ele>
        <time>2020-09-02T13:11:10Z</time>
      </trkpt>
      <trkpt lat="41.695740" lon="2.259908">
        <ele>537.00</ele>
        <time>2020-09-02T13:11:11Z</time>
      </trkpt>
      <trkpt lat="41.695767" lon="2.259690">
        <ele>537.60</ele>
        <time>2020-09-02T13:11:16Z</time>
      </trkpt>
      <trkpt lat="41.695733" lon="2.259336">
        <ele>538.00</ele>
        <time>2020-09-02T13:11:23Z</time>
      </trkpt>
      <trkpt lat="41.695706" lon="2.259078">
        <ele>538.00</ele>
        <time>2020-09-02T13:11:28Z</time>
      </trkpt>
      <trkpt lat="41.695707" lon="2.258970">
        <ele>538.20</ele>
        <time>2020-09-02T13:11:30Z</time>
      </trkpt>
      <trkpt lat="41.695744" lon="2.258652">
        <ele>539.20</ele>
        <time>2020-09-02T13:11:36Z</time>
      </trkpt>
      <trkpt lat="41.695755" lon="2.258601">
        <ele>539.40</ele>
        <time>2020-09-02T13:11:37Z</time>
      </trkpt>
      <trkpt lat="41.695781" lon="2.258506">
        <ele>539.60</ele>
        <time>2020-09-02T13:11:39Z</time>
      </trkpt>
      <trkpt lat="41.695854" lon="2.258332">
        <ele>540.40</ele>
        <time>2020-09-02T13:11:43Z</time>
      </trkpt>
      <trkpt lat="41.695897" lon="2.258251">
        <ele>540.60</ele>
        <time>2020-09-02T13:11:45Z</time>
      </trkpt>
      <trkpt lat="41.696090" lon="2.257936">
        <ele>541.20</ele>
        <time>2020-09-02T13:11:52Z</time>
      </trkpt>
      <trkpt lat="41.696120" lon="2.257879">
        <ele>541.00</ele>
        <time>2020-09-02T13:11:53Z</time>
      </trkpt>
      <trkpt lat="41.696253" lon="2.257640">
        <ele>541.00</ele>
        <time>2020-09-02T13:11:57Z</time>
      </trkpt>
      <trkpt lat="41.696324" lon="2.257513">
        <ele>541.40</ele>
        <time>2020-09-02T13:11:59Z</time>
      </trkpt>
      <trkpt lat="41.696433" lon="2.257312">
        <ele>542.00</ele>
        <time>2020-09-02T13:12:02Z</time>
      </trkpt>
      <trkpt lat="41.696555" lon="2.257124">
        <ele>542.20</ele>
        <time>2020-09-02T13:12:05Z</time>
      </trkpt>
      <trkpt lat="41.696631" lon="2.257044">
        <ele>542.00</ele>
        <time>2020-09-02T13:12:07Z</time>
      </trkpt>
      <trkpt lat="41.696707" lon="2.256963">
        <ele>542.00</ele>
        <time>2020-09-02T13:12:09Z</time>
      </trkpt>
      <trkpt lat="41.696874" lon="2.256842">
        <ele>541.60</ele>
        <time>2020-09-02T13:12:12Z</time>
      </trkpt>
      <trkpt lat="41.696985" lon="2.256760">
        <ele>541.40</ele>
        <time>2020-09-02T13:12:14Z</time>
      </trkpt>
      <trkpt lat="41.697141" lon="2.256621">
        <ele>540.60</ele>
        <time>2020-09-02T13:12:17Z</time>
      </trkpt>
      <trkpt lat="41.697229" lon="2.256511">
        <ele>540.40</ele>
        <time>2020-09-02T13:12:19Z</time>
      </trkpt>
      <trkpt lat="41.697268" lon="2.256456">
        <ele>540.40</ele>
        <time>2020-09-02T13:12:20Z</time>
      </trkpt>
      <trkpt lat="41.697301" lon="2.256393">
        <ele>540.40</ele>
        <time>2020-09-02T13:12:21Z</time>
      </trkpt>
      <trkpt lat="41.697424" lon="2.256140">
        <ele>540.60</ele>
        <time>2020-09-02T13:12:25Z</time>
      </trkpt>
      <trkpt lat="41.697575" lon="2.255677">
        <ele>540.40</ele>
        <time>2020-09-02T13:12:31Z</time>
      </trkpt>
      <trkpt lat="41.697619" lon="2.255367">
        <ele>540.40</ele>
        <time>2020-09-02T13:12:35Z</time>
      </trkpt>
      <trkpt lat="41.697631" lon="2.255227">
        <ele>540.80</ele>
        <time>2020-09-02T13:12:37Z</time>
      </trkpt>
      <trkpt lat="41.697645" lon="2.254949">
        <ele>540.80</ele>
        <time>2020-09-02T13:12:41Z</time>
      </trkpt>
      <trkpt lat="41.697651" lon="2.254819">
        <ele>541.40</ele>
        <time>2020-09-02T13:12:43Z</time>
      </trkpt>
      <trkpt lat="41.697665" lon="2.254634">
        <ele>542.20</ele>
        <time>2020-09-02T13:12:46Z</time>
      </trkpt>
      <trkpt lat="41.697671" lon="2.254572">
        <ele>542.60</ele>
        <time>2020-09-02T13:12:47Z</time>
      </trkpt>
      <trkpt lat="41.697708" lon="2.254344">
        <ele>543.80</ele>
        <time>2020-09-02T13:12:51Z</time>
      </trkpt>
      <trkpt lat="41.697722" lon="2.254247">
        <ele>544.80</ele>
        <time>2020-09-02T13:12:53Z</time>
      </trkpt>
      <trkpt lat="41.697722" lon="2.254200">
        <ele>545.40</ele>
        <time>2020-09-02T13:12:54Z</time>
      </trkpt>
      <trkpt lat="41.697687" lon="2.254029">
        <ele>546.60</ele>
        <time>2020-09-02T13:12:58Z</time>
      </trkpt>
      <trkpt lat="41.697654" lon="2.253894">
        <ele>547.00</ele>
        <time>2020-09-02T13:13:02Z</time>
      </trkpt>
      <trkpt lat="41.697666" lon="2.253865">
        <ele>547.40</ele>
        <time>2020-09-02T13:13:03Z</time>
      </trkpt>
      <trkpt lat="41.697686" lon="2.253847">
        <ele>547.60</ele>
        <time>2020-09-02T13:13:04Z</time>
      </trkpt>
      <trkpt lat="41.697762" lon="2.253830">
        <ele>548.20</ele>
        <time>2020-09-02T13:13:07Z</time>
      </trkpt>
      <trkpt lat="41.697851" lon="2.253823">
        <ele>548.60</ele>
        <time>2020-09-02T13:13:11Z</time>
      </trkpt>
      <trkpt lat="41.697913" lon="2.253782">
        <ele>549.00</ele>
        <time>2020-09-02T13:13:14Z</time>
      </trkpt>
      <trkpt lat="41.698002" lon="2.253740">
        <ele>549.40</ele>
        <time>2020-09-02T13:13:18Z</time>
      </trkpt>
      <trkpt lat="41.698002" lon="2.253740">
        <ele>549.40</ele>
        <time>2020-09-02T13:13:19Z</time>
      </trkpt>
      <trkpt lat="41.698102" lon="2.253648">
        <ele>549.60</ele>
        <time>2020-09-02T13:13:23Z</time>
      </trkpt>
      <trkpt lat="41.698128" lon="2.253613">
        <ele>550.00</ele>
        <time>2020-09-02T13:13:25Z</time>
      </trkpt>
      <trkpt lat="41.698159" lon="2.253548">
        <ele>550.80</ele>
        <time>2020-09-02T13:13:28Z</time>
      </trkpt>
      <trkpt lat="41.698207" lon="2.253470">
        <ele>551.40</ele>
        <time>2020-09-02T13:13:32Z</time>
      </trkpt>
      <trkpt lat="41.698239" lon="2.253381">
        <ele>551.80</ele>
        <time>2020-09-02T13:13:36Z</time>
      </trkpt>
      <trkpt lat="41.698260" lon="2.253312">
        <ele>552.00</ele>
        <time>2020-09-02T13:13:40Z</time>
      </trkpt>
      <trkpt lat="41.698297" lon="2.253199">
        <ele>552.80</ele>
        <time>2020-09-02T13:13:49Z</time>
      </trkpt>
      <trkpt lat="41.698301" lon="2.253183">
        <ele>553.00</ele>
        <time>2020-09-02T13:13:50Z</time>
      </trkpt>
      <trkpt lat="41.698308" lon="2.253086">
        <ele>554.00</ele>
        <time>2020-09-02T13:13:56Z</time>
      </trkpt>
      <trkpt lat="41.698305" lon="2.253058">
        <ele>554.00</ele>
        <time>2020-09-02T13:13:57Z</time>
      </trkpt>
      <trkpt lat="41.698301" lon="2.252958">
        <ele>554.40</ele>
        <time>2020-09-02T13:14:01Z</time>
      </trkpt>
      <trkpt lat="41.698301" lon="2.252936">
        <ele>554.60</ele>
        <time>2020-09-02T13:14:02Z</time>
      </trkpt>
      <trkpt lat="41.698296" lon="2.252852">
        <ele>555.00</ele>
        <time>2020-09-02T13:14:05Z</time>
      </trkpt>
      <trkpt lat="41.698310" lon="2.252785">
        <ele>555.20</ele>
        <time>2020-09-02T13:14:07Z</time>
      </trkpt>
      <trkpt lat="41.698323" lon="2.252710">
        <ele>555.40</ele>
        <time>2020-09-02T13:14:09Z</time>
      </trkpt>
      <trkpt lat="41.698330" lon="2.252621">
        <ele>556.20</ele>
        <time>2020-09-02T13:14:12Z</time>
      </trkpt>
      <trkpt lat="41.698318" lon="2.252519">
        <ele>557.00</ele>
        <time>2020-09-02T13:14:16Z</time>
      </trkpt>
      <trkpt lat="41.698299" lon="2.252433">
        <ele>557.00</ele>
        <time>2020-09-02T13:14:19Z</time>
      </trkpt>
      <trkpt lat="41.698289" lon="2.252316">
        <ele>556.80</ele>
        <time>2020-09-02T13:14:23Z</time>
      </trkpt>
      <trkpt lat="41.698320" lon="2.252174">
        <ele>557.20</ele>
        <time>2020-09-02T13:14:28Z</time>
      </trkpt>
      <trkpt lat="41.698360" lon="2.252077">
        <ele>558.20</ele>
        <time>2020-09-02T13:14:32Z</time>
      </trkpt>
      <trkpt lat="41.698381" lon="2.252025">
        <ele>558.40</ele>
        <time>2020-09-02T13:14:34Z</time>
      </trkpt>
      <trkpt lat="41.698381" lon="2.252025">
        <ele>558.40</ele>
        <time>2020-09-02T13:14:35Z</time>
      </trkpt>
      <trkpt lat="41.698407" lon="2.251952">
        <ele>558.40</ele>
        <time>2020-09-02T13:14:37Z</time>
      </trkpt>
      <trkpt lat="41.698502" lon="2.251720">
        <ele>559.00</ele>
        <time>2020-09-02T13:14:46Z</time>
      </trkpt>
      <trkpt lat="41.698557" lon="2.251604">
        <ele>559.40</ele>
        <time>2020-09-02T13:14:50Z</time>
      </trkpt>
      <trkpt lat="41.698578" lon="2.251554">
        <ele>560.00</ele>
        <time>2020-09-02T13:14:52Z</time>
      </trkpt>
      <trkpt lat="41.698586" lon="2.251535">
        <ele>560.40</ele>
        <time>2020-09-02T13:14:53Z</time>
      </trkpt>
      <trkpt lat="41.698619" lon="2.251423">
        <ele>561.40</ele>
        <time>2020-09-02T13:14:59Z</time>
      </trkpt>
      <trkpt lat="41.698614" lon="2.251295">
        <ele>562.40</ele>
        <time>2020-09-02T13:15:05Z</time>
      </trkpt>
      <trkpt lat="41.698614" lon="2.251270">
        <ele>562.60</ele>
        <time>2020-09-02T13:15:06Z</time>
      </trkpt>
      <trkpt lat="41.698620" lon="2.251248">
        <ele>562.60</ele>
        <time>2020-09-02T13:15:07Z</time>
      </trkpt>
      <trkpt lat="41.698626" lon="2.251177">
        <ele>562.80</ele>
        <time>2020-09-02T13:15:10Z</time>
      </trkpt>
      <trkpt lat="41.698618" lon="2.251150">
        <ele>563.00</ele>
        <time>2020-09-02T13:15:11Z</time>
      </trkpt>
      <trkpt lat="41.698602" lon="2.251099">
        <ele>563.40</ele>
        <time>2020-09-02T13:15:13Z</time>
      </trkpt>
      <trkpt lat="41.698587" lon="2.251059">
        <ele>563.60</ele>
        <time>2020-09-02T13:15:15Z</time>
      </trkpt>
      <trkpt lat="41.698552" lon="2.250973">
        <ele>564.20</ele>
        <time>2020-09-02T13:15:19Z</time>
      </trkpt>
      <trkpt lat="41.698477" lon="2.250916">
        <ele>564.80</ele>
        <time>2020-09-02T13:15:24Z</time>
      </trkpt>
      <trkpt lat="41.698426" lon="2.250901">
        <ele>565.40</ele>
        <time>2020-09-02T13:15:27Z</time>
      </trkpt>
      <trkpt lat="41.698368" lon="2.250912">
        <ele>565.80</ele>
        <time>2020-09-02T13:15:32Z</time>
      </trkpt>
      <trkpt lat="41.698359" lon="2.250912">
        <ele>566.00</ele>
        <time>2020-09-02T13:15:33Z</time>
      </trkpt>
      <trkpt lat="41.698359" lon="2.250912">
        <ele>566.40</ele>
        <time>2020-09-02T13:15:36Z</time>
      </trkpt>
      <trkpt lat="41.698257" lon="2.250862">
        <ele>566.80</ele>
        <time>2020-09-02T13:15:39Z</time>
      </trkpt>
      <trkpt lat="41.698237" lon="2.250852">
        <ele>566.80</ele>
        <time>2020-09-02T13:15:40Z</time>
      </trkpt>
      <trkpt lat="41.698217" lon="2.250841">
        <ele>567.00</ele>
        <time>2020-09-02T13:15:41Z</time>
      </trkpt>
      <trkpt lat="41.698082" lon="2.250747">
        <ele>568.00</ele>
        <time>2020-09-02T13:15:49Z</time>
      </trkpt>
      <trkpt lat="41.698082" lon="2.250747">
        <ele>568.80</ele>
        <time>2020-09-02T13:15:51Z</time>
      </trkpt>
      <trkpt lat="41.698009" lon="2.250705">
        <ele>569.00</ele>
        <time>2020-09-02T13:15:54Z</time>
      </trkpt>
      <trkpt lat="41.697945" lon="2.250661">
        <ele>569.40</ele>
        <time>2020-09-02T13:15:58Z</time>
      </trkpt>
      <trkpt lat="41.697945" lon="2.250661">
        <ele>570.60</ele>
        <time>2020-09-02T13:16:02Z</time>
      </trkpt>
      <trkpt lat="41.697938" lon="2.250542">
        <ele>570.60</ele>
        <time>2020-09-02T13:16:04Z</time>
      </trkpt>
      <trkpt lat="41.697944" lon="2.250526">
        <ele>570.80</ele>
        <time>2020-09-02T13:16:05Z</time>
      </trkpt>
      <trkpt lat="41.698011" lon="2.250499">
        <ele>571.60</ele>
        <time>2020-09-02T13:16:10Z</time>
      </trkpt>
      <trkpt lat="41.698056" lon="2.250487">
        <ele>572.20</ele>
        <time>2020-09-02T13:16:13Z</time>
      </trkpt>
      <trkpt lat="41.698100" lon="2.250474">
        <ele>573.00</ele>
        <time>2020-09-02T13:16:16Z</time>
      </trkpt>
      <trkpt lat="41.698157" lon="2.250445">
        <ele>574.00</ele>
        <time>2020-09-02T13:16:21Z</time>
      </trkpt>
      <trkpt lat="41.698238" lon="2.250369">
        <ele>574.60</ele>
        <time>2020-09-02T13:16:27Z</time>
      </trkpt>
      <trkpt lat="41.698334" lon="2.250227">
        <ele>575.00</ele>
        <time>2020-09-02T13:16:34Z</time>
      </trkpt>
      <trkpt lat="41.698361" lon="2.250193">
        <ele>575.00</ele>
        <time>2020-09-02T13:16:36Z</time>
      </trkpt>
      <trkpt lat="41.698422" lon="2.250143">
        <ele>576.00</ele>
        <time>2020-09-02T13:16:40Z</time>
      </trkpt>
      <trkpt lat="41.698492" lon="2.250100">
        <ele>577.00</ele>
        <time>2020-09-02T13:16:44Z</time>
      </trkpt>
      <trkpt lat="41.698506" lon="2.250090">
        <ele>577.20</ele>
        <time>2020-09-02T13:16:45Z</time>
      </trkpt>
      <trkpt lat="41.698627" lon="2.249984">
        <ele>578.00</ele>
        <time>2020-09-02T13:16:52Z</time>
      </trkpt>
      <trkpt lat="41.698636" lon="2.249961">
        <ele>578.20</ele>
        <time>2020-09-02T13:16:53Z</time>
      </trkpt>
      <trkpt lat="41.698677" lon="2.249867">
        <ele>579.20</ele>
        <time>2020-09-02T13:16:57Z</time>
      </trkpt>
      <trkpt lat="41.698704" lon="2.249814">
        <ele>579.60</ele>
        <time>2020-09-02T13:17:00Z</time>
      </trkpt>
      <trkpt lat="41.698759" lon="2.249690">
        <ele>580.40</ele>
        <time>2020-09-02T13:17:06Z</time>
      </trkpt>
      <trkpt lat="41.698782" lon="2.249654">
        <ele>580.60</ele>
        <time>2020-09-02T13:17:08Z</time>
      </trkpt>
      <trkpt lat="41.698782" lon="2.249654">
        <ele>581.00</ele>
        <time>2020-09-02T13:17:12Z</time>
      </trkpt>
      <trkpt lat="41.698913" lon="2.249554">
        <ele>581.20</ele>
        <time>2020-09-02T13:17:15Z</time>
      </trkpt>
      <trkpt lat="41.698935" lon="2.249549">
        <ele>581.40</ele>
        <time>2020-09-02T13:17:16Z</time>
      </trkpt>
      <trkpt lat="41.699041" lon="2.249510">
        <ele>582.20</ele>
        <time>2020-09-02T13:17:21Z</time>
      </trkpt>
      <trkpt lat="41.699062" lon="2.249500">
        <ele>582.40</ele>
        <time>2020-09-02T13:17:22Z</time>
      </trkpt>
      <trkpt lat="41.699152" lon="2.249379">
        <ele>583.40</ele>
        <time>2020-09-02T13:17:28Z</time>
      </trkpt>
      <trkpt lat="41.699158" lon="2.249352">
        <ele>583.60</ele>
        <time>2020-09-02T13:17:29Z</time>
      </trkpt>
      <trkpt lat="41.699175" lon="2.249187">
        <ele>584.60</ele>
        <time>2020-09-02T13:17:34Z</time>
      </trkpt>
      <trkpt lat="41.699174" lon="2.249154">
        <ele>584.60</ele>
        <time>2020-09-02T13:17:35Z</time>
      </trkpt>
      <trkpt lat="41.699214" lon="2.248905">
        <ele>585.40</ele>
        <time>2020-09-02T13:17:42Z</time>
      </trkpt>
      <trkpt lat="41.699322" lon="2.248669">
        <ele>585.00</ele>
        <time>2020-09-02T13:17:48Z</time>
      </trkpt>
      <trkpt lat="41.699466" lon="2.248548">
        <ele>585.40</ele>
        <time>2020-09-02T13:17:53Z</time>
      </trkpt>
      <trkpt lat="41.699527" lon="2.248543">
        <ele>585.80</ele>
        <time>2020-09-02T13:17:55Z</time>
      </trkpt>
      <trkpt lat="41.699591" lon="2.248534">
        <ele>586.80</ele>
        <time>2020-09-02T13:17:58Z</time>
      </trkpt>
      <trkpt lat="41.699609" lon="2.248527">
        <ele>587.00</ele>
        <time>2020-09-02T13:17:59Z</time>
      </trkpt>
      <trkpt lat="41.699696" lon="2.248465">
        <ele>587.80</ele>
        <time>2020-09-02T13:18:04Z</time>
      </trkpt>
      <trkpt lat="41.699717" lon="2.248446">
        <ele>588.20</ele>
        <time>2020-09-02T13:18:05Z</time>
      </trkpt>
      <trkpt lat="41.699824" lon="2.248290">
        <ele>588.60</ele>
        <time>2020-09-02T13:18:10Z</time>
      </trkpt>
      <trkpt lat="41.699928" lon="2.247936">
        <ele>587.60</ele>
        <time>2020-09-02T13:18:17Z</time>
      </trkpt>
      <trkpt lat="41.699955" lon="2.247821">
        <ele>587.40</ele>
        <time>2020-09-02T13:18:19Z</time>
      </trkpt>
      <trkpt lat="41.700055" lon="2.247647">
        <ele>587.80</ele>
        <time>2020-09-02T13:18:23Z</time>
      </trkpt>
      <trkpt lat="41.700102" lon="2.247542">
        <ele>588.60</ele>
        <time>2020-09-02T13:18:26Z</time>
      </trkpt>
      <trkpt lat="41.700143" lon="2.247466">
        <ele>589.40</ele>
        <time>2020-09-02T13:18:29Z</time>
      </trkpt>
      <trkpt lat="41.700143" lon="2.247466">
        <ele>590.20</ele>
        <time>2020-09-02T13:18:30Z</time>
      </trkpt>
      <trkpt lat="41.700187" lon="2.247364">
        <ele>590.60</ele>
        <time>2020-09-02T13:18:33Z</time>
      </trkpt>
      <trkpt lat="41.700231" lon="2.247261">
        <ele>591.60</ele>
        <time>2020-09-02T13:18:37Z</time>
      </trkpt>
      <trkpt lat="41.700241" lon="2.247236">
        <ele>592.00</ele>
        <time>2020-09-02T13:18:38Z</time>
      </trkpt>
      <trkpt lat="41.700270" lon="2.247056">
        <ele>593.00</ele>
        <time>2020-09-02T13:18:44Z</time>
      </trkpt>
      <trkpt lat="41.700269" lon="2.247023">
        <ele>593.00</ele>
        <time>2020-09-02T13:18:45Z</time>
      </trkpt>
      <trkpt lat="41.700277" lon="2.246717">
        <ele>593.00</ele>
        <time>2020-09-02T13:18:53Z</time>
      </trkpt>
      <trkpt lat="41.700310" lon="2.246579">
        <ele>593.80</ele>
        <time>2020-09-02T13:18:58Z</time>
      </trkpt>
      <trkpt lat="41.700331" lon="2.246542">
        <ele>594.00</ele>
        <time>2020-09-02T13:19:00Z</time>
      </trkpt>
      <trkpt lat="41.700400" lon="2.246476">
        <ele>595.00</ele>
        <time>2020-09-02T13:19:04Z</time>
      </trkpt>
      <trkpt lat="41.700420" lon="2.246470">
        <ele>595.20</ele>
        <time>2020-09-02T13:19:05Z</time>
      </trkpt>
      <trkpt lat="41.700558" lon="2.246431">
        <ele>596.20</ele>
        <time>2020-09-02T13:19:13Z</time>
      </trkpt>
      <trkpt lat="41.700569" lon="2.246425">
        <ele>596.20</ele>
        <time>2020-09-02T13:19:14Z</time>
      </trkpt>
      <trkpt lat="41.700713" lon="2.246481">
        <ele>596.80</ele>
        <time>2020-09-02T13:19:21Z</time>
      </trkpt>
      <trkpt lat="41.700761" lon="2.246524">
        <ele>597.40</ele>
        <time>2020-09-02T13:19:24Z</time>
      </trkpt>
      <trkpt lat="41.700863" lon="2.246616">
        <ele>598.40</ele>
        <time>2020-09-02T13:19:29Z</time>
      </trkpt>
      <trkpt lat="41.700956" lon="2.246699">
        <ele>599.40</ele>
        <time>2020-09-02T13:19:34Z</time>
      </trkpt>
      <trkpt lat="41.700976" lon="2.246717">
        <ele>599.60</ele>
        <time>2020-09-02T13:19:35Z</time>
      </trkpt>
      <trkpt lat="41.701092" lon="2.246804">
        <ele>599.80</ele>
        <time>2020-09-02T13:19:40Z</time>
      </trkpt>
      <trkpt lat="41.701299" lon="2.246869">
        <ele>600.20</ele>
        <time>2020-09-02T13:19:47Z</time>
      </trkpt>
      <trkpt lat="41.701396" lon="2.246900">
        <ele>600.60</ele>
        <time>2020-09-02T13:19:50Z</time>
      </trkpt>
      <trkpt lat="41.701489" lon="2.246953">
        <ele>600.60</ele>
        <time>2020-09-02T13:19:53Z</time>
      </trkpt>
      <trkpt lat="41.701601" lon="2.247042">
        <ele>601.60</ele>
        <time>2020-09-02T13:19:59Z</time>
      </trkpt>
      <trkpt lat="41.701664" lon="2.247100">
        <ele>602.80</ele>
        <time>2020-09-02T13:20:04Z</time>
      </trkpt>
      <trkpt lat="41.701710" lon="2.247137">
        <ele>603.80</ele>
        <time>2020-09-02T13:20:08Z</time>
      </trkpt>
      <trkpt lat="41.701741" lon="2.247161">
        <ele>604.00</ele>
        <time>2020-09-02T13:20:10Z</time>
      </trkpt>
      <trkpt lat="41.701784" lon="2.247222">
        <ele>605.00</ele>
        <time>2020-09-02T13:20:15Z</time>
      </trkpt>
      <trkpt lat="41.701793" lon="2.247242">
        <ele>605.20</ele>
        <time>2020-09-02T13:20:16Z</time>
      </trkpt>
      <trkpt lat="41.701874" lon="2.247340">
        <ele>605.60</ele>
        <time>2020-09-02T13:20:22Z</time>
      </trkpt>
      <trkpt lat="41.701918" lon="2.247407">
        <ele>606.00</ele>
        <time>2020-09-02T13:20:25Z</time>
      </trkpt>
      <trkpt lat="41.701971" lon="2.247482">
        <ele>606.20</ele>
        <time>2020-09-02T13:20:28Z</time>
      </trkpt>
      <trkpt lat="41.702014" lon="2.247524">
        <ele>606.40</ele>
        <time>2020-09-02T13:20:30Z</time>
      </trkpt>
      <trkpt lat="41.702154" lon="2.247596">
        <ele>607.20</ele>
        <time>2020-09-02T13:20:36Z</time>
      </trkpt>
      <trkpt lat="41.702201" lon="2.247615">
        <ele>608.20</ele>
        <time>2020-09-02T13:20:38Z</time>
      </trkpt>
      <trkpt lat="41.702225" lon="2.247619">
        <ele>608.80</ele>
        <time>2020-09-02T13:20:39Z</time>
      </trkpt>
      <trkpt lat="41.702392" lon="2.247651">
        <ele>609.00</ele>
        <time>2020-09-02T13:20:45Z</time>
      </trkpt>
      <trkpt lat="41.702600" lon="2.247663">
        <ele>608.20</ele>
        <time>2020-09-02T13:20:50Z</time>
      </trkpt>
      <trkpt lat="41.702739" lon="2.247657">
        <ele>607.60</ele>
        <time>2020-09-02T13:20:53Z</time>
      </trkpt>
      <trkpt lat="41.702889" lon="2.247634">
        <ele>607.00</ele>
        <time>2020-09-02T13:20:56Z</time>
      </trkpt>
      <trkpt lat="41.702939" lon="2.247616">
        <ele>606.60</ele>
        <time>2020-09-02T13:20:57Z</time>
      </trkpt>
      <trkpt lat="41.703122" lon="2.247531">
        <ele>606.00</ele>
        <time>2020-09-02T13:21:01Z</time>
      </trkpt>
      <trkpt lat="41.703178" lon="2.247527">
        <ele>606.20</ele>
        <time>2020-09-02T13:21:02Z</time>
      </trkpt>
      <trkpt lat="41.703294" lon="2.247543">
        <ele>606.20</ele>
        <time>2020-09-02T13:21:04Z</time>
      </trkpt>
      <trkpt lat="41.703442" lon="2.247588">
        <ele>606.20</ele>
        <time>2020-09-02T13:21:07Z</time>
      </trkpt>
      <trkpt lat="41.703442" lon="2.247588">
        <ele>607.40</ele>
        <time>2020-09-02T13:21:08Z</time>
      </trkpt>
      <trkpt lat="41.703553" lon="2.247594">
        <ele>607.40</ele>
        <time>2020-09-02T13:21:10Z</time>
      </trkpt>
      <trkpt lat="41.703578" lon="2.247594">
        <ele>608.20</ele>
        <time>2020-09-02T13:21:11Z</time>
      </trkpt>
      <trkpt lat="41.703621" lon="2.247603">
        <ele>609.60</ele>
        <time>2020-09-02T13:21:13Z</time>
      </trkpt>
      <trkpt lat="41.703651" lon="2.247612">
        <ele>610.20</ele>
        <time>2020-09-02T13:21:15Z</time>
      </trkpt>
      <trkpt lat="41.703682" lon="2.247623">
        <ele>610.80</ele>
        <time>2020-09-02T13:21:18Z</time>
      </trkpt>
      <trkpt lat="41.703735" lon="2.247643">
        <ele>611.60</ele>
        <time>2020-09-02T13:21:22Z</time>
      </trkpt>
      <trkpt lat="41.703762" lon="2.247638">
        <ele>611.80</ele>
        <time>2020-09-02T13:21:24Z</time>
      </trkpt>
      <trkpt lat="41.703773" lon="2.247625">
        <ele>612.00</ele>
        <time>2020-09-02T13:21:25Z</time>
      </trkpt>
      <trkpt lat="41.703780" lon="2.247612">
        <ele>612.20</ele>
        <time>2020-09-02T13:21:26Z</time>
      </trkpt>
      <trkpt lat="41.703778" lon="2.247580">
        <ele>612.40</ele>
        <time>2020-09-02T13:21:28Z</time>
      </trkpt>
      <trkpt lat="41.703763" lon="2.247554">
        <ele>612.80</ele>
        <time>2020-09-02T13:21:30Z</time>
      </trkpt>
      <trkpt lat="41.703697" lon="2.247523">
        <ele>613.80</ele>
        <time>2020-09-02T13:21:34Z</time>
      </trkpt>
      <trkpt lat="41.703580" lon="2.247508">
        <ele>614.80</ele>
        <time>2020-09-02T13:21:40Z</time>
      </trkpt>
      <trkpt lat="41.703561" lon="2.247496">
        <ele>615.00</ele>
        <time>2020-09-02T13:21:41Z</time>
      </trkpt>
      <trkpt lat="41.703438" lon="2.247370">
        <ele>615.00</ele>
        <time>2020-09-02T13:21:48Z</time>
      </trkpt>
      <trkpt lat="41.703388" lon="2.247277">
        <ele>615.60</ele>
        <time>2020-09-02T13:21:52Z</time>
      </trkpt>
      <trkpt lat="41.703353" lon="2.247246">
        <ele>616.00</ele>
        <time>2020-09-02T13:21:54Z</time>
      </trkpt>
      <trkpt lat="41.703267" lon="2.247222">
        <ele>617.40</ele>
        <time>2020-09-02T13:21:59Z</time>
      </trkpt>
      <trkpt lat="41.703255" lon="2.247219">
        <ele>617.60</ele>
        <time>2020-09-02T13:22:00Z</time>
      </trkpt>
      <trkpt lat="41.703162" lon="2.247203">
        <ele>618.40</ele>
        <time>2020-09-02T13:22:07Z</time>
      </trkpt>
      <trkpt lat="41.703107" lon="2.247162">
        <ele>619.40</ele>
        <time>2020-09-02T13:22:12Z</time>
      </trkpt>
      <trkpt lat="41.703063" lon="2.247131">
        <ele>620.00</ele>
        <time>2020-09-02T13:22:16Z</time>
      </trkpt>
      <trkpt lat="41.703017" lon="2.247126">
        <ele>620.40</ele>
        <time>2020-09-02T13:22:19Z</time>
      </trkpt>
      <trkpt lat="41.702957" lon="2.247150">
        <ele>621.20</ele>
        <time>2020-09-02T13:22:23Z</time>
      </trkpt>
      <trkpt lat="41.702890" lon="2.247206">
        <ele>621.40</ele>
        <time>2020-09-02T13:22:27Z</time>
      </trkpt>
      <trkpt lat="41.702836" lon="2.247232">
        <ele>621.80</ele>
        <time>2020-09-02T13:22:30Z</time>
      </trkpt>
      <trkpt lat="41.702745" lon="2.247241">
        <ele>622.60</ele>
        <time>2020-09-02T13:22:35Z</time>
      </trkpt>
      <trkpt lat="41.702710" lon="2.247243">
        <ele>623.00</ele>
        <time>2020-09-02T13:22:37Z</time>
      </trkpt>
      <trkpt lat="41.702634" lon="2.247228">
        <ele>623.60</ele>
        <time>2020-09-02T13:22:41Z</time>
      </trkpt>
      <trkpt lat="41.702586" lon="2.247199">
        <ele>624.00</ele>
        <time>2020-09-02T13:22:44Z</time>
      </trkpt>
      <trkpt lat="41.702506" lon="2.247074">
        <ele>624.20</ele>
        <time>2020-09-02T13:22:51Z</time>
      </trkpt>
      <trkpt lat="41.702479" lon="2.247045">
        <ele>624.60</ele>
        <time>2020-09-02T13:22:53Z</time>
      </trkpt>
      <trkpt lat="41.702423" lon="2.246950">
        <ele>625.20</ele>
        <time>2020-09-02T13:22:58Z</time>
      </trkpt>
      <trkpt lat="41.702402" lon="2.246874">
        <ele>625.80</ele>
        <time>2020-09-02T13:23:01Z</time>
      </trkpt>
      <trkpt lat="41.702376" lon="2.246753">
        <ele>626.80</ele>
        <time>2020-09-02T13:23:06Z</time>
      </trkpt>
      <trkpt lat="41.702368" lon="2.246733">
        <ele>627.00</ele>
        <time>2020-09-02T13:23:07Z</time>
      </trkpt>
      <trkpt lat="41.702329" lon="2.246658">
        <ele>627.60</ele>
        <time>2020-09-02T13:23:11Z</time>
      </trkpt>
      <trkpt lat="41.702310" lon="2.246632">
        <ele>628.00</ele>
        <time>2020-09-02T13:23:13Z</time>
      </trkpt>
      <trkpt lat="41.702302" lon="2.246617">
        <ele>628.20</ele>
        <time>2020-09-02T13:23:14Z</time>
      </trkpt>
      <trkpt lat="41.702240" lon="2.246535">
        <ele>629.20</ele>
        <time>2020-09-02T13:23:21Z</time>
      </trkpt>
      <trkpt lat="41.702220" lon="2.246509">
        <ele>630.00</ele>
        <time>2020-09-02T13:23:23Z</time>
      </trkpt>
      <trkpt lat="41.702206" lon="2.246504">
        <ele>630.40</ele>
        <time>2020-09-02T13:23:24Z</time>
      </trkpt>
      <trkpt lat="41.702122" lon="2.246466">
        <ele>631.20</ele>
        <time>2020-09-02T13:23:29Z</time>
      </trkpt>
      <trkpt lat="41.702086" lon="2.246465">
        <ele>631.40</ele>
        <time>2020-09-02T13:23:31Z</time>
      </trkpt>
      <trkpt lat="41.701983" lon="2.246408">
        <ele>632.00</ele>
        <time>2020-09-02T13:23:37Z</time>
      </trkpt>
      <trkpt lat="41.701983" lon="2.246408">
        <ele>632.20</ele>
        <time>2020-09-02T13:23:38Z</time>
      </trkpt>
      <trkpt lat="41.701931" lon="2.246322">
        <ele>632.40</ele>
        <time>2020-09-02T13:23:41Z</time>
      </trkpt>
      <trkpt lat="41.701931" lon="2.246322">
        <ele>632.60</ele>
        <time>2020-09-02T13:23:43Z</time>
      </trkpt>
      <trkpt lat="41.701893" lon="2.246211">
        <ele>632.80</ele>
        <time>2020-09-02T13:23:45Z</time>
      </trkpt>
      <trkpt lat="41.701838" lon="2.246044">
        <ele>633.80</ele>
        <time>2020-09-02T13:23:52Z</time>
      </trkpt>
      <trkpt lat="41.701830" lon="2.246024">
        <ele>634.40</ele>
        <time>2020-09-02T13:23:53Z</time>
      </trkpt>
      <trkpt lat="41.701810" lon="2.245985">
        <ele>634.80</ele>
        <time>2020-09-02T13:23:55Z</time>
      </trkpt>
      <trkpt lat="41.701746" lon="2.245945">
        <ele>635.20</ele>
        <time>2020-09-02T13:23:59Z</time>
      </trkpt>
      <trkpt lat="41.701635" lon="2.245975">
        <ele>635.60</ele>
        <time>2020-09-02T13:24:05Z</time>
      </trkpt>
      <trkpt lat="41.701623" lon="2.245982">
        <ele>635.80</ele>
        <time>2020-09-02T13:24:06Z</time>
      </trkpt>
      <trkpt lat="41.701608" lon="2.245983">
        <ele>636.00</ele>
        <time>2020-09-02T13:24:07Z</time>
      </trkpt>
      <trkpt lat="41.701547" lon="2.245961">
        <ele>637.00</ele>
        <time>2020-09-02T13:24:11Z</time>
      </trkpt>
      <trkpt lat="41.701536" lon="2.245949">
        <ele>637.20</ele>
        <time>2020-09-02T13:24:12Z</time>
      </trkpt>
      <trkpt lat="41.701524" lon="2.245895">
        <ele>637.60</ele>
        <time>2020-09-02T13:24:15Z</time>
      </trkpt>
      <trkpt lat="41.701539" lon="2.245859">
        <ele>637.80</ele>
        <time>2020-09-02T13:24:17Z</time>
      </trkpt>
      <trkpt lat="41.701552" lon="2.245850">
        <ele>637.80</ele>
        <time>2020-09-02T13:24:18Z</time>
      </trkpt>
      <trkpt lat="41.701590" lon="2.245829">
        <ele>638.20</ele>
        <time>2020-09-02T13:24:21Z</time>
      </trkpt>
      <trkpt lat="41.701617" lon="2.245816">
        <ele>638.40</ele>
        <time>2020-09-02T13:24:23Z</time>
      </trkpt>
      <trkpt lat="41.701655" lon="2.245805">
        <ele>639.40</ele>
        <time>2020-09-02T13:24:26Z</time>
      </trkpt>
      <trkpt lat="41.701697" lon="2.245789">
        <ele>640.00</ele>
        <time>2020-09-02T13:24:30Z</time>
      </trkpt>
      <trkpt lat="41.701748" lon="2.245773">
        <ele>640.60</ele>
        <time>2020-09-02T13:24:34Z</time>
      </trkpt>
      <trkpt lat="41.701827" lon="2.245738">
        <ele>641.60</ele>
        <time>2020-09-02T13:24:40Z</time>
      </trkpt>
      <trkpt lat="41.701845" lon="2.245731">
        <ele>641.60</ele>
        <time>2020-09-02T13:24:41Z</time>
      </trkpt>
      <trkpt lat="41.701943" lon="2.245728">
        <ele>642.20</ele>
        <time>2020-09-02T13:24:46Z</time>
      </trkpt>
      <trkpt lat="41.701976" lon="2.245735">
        <ele>642.80</ele>
        <time>2020-09-02T13:24:48Z</time>
      </trkpt>
      <trkpt lat="41.702027" lon="2.245759">
        <ele>643.80</ele>
        <time>2020-09-02T13:24:52Z</time>
      </trkpt>
      <trkpt lat="41.702042" lon="2.245776">
        <ele>644.00</ele>
        <time>2020-09-02T13:24:54Z</time>
      </trkpt>
      <trkpt lat="41.702098" lon="2.245824">
        <ele>644.80</ele>
        <time>2020-09-02T13:25:00Z</time>
      </trkpt>
      <trkpt lat="41.702105" lon="2.245836">
        <ele>645.00</ele>
        <time>2020-09-02T13:25:01Z</time>
      </trkpt>
      <trkpt lat="41.702160" lon="2.245939">
        <ele>646.00</ele>
        <time>2020-09-02T13:25:07Z</time>
      </trkpt>
      <trkpt lat="41.702171" lon="2.245957">
        <ele>646.20</ele>
        <time>2020-09-02T13:25:08Z</time>
      </trkpt>
      <trkpt lat="41.702224" lon="2.245999">
        <ele>647.00</ele>
        <time>2020-09-02T13:25:12Z</time>
      </trkpt>
      <trkpt lat="41.702239" lon="2.246006">
        <ele>647.20</ele>
        <time>2020-09-02T13:25:13Z</time>
      </trkpt>
      <trkpt lat="41.702297" lon="2.246026">
        <ele>647.40</ele>
        <time>2020-09-02T13:25:17Z</time>
      </trkpt>
      <trkpt lat="41.702429" lon="2.246052">
        <ele>648.00</ele>
        <time>2020-09-02T13:25:26Z</time>
      </trkpt>
      <trkpt lat="41.702443" lon="2.246059">
        <ele>648.20</ele>
        <time>2020-09-02T13:25:27Z</time>
      </trkpt>
      <trkpt lat="41.702490" lon="2.246089">
        <ele>648.60</ele>
        <time>2020-09-02T13:25:31Z</time>
      </trkpt>
      <trkpt lat="41.702546" lon="2.246119">
        <ele>649.20</ele>
        <time>2020-09-02T13:25:35Z</time>
      </trkpt>
      <trkpt lat="41.702557" lon="2.246127">
        <ele>649.40</ele>
        <time>2020-09-02T13:25:36Z</time>
      </trkpt>
      <trkpt lat="41.702557" lon="2.246127">
        <ele>650.40</ele>
        <time>2020-09-02T13:25:42Z</time>
      </trkpt>
      <trkpt lat="41.702642" lon="2.246216">
        <ele>650.40</ele>
        <time>2020-09-02T13:25:43Z</time>
      </trkpt>
      <trkpt lat="41.702734" lon="2.246271">
        <ele>651.40</ele>
        <time>2020-09-02T13:25:50Z</time>
      </trkpt>
      <trkpt lat="41.702792" lon="2.246318">
        <ele>652.40</ele>
        <time>2020-09-02T13:25:55Z</time>
      </trkpt>
      <trkpt lat="41.702858" lon="2.246337">
        <ele>653.20</ele>
        <time>2020-09-02T13:25:59Z</time>
      </trkpt>
      <trkpt lat="41.702892" lon="2.246338">
        <ele>653.60</ele>
        <time>2020-09-02T13:26:01Z</time>
      </trkpt>
      <trkpt lat="41.702943" lon="2.246334">
        <ele>654.60</ele>
        <time>2020-09-02T13:26:05Z</time>
      </trkpt>
      <trkpt lat="41.702952" lon="2.246329">
        <ele>654.80</ele>
        <time>2020-09-02T13:26:06Z</time>
      </trkpt>
      <trkpt lat="41.702982" lon="2.246283">
        <ele>655.60</ele>
        <time>2020-09-02T13:26:10Z</time>
      </trkpt>
      <trkpt lat="41.703000" lon="2.246253">
        <ele>656.20</ele>
        <time>2020-09-02T13:26:12Z</time>
      </trkpt>
      <trkpt lat="41.703009" lon="2.246220">
        <ele>656.60</ele>
        <time>2020-09-02T13:26:14Z</time>
      </trkpt>
      <trkpt lat="41.702993" lon="2.246183">
        <ele>656.80</ele>
        <time>2020-09-02T13:26:16Z</time>
      </trkpt>
      <trkpt lat="41.702982" lon="2.246163">
        <ele>656.80</ele>
        <time>2020-09-02T13:26:17Z</time>
      </trkpt>
      <trkpt lat="41.702922" lon="2.246003">
        <ele>657.80</ele>
        <time>2020-09-02T13:26:24Z</time>
      </trkpt>
      <trkpt lat="41.702912" lon="2.245980">
        <ele>657.80</ele>
        <time>2020-09-02T13:26:25Z</time>
      </trkpt>
      <trkpt lat="41.702842" lon="2.245805">
        <ele>659.00</ele>
        <time>2020-09-02T13:26:32Z</time>
      </trkpt>
      <trkpt lat="41.702834" lon="2.245773">
        <ele>659.20</ele>
        <time>2020-09-02T13:26:33Z</time>
      </trkpt>
      <trkpt lat="41.702805" lon="2.245624">
        <ele>660.00</ele>
        <time>2020-09-02T13:26:38Z</time>
      </trkpt>
      <trkpt lat="41.702799" lon="2.245595">
        <ele>660.40</ele>
        <time>2020-09-02T13:26:39Z</time>
      </trkpt>
      <trkpt lat="41.702815" lon="2.245509">
        <ele>661.00</ele>
        <time>2020-09-02T13:26:44Z</time>
      </trkpt>
      <trkpt lat="41.702820" lon="2.245492">
        <ele>661.60</ele>
        <time>2020-09-02T13:26:47Z</time>
      </trkpt>
      <trkpt lat="41.702795" lon="2.245449">
        <ele>662.20</ele>
        <time>2020-09-02T13:26:51Z</time>
      </trkpt>
      <trkpt lat="41.702782" lon="2.245390">
        <ele>662.20</ele>
        <time>2020-09-02T13:26:54Z</time>
      </trkpt>
      <trkpt lat="41.702812" lon="2.245357">
        <ele>662.00</ele>
        <time>2020-09-02T13:26:56Z</time>
      </trkpt>
      <trkpt lat="41.702885" lon="2.245392">
        <ele>662.60</ele>
        <time>2020-09-02T13:27:01Z</time>
      </trkpt>
      <trkpt lat="41.702958" lon="2.245427">
        <ele>662.60</ele>
        <time>2020-09-02T13:27:02Z</time>
      </trkpt>
      <trkpt lat="41.703121" lon="2.245549">
        <ele>663.60</ele>
        <time>2020-09-02T13:27:10Z</time>
      </trkpt>
      <trkpt lat="41.703142" lon="2.245563">
        <ele>663.60</ele>
        <time>2020-09-02T13:27:11Z</time>
      </trkpt>
      <trkpt lat="41.703162" lon="2.245577">
        <ele>663.80</ele>
        <time>2020-09-02T13:27:12Z</time>
      </trkpt>
      <trkpt lat="41.703257" lon="2.245632">
        <ele>664.80</ele>
        <time>2020-09-02T13:27:17Z</time>
      </trkpt>
      <trkpt lat="41.703315" lon="2.245662">
        <ele>665.60</ele>
        <time>2020-09-02T13:27:20Z</time>
      </trkpt>
      <trkpt lat="41.703334" lon="2.245676">
        <ele>665.80</ele>
        <time>2020-09-02T13:27:21Z</time>
      </trkpt>
      <trkpt lat="41.703452" lon="2.245769">
        <ele>667.00</ele>
        <time>2020-09-02T13:27:27Z</time>
      </trkpt>
      <trkpt lat="41.703473" lon="2.245782">
        <ele>667.20</ele>
        <time>2020-09-02T13:27:28Z</time>
      </trkpt>
      <trkpt lat="41.703538" lon="2.245821">
        <ele>668.20</ele>
        <time>2020-09-02T13:27:31Z</time>
      </trkpt>
      <trkpt lat="41.703664" lon="2.245913">
        <ele>669.00</ele>
        <time>2020-09-02T13:27:37Z</time>
      </trkpt>
      <trkpt lat="41.703684" lon="2.245928">
        <ele>669.20</ele>
        <time>2020-09-02T13:27:38Z</time>
      </trkpt>
      <trkpt lat="41.703845" lon="2.246014">
        <ele>670.40</ele>
        <time>2020-09-02T13:27:45Z</time>
      </trkpt>
      <trkpt lat="41.703949" lon="2.246057">
        <ele>671.40</ele>
        <time>2020-09-02T13:27:50Z</time>
      </trkpt>
      <trkpt lat="41.703986" lon="2.246076">
        <ele>671.80</ele>
        <time>2020-09-02T13:27:52Z</time>
      </trkpt>
      <trkpt lat="41.704038" lon="2.246110">
        <ele>672.60</ele>
        <time>2020-09-02T13:27:55Z</time>
      </trkpt>
      <trkpt lat="41.704103" lon="2.246161">
        <ele>673.40</ele>
        <time>2020-09-02T13:27:59Z</time>
      </trkpt>
      <trkpt lat="41.704132" lon="2.246186">
        <ele>673.60</ele>
        <time>2020-09-02T13:28:01Z</time>
      </trkpt>
      <trkpt lat="41.704229" lon="2.246251">
        <ele>675.00</ele>
        <time>2020-09-02T13:28:07Z</time>
      </trkpt>
      <trkpt lat="41.704318" lon="2.246307">
        <ele>676.00</ele>
        <time>2020-09-02T13:28:12Z</time>
      </trkpt>
      <trkpt lat="41.704388" lon="2.246356">
        <ele>676.60</ele>
        <time>2020-09-02T13:28:16Z</time>
      </trkpt>
      <trkpt lat="41.704464" lon="2.246412">
        <ele>677.00</ele>
        <time>2020-09-02T13:28:20Z</time>
      </trkpt>
      <trkpt lat="41.704482" lon="2.246425">
        <ele>677.00</ele>
        <time>2020-09-02T13:28:21Z</time>
      </trkpt>
      <trkpt lat="41.704482" lon="2.246425">
        <ele>677.20</ele>
        <time>2020-09-02T13:28:22Z</time>
      </trkpt>
      <trkpt lat="41.704569" lon="2.246478">
        <ele>677.80</ele>
        <time>2020-09-02T13:28:26Z</time>
      </trkpt>
      <trkpt lat="41.704670" lon="2.246561">
        <ele>678.40</ele>
        <time>2020-09-02T13:28:32Z</time>
      </trkpt>
      <trkpt lat="41.704702" lon="2.246583">
        <ele>678.80</ele>
        <time>2020-09-02T13:28:34Z</time>
      </trkpt>
      <trkpt lat="41.704751" lon="2.246619">
        <ele>679.60</ele>
        <time>2020-09-02T13:28:37Z</time>
      </trkpt>
      <trkpt lat="41.704845" lon="2.246690">
        <ele>680.60</ele>
        <time>2020-09-02T13:28:43Z</time>
      </trkpt>
      <trkpt lat="41.704952" lon="2.246788">
        <ele>681.80</ele>
        <time>2020-09-02T13:28:49Z</time>
      </trkpt>
      <trkpt lat="41.704973" lon="2.246804">
        <ele>682.40</ele>
        <time>2020-09-02T13:28:50Z</time>
      </trkpt>
      <trkpt lat="41.705011" lon="2.246845">
        <ele>683.20</ele>
        <time>2020-09-02T13:28:52Z</time>
      </trkpt>
      <trkpt lat="41.705075" lon="2.246963">
        <ele>684.20</ele>
        <time>2020-09-02T13:28:56Z</time>
      </trkpt>
      <trkpt lat="41.705093" lon="2.246993">
        <ele>684.60</ele>
        <time>2020-09-02T13:28:57Z</time>
      </trkpt>
      <trkpt lat="41.705132" lon="2.247042">
        <ele>685.40</ele>
        <time>2020-09-02T13:28:59Z</time>
      </trkpt>
      <trkpt lat="41.705233" lon="2.247130">
        <ele>686.40</ele>
        <time>2020-09-02T13:29:03Z</time>
      </trkpt>
      <trkpt lat="41.705262" lon="2.247142">
        <ele>686.60</ele>
        <time>2020-09-02T13:29:04Z</time>
      </trkpt>
      <trkpt lat="41.705343" lon="2.247180">
        <ele>687.40</ele>
        <time>2020-09-02T13:29:07Z</time>
      </trkpt>
      <trkpt lat="41.705369" lon="2.247189">
        <ele>687.60</ele>
        <time>2020-09-02T13:29:08Z</time>
      </trkpt>
      <trkpt lat="41.705449" lon="2.247208">
        <ele>688.40</ele>
        <time>2020-09-02T13:29:11Z</time>
      </trkpt>
      <trkpt lat="41.705504" lon="2.247221">
        <ele>688.80</ele>
        <time>2020-09-02T13:29:13Z</time>
      </trkpt>
      <trkpt lat="41.705640" lon="2.247286">
        <ele>689.40</ele>
        <time>2020-09-02T13:29:18Z</time>
      </trkpt>
      <trkpt lat="41.705778" lon="2.247471">
        <ele>689.80</ele>
        <time>2020-09-02T13:29:24Z</time>
      </trkpt>
      <trkpt lat="41.705815" lon="2.247550">
        <ele>689.80</ele>
        <time>2020-09-02T13:29:26Z</time>
      </trkpt>
      <trkpt lat="41.705917" lon="2.247754">
        <ele>689.80</ele>
        <time>2020-09-02T13:29:31Z</time>
      </trkpt>
      <trkpt lat="41.706029" lon="2.247847">
        <ele>690.40</ele>
        <time>2020-09-02T13:29:35Z</time>
      </trkpt>
      <trkpt lat="41.706109" lon="2.247851">
        <ele>690.80</ele>
        <time>2020-09-02T13:29:37Z</time>
      </trkpt>
      <trkpt lat="41.706308" lon="2.247832">
        <ele>691.00</ele>
        <time>2020-09-02T13:29:42Z</time>
      </trkpt>
      <trkpt lat="41.706478" lon="2.247719">
        <ele>690.60</ele>
        <time>2020-09-02T13:29:47Z</time>
      </trkpt>
      <trkpt lat="41.706688" lon="2.247539">
        <ele>691.40</ele>
        <time>2020-09-02T13:29:54Z</time>
      </trkpt>
      <trkpt lat="41.706756" lon="2.247472">
        <ele>692.00</ele>
        <time>2020-09-02T13:29:57Z</time>
      </trkpt>
      <trkpt lat="41.706789" lon="2.247425">
        <ele>692.40</ele>
        <time>2020-09-02T13:29:59Z</time>
      </trkpt>
      <trkpt lat="41.706816" lon="2.247394">
        <ele>692.80</ele>
        <time>2020-09-02T13:30:01Z</time>
      </trkpt>
      <trkpt lat="41.706829" lon="2.247383">
        <ele>693.20</ele>
        <time>2020-09-02T13:30:02Z</time>
      </trkpt>
      <trkpt lat="41.706893" lon="2.247312">
        <ele>694.40</ele>
        <time>2020-09-02T13:30:07Z</time>
      </trkpt>
      <trkpt lat="41.706911" lon="2.247302">
        <ele>694.80</ele>
        <time>2020-09-02T13:30:08Z</time>
      </trkpt>
      <trkpt lat="41.706946" lon="2.247282">
        <ele>695.60</ele>
        <time>2020-09-02T13:30:10Z</time>
      </trkpt>
      <trkpt lat="41.706977" lon="2.247224">
        <ele>696.20</ele>
        <time>2020-09-02T13:30:13Z</time>
      </trkpt>
      <trkpt lat="41.706957" lon="2.247088">
        <ele>696.80</ele>
        <time>2020-09-02T13:30:17Z</time>
      </trkpt>
      <trkpt lat="41.706945" lon="2.247054">
        <ele>696.80</ele>
        <time>2020-09-02T13:30:18Z</time>
      </trkpt>
      <trkpt lat="41.706880" lon="2.246892">
        <ele>697.80</ele>
        <time>2020-09-02T13:30:23Z</time>
      </trkpt>
      <trkpt lat="41.706832" lon="2.246789">
        <ele>698.20</ele>
        <time>2020-09-02T13:30:26Z</time>
      </trkpt>
      <trkpt lat="41.706738" lon="2.246626">
        <ele>698.80</ele>
        <time>2020-09-02T13:30:32Z</time>
      </trkpt>
      <trkpt lat="41.706701" lon="2.246584">
        <ele>699.20</ele>
        <time>2020-09-02T13:30:34Z</time>
      </trkpt>
      <trkpt lat="41.706632" lon="2.246510">
        <ele>699.80</ele>
        <time>2020-09-02T13:30:38Z</time>
      </trkpt>
      <trkpt lat="41.706581" lon="2.246438">
        <ele>701.00</ele>
        <time>2020-09-02T13:30:42Z</time>
      </trkpt>
      <trkpt lat="41.706525" lon="2.246349">
        <ele>702.00</ele>
        <time>2020-09-02T13:30:47Z</time>
      </trkpt>
      <trkpt lat="41.706498" lon="2.246278">
        <ele>702.80</ele>
        <time>2020-09-02T13:30:51Z</time>
      </trkpt>
      <trkpt lat="41.706494" lon="2.246240">
        <ele>703.20</ele>
        <time>2020-09-02T13:30:53Z</time>
      </trkpt>
      <trkpt lat="41.706494" lon="2.246240">
        <ele>704.00</ele>
        <time>2020-09-02T13:30:57Z</time>
      </trkpt>
      <trkpt lat="41.706478" lon="2.246133">
        <ele>704.00</ele>
        <time>2020-09-02T13:30:58Z</time>
      </trkpt>
      <trkpt lat="41.706466" lon="2.246094">
        <ele>704.20</ele>
        <time>2020-09-02T13:31:00Z</time>
      </trkpt>
      <trkpt lat="41.706406" lon="2.246001">
        <ele>705.00</ele>
        <time>2020-09-02T13:31:05Z</time>
      </trkpt>
      <trkpt lat="41.706383" lon="2.245969">
        <ele>705.40</ele>
        <time>2020-09-02T13:31:07Z</time>
      </trkpt>
      <trkpt lat="41.706324" lon="2.245845">
        <ele>706.20</ele>
        <time>2020-09-02T13:31:13Z</time>
      </trkpt>
      <trkpt lat="41.706316" lon="2.245821">
        <ele>706.40</ele>
        <time>2020-09-02T13:31:14Z</time>
      </trkpt>
      <trkpt lat="41.706243" lon="2.245660">
        <ele>707.40</ele>
        <time>2020-09-02T13:31:21Z</time>
      </trkpt>
      <trkpt lat="41.706196" lon="2.245491">
        <ele>708.20</ele>
        <time>2020-09-02T13:31:27Z</time>
      </trkpt>
      <trkpt lat="41.706172" lon="2.245430">
        <ele>708.60</ele>
        <time>2020-09-02T13:31:29Z</time>
      </trkpt>
      <trkpt lat="41.706091" lon="2.245279">
        <ele>709.60</ele>
        <time>2020-09-02T13:31:34Z</time>
      </trkpt>
      <trkpt lat="41.706073" lon="2.245246">
        <ele>709.60</ele>
        <time>2020-09-02T13:31:35Z</time>
      </trkpt>
      <trkpt lat="41.705946" lon="2.244957">
        <ele>709.40</ele>
        <time>2020-09-02T13:31:42Z</time>
      </trkpt>
      <trkpt lat="41.705884" lon="2.244739">
        <ele>710.00</ele>
        <time>2020-09-02T13:31:47Z</time>
      </trkpt>
      <trkpt lat="41.705879" lon="2.244684">
        <ele>710.00</ele>
        <time>2020-09-02T13:31:48Z</time>
      </trkpt>
      <trkpt lat="41.705919" lon="2.244489">
        <ele>710.80</ele>
        <time>2020-09-02T13:31:52Z</time>
      </trkpt>
      <trkpt lat="41.705912" lon="2.244351">
        <ele>711.80</ele>
        <time>2020-09-02T13:31:55Z</time>
      </trkpt>
      <trkpt lat="41.705865" lon="2.244190">
        <ele>712.00</ele>
        <time>2020-09-02T13:31:58Z</time>
      </trkpt>
      <trkpt lat="41.705828" lon="2.244022">
        <ele>711.80</ele>
        <time>2020-09-02T13:32:01Z</time>
      </trkpt>
      <trkpt lat="41.705782" lon="2.243848">
        <ele>711.60</ele>
        <time>2020-09-02T13:32:04Z</time>
      </trkpt>
      <trkpt lat="41.705774" lon="2.243737">
        <ele>711.20</ele>
        <time>2020-09-02T13:32:06Z</time>
      </trkpt>
      <trkpt lat="41.705758" lon="2.243576">
        <ele>711.00</ele>
        <time>2020-09-02T13:32:09Z</time>
      </trkpt>
      <trkpt lat="41.705702" lon="2.243204">
        <ele>711.40</ele>
        <time>2020-09-02T13:32:15Z</time>
      </trkpt>
      <trkpt lat="41.705636" lon="2.242865">
        <ele>711.40</ele>
        <time>2020-09-02T13:32:20Z</time>
      </trkpt>
      <trkpt lat="41.705625" lon="2.242718">
        <ele>711.20</ele>
        <time>2020-09-02T13:32:22Z</time>
      </trkpt>
      <trkpt lat="41.705620" lon="2.242644">
        <ele>711.20</ele>
        <time>2020-09-02T13:32:23Z</time>
      </trkpt>
      <trkpt lat="41.705607" lon="2.242426">
        <ele>710.80</ele>
        <time>2020-09-02T13:32:26Z</time>
      </trkpt>
      <trkpt lat="41.705573" lon="2.242210">
        <ele>710.80</ele>
        <time>2020-09-02T13:32:29Z</time>
      </trkpt>
      <trkpt lat="41.705555" lon="2.242132">
        <ele>710.80</ele>
        <time>2020-09-02T13:32:30Z</time>
      </trkpt>
      <trkpt lat="41.705516" lon="2.241907">
        <ele>711.20</ele>
        <time>2020-09-02T13:32:33Z</time>
      </trkpt>
      <trkpt lat="41.705448" lon="2.241552">
        <ele>709.40</ele>
        <time>2020-09-02T13:32:38Z</time>
      </trkpt>
      <trkpt lat="41.705436" lon="2.241481">
        <ele>709.20</ele>
        <time>2020-09-02T13:32:39Z</time>
      </trkpt>
      <trkpt lat="41.705430" lon="2.241408">
        <ele>708.80</ele>
        <time>2020-09-02T13:32:40Z</time>
      </trkpt>
      <trkpt lat="41.705419" lon="2.241261">
        <ele>708.20</ele>
        <time>2020-09-02T13:32:42Z</time>
      </trkpt>
      <trkpt lat="41.705402" lon="2.241116">
        <ele>708.40</ele>
        <time>2020-09-02T13:32:44Z</time>
      </trkpt>
      <trkpt lat="41.705386" lon="2.241052">
        <ele>708.40</ele>
        <time>2020-09-02T13:32:45Z</time>
      </trkpt>
      <trkpt lat="41.705314" lon="2.240844">
        <ele>707.60</ele>
        <time>2020-09-02T13:32:48Z</time>
      </trkpt>
      <trkpt lat="41.705272" lon="2.240674">
        <ele>707.00</ele>
        <time>2020-09-02T13:32:50Z</time>
      </trkpt>
      <trkpt lat="41.705273" lon="2.240575">
        <ele>706.60</ele>
        <time>2020-09-02T13:32:51Z</time>
      </trkpt>
      <trkpt lat="41.705281" lon="2.240475">
        <ele>706.20</ele>
        <time>2020-09-02T13:32:52Z</time>
      </trkpt>
      <trkpt lat="41.705305" lon="2.240381">
        <ele>705.40</ele>
        <time>2020-09-02T13:32:53Z</time>
      </trkpt>
      <trkpt lat="41.705383" lon="2.240222">
        <ele>705.00</ele>
        <time>2020-09-02T13:32:55Z</time>
      </trkpt>
      <trkpt lat="41.705511" lon="2.240175">
        <ele>704.20</ele>
        <time>2020-09-02T13:32:57Z</time>
      </trkpt>
      <trkpt lat="41.705651" lon="2.240216">
        <ele>704.20</ele>
        <time>2020-09-02T13:32:59Z</time>
      </trkpt>
      <trkpt lat="41.705720" lon="2.240233">
        <ele>704.40</ele>
        <time>2020-09-02T13:33:00Z</time>
      </trkpt>
      <trkpt lat="41.705780" lon="2.240231">
        <ele>704.60</ele>
        <time>2020-09-02T13:33:01Z</time>
      </trkpt>
      <trkpt lat="41.705873" lon="2.240193">
        <ele>705.00</ele>
        <time>2020-09-02T13:33:03Z</time>
      </trkpt>
      <trkpt lat="41.705906" lon="2.240171">
        <ele>705.40</ele>
        <time>2020-09-02T13:33:04Z</time>
      </trkpt>
      <trkpt lat="41.705960" lon="2.240114">
        <ele>705.80</ele>
        <time>2020-09-02T13:33:07Z</time>
      </trkpt>
      <trkpt lat="41.706021" lon="2.240083">
        <ele>706.60</ele>
        <time>2020-09-02T13:33:11Z</time>
      </trkpt>
      <trkpt lat="41.706052" lon="2.240063">
        <ele>707.00</ele>
        <time>2020-09-02T13:33:13Z</time>
      </trkpt>
      <trkpt lat="41.706151" lon="2.239986">
        <ele>707.60</ele>
        <time>2020-09-02T13:33:19Z</time>
      </trkpt>
      <trkpt lat="41.706184" lon="2.239960">
        <ele>708.00</ele>
        <time>2020-09-02T13:33:21Z</time>
      </trkpt>
      <trkpt lat="41.706199" lon="2.239947">
        <ele>708.00</ele>
        <time>2020-09-02T13:33:22Z</time>
      </trkpt>
      <trkpt lat="41.706285" lon="2.239895">
        <ele>708.60</ele>
        <time>2020-09-02T13:33:27Z</time>
      </trkpt>
      <trkpt lat="41.706333" lon="2.239862">
        <ele>709.80</ele>
        <time>2020-09-02T13:33:30Z</time>
      </trkpt>
      <trkpt lat="41.706362" lon="2.239834">
        <ele>710.00</ele>
        <time>2020-09-02T13:33:32Z</time>
      </trkpt>
      <trkpt lat="41.706469" lon="2.239716">
        <ele>710.80</ele>
        <time>2020-09-02T13:33:39Z</time>
      </trkpt>
      <trkpt lat="41.706487" lon="2.239701">
        <ele>711.00</ele>
        <time>2020-09-02T13:33:40Z</time>
      </trkpt>
      <trkpt lat="41.706502" lon="2.239685">
        <ele>711.20</ele>
        <time>2020-09-02T13:33:41Z</time>
      </trkpt>
      <trkpt lat="41.706547" lon="2.239645">
        <ele>711.80</ele>
        <time>2020-09-02T13:33:44Z</time>
      </trkpt>
      <trkpt lat="41.706588" lon="2.239585">
        <ele>712.60</ele>
        <time>2020-09-02T13:33:48Z</time>
      </trkpt>
      <trkpt lat="41.706607" lon="2.239549">
        <ele>712.60</ele>
        <time>2020-09-02T13:33:50Z</time>
      </trkpt>
      <trkpt lat="41.706625" lon="2.239516">
        <ele>713.00</ele>
        <time>2020-09-02T13:33:52Z</time>
      </trkpt>
      <trkpt lat="41.706637" lon="2.239472">
        <ele>713.60</ele>
        <time>2020-09-02T13:33:54Z</time>
      </trkpt>
      <trkpt lat="41.706655" lon="2.239435">
        <ele>714.00</ele>
        <time>2020-09-02T13:33:56Z</time>
      </trkpt>
      <trkpt lat="41.706691" lon="2.239365">
        <ele>715.40</ele>
        <time>2020-09-02T13:34:00Z</time>
      </trkpt>
      <trkpt lat="41.706703" lon="2.239337">
        <ele>715.80</ele>
        <time>2020-09-02T13:34:02Z</time>
      </trkpt>
      <trkpt lat="41.706740" lon="2.239252">
        <ele>716.20</ele>
        <time>2020-09-02T13:34:08Z</time>
      </trkpt>
      <trkpt lat="41.706743" lon="2.239231">
        <ele>716.40</ele>
        <time>2020-09-02T13:34:09Z</time>
      </trkpt>
      <trkpt lat="41.706795" lon="2.239107">
        <ele>717.60</ele>
        <time>2020-09-02T13:34:15Z</time>
      </trkpt>
      <trkpt lat="41.706883" lon="2.239010">
        <ele>718.80</ele>
        <time>2020-09-02T13:34:21Z</time>
      </trkpt>
      <trkpt lat="41.706898" lon="2.239002">
        <ele>719.20</ele>
        <time>2020-09-02T13:34:22Z</time>
      </trkpt>
      <trkpt lat="41.706964" lon="2.238985">
        <ele>719.80</ele>
        <time>2020-09-02T13:34:26Z</time>
      </trkpt>
      <trkpt lat="41.706998" lon="2.238983">
        <ele>720.20</ele>
        <time>2020-09-02T13:34:28Z</time>
      </trkpt>
      <trkpt lat="41.707019" lon="2.238986">
        <ele>720.40</ele>
        <time>2020-09-02T13:34:29Z</time>
      </trkpt>
      <trkpt lat="41.707040" lon="2.238989">
        <ele>720.60</ele>
        <time>2020-09-02T13:34:30Z</time>
      </trkpt>
      <trkpt lat="41.707080" lon="2.238996">
        <ele>720.80</ele>
        <time>2020-09-02T13:34:32Z</time>
      </trkpt>
      <trkpt lat="41.707118" lon="2.239011">
        <ele>720.80</ele>
        <time>2020-09-02T13:34:34Z</time>
      </trkpt>
      <trkpt lat="41.707138" lon="2.239016">
        <ele>721.00</ele>
        <time>2020-09-02T13:34:35Z</time>
      </trkpt>
      <trkpt lat="41.707218" lon="2.239024">
        <ele>721.40</ele>
        <time>2020-09-02T13:34:39Z</time>
      </trkpt>
      <trkpt lat="41.707275" lon="2.239029">
        <ele>722.20</ele>
        <time>2020-09-02T13:34:42Z</time>
      </trkpt>
      <trkpt lat="41.707386" lon="2.239004">
        <ele>722.80</ele>
        <time>2020-09-02T13:34:48Z</time>
      </trkpt>
      <trkpt lat="41.707419" lon="2.238981">
        <ele>723.20</ele>
        <time>2020-09-02T13:34:50Z</time>
      </trkpt>
      <trkpt lat="41.707468" lon="2.238949">
        <ele>724.20</ele>
        <time>2020-09-02T13:34:53Z</time>
      </trkpt>
      <trkpt lat="41.707485" lon="2.238946">
        <ele>724.40</ele>
        <time>2020-09-02T13:34:54Z</time>
      </trkpt>
      <trkpt lat="41.707595" lon="2.238939">
        <ele>725.00</ele>
        <time>2020-09-02T13:35:00Z</time>
      </trkpt>
      <trkpt lat="41.707694" lon="2.238932">
        <ele>725.60</ele>
        <time>2020-09-02T13:35:05Z</time>
      </trkpt>
      <trkpt lat="41.707786" lon="2.238914">
        <ele>726.40</ele>
        <time>2020-09-02T13:35:10Z</time>
      </trkpt>
      <trkpt lat="41.707801" lon="2.238904">
        <ele>726.60</ele>
        <time>2020-09-02T13:35:11Z</time>
      </trkpt>
      <trkpt lat="41.707817" lon="2.238897">
        <ele>726.80</ele>
        <time>2020-09-02T13:35:12Z</time>
      </trkpt>
      <trkpt lat="41.707831" lon="2.238889">
        <ele>726.80</ele>
        <time>2020-09-02T13:35:13Z</time>
      </trkpt>
      <trkpt lat="41.707899" lon="2.238836">
        <ele>727.40</ele>
        <time>2020-09-02T13:35:18Z</time>
      </trkpt>
      <trkpt lat="41.707931" lon="2.238817">
        <ele>727.80</ele>
        <time>2020-09-02T13:35:20Z</time>
      </trkpt>
      <trkpt lat="41.708006" lon="2.238784">
        <ele>728.60</ele>
        <time>2020-09-02T13:35:25Z</time>
      </trkpt>
      <trkpt lat="41.708035" lon="2.238764">
        <ele>728.80</ele>
        <time>2020-09-02T13:35:27Z</time>
      </trkpt>
      <trkpt lat="41.708100" lon="2.238724">
        <ele>729.60</ele>
        <time>2020-09-02T13:35:31Z</time>
      </trkpt>
      <trkpt lat="41.708134" lon="2.238706">
        <ele>730.20</ele>
        <time>2020-09-02T13:35:33Z</time>
      </trkpt>
      <trkpt lat="41.708151" lon="2.238696">
        <ele>730.40</ele>
        <time>2020-09-02T13:35:34Z</time>
      </trkpt>
      <trkpt lat="41.708168" lon="2.238686">
        <ele>730.40</ele>
        <time>2020-09-02T13:35:35Z</time>
      </trkpt>
      <trkpt lat="41.708274" lon="2.238635">
        <ele>731.20</ele>
        <time>2020-09-02T13:35:41Z</time>
      </trkpt>
      <trkpt lat="41.708326" lon="2.238611">
        <ele>731.60</ele>
        <time>2020-09-02T13:35:44Z</time>
      </trkpt>
      <trkpt lat="41.708375" lon="2.238591">
        <ele>732.40</ele>
        <time>2020-09-02T13:35:47Z</time>
      </trkpt>
      <trkpt lat="41.708375" lon="2.238591">
        <ele>732.80</ele>
        <time>2020-09-02T13:35:49Z</time>
      </trkpt>
      <trkpt lat="41.708421" lon="2.238566">
        <ele>732.80</ele>
        <time>2020-09-02T13:35:51Z</time>
      </trkpt>
      <trkpt lat="41.708452" lon="2.238534">
        <ele>733.00</ele>
        <time>2020-09-02T13:35:53Z</time>
      </trkpt>
      <trkpt lat="41.708607" lon="2.238327">
        <ele>733.20</ele>
        <time>2020-09-02T13:36:03Z</time>
      </trkpt>
      <trkpt lat="41.708620" lon="2.238305">
        <ele>733.40</ele>
        <time>2020-09-02T13:36:04Z</time>
      </trkpt>
      <trkpt lat="41.708685" lon="2.238180">
        <ele>734.40</ele>
        <time>2020-09-02T13:36:10Z</time>
      </trkpt>
      <trkpt lat="41.708699" lon="2.238147">
        <ele>735.00</ele>
        <time>2020-09-02T13:36:12Z</time>
      </trkpt>
      <trkpt lat="41.708712" lon="2.238115">
        <ele>735.40</ele>
        <time>2020-09-02T13:36:14Z</time>
      </trkpt>
      <trkpt lat="41.708716" lon="2.238037">
        <ele>736.20</ele>
        <time>2020-09-02T13:36:19Z</time>
      </trkpt>
      <trkpt lat="41.708709" lon="2.237992">
        <ele>736.40</ele>
        <time>2020-09-02T13:36:21Z</time>
      </trkpt>
      <trkpt lat="41.708702" lon="2.237909">
        <ele>736.80</ele>
        <time>2020-09-02T13:36:25Z</time>
      </trkpt>
      <trkpt lat="41.708700" lon="2.237878">
        <ele>737.20</ele>
        <time>2020-09-02T13:36:27Z</time>
      </trkpt>
      <trkpt lat="41.708706" lon="2.237847">
        <ele>737.40</ele>
        <time>2020-09-02T13:36:29Z</time>
      </trkpt>
      <trkpt lat="41.708705" lon="2.237771">
        <ele>737.60</ele>
        <time>2020-09-02T13:36:33Z</time>
      </trkpt>
      <trkpt lat="41.708697" lon="2.237690">
        <ele>738.20</ele>
        <time>2020-09-02T13:36:39Z</time>
      </trkpt>
      <trkpt lat="41.708697" lon="2.237679">
        <ele>738.60</ele>
        <time>2020-09-02T13:36:40Z</time>
      </trkpt>
      <trkpt lat="41.708693" lon="2.237649">
        <ele>739.20</ele>
        <time>2020-09-02T13:36:42Z</time>
      </trkpt>
      <trkpt lat="41.708689" lon="2.237605">
        <ele>739.60</ele>
        <time>2020-09-02T13:36:45Z</time>
      </trkpt>
      <trkpt lat="41.708684" lon="2.237524">
        <ele>740.80</ele>
        <time>2020-09-02T13:36:50Z</time>
      </trkpt>
      <trkpt lat="41.708683" lon="2.237447">
        <ele>741.40</ele>
        <time>2020-09-02T13:36:55Z</time>
      </trkpt>
      <trkpt lat="41.708686" lon="2.237397">
        <ele>742.00</ele>
        <time>2020-09-02T13:36:58Z</time>
      </trkpt>
      <trkpt lat="41.708688" lon="2.237371">
        <ele>742.20</ele>
        <time>2020-09-02T13:36:59Z</time>
      </trkpt>
      <trkpt lat="41.708689" lon="2.237274">
        <ele>742.80</ele>
        <time>2020-09-02T13:37:03Z</time>
      </trkpt>
      <trkpt lat="41.708691" lon="2.237254">
        <ele>743.00</ele>
        <time>2020-09-02T13:37:04Z</time>
      </trkpt>
      <trkpt lat="41.708707" lon="2.237196">
        <ele>743.40</ele>
        <time>2020-09-02T13:37:07Z</time>
      </trkpt>
      <trkpt lat="41.708738" lon="2.237028">
        <ele>743.60</ele>
        <time>2020-09-02T13:37:14Z</time>
      </trkpt>
      <trkpt lat="41.708759" lon="2.236963">
        <ele>744.00</ele>
        <time>2020-09-02T13:37:17Z</time>
      </trkpt>
      <trkpt lat="41.708783" lon="2.236901">
        <ele>744.80</ele>
        <time>2020-09-02T13:37:20Z</time>
      </trkpt>
      <trkpt lat="41.708805" lon="2.236828">
        <ele>745.00</ele>
        <time>2020-09-02T13:37:23Z</time>
      </trkpt>
      <trkpt lat="41.708813" lon="2.236805">
        <ele>745.20</ele>
        <time>2020-09-02T13:37:24Z</time>
      </trkpt>
      <trkpt lat="41.708840" lon="2.236709">
        <ele>746.20</ele>
        <time>2020-09-02T13:37:28Z</time>
      </trkpt>
      <trkpt lat="41.708858" lon="2.236667">
        <ele>746.80</ele>
        <time>2020-09-02T13:37:30Z</time>
      </trkpt>
      <trkpt lat="41.708869" lon="2.236629">
        <ele>747.40</ele>
        <time>2020-09-02T13:37:32Z</time>
      </trkpt>
      <trkpt lat="41.708890" lon="2.236537">
        <ele>748.20</ele>
        <time>2020-09-02T13:37:36Z</time>
      </trkpt>
      <trkpt lat="41.708892" lon="2.236447">
        <ele>748.60</ele>
        <time>2020-09-02T13:37:40Z</time>
      </trkpt>
      <trkpt lat="41.708883" lon="2.236366">
        <ele>749.00</ele>
        <time>2020-09-02T13:37:44Z</time>
      </trkpt>
      <trkpt lat="41.708891" lon="2.236233">
        <ele>749.60</ele>
        <time>2020-09-02T13:37:50Z</time>
      </trkpt>
      <trkpt lat="41.708900" lon="2.236173">
        <ele>750.20</ele>
        <time>2020-09-02T13:37:53Z</time>
      </trkpt>
      <trkpt lat="41.708909" lon="2.236110">
        <ele>751.00</ele>
        <time>2020-09-02T13:37:56Z</time>
      </trkpt>
      <trkpt lat="41.708940" lon="2.236033">
        <ele>751.80</ele>
        <time>2020-09-02T13:38:00Z</time>
      </trkpt>
      <trkpt lat="41.708949" lon="2.236016">
        <ele>752.00</ele>
        <time>2020-09-02T13:38:01Z</time>
      </trkpt>
      <trkpt lat="41.708959" lon="2.235950">
        <ele>752.60</ele>
        <time>2020-09-02T13:38:05Z</time>
      </trkpt>
      <trkpt lat="41.708957" lon="2.235908">
        <ele>753.00</ele>
        <time>2020-09-02T13:38:07Z</time>
      </trkpt>
      <trkpt lat="41.708963" lon="2.235890">
        <ele>753.00</ele>
        <time>2020-09-02T13:38:08Z</time>
      </trkpt>
      <trkpt lat="41.708979" lon="2.235827">
        <ele>754.20</ele>
        <time>2020-09-02T13:38:12Z</time>
      </trkpt>
      <trkpt lat="41.708984" lon="2.235802">
        <ele>755.00</ele>
        <time>2020-09-02T13:38:14Z</time>
      </trkpt>
      <trkpt lat="41.708981" lon="2.235787">
        <ele>755.40</ele>
        <time>2020-09-02T13:38:15Z</time>
      </trkpt>
      <trkpt lat="41.708970" lon="2.235685">
        <ele>755.80</ele>
        <time>2020-09-02T13:38:21Z</time>
      </trkpt>
      <trkpt lat="41.708974" lon="2.235648">
        <ele>756.40</ele>
        <time>2020-09-02T13:38:24Z</time>
      </trkpt>
      <trkpt lat="41.708968" lon="2.235558">
        <ele>757.60</ele>
        <time>2020-09-02T13:38:30Z</time>
      </trkpt>
      <trkpt lat="41.708969" lon="2.235542">
        <ele>757.80</ele>
        <time>2020-09-02T13:38:31Z</time>
      </trkpt>
      <trkpt lat="41.708972" lon="2.235437">
        <ele>758.80</ele>
        <time>2020-09-02T13:38:37Z</time>
      </trkpt>
      <trkpt lat="41.708981" lon="2.235386">
        <ele>759.20</ele>
        <time>2020-09-02T13:38:40Z</time>
      </trkpt>
      <trkpt lat="41.708978" lon="2.235334">
        <ele>759.80</ele>
        <time>2020-09-02T13:38:43Z</time>
      </trkpt>
      <trkpt lat="41.708978" lon="2.235319">
        <ele>760.20</ele>
        <time>2020-09-02T13:38:44Z</time>
      </trkpt>
      <trkpt lat="41.708966" lon="2.235264">
        <ele>761.00</ele>
        <time>2020-09-02T13:38:47Z</time>
      </trkpt>
      <trkpt lat="41.708978" lon="2.235195">
        <ele>761.60</ele>
        <time>2020-09-02T13:38:51Z</time>
      </trkpt>
      <trkpt lat="41.708996" lon="2.235162">
        <ele>761.80</ele>
        <time>2020-09-02T13:38:53Z</time>
      </trkpt>
      <trkpt lat="41.709031" lon="2.235073">
        <ele>762.40</ele>
        <time>2020-09-02T13:38:57Z</time>
      </trkpt>
      <trkpt lat="41.709030" lon="2.235050">
        <ele>762.80</ele>
        <time>2020-09-02T13:38:58Z</time>
      </trkpt>
      <trkpt lat="41.708997" lon="2.234988">
        <ele>763.40</ele>
        <time>2020-09-02T13:39:01Z</time>
      </trkpt>
      <trkpt lat="41.708974" lon="2.234971">
        <ele>763.60</ele>
        <time>2020-09-02T13:39:02Z</time>
      </trkpt>
      <trkpt lat="41.708949" lon="2.234948">
        <ele>763.60</ele>
        <time>2020-09-02T13:39:03Z</time>
      </trkpt>
      <trkpt lat="41.708910" lon="2.234884">
        <ele>763.80</ele>
        <time>2020-09-02T13:39:05Z</time>
      </trkpt>
      <trkpt lat="41.7091470" lon="2.2326340">
        <ele>755.9</ele>
        <time>2020-09-02T13:42:36Z</time>
      </trkpt>
      <trkpt lat="41.7091000" lon="2.2324870">
        <ele>756.0</ele>
        <time>2020-09-02T13:42:37Z</time>
      </trkpt>
      <trkpt lat="41.7091080" lon="2.2324970">
        <ele>756.0</ele>
        <time>2020-09-02T13:42:38Z</time>
      </trkpt>
      <trkpt lat="41.7091180" lon="2.2325300">
        <ele>755.9</ele>
        <time>2020-09-02T13:42:40Z</time>
      </trkpt>
      <trkpt lat="41.7091210" lon="2.2325410">
        <ele>755.8</ele>
        <time>2020-09-02T13:42:41Z</time>
      </trkpt>
      <trkpt lat="41.7091260" lon="2.2325300">
        <ele>755.8</ele>
        <time>2020-09-02T13:42:42Z</time>
      </trkpt>
      <trkpt lat="41.7091360" lon="2.2324990">
        <ele>755.7</ele>
        <time>2020-09-02T13:42:43Z</time>
      </trkpt>
      <trkpt lat="41.7091630" lon="2.2323610">
        <ele>755.0</ele>
        <time>2020-09-02T13:42:45Z</time>
      </trkpt>
      <trkpt lat="41.7092450" lon="2.2321710">
        <ele>753.9</ele>
        <time>2020-09-02T13:42:47Z</time>
      </trkpt>
      <trkpt lat="41.7093060" lon="2.2320710">
        <ele>753.3</ele>
        <time>2020-09-02T13:42:48Z</time>
      </trkpt>
      <trkpt lat="41.7094220" lon="2.2318980">
        <ele>752.4</ele>
        <time>2020-09-02T13:42:50Z</time>
      </trkpt>
      <trkpt lat="41.7095120" lon="2.2316720">
        <ele>751.6</ele>
        <time>2020-09-02T13:42:53Z</time>
      </trkpt>
      <trkpt lat="41.7094380" lon="2.2316210">
        <ele>751.3</ele>
        <time>2020-09-02T13:42:55Z</time>
      </trkpt>
      <trkpt lat="41.7093790" lon="2.2316000">
        <ele>751.1</ele>
        <time>2020-09-02T13:42:56Z</time>
      </trkpt>
      <trkpt lat="41.7093110" lon="2.2315910">
        <ele>750.9</ele>
        <time>2020-09-02T13:42:57Z</time>
      </trkpt>
      <trkpt lat="41.7091700" lon="2.2315660">
        <ele>750.4</ele>
        <time>2020-09-02T13:42:59Z</time>
      </trkpt>
      <trkpt lat="41.7090580" lon="2.2314990">
        <ele>750.3</ele>
        <time>2020-09-02T13:43:01Z</time>
      </trkpt>
      <trkpt lat="41.7089680" lon="2.2314030">
        <ele>750.2</ele>
        <time>2020-09-02T13:43:03Z</time>
      </trkpt>
      <trkpt lat="41.7089260" lon="2.2313540">
        <ele>750.2</ele>
        <time>2020-09-02T13:43:04Z</time>
      </trkpt>
      <trkpt lat="41.7088470" lon="2.2312730">
        <ele>750.3</ele>
        <time>2020-09-02T13:43:06Z</time>
      </trkpt>
      <trkpt lat="41.7087800" lon="2.2312140">
        <ele>750.4</ele>
        <time>2020-09-02T13:43:08Z</time>
      </trkpt>
      <trkpt lat="41.7087620" lon="2.2312200">
        <ele>750.4</ele>
        <time>2020-09-02T13:43:09Z</time>
      </trkpt>
      <trkpt lat="41.7087370" lon="2.2312550">
        <ele>750.4</ele>
        <time>2020-09-02T13:43:11Z</time>
      </trkpt>
      <trkpt lat="41.7087200" lon="2.2312340">
        <ele>750.4</ele>
        <time>2020-09-02T13:43:12Z</time>
      </trkpt>
      <trkpt lat="41.7087170" lon="2.2311830">
        <ele>750.4</ele>
        <time>2020-09-02T13:43:14Z</time>
      </trkpt>
      <trkpt lat="41.7087020" lon="2.2311480">
        <ele>750.4</ele>
        <time>2020-09-02T13:43:15Z</time>
      </trkpt>
      <trkpt lat="41.7086850" lon="2.2311040">
        <ele>750.4</ele>
        <time>2020-09-02T13:43:17Z</time>
      </trkpt>
      <trkpt lat="41.7085900" lon="2.2309540">
        <ele>750.5</ele>
        <time>2020-09-02T13:43:18Z</time>
      </trkpt>
      <trkpt lat="41.7085300" lon="2.2308670">
        <ele>750.5</ele>
        <time>2020-09-02T13:43:19Z</time>
      </trkpt>
      <trkpt lat="41.7085300" lon="2.2308810">
        <ele>750.5</ele>
        <time>2020-09-02T13:43:20Z</time>
      </trkpt>
      <trkpt lat="41.7085860" lon="2.2310140">
        <ele>750.5</ele>
        <time>2020-09-02T13:43:22Z</time>
      </trkpt>
      <trkpt lat="41.7085530" lon="2.2309070">
        <ele>750.5</ele>
        <time>2020-09-02T13:43:23Z</time>
      </trkpt>
      <trkpt lat="41.7085200" lon="2.2307700">
        <ele>750.4</ele>
        <time>2020-09-02T13:43:24Z</time>
      </trkpt>
      <trkpt lat="41.7084860" lon="2.2306340">
        <ele>750.3</ele>
        <time>2020-09-02T13:43:26Z</time>
      </trkpt>
      <trkpt lat="41.7084420" lon="2.2305680">
        <ele>747.8</ele>
        <time>2020-09-02T13:43:27Z</time>
      </trkpt>
      <trkpt lat="41.7083690" lon="2.2304960">
        <ele>745.3</ele>
        <time>2020-09-02T13:43:29Z</time>
      </trkpt>
      <trkpt lat="41.7083500" lon="2.2304550">
        <ele>743.4</ele>
        <time>2020-09-02T13:43:30Z</time>
      </trkpt>
      <trkpt lat="41.7083330" lon="2.2304240">
        <ele>743.0</ele>
        <time>2020-09-02T13:43:31Z</time>
      </trkpt>
      <trkpt lat="41.7083830" lon="2.2303630">
        <ele>744.1</ele>
        <time>2020-09-02T13:43:33Z</time>
      </trkpt>
      <trkpt lat="41.7084330" lon="2.2303490">
        <ele>746.2</ele>
        <time>2020-09-02T13:43:34Z</time>
      </trkpt>
      <trkpt lat="41.7084820" lon="2.2303350">
        <ele>746.7</ele>
        <time>2020-09-02T13:43:35Z</time>
      </trkpt>
      <trkpt lat="41.7085310" lon="2.2303210">
        <ele>748.2</ele>
        <time>2020-09-02T13:43:36Z</time>
      </trkpt>
      <trkpt lat="41.7085150" lon="2.2302760">
        <ele>746.7</ele>
        <time>2020-09-02T13:43:38Z</time>
      </trkpt>
      <trkpt lat="41.7085040" lon="2.2302550">
        <ele>746.2</ele>
        <time>2020-09-02T13:43:39Z</time>
      </trkpt>
      <trkpt lat="41.7084820" lon="2.2302500">
        <ele>744.6</ele>
        <time>2020-09-02T13:43:40Z</time>
      </trkpt>
      <trkpt lat="41.7084700" lon="2.2302500">
        <ele>744.0</ele>
        <time>2020-09-02T13:43:42Z</time>
      </trkpt>
      <trkpt lat="41.7084780" lon="2.2302470">
        <ele>743.4</ele>
        <time>2020-09-02T13:43:43Z</time>
      </trkpt>
      <trkpt lat="41.7084840" lon="2.2302420">
        <ele>743.8</ele>
        <time>2020-09-02T13:43:44Z</time>
      </trkpt>
      <trkpt lat="41.7084900" lon="2.2302750">
        <ele>743.1</ele>
        <time>2020-09-02T13:43:46Z</time>
      </trkpt>
      <trkpt lat="41.7085110" lon="2.2303100">
        <ele>742.5</ele>
        <time>2020-09-02T13:43:48Z</time>
      </trkpt>
      <trkpt lat="41.7085200" lon="2.2303130">
        <ele>742.8</ele>
        <time>2020-09-02T13:43:49Z</time>
      </trkpt>
      <trkpt lat="41.7085240" lon="2.2303000">
        <ele>742.3</ele>
        <time>2020-09-02T13:43:50Z</time>
      </trkpt>
      <trkpt lat="41.7085260" lon="2.2302860">
        <ele>741.7</ele>
        <time>2020-09-02T13:43:52Z</time>
      </trkpt>
      <trkpt lat="41.7085510" lon="2.2302710">
        <ele>742.0</ele>
        <time>2020-09-02T13:43:54Z</time>
      </trkpt>
      <trkpt lat="41.7085770" lon="2.2302600">
        <ele>741.5</ele>
        <time>2020-09-02T13:43:55Z</time>
      </trkpt>
      <trkpt lat="41.7086220" lon="2.2302400">
        <ele>742.5</ele>
        <time>2020-09-02T13:43:57Z</time>
      </trkpt>
      <trkpt lat="41.7086450" lon="2.2302220">
        <ele>742.8</ele>
        <time>2020-09-02T13:43:58Z</time>
      </trkpt>
      <trkpt lat="41.7086540" lon="2.2301990">
        <ele>742.2</ele>
        <time>2020-09-02T13:44:00Z</time>
      </trkpt>
      <trkpt lat="41.7086500" lon="2.2301870">
        <ele>741.6</ele>
        <time>2020-09-02T13:44:01Z</time>
      </trkpt>
      <trkpt lat="41.7086570" lon="2.2301680">
        <ele>741.1</ele>
        <time>2020-09-02T13:44:02Z</time>
      </trkpt>
      <trkpt lat="41.7086820" lon="2.2301480">
        <ele>741.1</ele>
        <time>2020-09-02T13:44:04Z</time>
      </trkpt>
      <trkpt lat="41.7087030" lon="2.2301230">
        <ele>740.7</ele>
        <time>2020-09-02T13:44:05Z</time>
      </trkpt>
      <trkpt lat="41.7087030" lon="2.2301080">
        <ele>740.1</ele>
        <time>2020-09-02T13:44:06Z</time>
      </trkpt>
      <trkpt lat="41.7087080" lon="2.2300900">
        <ele>739.8</ele>
        <time>2020-09-02T13:44:08Z</time>
      </trkpt>
      <trkpt lat="41.7087010" lon="2.2300570">
        <ele>739.2</ele>
        <time>2020-09-02T13:44:10Z</time>
      </trkpt>
      <trkpt lat="41.7086960" lon="2.2300270">
        <ele>738.8</ele>
        <time>2020-09-02T13:44:11Z</time>
      </trkpt>
      <trkpt lat="41.7087000" lon="2.2299950">
        <ele>738.4</ele>
        <time>2020-09-02T13:44:13Z</time>
      </trkpt>
      <trkpt lat="41.7086900" lon="2.2299700">
        <ele>737.8</ele>
        <time>2020-09-02T13:44:14Z</time>
      </trkpt>
      <trkpt lat="41.7086960" lon="2.2299440">
        <ele>737.4</ele>
        <time>2020-09-02T13:44:16Z</time>
      </trkpt>
      <trkpt lat="41.7087140" lon="2.2299400">
        <ele>737.3</ele>
        <time>2020-09-02T13:44:17Z</time>
      </trkpt>
      <trkpt lat="41.7087240" lon="2.2299590">
        <ele>736.7</ele>
        <time>2020-09-02T13:44:18Z</time>
      </trkpt>
      <trkpt lat="41.7087440" lon="2.2300080">
        <ele>736.3</ele>
        <time>2020-09-02T13:44:19Z</time>
      </trkpt>
      <trkpt lat="41.7087540" lon="2.2300250">
        <ele>735.5</ele>
        <time>2020-09-02T13:44:20Z</time>
      </trkpt>
      <trkpt lat="41.7087600" lon="2.2299300">
        <ele>735.3</ele>
        <time>2020-09-02T13:44:21Z</time>
      </trkpt>
      <trkpt lat="41.7087960" lon="2.2298770">
        <ele>735.4</ele>
        <time>2020-09-02T13:44:23Z</time>
      </trkpt>
      <trkpt lat="41.7087470" lon="2.2297590">
        <ele>734.8</ele>
        <time>2020-09-02T13:44:24Z</time>
      </trkpt>
      <trkpt lat="41.7087250" lon="2.2296580">
        <ele>734.1</ele>
        <time>2020-09-02T13:44:25Z</time>
      </trkpt>
      <trkpt lat="41.7087360" lon="2.2297360">
        <ele>733.2</ele>
        <time>2020-09-02T13:44:27Z</time>
      </trkpt>
      <trkpt lat="41.7086960" lon="2.2297870">
        <ele>731.9</ele>
        <time>2020-09-02T13:44:28Z</time>
      </trkpt>
      <trkpt lat="41.7086700" lon="2.2298200">
        <ele>730.5</ele>
        <time>2020-09-02T13:44:29Z</time>
      </trkpt>
      <trkpt lat="41.7086400" lon="2.2298460">
        <ele>729.0</ele>
        <time>2020-09-02T13:44:31Z</time>
      </trkpt>
      <trkpt lat="41.7086050" lon="2.2298470">
        <ele>727.6</ele>
        <time>2020-09-02T13:44:32Z</time>
      </trkpt>
      <trkpt lat="41.7085930" lon="2.2298460">
        <ele>727.0</ele>
        <time>2020-09-02T13:44:33Z</time>
      </trkpt>
      <trkpt lat="41.7085850" lon="2.2298220">
        <ele>726.5</ele>
        <time>2020-09-02T13:44:34Z</time>
      </trkpt>
      <trkpt lat="41.7086080" lon="2.2298260">
        <ele>725.9</ele>
        <time>2020-09-02T13:44:35Z</time>
      </trkpt>
      <trkpt lat="41.7086430" lon="2.2298420">
        <ele>726.0</ele>
        <time>2020-09-02T13:44:37Z</time>
      </trkpt>
      <trkpt lat="41.7086460" lon="2.2298270">
        <ele>726.3</ele>
        <time>2020-09-02T13:44:38Z</time>
      </trkpt>
      <trkpt lat="41.7086270" lon="2.2298290">
        <ele>725.0</ele>
        <time>2020-09-02T13:44:40Z</time>
      </trkpt>
      <trkpt lat="41.7086190" lon="2.2298320">
        <ele>724.4</ele>
        <time>2020-09-02T13:44:41Z</time>
      </trkpt>
      <trkpt lat="41.7086030" lon="2.2298170">
        <ele>722.9</ele>
        <time>2020-09-02T13:44:43Z</time>
      </trkpt>
      <trkpt lat="41.7085950" lon="2.2297920">
        <ele>722.5</ele>
        <time>2020-09-02T13:44:44Z</time>
      </trkpt>
      <trkpt lat="41.7085930" lon="2.2297760">
        <ele>721.9</ele>
        <time>2020-09-02T13:44:45Z</time>
      </trkpt>
      <trkpt lat="41.7085890" lon="2.2297550">
        <ele>721.3</ele>
        <time>2020-09-02T13:44:46Z</time>
      </trkpt>
      <trkpt lat="41.7085970" lon="2.2297580">
        <ele>720.7</ele>
        <time>2020-09-02T13:44:48Z</time>
      </trkpt>
      <trkpt lat="41.7086170" lon="2.2297570">
        <ele>720.9</ele>
        <time>2020-09-02T13:44:49Z</time>
      </trkpt>
      <trkpt lat="41.7086440" lon="2.2297680">
        <ele>720.3</ele>
        <time>2020-09-02T13:44:51Z</time>
      </trkpt>
      <trkpt lat="41.7086530" lon="2.2297510">
        <ele>720.6</ele>
        <time>2020-09-02T13:44:52Z</time>
      </trkpt>
      <trkpt lat="41.7086350" lon="2.2297230">
        <ele>719.2</ele>
        <time>2020-09-02T13:44:53Z</time>
      </trkpt>
      <trkpt lat="41.7085860" lon="2.2297040">
        <ele>717.9</ele>
        <time>2020-09-02T13:44:55Z</time>
      </trkpt>
      <trkpt lat="41.7085460" lon="2.2297050">
        <ele>715.5</ele>
        <time>2020-09-02T13:44:56Z</time>
      </trkpt>
      <trkpt lat="41.7085050" lon="2.2296500">
        <ele>714.1</ele>
        <time>2020-09-02T13:44:58Z</time>
      </trkpt>
      <trkpt lat="41.7084960" lon="2.2296200">
        <ele>713.7</ele>
        <time>2020-09-02T13:44:59Z</time>
      </trkpt>
      <trkpt lat="41.7085060" lon="2.2296050">
        <ele>713.1</ele>
        <time>2020-09-02T13:45:00Z</time>
      </trkpt>
      <trkpt lat="41.7085150" lon="2.2295940">
        <ele>712.5</ele>
        <time>2020-09-02T13:45:01Z</time>
      </trkpt>
      <trkpt lat="41.7085150" lon="2.2295530">
        <ele>712.1</ele>
        <time>2020-09-02T13:45:03Z</time>
      </trkpt>
      <trkpt lat="41.7085260" lon="2.2295060">
        <ele>712.5</ele>
        <time>2020-09-02T13:45:04Z</time>
      </trkpt>
      <trkpt lat="41.7085310" lon="2.2294930">
        <ele>712.1</ele>
        <time>2020-09-02T13:45:05Z</time>
      </trkpt>
      <trkpt lat="41.7085780" lon="2.2294160">
        <ele>712.5</ele>
        <time>2020-09-02T13:45:06Z</time>
      </trkpt>
      <trkpt lat="41.7085520" lon="2.2293840">
        <ele>712.1</ele>
        <time>2020-09-02T13:45:07Z</time>
      </trkpt>
      <trkpt lat="41.7085240" lon="2.2293530">
        <ele>710.8</ele>
        <time>2020-09-02T13:45:09Z</time>
      </trkpt>
      <trkpt lat="41.7085090" lon="2.2293000">
        <ele>709.6</ele>
        <time>2020-09-02T13:45:10Z</time>
      </trkpt>
      <trkpt lat="41.7084450" lon="2.2292750">
        <ele>707.7</ele>
        <time>2020-09-02T13:45:12Z</time>
      </trkpt>
      <trkpt lat="41.7084060" lon="2.2292920">
        <ele>706.2</ele>
        <time>2020-09-02T13:45:13Z</time>
      </trkpt>
      <trkpt lat="41.7083600" lon="2.2293170">
        <ele>704.7</ele>
        <time>2020-09-02T13:45:14Z</time>
      </trkpt>
      <trkpt lat="41.7082980" lon="2.2293270">
        <ele>701.5</ele>
        <time>2020-09-02T13:45:15Z</time>
      </trkpt>
      <trkpt lat="41.7082180" lon="2.2293290">
        <ele>695.9</ele>
        <time>2020-09-02T13:45:17Z</time>
      </trkpt>
      <trkpt lat="41.7081820" lon="2.2293150">
        <ele>693.5</ele>
        <time>2020-09-02T13:45:18Z</time>
      </trkpt>
      <trkpt lat="41.7081860" lon="2.2292640">
        <ele>693.2</ele>
        <time>2020-09-02T13:45:20Z</time>
      </trkpt>
      <trkpt lat="41.7082210" lon="2.2292530">
        <ele>694.5</ele>
        <time>2020-09-02T13:45:21Z</time>
      </trkpt>
      <trkpt lat="41.7082300" lon="2.2292520">
        <ele>695.8</ele>
        <time>2020-09-02T13:45:22Z</time>
      </trkpt>
      <trkpt lat="41.7082490" lon="2.2292250">
        <ele>695.4</ele>
        <time>2020-09-02T13:45:23Z</time>
      </trkpt>
      <trkpt lat="41.7082420" lon="2.2291690">
        <ele>694.9</ele>
        <time>2020-09-02T13:45:24Z</time>
      </trkpt>
      <trkpt lat="41.7082230" lon="2.2291060">
        <ele>692.8</ele>
        <time>2020-09-02T13:45:25Z</time>
      </trkpt>
      <trkpt lat="41.7082510" lon="2.2290850">
        <ele>692.4</ele>
        <time>2020-09-02T13:45:27Z</time>
      </trkpt>
      <trkpt lat="41.7081740" lon="2.2290520">
        <ele>691.1</ele>
        <time>2020-09-02T13:45:29Z</time>
      </trkpt>
      <trkpt lat="41.7081290" lon="2.2289770">
        <ele>690.1</ele>
        <time>2020-09-02T13:45:30Z</time>
      </trkpt>
      <trkpt lat="41.7081270" lon="2.2290050">
        <ele>689.7</ele>
        <time>2020-09-02T13:45:31Z</time>
      </trkpt>
      <trkpt lat="41.7081190" lon="2.2290410">
        <ele>689.3</ele>
        <time>2020-09-02T13:45:33Z</time>
      </trkpt>
      <trkpt lat="41.7081110" lon="2.2290760">
        <ele>688.9</ele>
        <time>2020-09-02T13:45:34Z</time>
      </trkpt>
      <trkpt lat="41.7081090" lon="2.2291280">
        <ele>688.3</ele>
        <time>2020-09-02T13:45:35Z</time>
      </trkpt>
      <trkpt lat="41.7080890" lon="2.2291480">
        <ele>688.0</ele>
        <time>2020-09-02T13:45:37Z</time>
      </trkpt>
      <trkpt lat="41.7080820" lon="2.2291340">
        <ele>687.8</ele>
        <time>2020-09-02T13:45:38Z</time>
      </trkpt>
      <trkpt lat="41.7080750" lon="2.2291190">
        <ele>687.6</ele>
        <time>2020-09-02T13:45:39Z</time>
      </trkpt>
      <trkpt lat="41.7080720" lon="2.2290830">
        <ele>687.2</ele>
        <time>2020-09-02T13:45:40Z</time>
      </trkpt>
      <trkpt lat="41.7080760" lon="2.2290410">
        <ele>686.7</ele>
        <time>2020-09-02T13:45:41Z</time>
      </trkpt>
      <trkpt lat="41.7080680" lon="2.2289920">
        <ele>686.1</ele>
        <time>2020-09-02T13:45:43Z</time>
      </trkpt>
      <trkpt lat="41.7080610" lon="2.2289350">
        <ele>685.5</ele>
        <time>2020-09-02T13:45:44Z</time>
      </trkpt>
      <trkpt lat="41.7080480" lon="2.2288850">
        <ele>684.9</ele>
        <time>2020-09-02T13:45:45Z</time>
      </trkpt>
      <trkpt lat="41.7080300" lon="2.2288210">
        <ele>684.1</ele>
        <time>2020-09-02T13:45:47Z</time>
      </trkpt>
      <trkpt lat="41.7080210" lon="2.2287970">
        <ele>683.8</ele>
        <time>2020-09-02T13:45:48Z</time>
      </trkpt>
      <trkpt lat="41.7080120" lon="2.2287730">
        <ele>683.5</ele>
        <time>2020-09-02T13:45:49Z</time>
      </trkpt>
      <trkpt lat="41.7080000" lon="2.2287240">
        <ele>682.9</ele>
        <time>2020-09-02T13:45:51Z</time>
      </trkpt>
      <trkpt lat="41.7079390" lon="2.2285680">
        <ele>681.0</ele>
        <time>2020-09-02T13:45:52Z</time>
      </trkpt>
      <trkpt lat="41.7078840" lon="2.2284430">
        <ele>679.3</ele>
        <time>2020-09-02T13:45:54Z</time>
      </trkpt>
      <trkpt lat="41.7078210" lon="2.2283080">
        <ele>677.6</ele>
        <time>2020-09-02T13:45:55Z</time>
      </trkpt>
      <trkpt lat="41.7076920" lon="2.2280430">
        <ele>674.0</ele>
        <time>2020-09-02T13:45:57Z</time>
      </trkpt>
      <trkpt lat="41.7075840" lon="2.2278450">
        <ele>671.3</ele>
        <time>2020-09-02T13:45:59Z</time>
      </trkpt>
      <trkpt lat="41.7075330" lon="2.2277510">
        <ele>670.0</ele>
        <time>2020-09-02T13:46:01Z</time>
      </trkpt>
      <trkpt lat="41.7075230" lon="2.2277170">
        <ele>669.6</ele>
        <time>2020-09-02T13:46:03Z</time>
      </trkpt>
      <trkpt lat="41.7075120" lon="2.2277060">
        <ele>669.3</ele>
        <time>2020-09-02T13:46:04Z</time>
      </trkpt>
      <trkpt lat="41.7074650" lon="2.2276480">
        <ele>668.4</ele>
        <time>2020-09-02T13:46:05Z</time>
      </trkpt>
      <trkpt lat="41.7074290" lon="2.2275780">
        <ele>667.4</ele>
        <time>2020-09-02T13:46:06Z</time>
      </trkpt>
      <trkpt lat="41.7074000" lon="2.2275130">
        <ele>666.6</ele>
        <time>2020-09-02T13:46:07Z</time>
      </trkpt>
      <trkpt lat="41.7074020" lon="2.2275570">
        <ele>666.1</ele>
        <time>2020-09-02T13:46:09Z</time>
      </trkpt>
      <trkpt lat="41.7074000" lon="2.2275700">
        <ele>665.9</ele>
        <time>2020-09-02T13:46:10Z</time>
      </trkpt>
      <trkpt lat="41.7073880" lon="2.2275440">
        <ele>665.6</ele>
        <time>2020-09-02T13:46:12Z</time>
      </trkpt>
      <trkpt lat="41.7073800" lon="2.2275200">
        <ele>665.3</ele>
        <time>2020-09-02T13:46:13Z</time>
      </trkpt>
      <trkpt lat="41.7073730" lon="2.2274950">
        <ele>665.0</ele>
        <time>2020-09-02T13:46:14Z</time>
      </trkpt>
      <trkpt lat="41.7073650" lon="2.2274480">
        <ele>664.5</ele>
        <time>2020-09-02T13:46:15Z</time>
      </trkpt>
      <trkpt lat="41.7073000" lon="2.2272460">
        <ele>662.0</ele>
        <time>2020-09-02T13:46:16Z</time>
      </trkpt>
      <trkpt lat="41.7072970" lon="2.2272290">
        <ele>661.8</ele>
        <time>2020-09-02T13:46:17Z</time>
      </trkpt>
      <trkpt lat="41.7072670" lon="2.2271060">
        <ele>660.4</ele>
        <time>2020-09-02T13:46:19Z</time>
      </trkpt>
      <trkpt lat="41.7072280" lon="2.2269940">
        <ele>659.0</ele>
        <time>2020-09-02T13:46:20Z</time>
      </trkpt>
      <trkpt lat="41.7071730" lon="2.2268630">
        <ele>657.3</ele>
        <time>2020-09-02T13:46:21Z</time>
      </trkpt>
      <trkpt lat="41.7071170" lon="2.2267310">
        <ele>655.6</ele>
        <time>2020-09-02T13:46:23Z</time>
      </trkpt>
      <trkpt lat="41.7071560" lon="2.2268390">
        <ele>654.2</ele>
        <time>2020-09-02T13:46:24Z</time>
      </trkpt>
      <trkpt lat="41.7071830" lon="2.2269410">
        <ele>653.0</ele>
        <time>2020-09-02T13:46:26Z</time>
      </trkpt>
      <trkpt lat="41.7071460" lon="2.2269260">
        <ele>652.4</ele>
        <time>2020-09-02T13:46:27Z</time>
      </trkpt>
      <trkpt lat="41.7070600" lon="2.2268330">
        <ele>650.8</ele>
        <time>2020-09-02T13:46:28Z</time>
      </trkpt>
      <trkpt lat="41.7069790" lon="2.2267460">
        <ele>649.2</ele>
        <time>2020-09-02T13:46:30Z</time>
      </trkpt>
      <trkpt lat="41.7069060" lon="2.2266560">
        <ele>647.7</ele>
        <time>2020-09-02T13:46:31Z</time>
      </trkpt>
      <trkpt lat="41.7068500" lon="2.2265460">
        <ele>646.2</ele>
        <time>2020-09-02T13:46:32Z</time>
      </trkpt>
      <trkpt lat="41.7068100" lon="2.2264750">
        <ele>645.3</ele>
        <time>2020-09-02T13:46:33Z</time>
      </trkpt>
      <trkpt lat="41.7067790" lon="2.2263650">
        <ele>643.9</ele>
        <time>2020-09-02T13:46:34Z</time>
      </trkpt>
      <trkpt lat="41.7067670" lon="2.2262970">
        <ele>643.2</ele>
        <time>2020-09-02T13:46:35Z</time>
      </trkpt>
      <trkpt lat="41.7067570" lon="2.2262400">
        <ele>642.5</ele>
        <time>2020-09-02T13:46:36Z</time>
      </trkpt>
      <trkpt lat="41.7067410" lon="2.2261870">
        <ele>641.9</ele>
        <time>2020-09-02T13:46:38Z</time>
      </trkpt>
      <trkpt lat="41.7067250" lon="2.2261710">
        <ele>641.6</ele>
        <time>2020-09-02T13:46:39Z</time>
      </trkpt>
      <trkpt lat="41.7067130" lon="2.2261700">
        <ele>641.4</ele>
        <time>2020-09-02T13:46:40Z</time>
      </trkpt>
      <trkpt lat="41.7067050" lon="2.2261310">
        <ele>640.9</ele>
        <time>2020-09-02T13:46:42Z</time>
      </trkpt>
      <trkpt lat="41.7067100" lon="2.2261120">
        <ele>640.7</ele>
        <time>2020-09-02T13:46:43Z</time>
      </trkpt>
      <trkpt lat="41.7066990" lon="2.2260320">
        <ele>639.8</ele>
        <time>2020-09-02T13:46:44Z</time>
      </trkpt>
      <trkpt lat="41.7066630" lon="2.2259440">
        <ele>638.7</ele>
        <time>2020-09-02T13:46:45Z</time>
      </trkpt>
      <trkpt lat="41.7066110" lon="2.2258480">
        <ele>637.3</ele>
        <time>2020-09-02T13:46:46Z</time>
      </trkpt>
      <trkpt lat="41.7065630" lon="2.2257590">
        <ele>636.1</ele>
        <time>2020-09-02T13:46:47Z</time>
      </trkpt>
      <trkpt lat="41.7065260" lon="2.2256740">
        <ele>635.0</ele>
        <time>2020-09-02T13:46:49Z</time>
      </trkpt>
      <trkpt lat="41.7064540" lon="2.2255990">
        <ele>633.6</ele>
        <time>2020-09-02T13:46:50Z</time>
      </trkpt>
      <trkpt lat="41.7064990" lon="2.2256320">
        <ele>632.9</ele>
        <time>2020-09-02T13:46:52Z</time>
      </trkpt>
      <trkpt lat="41.7063830" lon="2.2255190">
        <ele>630.7</ele>
        <time>2020-09-02T13:46:53Z</time>
      </trkpt>
      <trkpt lat="41.7063950" lon="2.2255210">
        <ele>630.5</ele>
        <time>2020-09-02T13:46:54Z</time>
      </trkpt>
      <trkpt lat="41.7064750" lon="2.2255860">
        <ele>629.1</ele>
        <time>2020-09-02T13:46:56Z</time>
      </trkpt>
      <trkpt lat="41.7063220" lon="2.2254890">
        <ele>626.6</ele>
        <time>2020-09-02T13:46:57Z</time>
      </trkpt>
      <trkpt lat="41.7062300" lon="2.2254290">
        <ele>625.0</ele>
        <time>2020-09-02T13:46:58Z</time>
      </trkpt>
      <trkpt lat="41.7060500" lon="2.2253110">
        <ele>622.0</ele>
        <time>2020-09-02T13:47:01Z</time>
      </trkpt>
      <trkpt lat="41.7059140" lon="2.2252320">
        <ele>619.8</ele>
        <time>2020-09-02T13:47:02Z</time>
      </trkpt>
      <trkpt lat="41.7058930" lon="2.2252460">
        <ele>619.5</ele>
        <time>2020-09-02T13:47:04Z</time>
      </trkpt>
      <trkpt lat="41.7059260" lon="2.2252180">
        <ele>618.9</ele>
        <time>2020-09-02T13:47:05Z</time>
      </trkpt>
      <trkpt lat="41.7059290" lon="2.2252050">
        <ele>618.7</ele>
        <time>2020-09-02T13:47:06Z</time>
      </trkpt>
      <trkpt lat="41.7059100" lon="2.2252370">
        <ele>618.3</ele>
        <time>2020-09-02T13:47:08Z</time>
      </trkpt>
      <trkpt lat="41.7058730" lon="2.2252850">
        <ele>617.5</ele>
        <time>2020-09-02T13:47:10Z</time>
      </trkpt>
      <trkpt lat="41.7058630" lon="2.2253230">
        <ele>617.0</ele>
        <time>2020-09-02T13:47:11Z</time>
      </trkpt>
      <trkpt lat="41.7058390" lon="2.2253190">
        <ele>616.7</ele>
        <time>2020-09-02T13:47:13Z</time>
      </trkpt>
      <trkpt lat="41.7058300" lon="2.2253210">
        <ele>616.5</ele>
        <time>2020-09-02T13:47:14Z</time>
      </trkpt>
      <trkpt lat="41.7058210" lon="2.2253220">
        <ele>616.4</ele>
        <time>2020-09-02T13:47:15Z</time>
      </trkpt>
      <trkpt lat="41.7058000" lon="2.2253110">
        <ele>616.1</ele>
        <time>2020-09-02T13:47:16Z</time>
      </trkpt>
      <trkpt lat="41.7057710" lon="2.2252740">
        <ele>615.5</ele>
        <time>2020-09-02T13:47:18Z</time>
      </trkpt>
      <trkpt lat="41.7056830" lon="2.2251640">
        <ele>613.7</ele>
        <time>2020-09-02T13:47:19Z</time>
      </trkpt>
      <trkpt lat="41.7056380" lon="2.2250540">
        <ele>612.2</ele>
        <time>2020-09-02T13:47:21Z</time>
      </trkpt>
      <trkpt lat="41.7055980" lon="2.2249780">
        <ele>611.2</ele>
        <time>2020-09-02T13:47:23Z</time>
      </trkpt>
      <trkpt lat="41.7055420" lon="2.2249190">
        <ele>599.9</ele>
        <time>2020-09-02T13:47:24Z</time>
      </trkpt>
      <trkpt lat="41.7055000" lon="2.2248490">
        <ele>598.4</ele>
        <time>2020-09-02T13:47:26Z</time>
      </trkpt>
      <trkpt lat="41.7054440" lon="2.2248090">
        <ele>597.1</ele>
        <time>2020-09-02T13:47:27Z</time>
      </trkpt>
      <trkpt lat="41.7053830" lon="2.2247240">
        <ele>595.2</ele>
        <time>2020-09-02T13:47:29Z</time>
      </trkpt>
      <trkpt lat="41.7052200" lon="2.2245690">
        <ele>591.6</ele>
        <time>2020-09-02T13:47:31Z</time>
      </trkpt>
      <trkpt lat="41.7051350" lon="2.2244820">
        <ele>589.8</ele>
        <time>2020-09-02T13:47:32Z</time>
      </trkpt>
      <trkpt lat="41.7050060" lon="2.2242990">
        <ele>587.3</ele>
        <time>2020-09-02T13:47:34Z</time>
      </trkpt>
      <trkpt lat="41.7049640" lon="2.2242050">
        <ele>586.5</ele>
        <time>2020-09-02T13:47:35Z</time>
      </trkpt>
      <trkpt lat="41.7049060" lon="2.2240220">
        <ele>585.5</ele>
        <time>2020-09-02T13:47:37Z</time>
      </trkpt>
      <trkpt lat="41.7048640" lon="2.2238660">
        <ele>585.0</ele>
        <time>2020-09-02T13:47:39Z</time>
      </trkpt>
      <trkpt lat="41.7048470" lon="2.2238040">
        <ele>584.9</ele>
        <time>2020-09-02T13:47:40Z</time>
      </trkpt>
      <trkpt lat="41.7048260" lon="2.2237030">
        <ele>584.7</ele>
        <time>2020-09-02T13:47:42Z</time>
      </trkpt>
      <trkpt lat="41.7048210" lon="2.2236590">
        <ele>584.7</ele>
        <time>2020-09-02T13:47:43Z</time>
      </trkpt>
      <trkpt lat="41.7048090" lon="2.2235960">
        <ele>584.6</ele>
        <time>2020-09-02T13:47:45Z</time>
      </trkpt>
      <trkpt lat="41.7047810" lon="2.2235610">
        <ele>584.7</ele>
        <time>2020-09-02T13:47:47Z</time>
      </trkpt>
      <trkpt lat="41.7047600" lon="2.2236020">
        <ele>584.8</ele>
        <time>2020-09-02T13:47:49Z</time>
      </trkpt>
      <trkpt lat="41.7047560" lon="2.2235850">
        <ele>584.8</ele>
        <time>2020-09-02T13:47:51Z</time>
      </trkpt>
      <trkpt lat="41.7047620" lon="2.2235540">
        <ele>585.0</ele>
        <time>2020-09-02T13:47:53Z</time>
      </trkpt>
      <trkpt lat="41.7047590" lon="2.2235500">
        <ele>585.0</ele>
        <time>2020-09-02T13:47:54Z</time>
      </trkpt>
      <trkpt lat="41.7047750" lon="2.2235320">
        <ele>585.2</ele>
        <time>2020-09-02T13:47:56Z</time>
      </trkpt>
      <trkpt lat="41.7047760" lon="2.2235250">
        <ele>585.2</ele>
        <time>2020-09-02T13:47:57Z</time>
      </trkpt>
      <trkpt lat="41.7047760" lon="2.2235140">
        <ele>585.3</ele>
        <time>2020-09-02T13:47:58Z</time>
      </trkpt>
      <trkpt lat="41.7047760" lon="2.2235030">
        <ele>585.3</ele>
        <time>2020-09-02T13:47:59Z</time>
      </trkpt>
      <trkpt lat="41.7047780" lon="2.2234830">
        <ele>585.5</ele>
        <time>2020-09-02T13:48:00Z</time>
      </trkpt>
      <trkpt lat="41.7047780" lon="2.2234690">
        <ele>585.6</ele>
        <time>2020-09-02T13:48:01Z</time>
      </trkpt>
      <trkpt lat="41.7047720" lon="2.2234140">
        <ele>586.0</ele>
        <time>2020-09-02T13:48:03Z</time>
      </trkpt>
      <trkpt lat="41.7047690" lon="2.2233940">
        <ele>586.1</ele>
        <time>2020-09-02T13:48:04Z</time>
      </trkpt>
      <trkpt lat="41.7047650" lon="2.2233740">
        <ele>586.3</ele>
        <time>2020-09-02T13:48:06Z</time>
      </trkpt>
      <trkpt lat="41.7047620" lon="2.2233570">
        <ele>586.4</ele>
        <time>2020-09-02T13:48:07Z</time>
      </trkpt>
      <trkpt lat="41.7047580" lon="2.2233400">
        <ele>586.5</ele>
        <time>2020-09-02T13:48:08Z</time>
      </trkpt>
      <trkpt lat="41.7047520" lon="2.2233220">
        <ele>586.7</ele>
        <time>2020-09-02T13:48:09Z</time>
      </trkpt>
      <trkpt lat="41.7047430" lon="2.2233030">
        <ele>586.8</ele>
        <time>2020-09-02T13:48:11Z</time>
      </trkpt>
      <trkpt lat="41.7047360" lon="2.2232820">
        <ele>587.0</ele>
        <time>2020-09-02T13:48:12Z</time>
      </trkpt>
      <trkpt lat="41.7047290" lon="2.2232700">
        <ele>587.1</ele>
        <time>2020-09-02T13:48:13Z</time>
      </trkpt>
      <trkpt lat="41.7047120" lon="2.2232510">
        <ele>587.2</ele>
        <time>2020-09-02T13:48:14Z</time>
      </trkpt>
      <trkpt lat="41.7046990" lon="2.2232330">
        <ele>587.4</ele>
        <time>2020-09-02T13:48:15Z</time>
      </trkpt>
      <trkpt lat="41.7046820" lon="2.2232100">
        <ele>587.5</ele>
        <time>2020-09-02T13:48:17Z</time>
      </trkpt>
      <trkpt lat="41.7046730" lon="2.2231970">
        <ele>587.6</ele>
        <time>2020-09-02T13:48:18Z</time>
      </trkpt>
      <trkpt lat="41.7046610" lon="2.2231820">
        <ele>587.7</ele>
        <time>2020-09-02T13:48:19Z</time>
      </trkpt>
      <trkpt lat="41.7046400" lon="2.2231540">
        <ele>587.8</ele>
        <time>2020-09-02T13:48:20Z</time>
      </trkpt>
      <trkpt lat="41.7046290" lon="2.2231420">
        <ele>587.9</ele>
        <time>2020-09-02T13:48:22Z</time>
      </trkpt>
      <trkpt lat="41.7046190" lon="2.2231290">
        <ele>587.9</ele>
        <time>2020-09-02T13:48:23Z</time>
      </trkpt>
      <trkpt lat="41.7046080" lon="2.2231170">
        <ele>587.9</ele>
        <time>2020-09-02T13:48:24Z</time>
      </trkpt>
      <trkpt lat="41.7045870" lon="2.2230960">
        <ele>587.9</ele>
        <time>2020-09-02T13:48:26Z</time>
      </trkpt>
      <trkpt lat="41.7045500" lon="2.2230600">
        <ele>587.8</ele>
        <time>2020-09-02T13:48:28Z</time>
      </trkpt>
      <trkpt lat="41.7045000" lon="2.2230240">
        <ele>587.3</ele>
        <time>2020-09-02T13:48:29Z</time>
      </trkpt>
      <trkpt lat="41.7044670" lon="2.2230320">
        <ele>586.8</ele>
        <time>2020-09-02T13:48:31Z</time>
      </trkpt>
      <trkpt lat="41.7044410" lon="2.2230610">
        <ele>586.2</ele>
        <time>2020-09-02T13:48:32Z</time>
      </trkpt>
      <trkpt lat="41.7044060" lon="2.2230550">
        <ele>578.0</ele>
        <time>2020-09-02T13:48:34Z</time>
      </trkpt>
      <trkpt lat="41.7043820" lon="2.2230750">
        <ele>578.0</ele>
        <time>2020-09-02T13:48:35Z</time>
      </trkpt>
      <trkpt lat="41.7043630" lon="2.2230870">
        <ele>578.0</ele>
        <time>2020-09-02T13:48:36Z</time>
      </trkpt>
      <trkpt lat="41.7043460" lon="2.2230820">
        <ele>578.0</ele>
        <time>2020-09-02T13:48:37Z</time>
      </trkpt>
      <trkpt lat="41.7043400" lon="2.2230540">
        <ele>578.0</ele>
        <time>2020-09-02T13:48:38Z</time>
      </trkpt>
      <trkpt lat="41.7043430" lon="2.2230380">
        <ele>578.0</ele>
        <time>2020-09-02T13:48:40Z</time>
      </trkpt>
      <trkpt lat="41.7043450" lon="2.2230210">
        <ele>578.0</ele>
        <time>2020-09-02T13:48:41Z</time>
      </trkpt>
      <trkpt lat="41.7043460" lon="2.2229660">
        <ele>578.0</ele>
        <time>2020-09-02T13:48:42Z</time>
      </trkpt>
      <trkpt lat="41.7043430" lon="2.2229250">
        <ele>578.0</ele>
        <time>2020-09-02T13:48:43Z</time>
      </trkpt>
      <trkpt lat="41.7043370" lon="2.2228950">
        <ele>583.6</ele>
        <time>2020-09-02T13:48:44Z</time>
      </trkpt>
      <trkpt lat="41.7043280" lon="2.2228740">
        <ele>584.1</ele>
        <time>2020-09-02T13:48:46Z</time>
      </trkpt>
      <trkpt lat="41.7043200" lon="2.2228310">
        <ele>585.0</ele>
        <time>2020-09-02T13:48:47Z</time>
      </trkpt>
      <trkpt lat="41.7043060" lon="2.2228300">
        <ele>585.4</ele>
        <time>2020-09-02T13:48:48Z</time>
      </trkpt>
      <trkpt lat="41.7042920" lon="2.2228250">
        <ele>585.8</ele>
        <time>2020-09-02T13:48:50Z</time>
      </trkpt>
      <trkpt lat="41.7042850" lon="2.2228020">
        <ele>586.3</ele>
        <time>2020-09-02T13:48:51Z</time>
      </trkpt>
      <trkpt lat="41.7042880" lon="2.2227690">
        <ele>586.8</ele>
        <time>2020-09-02T13:48:53Z</time>
      </trkpt>
      <trkpt lat="41.7042890" lon="2.2227390">
        <ele>587.3</ele>
        <time>2020-09-02T13:48:54Z</time>
      </trkpt>
      <trkpt lat="41.7042870" lon="2.2227040">
        <ele>587.8</ele>
        <time>2020-09-02T13:48:56Z</time>
      </trkpt>
      <trkpt lat="41.7042680" lon="2.2225000">
        <ele>590.4</ele>
        <time>2020-09-02T13:48:57Z</time>
      </trkpt>
      <trkpt lat="41.7042500" lon="2.2223860">
        <ele>592.0</ele>
        <time>2020-09-02T13:48:58Z</time>
      </trkpt>
      <trkpt lat="41.7042320" lon="2.2222730">
        <ele>593.6</ele>
        <time>2020-09-02T13:48:59Z</time>
      </trkpt>
      <trkpt lat="41.7042190" lon="2.2221590">
        <ele>595.4</ele>
        <time>2020-09-02T13:49:00Z</time>
      </trkpt>
      <trkpt lat="41.7042130" lon="2.2220400">
        <ele>597.3</ele>
        <time>2020-09-02T13:49:01Z</time>
      </trkpt>
      <trkpt lat="41.7042210" lon="2.2218500">
        <ele>600.3</ele>
        <time>2020-09-02T13:49:03Z</time>
      </trkpt>
      <trkpt lat="41.7042300" lon="2.2217780">
        <ele>601.4</ele>
        <time>2020-09-02T13:49:04Z</time>
      </trkpt>
      <trkpt lat="41.7041720" lon="2.2217190">
        <ele>603.0</ele>
        <time>2020-09-02T13:49:06Z</time>
      </trkpt>
      <trkpt lat="41.7041560" lon="2.2216960">
        <ele>603.6</ele>
        <time>2020-09-02T13:49:07Z</time>
      </trkpt>
      <trkpt lat="41.7041620" lon="2.2216440">
        <ele>604.5</ele>
        <time>2020-09-02T13:49:09Z</time>
      </trkpt>
      <trkpt lat="41.7041770" lon="2.2215850">
        <ele>605.6</ele>
        <time>2020-09-02T13:49:11Z</time>
      </trkpt>
      <trkpt lat="41.7041880" lon="2.2215560">
        <ele>605.5</ele>
        <time>2020-09-02T13:49:12Z</time>
      </trkpt>
      <trkpt lat="41.7041970" lon="2.2215320">
        <ele>605.5</ele>
        <time>2020-09-02T13:49:14Z</time>
      </trkpt>
      <trkpt lat="41.7042210" lon="2.2214550">
        <ele>605.3</ele>
        <time>2020-09-02T13:49:16Z</time>
      </trkpt>
      <trkpt lat="41.7042280" lon="2.2214170">
        <ele>605.2</ele>
        <time>2020-09-02T13:49:17Z</time>
      </trkpt>
      <trkpt lat="41.7042370" lon="2.2213830">
        <ele>605.1</ele>
        <time>2020-09-02T13:49:18Z</time>
      </trkpt>
      <trkpt lat="41.7042460" lon="2.2213590">
        <ele>605.0</ele>
        <time>2020-09-02T13:49:19Z</time>
      </trkpt>
      <trkpt lat="41.7042590" lon="2.2213350">
        <ele>605.0</ele>
        <time>2020-09-02T13:49:21Z</time>
      </trkpt>
      <trkpt lat="41.7042640" lon="2.2212870">
        <ele>604.9</ele>
        <time>2020-09-02T13:49:22Z</time>
      </trkpt>
      <trkpt lat="41.7042600" lon="2.2212300">
        <ele>604.8</ele>
        <time>2020-09-02T13:49:24Z</time>
      </trkpt>
      <trkpt lat="41.7042670" lon="2.2211900">
        <ele>604.8</ele>
        <time>2020-09-02T13:49:26Z</time>
      </trkpt>
      <trkpt lat="41.7042810" lon="2.2211700">
        <ele>604.7</ele>
        <time>2020-09-02T13:49:27Z</time>
      </trkpt>
      <trkpt lat="41.7042940" lon="2.2211660">
        <ele>604.7</ele>
        <time>2020-09-02T13:49:28Z</time>
      </trkpt>
      <trkpt lat="41.7043010" lon="2.2211250">
        <ele>604.6</ele>
        <time>2020-09-02T13:49:29Z</time>
      </trkpt>
      <trkpt lat="41.7043020" lon="2.2211060">
        <ele>604.6</ele>
        <time>2020-09-02T13:49:30Z</time>
      </trkpt>
      <trkpt lat="41.7043090" lon="2.2210540">
        <ele>604.4</ele>
        <time>2020-09-02T13:49:32Z</time>
      </trkpt>
      <trkpt lat="41.7043180" lon="2.2210080">
        <ele>604.3</ele>
        <time>2020-09-02T13:49:33Z</time>
      </trkpt>
      <trkpt lat="41.7043200" lon="2.2209920">
        <ele>604.2</ele>
        <time>2020-09-02T13:49:34Z</time>
      </trkpt>
      <trkpt lat="41.7043240" lon="2.2209580">
        <ele>604.1</ele>
        <time>2020-09-02T13:49:35Z</time>
      </trkpt>
      <trkpt lat="41.7043260" lon="2.2209420">
        <ele>604.0</ele>
        <time>2020-09-02T13:49:36Z</time>
      </trkpt>
      <trkpt lat="41.7043380" lon="2.2208720">
        <ele>603.6</ele>
        <time>2020-09-02T13:49:38Z</time>
      </trkpt>
      <trkpt lat="41.7043440" lon="2.2208440">
        <ele>603.4</ele>
        <time>2020-09-02T13:49:39Z</time>
      </trkpt>
      <trkpt lat="41.7043490" lon="2.2208170">
        <ele>603.1</ele>
        <time>2020-09-02T13:49:40Z</time>
      </trkpt>
      <trkpt lat="41.7043580" lon="2.2207900">
        <ele>602.7</ele>
        <time>2020-09-02T13:49:42Z</time>
      </trkpt>
      <trkpt lat="41.7043630" lon="2.2207740">
        <ele>602.4</ele>
        <time>2020-09-02T13:49:43Z</time>
      </trkpt>
      <trkpt lat="41.7043650" lon="2.2207590">
        <ele>602.2</ele>
        <time>2020-09-02T13:49:44Z</time>
      </trkpt>
      <trkpt lat="41.7043730" lon="2.2207360">
        <ele>601.8</ele>
        <time>2020-09-02T13:49:45Z</time>
      </trkpt>
      <trkpt lat="41.7043810" lon="2.2206960">
        <ele>601.0</ele>
        <time>2020-09-02T13:49:47Z</time>
      </trkpt>
      <trkpt lat="41.7043900" lon="2.2206700">
        <ele>600.4</ele>
        <time>2020-09-02T13:49:48Z</time>
      </trkpt>
      <trkpt lat="41.7043970" lon="2.2206560">
        <ele>600.0</ele>
        <time>2020-09-02T13:49:49Z</time>
      </trkpt>
      <trkpt lat="41.7044050" lon="2.2206300">
        <ele>599.4</ele>
        <time>2020-09-02T13:49:51Z</time>
      </trkpt>
      <trkpt lat="41.7044140" lon="2.2205970">
        <ele>598.6</ele>
        <time>2020-09-02T13:49:53Z</time>
      </trkpt>
      <trkpt lat="41.7044200" lon="2.2205580">
        <ele>597.8</ele>
        <time>2020-09-02T13:49:54Z</time>
      </trkpt>
      <trkpt lat="41.7044220" lon="2.2205450">
        <ele>597.5</ele>
        <time>2020-09-02T13:49:55Z</time>
      </trkpt>
      <trkpt lat="41.7044310" lon="2.2204880">
        <ele>596.4</ele>
        <time>2020-09-02T13:49:57Z</time>
      </trkpt>
      <trkpt lat="41.7044350" lon="2.2204730">
        <ele>596.1</ele>
        <time>2020-09-02T13:49:59Z</time>
      </trkpt>
      <trkpt lat="41.7044380" lon="2.2204570">
        <ele>595.8</ele>
        <time>2020-09-02T13:50:00Z</time>
      </trkpt>
      <trkpt lat="41.7044450" lon="2.2204190">
        <ele>595.2</ele>
        <time>2020-09-02T13:50:01Z</time>
      </trkpt>
      <trkpt lat="41.7044470" lon="2.2204040">
        <ele>595.0</ele>
        <time>2020-09-02T13:50:02Z</time>
      </trkpt>
      <trkpt lat="41.7044500" lon="2.2203790">
        <ele>594.6</ele>
        <time>2020-09-02T13:50:03Z</time>
      </trkpt>
      <trkpt lat="41.7044570" lon="2.2203170">
        <ele>593.8</ele>
        <time>2020-09-02T13:50:05Z</time>
      </trkpt>
      <trkpt lat="41.7044610" lon="2.2202950">
        <ele>593.5</ele>
        <time>2020-09-02T13:50:06Z</time>
      </trkpt>
      <trkpt lat="41.7044650" lon="2.2202700">
        <ele>593.2</ele>
        <time>2020-09-02T13:50:07Z</time>
      </trkpt>
      <trkpt lat="41.7044690" lon="2.2202480">
        <ele>592.9</ele>
        <time>2020-09-02T13:50:08Z</time>
      </trkpt>
      <trkpt lat="41.7044740" lon="2.2202240">
        <ele>592.7</ele>
        <time>2020-09-02T13:50:09Z</time>
      </trkpt>
      <trkpt lat="41.7044850" lon="2.2201760">
        <ele>592.1</ele>
        <time>2020-09-02T13:50:11Z</time>
      </trkpt>
      <trkpt lat="41.7045070" lon="2.2200780">
        <ele>591.0</ele>
        <time>2020-09-02T13:50:13Z</time>
      </trkpt>
      <trkpt lat="41.7045300" lon="2.2200250">
        <ele>590.3</ele>
        <time>2020-09-02T13:50:15Z</time>
      </trkpt>
      <trkpt lat="41.7045170" lon="2.2200630">
        <ele>589.9</ele>
        <time>2020-09-02T13:50:16Z</time>
      </trkpt>
      <trkpt lat="41.7045130" lon="2.2200710">
        <ele>589.8</ele>
        <time>2020-09-02T13:50:17Z</time>
      </trkpt>
      <trkpt lat="41.7045140" lon="2.2200370">
        <ele>589.4</ele>
        <time>2020-09-02T13:50:19Z</time>
      </trkpt>
      <trkpt lat="41.7045150" lon="2.2200180">
        <ele>589.2</ele>
        <time>2020-09-02T13:50:20Z</time>
      </trkpt>
      <trkpt lat="41.7045170" lon="2.2199970">
        <ele>589.0</ele>
        <time>2020-09-02T13:50:21Z</time>
      </trkpt>
      <trkpt lat="41.7045170" lon="2.2199640">
        <ele>588.7</ele>
        <time>2020-09-02T13:50:23Z</time>
      </trkpt>
      <trkpt lat="41.7045150" lon="2.2198900">
        <ele>587.8</ele>
        <time>2020-09-02T13:50:25Z</time>
      </trkpt>
      <trkpt lat="41.7045110" lon="2.2198410">
        <ele>587.2</ele>
        <time>2020-09-02T13:50:27Z</time>
      </trkpt>
      <trkpt lat="41.7045080" lon="2.2197970">
        <ele>586.7</ele>
        <time>2020-09-02T13:50:28Z</time>
      </trkpt>
      <trkpt lat="41.7044960" lon="2.2197330">
        <ele>585.7</ele>
        <time>2020-09-02T13:50:30Z</time>
      </trkpt>
      <trkpt lat="41.7044850" lon="2.2194350">
        <ele>580.0</ele>
        <time>2020-09-02T13:50:31Z</time>
      </trkpt>
      <trkpt lat="41.7044820" lon="2.2191540">
        <ele>574.9</ele>
        <time>2020-09-02T13:50:33Z</time>
      </trkpt>
      <trkpt lat="41.7044830" lon="2.2190550">
        <ele>573.3</ele>
        <time>2020-09-02T13:50:35Z</time>
      </trkpt>
      <trkpt lat="41.7044830" lon="2.2190330">
        <ele>573.0</ele>
        <time>2020-09-02T13:50:36Z</time>
      </trkpt>
      <trkpt lat="41.7044840" lon="2.2190290">
        <ele>573.0</ele>
        <time>2020-09-02T13:50:37Z</time>
      </trkpt>
      <trkpt lat="41.7044850" lon="2.2190440">
        <ele>572.7</ele>
        <time>2020-09-02T13:50:39Z</time>
      </trkpt>
      <trkpt lat="41.7045010" lon="2.2190610">
        <ele>572.3</ele>
        <time>2020-09-02T13:50:40Z</time>
      </trkpt>
      <trkpt lat="41.7045120" lon="2.2190440">
        <ele>572.0</ele>
        <time>2020-09-02T13:50:41Z</time>
      </trkpt>
      <trkpt lat="41.7045210" lon="2.2190310">
        <ele>571.7</ele>
        <time>2020-09-02T13:50:42Z</time>
      </trkpt>
      <trkpt lat="41.7045370" lon="2.2190270">
        <ele>571.4</ele>
        <time>2020-09-02T13:50:45Z</time>
      </trkpt>
      <trkpt lat="41.7045590" lon="2.2190060">
        <ele>570.8</ele>
        <time>2020-09-02T13:50:46Z</time>
      </trkpt>
      <trkpt lat="41.7045380" lon="2.2189520">
        <ele>569.8</ele>
        <time>2020-09-02T13:50:47Z</time>
      </trkpt>
      <trkpt lat="41.7045010" lon="2.2189200">
        <ele>568.6</ele>
        <time>2020-09-02T13:50:49Z</time>
      </trkpt>
      <trkpt lat="41.7044730" lon="2.2188870">
        <ele>567.6</ele>
        <time>2020-09-02T13:50:50Z</time>
      </trkpt>
      <trkpt lat="41.7044500" lon="2.2188640">
        <ele>566.9</ele>
        <time>2020-09-02T13:50:51Z</time>
      </trkpt>
      <trkpt lat="41.7044140" lon="2.2188360">
        <ele>565.8</ele>
        <time>2020-09-02T13:50:53Z</time>
      </trkpt>
      <trkpt lat="41.7044030" lon="2.2188610">
        <ele>565.3</ele>
        <time>2020-09-02T13:50:54Z</time>
      </trkpt>
      <trkpt lat="41.7043790" lon="2.2188400">
        <ele>564.7</ele>
        <time>2020-09-02T13:50:56Z</time>
      </trkpt>
      <trkpt lat="41.7043550" lon="2.2188180">
        <ele>564.0</ele>
        <time>2020-09-02T13:50:57Z</time>
      </trkpt>
      <trkpt lat="41.7043130" lon="2.2187860">
        <ele>563.0</ele>
        <time>2020-09-02T13:50:58Z</time>
      </trkpt>
      <trkpt lat="41.7042790" lon="2.2187750">
        <ele>562.2</ele>
        <time>2020-09-02T13:50:59Z</time>
      </trkpt>
      <trkpt lat="41.7042570" lon="2.2187540">
        <ele>561.5</ele>
        <time>2020-09-02T13:51:01Z</time>
      </trkpt>
      <trkpt lat="41.7042260" lon="2.2187140">
        <ele>560.4</ele>
        <time>2020-09-02T13:51:02Z</time>
      </trkpt>
      <trkpt lat="41.7041900" lon="2.2186940">
        <ele>559.2</ele>
        <time>2020-09-02T13:51:03Z</time>
      </trkpt>
      <trkpt lat="41.7041770" lon="2.2186860">
        <ele>558.8</ele>
        <time>2020-09-02T13:51:04Z</time>
      </trkpt>
      <trkpt lat="41.7041470" lon="2.2186570">
        <ele>557.7</ele>
        <time>2020-09-02T13:51:06Z</time>
      </trkpt>
      <trkpt lat="41.7040990" lon="2.2186050">
        <ele>555.8</ele>
        <time>2020-09-02T13:51:07Z</time>
      </trkpt>
      <trkpt lat="41.7040730" lon="2.2185740">
        <ele>554.8</ele>
        <time>2020-09-02T13:51:09Z</time>
      </trkpt>
      <trkpt lat="41.7040640" lon="2.2185670">
        <ele>554.6</ele>
        <time>2020-09-02T13:51:10Z</time>
      </trkpt>
      <trkpt lat="41.7040320" lon="2.2185270">
        <ele>553.3</ele>
        <time>2020-09-02T13:51:11Z</time>
      </trkpt>
      <trkpt lat="41.7040180" lon="2.2185080">
        <ele>552.8</ele>
        <time>2020-09-02T13:51:12Z</time>
      </trkpt>
      <trkpt lat="41.7039890" lon="2.2184680">
        <ele>551.7</ele>
        <time>2020-09-02T13:51:13Z</time>
      </trkpt>
      <trkpt lat="41.7039710" lon="2.2184380">
        <ele>551.0</ele>
        <time>2020-09-02T13:51:14Z</time>
      </trkpt>
      <trkpt lat="41.7039550" lon="2.2183970">
        <ele>550.2</ele>
        <time>2020-09-02T13:51:16Z</time>
      </trkpt>
      <trkpt lat="41.7039430" lon="2.2183490">
        <ele>549.4</ele>
        <time>2020-09-02T13:51:17Z</time>
      </trkpt>
      <trkpt lat="41.7039290" lon="2.2183050">
        <ele>548.7</ele>
        <time>2020-09-02T13:51:18Z</time>
      </trkpt>
      <trkpt lat="41.7039180" lon="2.2182300">
        <ele>548.0</ele>
        <time>2020-09-02T13:51:20Z</time>
      </trkpt>
      <trkpt lat="41.7039490" lon="2.2181820">
        <ele>547.7</ele>
        <time>2020-09-02T13:51:22Z</time>
      </trkpt>
      <trkpt lat="41.7039640" lon="2.2181230">
        <ele>547.6</ele>
        <time>2020-09-02T13:51:23Z</time>
      </trkpt>
      <trkpt lat="41.7039710" lon="2.2180970">
        <ele>547.6</ele>
        <time>2020-09-02T13:51:24Z</time>
      </trkpt>
      <trkpt lat="41.7039810" lon="2.2180400">
        <ele>547.6</ele>
        <time>2020-09-02T13:51:25Z</time>
      </trkpt>
      <trkpt lat="41.7039870" lon="2.2180010">
        <ele>547.6</ele>
        <time>2020-09-02T13:51:26Z</time>
      </trkpt>
      <trkpt lat="41.7039910" lon="2.2179480">
        <ele>547.6</ele>
        <time>2020-09-02T13:51:29Z</time>
      </trkpt>
      <trkpt lat="41.7039930" lon="2.2179030">
        <ele>547.6</ele>
        <time>2020-09-02T13:51:31Z</time>
      </trkpt>
      <trkpt lat="41.7039930" lon="2.2178660">
        <ele>547.7</ele>
        <time>2020-09-02T13:51:32Z</time>
      </trkpt>
      <trkpt lat="41.7039830" lon="2.2178180">
        <ele>547.7</ele>
        <time>2020-09-02T13:51:34Z</time>
      </trkpt>
      <trkpt lat="41.7039780" lon="2.2178000">
        <ele>547.7</ele>
        <time>2020-09-02T13:51:35Z</time>
      </trkpt>
      <trkpt lat="41.7039640" lon="2.2177790">
        <ele>547.7</ele>
        <time>2020-09-02T13:51:36Z</time>
      </trkpt>
      <trkpt lat="41.7039500" lon="2.2177470">
        <ele>547.8</ele>
        <time>2020-09-02T13:51:38Z</time>
      </trkpt>
      <trkpt lat="41.7039370" lon="2.2177060">
        <ele>547.8</ele>
        <time>2020-09-02T13:51:39Z</time>
      </trkpt>
      <trkpt lat="41.7039320" lon="2.2176920">
        <ele>547.8</ele>
        <time>2020-09-02T13:51:40Z</time>
      </trkpt>
      <trkpt lat="41.7039220" lon="2.2176520">
        <ele>547.8</ele>
        <time>2020-09-02T13:51:42Z</time>
      </trkpt>
      <trkpt lat="41.7039170" lon="2.2176110">
        <ele>547.7</ele>
        <time>2020-09-02T13:51:43Z</time>
      </trkpt>
      <trkpt lat="41.7039110" lon="2.2175600">
        <ele>547.6</ele>
        <time>2020-09-02T13:51:44Z</time>
      </trkpt>
      <trkpt lat="41.7039080" lon="2.2175100">
        <ele>547.5</ele>
        <time>2020-09-02T13:51:45Z</time>
      </trkpt>
      <trkpt lat="41.7039060" lon="2.2174920">
        <ele>547.4</ele>
        <time>2020-09-02T13:51:46Z</time>
      </trkpt>
      <trkpt lat="41.7039070" lon="2.2174450">
        <ele>547.2</ele>
        <time>2020-09-02T13:51:48Z</time>
      </trkpt>
      <trkpt lat="41.7039110" lon="2.2173940">
        <ele>546.9</ele>
        <time>2020-09-02T13:51:49Z</time>
      </trkpt>
      <trkpt lat="41.7039170" lon="2.2173530">
        <ele>546.6</ele>
        <time>2020-09-02T13:51:51Z</time>
      </trkpt>
      <trkpt lat="41.7039170" lon="2.2173030">
        <ele>546.2</ele>
        <time>2020-09-02T13:51:53Z</time>
      </trkpt>
      <trkpt lat="41.7039060" lon="2.2172290">
        <ele>545.4</ele>
        <time>2020-09-02T13:51:54Z</time>
      </trkpt>
      <trkpt lat="41.7038800" lon="2.2171810">
        <ele>544.7</ele>
        <time>2020-09-02T13:51:56Z</time>
      </trkpt>
      <trkpt lat="41.7038710" lon="2.2171400">
        <ele>544.1</ele>
        <time>2020-09-02T13:51:57Z</time>
      </trkpt>
      <trkpt lat="41.7038650" lon="2.2171020">
        <ele>543.6</ele>
        <time>2020-09-02T13:51:58Z</time>
      </trkpt>
      <trkpt lat="41.7038360" lon="2.2169690">
        <ele>541.7</ele>
        <time>2020-09-02T13:52:00Z</time>
      </trkpt>
      <trkpt lat="41.7037920" lon="2.2167940">
        <ele>539.8</ele>
        <time>2020-09-02T13:52:01Z</time>
      </trkpt>
      <trkpt lat="41.7037060" lon="2.2164390">
        <ele>535.7</ele>
        <time>2020-09-02T13:52:03Z</time>
      </trkpt>
      <trkpt lat="41.7036670" lon="2.2162910">
        <ele>533.7</ele>
        <time>2020-09-02T13:52:04Z</time>
      </trkpt>
      <trkpt lat="41.7035820" lon="2.2160290">
        <ele>530.8</ele>
        <time>2020-09-02T13:52:06Z</time>
      </trkpt>
      <trkpt lat="41.7035360" lon="2.2159090">
        <ele>529.9</ele>
        <time>2020-09-02T13:52:07Z</time>
      </trkpt>
      <trkpt lat="41.7034940" lon="2.2157700">
        <ele>529.2</ele>
        <time>2020-09-02T13:52:08Z</time>
      </trkpt>
      <trkpt lat="41.7034710" lon="2.2156550">
        <ele>528.7</ele>
        <time>2020-09-02T13:52:09Z</time>
      </trkpt>
      <trkpt lat="41.7034740" lon="2.2155560">
        <ele>528.2</ele>
        <time>2020-09-02T13:52:10Z</time>
      </trkpt>
      <trkpt lat="41.7035240" lon="2.2153880">
        <ele>527.1</ele>
        <time>2020-09-02T13:52:12Z</time>
      </trkpt>
      <trkpt lat="41.7035510" lon="2.2153150">
        <ele>526.4</ele>
        <time>2020-09-02T13:52:13Z</time>
      </trkpt>
      <trkpt lat="41.7035830" lon="2.2151620">
        <ele>524.7</ele>
        <time>2020-09-02T13:52:15Z</time>
      </trkpt>
      <trkpt lat="41.7036110" lon="2.2149740">
        <ele>522.0</ele>
        <time>2020-09-02T13:52:17Z</time>
      </trkpt>
      <trkpt lat="41.7036220" lon="2.2147660">
        <ele>518.8</ele>
        <time>2020-09-02T13:52:19Z</time>
      </trkpt>
      <trkpt lat="41.7036180" lon="2.2146750">
        <ele>517.3</ele>
        <time>2020-09-02T13:52:20Z</time>
      </trkpt>
      <trkpt lat="41.7036000" lon="2.2145780">
        <ele>515.6</ele>
        <time>2020-09-02T13:52:22Z</time>
      </trkpt>
      <trkpt lat="41.7035440" lon="2.2145140">
        <ele>513.9</ele>
        <time>2020-09-02T13:52:24Z</time>
      </trkpt>
      <trkpt lat="41.7035160" lon="2.2144570">
        <ele>512.7</ele>
        <time>2020-09-02T13:52:25Z</time>
      </trkpt>
      <trkpt lat="41.7034970" lon="2.2143810">
        <ele>511.3</ele>
        <time>2020-09-02T13:52:26Z</time>
      </trkpt>
      <trkpt lat="41.7034920" lon="2.2142910">
        <ele>510.0</ele>
        <time>2020-09-02T13:52:27Z</time>
      </trkpt>
      <trkpt lat="41.7035050" lon="2.2141140">
        <ele>507.4</ele>
        <time>2020-09-02T13:52:29Z</time>
      </trkpt>
      <trkpt lat="41.7035110" lon="2.2140300">
        <ele>506.0</ele>
        <time>2020-09-02T13:52:30Z</time>
      </trkpt>
      <trkpt lat="41.7035040" lon="2.2138750">
        <ele>503.6</ele>
        <time>2020-09-02T13:52:32Z</time>
      </trkpt>
      <trkpt lat="41.7034790" lon="2.2137690">
        <ele>501.8</ele>
        <time>2020-09-02T13:52:34Z</time>
      </trkpt>
      <trkpt lat="41.7035190" lon="2.2137510">
        <ele>501.0</ele>
        <time>2020-09-02T13:52:35Z</time>
      </trkpt>
      <trkpt lat="41.7034840" lon="2.2136490">
        <ele>499.4</ele>
        <time>2020-09-02T13:52:37Z</time>
      </trkpt>
      <trkpt lat="41.7033800" lon="2.2134820">
        <ele>496.4</ele>
        <time>2020-09-02T13:52:39Z</time>
      </trkpt>
      <trkpt lat="41.7033390" lon="2.2133890">
        <ele>495.0</ele>
        <time>2020-09-02T13:52:40Z</time>
      </trkpt>
      <trkpt lat="41.7033020" lon="2.2132000">
        <ele>492.7</ele>
        <time>2020-09-02T13:52:42Z</time>
      </trkpt>
      <trkpt lat="41.7033150" lon="2.2130190">
        <ele>490.6</ele>
        <time>2020-09-02T13:52:44Z</time>
      </trkpt>
      <trkpt lat="41.7033300" lon="2.2128640">
        <ele>488.9</ele>
        <time>2020-09-02T13:52:46Z</time>
      </trkpt>
      <trkpt lat="41.7033110" lon="2.2127250">
        <ele>487.4</ele>
        <time>2020-09-02T13:52:48Z</time>
      </trkpt>
      <trkpt lat="41.7033020" lon="2.2126640">
        <ele>486.9</ele>
        <time>2020-09-02T13:52:49Z</time>
      </trkpt>
      <trkpt lat="41.7033000" lon="2.2126200">
        <ele>486.6</ele>
        <time>2020-09-02T13:52:50Z</time>
      </trkpt>
      <trkpt lat="41.7033010" lon="2.2125440">
        <ele>486.2</ele>
        <time>2020-09-02T13:52:52Z</time>
      </trkpt>
      <trkpt lat="41.7032770" lon="2.2124500">
        <ele>485.8</ele>
        <time>2020-09-02T13:52:54Z</time>
      </trkpt>
      <trkpt lat="41.7032760" lon="2.2123500">
        <ele>485.6</ele>
        <time>2020-09-02T13:52:55Z</time>
      </trkpt>
      <trkpt lat="41.7033000" lon="2.2123060">
        <ele>485.6</ele>
        <time>2020-09-02T13:52:56Z</time>
      </trkpt>
      <trkpt lat="41.7033190" lon="2.2122930">
        <ele>485.7</ele>
        <time>2020-09-02T13:52:58Z</time>
      </trkpt>
      <trkpt lat="41.7033260" lon="2.2122860">
        <ele>485.7</ele>
        <time>2020-09-02T13:52:59Z</time>
      </trkpt>
      <trkpt lat="41.7033250" lon="2.2122880">
        <ele>485.7</ele>
        <time>2020-09-02T13:53:00Z</time>
      </trkpt>
      <trkpt lat="41.7033260" lon="2.2122820">
        <ele>485.7</ele>
        <time>2020-09-02T13:53:01Z</time>
      </trkpt>
      <trkpt lat="41.7033320" lon="2.2122690">
        <ele>485.8</ele>
        <time>2020-09-02T13:53:03Z</time>
      </trkpt>
      <trkpt lat="41.7033330" lon="2.2122390">
        <ele>485.9</ele>
        <time>2020-09-02T13:53:04Z</time>
      </trkpt>
      <trkpt lat="41.7033400" lon="2.2121810">
        <ele>486.2</ele>
        <time>2020-09-02T13:53:06Z</time>
      </trkpt>
      <trkpt lat="41.7033420" lon="2.2121580">
        <ele>486.3</ele>
        <time>2020-09-02T13:53:07Z</time>
      </trkpt>
      <trkpt lat="41.7033440" lon="2.2121050">
        <ele>486.6</ele>
        <time>2020-09-02T13:53:08Z</time>
      </trkpt>
      <trkpt lat="41.7033450" lon="2.2120850">
        <ele>486.7</ele>
        <time>2020-09-02T13:53:09Z</time>
      </trkpt>
      <trkpt lat="41.7033510" lon="2.2120480">
        <ele>487.0</ele>
        <time>2020-09-02T13:53:10Z</time>
      </trkpt>
      <trkpt lat="41.7033620" lon="2.2119990">
        <ele>487.2</ele>
        <time>2020-09-02T13:53:12Z</time>
      </trkpt>
      <trkpt lat="41.7033710" lon="2.2119500">
        <ele>487.5</ele>
        <time>2020-09-02T13:53:13Z</time>
      </trkpt>
      <trkpt lat="41.7033770" lon="2.2118950">
        <ele>487.7</ele>
        <time>2020-09-02T13:53:14Z</time>
      </trkpt>
      <trkpt lat="41.7033780" lon="2.2118750">
        <ele>487.8</ele>
        <time>2020-09-02T13:53:15Z</time>
      </trkpt>
      <trkpt lat="41.7033850" lon="2.2118210">
        <ele>488.0</ele>
        <time>2020-09-02T13:53:17Z</time>
      </trkpt>
      <trkpt lat="41.7033870" lon="2.2118010">
        <ele>488.0</ele>
        <time>2020-09-02T13:53:18Z</time>
      </trkpt>
      <trkpt lat="41.7033900" lon="2.2117640">
        <ele>488.2</ele>
        <time>2020-09-02T13:53:19Z</time>
      </trkpt>
      <trkpt lat="41.7033930" lon="2.2117240">
        <ele>488.3</ele>
        <time>2020-09-02T13:53:20Z</time>
      </trkpt>
      <trkpt lat="41.7033960" lon="2.2116870">
        <ele>488.5</ele>
        <time>2020-09-02T13:53:22Z</time>
      </trkpt>
      <trkpt lat="41.7033990" lon="2.2116400">
        <ele>488.8</ele>
        <time>2020-09-02T13:53:23Z</time>
      </trkpt>
      <trkpt lat="41.7034030" lon="2.2116000">
        <ele>489.0</ele>
        <time>2020-09-02T13:53:24Z</time>
      </trkpt>
      <trkpt lat="41.7034090" lon="2.2115460">
        <ele>489.3</ele>
        <time>2020-09-02T13:53:25Z</time>
      </trkpt>
      <trkpt lat="41.7034210" lon="2.2115040">
        <ele>489.5</ele>
        <time>2020-09-02T13:53:27Z</time>
      </trkpt>
      <trkpt lat="41.7034250" lon="2.2114900">
        <ele>489.6</ele>
        <time>2020-09-02T13:53:28Z</time>
      </trkpt>
      <trkpt lat="41.7034440" lon="2.2114540">
        <ele>489.8</ele>
        <time>2020-09-02T13:53:29Z</time>
      </trkpt>
      <trkpt lat="41.7034660" lon="2.2114190">
        <ele>490.0</ele>
        <time>2020-09-02T13:53:30Z</time>
      </trkpt>
      <trkpt lat="41.7034810" lon="2.2113850">
        <ele>490.1</ele>
        <time>2020-09-02T13:53:32Z</time>
      </trkpt>
      <trkpt lat="41.7034860" lon="2.2113480">
        <ele>490.3</ele>
        <time>2020-09-02T13:53:33Z</time>
      </trkpt>
      <trkpt lat="41.7034920" lon="2.2111830">
        <ele>490.6</ele>
        <time>2020-09-02T13:53:34Z</time>
      </trkpt>
      <trkpt lat="41.7034960" lon="2.2110790">
        <ele>490.3</ele>
        <time>2020-09-02T13:53:35Z</time>
      </trkpt>
      <trkpt lat="41.7034990" lon="2.2109940">
        <ele>489.5</ele>
        <time>2020-09-02T13:53:37Z</time>
      </trkpt>
      <trkpt lat="41.7034830" lon="2.2109930">
        <ele>489.3</ele>
        <time>2020-09-02T13:53:38Z</time>
      </trkpt>
      <trkpt lat="41.7034780" lon="2.2110630">
        <ele>488.2</ele>
        <time>2020-09-02T13:53:40Z</time>
      </trkpt>
      <trkpt lat="41.7034770" lon="2.2111060">
        <ele>487.4</ele>
        <time>2020-09-02T13:53:41Z</time>
      </trkpt>
      <trkpt lat="41.7034010" lon="2.2108680">
        <ele>481.7</ele>
        <time>2020-09-02T13:53:43Z</time>
      </trkpt>
      <trkpt lat="41.7033170" lon="2.2106260">
        <ele>478.5</ele>
        <time>2020-09-02T13:53:45Z</time>
      </trkpt>
      <trkpt lat="41.7032540" lon="2.2104290">
        <ele>476.0</ele>
        <time>2020-09-02T13:53:47Z</time>
      </trkpt>
      <trkpt lat="41.7032310" lon="2.2103590">
        <ele>475.2</ele>
        <time>2020-09-02T13:53:48Z</time>
      </trkpt>
      <trkpt lat="41.7031610" lon="2.2102160">
        <ele>473.3</ele>
        <time>2020-09-02T13:53:50Z</time>
      </trkpt>
      <trkpt lat="41.7031000" lon="2.2100690">
        <ele>471.4</ele>
        <time>2020-09-02T13:53:52Z</time>
      </trkpt>
      <trkpt lat="41.7030990" lon="2.2100070">
        <ele>470.8</ele>
        <time>2020-09-02T13:53:53Z</time>
      </trkpt>
      <trkpt lat="41.7030980" lon="2.2099680">
        <ele>470.5</ele>
        <time>2020-09-02T13:53:54Z</time>
      </trkpt>
      <trkpt lat="41.7030960" lon="2.2099550">
        <ele>470.4</ele>
        <time>2020-09-02T13:53:55Z</time>
      </trkpt>
      <trkpt lat="41.7030680" lon="2.2098230">
        <ele>469.5</ele>
        <time>2020-09-02T13:53:57Z</time>
      </trkpt>
      <trkpt lat="41.7030530" lon="2.2097560">
        <ele>469.3</ele>
        <time>2020-09-02T13:53:58Z</time>
      </trkpt>
      <trkpt lat="41.7029800" lon="2.2096090">
        <ele>469.0</ele>
        <time>2020-09-02T13:54:00Z</time>
      </trkpt>
      <trkpt lat="41.7029470" lon="2.2095410">
        <ele>469.0</ele>
        <time>2020-09-02T13:54:01Z</time>
      </trkpt>
      <trkpt lat="41.7028780" lon="2.2094160">
        <ele>468.7</ele>
        <time>2020-09-02T13:54:03Z</time>
      </trkpt>
      <trkpt lat="41.7028280" lon="2.2093510">
        <ele>468.4</ele>
        <time>2020-09-02T13:54:04Z</time>
      </trkpt>
      <trkpt lat="41.7027780" lon="2.2092810">
        <ele>467.9</ele>
        <time>2020-09-02T13:54:05Z</time>
      </trkpt>
      <trkpt lat="41.7027460" lon="2.2092130">
        <ele>467.5</ele>
        <time>2020-09-02T13:54:06Z</time>
      </trkpt>
      <trkpt lat="41.7026700" lon="2.2090490">
        <ele>466.5</ele>
        <time>2020-09-02T13:54:08Z</time>
      </trkpt>
      <trkpt lat="41.7026390" lon="2.2089680">
        <ele>466.1</ele>
        <time>2020-09-02T13:54:09Z</time>
      </trkpt>
      <trkpt lat="41.7025500" lon="2.2088010">
        <ele>465.7</ele>
        <time>2020-09-02T13:54:11Z</time>
      </trkpt>
      <trkpt lat="41.7024400" lon="2.2086460">
        <ele>465.6</ele>
        <time>2020-09-02T13:54:13Z</time>
      </trkpt>
      <trkpt lat="41.7023400" lon="2.2085000">
        <ele>465.3</ele>
        <time>2020-09-02T13:54:15Z</time>
      </trkpt>
      <trkpt lat="41.7022840" lon="2.2084220">
        <ele>465.0</ele>
        <time>2020-09-02T13:54:16Z</time>
      </trkpt>
      <trkpt lat="41.7022280" lon="2.2083520">
        <ele>464.6</ele>
        <time>2020-09-02T13:54:17Z</time>
      </trkpt>
      <trkpt lat="41.7021140" lon="2.2082450">
        <ele>463.4</ele>
        <time>2020-09-02T13:54:19Z</time>
      </trkpt>
      <trkpt lat="41.7020180" lon="2.2081920">
        <ele>461.8</ele>
        <time>2020-09-02T13:54:21Z</time>
      </trkpt>
      <trkpt lat="41.7019390" lon="2.2081920">
        <ele>460.3</ele>
        <time>2020-09-02T13:54:23Z</time>
      </trkpt>
      <trkpt lat="41.7018640" lon="2.2081250">
        <ele>458.5</ele>
        <time>2020-09-02T13:54:25Z</time>
      </trkpt>
      <trkpt lat="41.7018240" lon="2.2080740">
        <ele>457.5</ele>
        <time>2020-09-02T13:54:26Z</time>
      </trkpt>
      <trkpt lat="41.7017850" lon="2.2080200">
        <ele>456.5</ele>
        <time>2020-09-02T13:54:27Z</time>
      </trkpt>
      <trkpt lat="41.7016980" lon="2.2079120">
        <ele>455.0</ele>
        <time>2020-09-02T13:54:29Z</time>
      </trkpt>
      <trkpt lat="41.7015930" lon="2.2078080">
        <ele>453.6</ele>
        <time>2020-09-02T13:54:31Z</time>
      </trkpt>
      <trkpt lat="41.7015370" lon="2.2077670">
        <ele>453.1</ele>
        <time>2020-09-02T13:54:32Z</time>
      </trkpt>
      <trkpt lat="41.7014100" lon="2.2076940">
        <ele>451.9</ele>
        <time>2020-09-02T13:54:34Z</time>
      </trkpt>
      <trkpt lat="41.7013410" lon="2.2076580">
        <ele>451.3</ele>
        <time>2020-09-02T13:54:35Z</time>
      </trkpt>
      <trkpt lat="41.7012130" lon="2.2075950">
        <ele>450.0</ele>
        <time>2020-09-02T13:54:37Z</time>
      </trkpt>
      <trkpt lat="41.7011540" lon="2.2075670">
        <ele>449.2</ele>
        <time>2020-09-02T13:54:38Z</time>
      </trkpt>
      <trkpt lat="41.7011020" lon="2.2075300">
        <ele>448.4</ele>
        <time>2020-09-02T13:54:39Z</time>
      </trkpt>
      <trkpt lat="41.7010560" lon="2.2074890">
        <ele>447.4</ele>
        <time>2020-09-02T13:54:40Z</time>
      </trkpt>
      <trkpt lat="41.7009620" lon="2.2074190">
        <ele>445.4</ele>
        <time>2020-09-02T13:54:42Z</time>
      </trkpt>
      <trkpt lat="41.7008620" lon="2.2073700">
        <ele>443.0</ele>
        <time>2020-09-02T13:54:44Z</time>
      </trkpt>
      <trkpt lat="41.7007770" lon="2.2073660">
        <ele>441.0</ele>
        <time>2020-09-02T13:54:46Z</time>
      </trkpt>
      <trkpt lat="41.7007340" lon="2.2073590">
        <ele>439.9</ele>
        <time>2020-09-02T13:54:47Z</time>
      </trkpt>
      <trkpt lat="41.7006650" lon="2.2073580">
        <ele>438.3</ele>
        <time>2020-09-02T13:54:49Z</time>
      </trkpt>
      <trkpt lat="41.7006260" lon="2.2073570">
        <ele>437.4</ele>
        <time>2020-09-02T13:54:50Z</time>
      </trkpt>
      <trkpt lat="41.7005840" lon="2.2073210">
        <ele>436.4</ele>
        <time>2020-09-02T13:54:51Z</time>
      </trkpt>
      <trkpt lat="41.7005470" lon="2.2073060">
        <ele>435.7</ele>
        <time>2020-09-02T13:54:52Z</time>
      </trkpt>
      <trkpt lat="41.7005200" lon="2.2072780">
        <ele>435.1</ele>
        <time>2020-09-02T13:54:54Z</time>
      </trkpt>
      <trkpt lat="41.7004720" lon="2.2072490">
        <ele>434.4</ele>
        <time>2020-09-02T13:54:55Z</time>
      </trkpt>
      <trkpt lat="41.7004180" lon="2.2072200">
        <ele>433.7</ele>
        <time>2020-09-02T13:54:56Z</time>
      </trkpt>
      <trkpt lat="41.7003110" lon="2.2071580">
        <ele>432.6</ele>
        <time>2020-09-02T13:54:58Z</time>
      </trkpt>
      <trkpt lat="41.7002060" lon="2.2070600">
        <ele>431.4</ele>
        <time>2020-09-02T13:55:00Z</time>
      </trkpt>
      <trkpt lat="41.7001170" lon="2.2069610">
        <ele>430.0</ele>
        <time>2020-09-02T13:55:02Z</time>
      </trkpt>
      <trkpt lat="41.7000570" lon="2.2069020">
        <ele>429.2</ele>
        <time>2020-09-02T13:55:03Z</time>
      </trkpt>
      <trkpt lat="41.7000280" lon="2.2068690">
        <ele>428.8</ele>
        <time>2020-09-02T13:55:05Z</time>
      </trkpt>
      <trkpt lat="41.6999590" lon="2.2067670">
        <ele>427.8</ele>
        <time>2020-09-02T13:55:07Z</time>
      </trkpt>
      <trkpt lat="41.6998820" lon="2.2066650">
        <ele>426.8</ele>
        <time>2020-09-02T13:55:09Z</time>
      </trkpt>
      <trkpt lat="41.6998390" lon="2.2066110">
        <ele>426.3</ele>
        <time>2020-09-02T13:55:10Z</time>
      </trkpt>
      <trkpt lat="41.6997470" lon="2.2065370">
        <ele>425.2</ele>
        <time>2020-09-02T13:55:12Z</time>
      </trkpt>
      <trkpt lat="41.6997160" lon="2.2065360">
        <ele>424.8</ele>
        <time>2020-09-02T13:55:13Z</time>
      </trkpt>
      <trkpt lat="41.6996820" lon="2.2065220">
        <ele>424.4</ele>
        <time>2020-09-02T13:55:14Z</time>
      </trkpt>
      <trkpt lat="41.6997620" lon="2.2066170">
        <ele>422.7</ele>
        <time>2020-09-02T13:55:15Z</time>
      </trkpt>
      <trkpt lat="41.6997000" lon="2.2065880">
        <ele>421.3</ele>
        <time>2020-09-02T13:55:17Z</time>
      </trkpt>
      <trkpt lat="41.6996550" lon="2.2065540">
        <ele>420.0</ele>
        <time>2020-09-02T13:55:18Z</time>
      </trkpt>
      <trkpt lat="41.6994830" lon="2.2063950">
        <ele>414.2</ele>
        <time>2020-09-02T13:55:20Z</time>
      </trkpt>
      <trkpt lat="41.6993700" lon="2.2062680">
        <ele>411.0</ele>
        <time>2020-09-02T13:55:22Z</time>
      </trkpt>
      <trkpt lat="41.6992860" lon="2.2061330">
        <ele>408.8</ele>
        <time>2020-09-02T13:55:23Z</time>
      </trkpt>
      <trkpt lat="41.6992170" lon="2.2060210">
        <ele>407.1</ele>
        <time>2020-09-02T13:55:24Z</time>
      </trkpt>
      <trkpt lat="41.6991830" lon="2.2059410">
        <ele>406.0</ele>
        <time>2020-09-02T13:55:25Z</time>
      </trkpt>
      <trkpt lat="41.6990930" lon="2.2058280">
        <ele>404.0</ele>
        <time>2020-09-02T13:55:26Z</time>
      </trkpt>
      <trkpt lat="41.6990450" lon="2.2057640">
        <ele>402.9</ele>
        <time>2020-09-02T13:55:27Z</time>
      </trkpt>
      <trkpt lat="41.6989470" lon="2.2056170">
        <ele>401.7</ele>
        <time>2020-09-02T13:55:28Z</time>
      </trkpt>
      <trkpt lat="41.6988500" lon="2.2054790">
        <ele>400.8</ele>
        <time>2020-09-02T13:55:29Z</time>
      </trkpt>
      <trkpt lat="41.6987930" lon="2.2054080">
        <ele>400.3</ele>
        <time>2020-09-02T13:55:31Z</time>
      </trkpt>
      <trkpt lat="41.6986860" lon="2.2053230">
        <ele>399.4</ele>
        <time>2020-09-02T13:55:32Z</time>
      </trkpt>
      <trkpt lat="41.6987380" lon="2.2054230">
        <ele>398.8</ele>
        <time>2020-09-02T13:55:34Z</time>
      </trkpt>
      <trkpt lat="41.6987890" lon="2.2054930">
        <ele>398.3</ele>
        <time>2020-09-02T13:55:35Z</time>
      </trkpt>
      <trkpt lat="41.6988620" lon="2.2055710">
        <ele>397.7</ele>
        <time>2020-09-02T13:55:37Z</time>
      </trkpt>
      <trkpt lat="41.6986910" lon="2.2054150">
        <ele>396.3</ele>
        <time>2020-09-02T13:55:39Z</time>
      </trkpt>
      <trkpt lat="41.6986800" lon="2.2054060">
        <ele>396.2</ele>
        <time>2020-09-02T13:55:40Z</time>
      </trkpt>
      <trkpt lat="41.6986740" lon="2.2054220">
        <ele>396.1</ele>
        <time>2020-09-02T13:55:42Z</time>
      </trkpt>
      <trkpt lat="41.6986670" lon="2.2054390">
        <ele>396.0</ele>
        <time>2020-09-02T13:55:44Z</time>
      </trkpt>
      <trkpt lat="41.6986610" lon="2.2054550">
        <ele>396.0</ele>
        <time>2020-09-02T13:55:45Z</time>
      </trkpt>
      <trkpt lat="41.6986440" lon="2.2054730">
        <ele>395.8</ele>
        <time>2020-09-02T13:55:47Z</time>
      </trkpt>
      <trkpt lat="41.699096" lon="2.205662">
        <ele>421.80</ele>
        <time>2020-09-02T13:55:32Z</time>
      </trkpt>
      <trkpt lat="41.699041" lon="2.205581">
        <ele>420.80</ele>
        <time>2020-09-02T13:55:33Z</time>
      </trkpt>
      <trkpt lat="41.698984" lon="2.205500">
        <ele>419.40</ele>
        <time>2020-09-02T13:55:34Z</time>
      </trkpt>
      <trkpt lat="41.698880" lon="2.205356">
        <ele>417.40</ele>
        <time>2020-09-02T13:55:36Z</time>
      </trkpt>
      <trkpt lat="41.698828" lon="2.205311">
        <ele>416.80</ele>
        <time>2020-09-02T13:55:37Z</time>
      </trkpt>
      <trkpt lat="41.698769" lon="2.205285">
        <ele>415.80</ele>
        <time>2020-09-02T13:55:38Z</time>
      </trkpt>
      <trkpt lat="41.698719" lon="2.205274">
        <ele>414.80</ele>
        <time>2020-09-02T13:55:39Z</time>
      </trkpt>
      <trkpt lat="41.698676" lon="2.205277">
        <ele>413.80</ele>
        <time>2020-09-02T13:55:40Z</time>
      </trkpt>
      <trkpt lat="41.698650" lon="2.205294">
        <ele>413.20</ele>
        <time>2020-09-02T13:55:41Z</time>
      </trkpt>
      <trkpt lat="41.698633" lon="2.205311">
        <ele>412.40</ele>
        <time>2020-09-02T13:55:43Z</time>
      </trkpt>
      <trkpt lat="41.700746" lon="2.211721">
        <ele>403.40</ele>
        <time>2020-09-02T14:00:31Z</time>
      </trkpt>
      <trkpt lat="41.700765" lon="2.211733">
        <ele>403.40</ele>
        <time>2020-09-02T14:00:32Z</time>
      </trkpt>
      <trkpt lat="41.700784" lon="2.211749">
        <ele>403.40</ele>
        <time>2020-09-02T14:00:33Z</time>
      </trkpt>
      <trkpt lat="41.700815" lon="2.211789">
        <ele>406.20</ele>
        <time>2020-09-02T14:00:35Z</time>
      </trkpt>
      <trkpt lat="41.700830" lon="2.211809">
        <ele>408.20</ele>
        <time>2020-09-02T14:00:36Z</time>
      </trkpt>
      <trkpt lat="41.700845" lon="2.211831">
        <ele>409.20</ele>
        <time>2020-09-02T14:00:37Z</time>
      </trkpt>
      <trkpt lat="41.700874" lon="2.211876">
        <ele>410.40</ele>
        <time>2020-09-02T14:00:39Z</time>
      </trkpt>
      <trkpt lat="41.700886" lon="2.211901">
        <ele>410.60</ele>
        <time>2020-09-02T14:00:40Z</time>
      </trkpt>
      <trkpt lat="41.700926" lon="2.212015">
        <ele>411.40</ele>
        <time>2020-09-02T14:00:44Z</time>
      </trkpt>
      <trkpt lat="41.700947" lon="2.212104">
        <ele>411.60</ele>
        <time>2020-09-02T14:00:47Z</time>
      </trkpt>
      <trkpt lat="41.700952" lon="2.212134">
        <ele>411.60</ele>
        <time>2020-09-02T14:00:48Z</time>
      </trkpt>
      <trkpt lat="41.700956" lon="2.212164">
        <ele>411.80</ele>
        <time>2020-09-02T14:00:49Z</time>
      </trkpt>
      <trkpt lat="41.700961" lon="2.212225">
        <ele>412.20</ele>
        <time>2020-09-02T14:00:51Z</time>
      </trkpt>
      <trkpt lat="41.700973" lon="2.212309">
        <ele>412.40</ele>
        <time>2020-09-02T14:00:54Z</time>
      </trkpt>
      <trkpt lat="41.700996" lon="2.212359">
        <ele>412.40</ele>
        <time>2020-09-02T14:00:56Z</time>
      </trkpt>
      <trkpt lat="41.701053" lon="2.212480">
        <ele>413.40</ele>
        <time>2020-09-02T14:01:01Z</time>
      </trkpt>
      <trkpt lat="41.701077" lon="2.212573">
        <ele>414.00</ele>
        <time>2020-09-02T14:01:04Z</time>
      </trkpt>
      <trkpt lat="41.701101" lon="2.212732">
        <ele>413.60</ele>
        <time>2020-09-02T14:01:08Z</time>
      </trkpt>
      <trkpt lat="41.701133" lon="2.212856">
        <ele>413.00</ele>
        <time>2020-09-02T14:01:11Z</time>
      </trkpt>
      <trkpt lat="41.701152" lon="2.213111">
        <ele>412.60</ele>
        <time>2020-09-02T14:01:17Z</time>
      </trkpt>
      <trkpt lat="41.701200" lon="2.213285">
        <ele>413.20</ele>
        <time>2020-09-02T14:01:22Z</time>
      </trkpt>
      <trkpt lat="41.701336" lon="2.213421">
        <ele>414.00</ele>
        <time>2020-09-02T14:01:28Z</time>
      </trkpt>
      <trkpt lat="41.701377" lon="2.213449">
        <ele>414.60</ele>
        <time>2020-09-02T14:01:30Z</time>
      </trkpt>
      <trkpt lat="41.701414" lon="2.213467">
        <ele>415.60</ele>
        <time>2020-09-02T14:01:34Z</time>
      </trkpt>
      <trkpt lat="41.701437" lon="2.213503">
        <ele>416.00</ele>
        <time>2020-09-02T14:01:39Z</time>
      </trkpt>
      <trkpt lat="41.701445" lon="2.213527">
        <ele>416.20</ele>
        <time>2020-09-02T14:01:41Z</time>
      </trkpt>
      <trkpt lat="41.701456" lon="2.213559">
        <ele>416.80</ele>
        <time>2020-09-02T14:01:44Z</time>
      </trkpt>
      <trkpt lat="41.701461" lon="2.213572">
        <ele>417.00</ele>
        <time>2020-09-02T14:01:45Z</time>
      </trkpt>
      <trkpt lat="41.701443" lon="2.213644">
        <ele>417.60</ele>
        <time>2020-09-02T14:01:50Z</time>
      </trkpt>
      <trkpt lat="41.701423" lon="2.213699">
        <ele>417.60</ele>
        <time>2020-09-02T14:01:52Z</time>
      </trkpt>
      <trkpt lat="41.701307" lon="2.213893">
        <ele>417.60</ele>
        <time>2020-09-02T14:01:59Z</time>
      </trkpt>
      <trkpt lat="41.701287" lon="2.213923">
        <ele>417.80</ele>
        <time>2020-09-02T14:02:00Z</time>
      </trkpt>
      <trkpt lat="41.701183" lon="2.214061">
        <ele>418.60</ele>
        <time>2020-09-02T14:02:05Z</time>
      </trkpt>
      <trkpt lat="41.701093" lon="2.214165">
        <ele>418.40</ele>
        <time>2020-09-02T14:02:09Z</time>
      </trkpt>
      <trkpt lat="41.700942" lon="2.214211">
        <ele>418.40</ele>
        <time>2020-09-02T14:02:14Z</time>
      </trkpt>
      <trkpt lat="41.700760" lon="2.214144">
        <ele>418.60</ele>
        <time>2020-09-02T14:02:20Z</time>
      </trkpt>
      <trkpt lat="41.700693" lon="2.214124">
        <ele>419.00</ele>
        <time>2020-09-02T14:02:22Z</time>
      </trkpt>
      <trkpt lat="41.700545" lon="2.214098">
        <ele>419.00</ele>
        <time>2020-09-02T14:02:26Z</time>
      </trkpt>
      <trkpt lat="41.700506" lon="2.214093">
        <ele>419.00</ele>
        <time>2020-09-02T14:02:27Z</time>
      </trkpt>
      <trkpt lat="41.700349" lon="2.214084">
        <ele>418.20</ele>
        <time>2020-09-02T14:02:31Z</time>
      </trkpt>
      <trkpt lat="41.700244" lon="2.214118">
        <ele>418.00</ele>
        <time>2020-09-02T14:02:34Z</time>
      </trkpt>
      <trkpt lat="41.700170" lon="2.214257">
        <ele>418.40</ele>
        <time>2020-09-02T14:02:38Z</time>
      </trkpt>
      <trkpt lat="41.700104" lon="2.214511">
        <ele>419.80</ele>
        <time>2020-09-02T14:02:45Z</time>
      </trkpt>
      <trkpt lat="41.700100" lon="2.214537">
        <ele>420.20</ele>
        <time>2020-09-02T14:02:46Z</time>
      </trkpt>
      <trkpt lat="41.700090" lon="2.214636">
        <ele>421.20</ele>
        <time>2020-09-02T14:02:50Z</time>
      </trkpt>
      <trkpt lat="41.700094" lon="2.214709">
        <ele>422.00</ele>
        <time>2020-09-02T14:02:53Z</time>
      </trkpt>
      <trkpt lat="41.700097" lon="2.214761">
        <ele>422.20</ele>
        <time>2020-09-02T14:02:55Z</time>
      </trkpt>
      <trkpt lat="41.700101" lon="2.214789">
        <ele>422.40</ele>
        <time>2020-09-02T14:02:56Z</time>
      </trkpt>
      <trkpt lat="41.700105" lon="2.214866">
        <ele>423.00</ele>
        <time>2020-09-02T14:02:59Z</time>
      </trkpt>
      <trkpt lat="41.700105" lon="2.214891">
        <ele>423.20</ele>
        <time>2020-09-02T14:03:00Z</time>
      </trkpt>
      <trkpt lat="41.700105" lon="2.214916">
        <ele>423.40</ele>
        <time>2020-09-02T14:03:01Z</time>
      </trkpt>
      <trkpt lat="41.700105" lon="2.214942">
        <ele>423.60</ele>
        <time>2020-09-02T14:03:02Z</time>
      </trkpt>
      <trkpt lat="41.700103" lon="2.214966">
        <ele>424.00</ele>
        <time>2020-09-02T14:03:03Z</time>
      </trkpt>
      <trkpt lat="41.700089" lon="2.215079">
        <ele>424.60</ele>
        <time>2020-09-02T14:03:08Z</time>
      </trkpt>
      <trkpt lat="41.700086" lon="2.215101">
        <ele>424.60</ele>
        <time>2020-09-02T14:03:09Z</time>
      </trkpt>
      <trkpt lat="41.700081" lon="2.215146">
        <ele>425.00</ele>
        <time>2020-09-02T14:03:11Z</time>
      </trkpt>
      <trkpt lat="41.700078" lon="2.215213">
        <ele>425.80</ele>
        <time>2020-09-02T14:03:14Z</time>
      </trkpt>
      <trkpt lat="41.700078" lon="2.215213">
        <ele>426.20</ele>
        <time>2020-09-02T14:03:15Z</time>
      </trkpt>
      <trkpt lat="41.700078" lon="2.215213">
        <ele>426.20</ele>
        <time>2020-09-02T14:03:16Z</time>
      </trkpt>
      <trkpt lat="41.700081" lon="2.215374">
        <ele>426.80</ele>
        <time>2020-09-02T14:03:21Z</time>
      </trkpt>
      <trkpt lat="41.700098" lon="2.215506">
        <ele>427.60</ele>
        <time>2020-09-02T14:03:27Z</time>
      </trkpt>
      <trkpt lat="41.700109" lon="2.215548">
        <ele>427.80</ele>
        <time>2020-09-02T14:03:29Z</time>
      </trkpt>
      <trkpt lat="41.700151" lon="2.215684">
        <ele>428.40</ele>
        <time>2020-09-02T14:03:35Z</time>
      </trkpt>
      <trkpt lat="41.700172" lon="2.215726">
        <ele>428.60</ele>
        <time>2020-09-02T14:03:37Z</time>
      </trkpt>
      <trkpt lat="41.700199" lon="2.215761">
        <ele>429.00</ele>
        <time>2020-09-02T14:03:39Z</time>
      </trkpt>
      <trkpt lat="41.700287" lon="2.215837">
        <ele>429.40</ele>
        <time>2020-09-02T14:03:44Z</time>
      </trkpt>
      <trkpt lat="41.700346" lon="2.215867">
        <ele>430.00</ele>
        <time>2020-09-02T14:03:47Z</time>
      </trkpt>
      <trkpt lat="41.700459" lon="2.215920">
        <ele>431.20</ele>
        <time>2020-09-02T14:03:53Z</time>
      </trkpt>
      <trkpt lat="41.700541" lon="2.215944">
        <ele>432.40</ele>
        <time>2020-09-02T14:03:57Z</time>
      </trkpt>
      <trkpt lat="41.700604" lon="2.215965">
        <ele>432.80</ele>
        <time>2020-09-02T14:04:00Z</time>
      </trkpt>
      <trkpt lat="41.700683" lon="2.215985">
        <ele>433.00</ele>
        <time>2020-09-02T14:04:04Z</time>
      </trkpt>
      <trkpt lat="41.700739" lon="2.215974">
        <ele>433.40</ele>
        <time>2020-09-02T14:04:07Z</time>
      </trkpt>
      <trkpt lat="41.700773" lon="2.215947">
        <ele>433.80</ele>
        <time>2020-09-02T14:04:09Z</time>
      </trkpt>
      <trkpt lat="41.700809" lon="2.215889">
        <ele>434.40</ele>
        <time>2020-09-02T14:04:12Z</time>
      </trkpt>
      <trkpt lat="41.700846" lon="2.215810">
        <ele>435.20</ele>
        <time>2020-09-02T14:04:16Z</time>
      </trkpt>
      <trkpt lat="41.700855" lon="2.215792">
        <ele>435.60</ele>
        <time>2020-09-02T14:04:17Z</time>
      </trkpt>
      <trkpt lat="41.700895" lon="2.215742">
        <ele>436.60</ele>
        <time>2020-09-02T14:04:20Z</time>
      </trkpt>
      <trkpt lat="41.700937" lon="2.215721">
        <ele>437.20</ele>
        <time>2020-09-02T14:04:22Z</time>
      </trkpt>
      <trkpt lat="41.701018" lon="2.215683">
        <ele>437.20</ele>
        <time>2020-09-02T14:04:26Z</time>
      </trkpt>
      <trkpt lat="41.701070" lon="2.215665">
        <ele>437.60</ele>
        <time>2020-09-02T14:04:29Z</time>
      </trkpt>
      <trkpt lat="41.701082" lon="2.215656">
        <ele>438.00</ele>
        <time>2020-09-02T14:04:30Z</time>
      </trkpt>
      <trkpt lat="41.701098" lon="2.215654">
        <ele>438.80</ele>
        <time>2020-09-02T14:04:34Z</time>
      </trkpt>
      <trkpt lat="41.701123" lon="2.215691">
        <ele>439.00</ele>
        <time>2020-09-02T14:04:40Z</time>
      </trkpt>
      <trkpt lat="41.701137" lon="2.215699">
        <ele>439.00</ele>
        <time>2020-09-02T14:04:42Z</time>
      </trkpt>
      <trkpt lat="41.701159" lon="2.215712">
        <ele>439.00</ele>
        <time>2020-09-02T14:04:44Z</time>
      </trkpt>
      <trkpt lat="41.701199" lon="2.215723">
        <ele>439.20</ele>
        <time>2020-09-02T14:04:47Z</time>
      </trkpt>
      <trkpt lat="41.701257" lon="2.215727">
        <ele>439.60</ele>
        <time>2020-09-02T14:04:51Z</time>
      </trkpt>
      <trkpt lat="41.701292" lon="2.215723">
        <ele>440.20</ele>
        <time>2020-09-02T14:04:54Z</time>
      </trkpt>
      <trkpt lat="41.701309" lon="2.215724">
        <ele>440.60</ele>
        <time>2020-09-02T14:04:56Z</time>
      </trkpt>
      <trkpt lat="41.701343" lon="2.215729">
        <ele>440.60</ele>
        <time>2020-09-02T14:04:58Z</time>
      </trkpt>
      <trkpt lat="41.701359" lon="2.215739">
        <ele>440.60</ele>
        <time>2020-09-02T14:04:59Z</time>
      </trkpt>
      <trkpt lat="41.701428" lon="2.215811">
        <ele>441.00</ele>
        <time>2020-09-02T14:05:03Z</time>
      </trkpt>
      <trkpt lat="41.701462" lon="2.215850">
        <ele>441.40</ele>
        <time>2020-09-02T14:05:05Z</time>
      </trkpt>
      <trkpt lat="41.701571" lon="2.215957">
        <ele>442.60</ele>
        <time>2020-09-02T14:05:11Z</time>
      </trkpt>
      <trkpt lat="41.701628" lon="2.216000">
        <ele>443.60</ele>
        <time>2020-09-02T14:05:14Z</time>
      </trkpt>
      <trkpt lat="41.701638" lon="2.216009">
        <ele>444.40</ele>
        <time>2020-09-02T14:05:16Z</time>
      </trkpt>
      <trkpt lat="41.701642" lon="2.216011">
        <ele>444.80</ele>
        <time>2020-09-02T14:05:17Z</time>
      </trkpt>
      <trkpt lat="41.701670" lon="2.216014">
        <ele>445.60</ele>
        <time>2020-09-02T14:05:23Z</time>
      </trkpt>
      <trkpt lat="41.701678" lon="2.216044">
        <ele>445.60</ele>
        <time>2020-09-02T14:05:26Z</time>
      </trkpt>
      <trkpt lat="41.701685" lon="2.216045">
        <ele>445.80</ele>
        <time>2020-09-02T14:05:28Z</time>
      </trkpt>
      <trkpt lat="41.701685" lon="2.216045">
        <ele>446.00</ele>
        <time>2020-09-02T14:05:31Z</time>
      </trkpt>
      <trkpt lat="41.701706" lon="2.216028">
        <ele>445.80</ele>
        <time>2020-09-02T14:05:36Z</time>
      </trkpt>
      <trkpt lat="41.701704" lon="2.216028">
        <ele>445.60</ele>
        <time>2020-09-02T14:05:39Z</time>
      </trkpt>
      <trkpt lat="41.701709" lon="2.216078">
        <ele>445.20</ele>
        <time>2020-09-02T14:05:45Z</time>
      </trkpt>
      <trkpt lat="41.701714" lon="2.216100">
        <ele>445.20</ele>
        <time>2020-09-02T14:05:46Z</time>
      </trkpt>
      <trkpt lat="41.701766" lon="2.216202">
        <ele>445.40</ele>
        <time>2020-09-02T14:05:51Z</time>
      </trkpt>
      <trkpt lat="41.701840" lon="2.216327">
        <ele>446.80</ele>
        <time>2020-09-02T14:05:57Z</time>
      </trkpt>
      <trkpt lat="41.701888" lon="2.216387">
        <ele>447.00</ele>
        <time>2020-09-02T14:06:00Z</time>
      </trkpt>
      <trkpt lat="41.702074" lon="2.216560">
        <ele>447.60</ele>
        <time>2020-09-02T14:06:08Z</time>
      </trkpt>
      <trkpt lat="41.702136" lon="2.216590">
        <ele>447.80</ele>
        <time>2020-09-02T14:06:10Z</time>
      </trkpt>
      <trkpt lat="41.702256" lon="2.216634">
        <ele>448.40</ele>
        <time>2020-09-02T14:06:14Z</time>
      </trkpt>
      <trkpt lat="41.702281" lon="2.216650">
        <ele>448.60</ele>
        <time>2020-09-02T14:06:15Z</time>
      </trkpt>
      <trkpt lat="41.702302" lon="2.216666">
        <ele>449.00</ele>
        <time>2020-09-02T14:06:16Z</time>
      </trkpt>
      <trkpt lat="41.702333" lon="2.216742">
        <ele>449.80</ele>
        <time>2020-09-02T14:06:19Z</time>
      </trkpt>
      <trkpt lat="41.702302" lon="2.216876">
        <ele>450.00</ele>
        <time>2020-09-02T14:06:23Z</time>
      </trkpt>
      <trkpt lat="41.702182" lon="2.217172">
        <ele>451.00</ele>
        <time>2020-09-02T14:06:32Z</time>
      </trkpt>
      <trkpt lat="41.702115" lon="2.217405">
        <ele>452.00</ele>
        <time>2020-09-02T14:06:39Z</time>
      </trkpt>
      <trkpt lat="41.702105" lon="2.217444">
        <ele>452.00</ele>
        <time>2020-09-02T14:06:40Z</time>
      </trkpt>
      <trkpt lat="41.702056" lon="2.217687">
        <ele>452.80</ele>
        <time>2020-09-02T14:06:46Z</time>
      </trkpt>
      <trkpt lat="41.702041" lon="2.217761">
        <ele>453.00</ele>
        <time>2020-09-02T14:06:48Z</time>
      </trkpt>
      <trkpt lat="41.702034" lon="2.217853">
        <ele>453.20</ele>
        <time>2020-09-02T14:06:51Z</time>
      </trkpt>
      <trkpt lat="41.702033" lon="2.217930">
        <ele>454.40</ele>
        <time>2020-09-02T14:06:54Z</time>
      </trkpt>
      <trkpt lat="41.702032" lon="2.218037">
        <ele>454.80</ele>
        <time>2020-09-02T14:06:58Z</time>
      </trkpt>
      <trkpt lat="41.702052" lon="2.218172">
        <ele>455.20</ele>
        <time>2020-09-02T14:07:03Z</time>
      </trkpt>
      <trkpt lat="41.702059" lon="2.218197">
        <ele>455.40</ele>
        <time>2020-09-02T14:07:04Z</time>
      </trkpt>
      <trkpt lat="41.702114" lon="2.218369">
        <ele>456.00</ele>
        <time>2020-09-02T14:07:11Z</time>
      </trkpt>
      <trkpt lat="41.702174" lon="2.218451">
        <ele>456.40</ele>
        <time>2020-09-02T14:07:15Z</time>
      </trkpt>
      <trkpt lat="41.702216" lon="2.218491">
        <ele>456.80</ele>
        <time>2020-09-02T14:07:17Z</time>
      </trkpt>
      <trkpt lat="41.702252" lon="2.218570">
        <ele>457.40</ele>
        <time>2020-09-02T14:07:21Z</time>
      </trkpt>
      <trkpt lat="41.702255" lon="2.218588">
        <ele>457.60</ele>
        <time>2020-09-02T14:07:22Z</time>
      </trkpt>
      <trkpt lat="41.702249" lon="2.218636">
        <ele>458.60</ele>
        <time>2020-09-02T14:07:25Z</time>
      </trkpt>
      <trkpt lat="41.702231" lon="2.218724">
        <ele>459.20</ele>
        <time>2020-09-02T14:07:30Z</time>
      </trkpt>
      <trkpt lat="41.702206" lon="2.218821">
        <ele>459.60</ele>
        <time>2020-09-02T14:07:35Z</time>
      </trkpt>
      <trkpt lat="41.702175" lon="2.218921">
        <ele>460.80</ele>
        <time>2020-09-02T14:07:40Z</time>
      </trkpt>
      <trkpt lat="41.702159" lon="2.219014">
        <ele>462.20</ele>
        <time>2020-09-02T14:07:44Z</time>
      </trkpt>
      <trkpt lat="41.702149" lon="2.219110">
        <ele>462.60</ele>
        <time>2020-09-02T14:07:47Z</time>
      </trkpt>
      <trkpt lat="41.702122" lon="2.219279">
        <ele>463.20</ele>
        <time>2020-09-02T14:07:53Z</time>
      </trkpt>
      <trkpt lat="41.702116" lon="2.219306">
        <ele>463.20</ele>
        <time>2020-09-02T14:07:54Z</time>
      </trkpt>
      <trkpt lat="41.702100" lon="2.219420">
        <ele>463.60</ele>
        <time>2020-09-02T14:07:58Z</time>
      </trkpt>
      <trkpt lat="41.702082" lon="2.219558">
        <ele>464.20</ele>
        <time>2020-09-02T14:08:03Z</time>
      </trkpt>
      <trkpt lat="41.702103" lon="2.219654">
        <ele>465.40</ele>
        <time>2020-09-02T14:08:07Z</time>
      </trkpt>
      <trkpt lat="41.702114" lon="2.219700">
        <ele>465.80</ele>
        <time>2020-09-02T14:08:09Z</time>
      </trkpt>
      <trkpt lat="41.702113" lon="2.219792">
        <ele>466.20</ele>
        <time>2020-09-02T14:08:12Z</time>
      </trkpt>
      <trkpt lat="41.702099" lon="2.219813">
        <ele>466.40</ele>
        <time>2020-09-02T14:08:13Z</time>
      </trkpt>
      <trkpt lat="41.702081" lon="2.219829">
        <ele>466.40</ele>
        <time>2020-09-02T14:08:14Z</time>
      </trkpt>
      <trkpt lat="41.701991" lon="2.219874">
        <ele>466.80</ele>
        <time>2020-09-02T14:08:19Z</time>
      </trkpt>
      <trkpt lat="41.701930" lon="2.219886">
        <ele>467.40</ele>
        <time>2020-09-02T14:08:23Z</time>
      </trkpt>
      <trkpt lat="41.701899" lon="2.219896">
        <ele>467.60</ele>
        <time>2020-09-02T14:08:26Z</time>
      </trkpt>
      <trkpt lat="41.701855" lon="2.219905">
        <ele>468.40</ele>
        <time>2020-09-02T14:08:31Z</time>
      </trkpt>
      <trkpt lat="41.701809" lon="2.219915">
        <ele>469.40</ele>
        <time>2020-09-02T14:08:35Z</time>
      </trkpt>
      <trkpt lat="41.701798" lon="2.219918">
        <ele>469.60</ele>
        <time>2020-09-02T14:08:36Z</time>
      </trkpt>
      <trkpt lat="41.701779" lon="2.219921">
        <ele>469.80</ele>
        <time>2020-09-02T14:08:38Z</time>
      </trkpt>
      <trkpt lat="41.701755" lon="2.219920">
        <ele>470.40</ele>
        <time>2020-09-02T14:08:41Z</time>
      </trkpt>
      <trkpt lat="41.701747" lon="2.219922">
        <ele>470.60</ele>
        <time>2020-09-02T14:08:42Z</time>
      </trkpt>
      <trkpt lat="41.701706" lon="2.219930">
        <ele>471.20</ele>
        <time>2020-09-02T14:08:45Z</time>
      </trkpt>
      <trkpt lat="41.701692" lon="2.219935">
        <ele>471.40</ele>
        <time>2020-09-02T14:08:46Z</time>
      </trkpt>
      <trkpt lat="41.701678" lon="2.219936">
        <ele>471.80</ele>
        <time>2020-09-02T14:08:47Z</time>
      </trkpt>
      <trkpt lat="41.701662" lon="2.219939">
        <ele>472.00</ele>
        <time>2020-09-02T14:08:48Z</time>
      </trkpt>
      <trkpt lat="41.701612" lon="2.219950">
        <ele>472.80</ele>
        <time>2020-09-02T14:08:52Z</time>
      </trkpt>
      <trkpt lat="41.701587" lon="2.219970">
        <ele>473.40</ele>
        <time>2020-09-02T14:08:54Z</time>
      </trkpt>
      <trkpt lat="41.701568" lon="2.219991">
        <ele>474.00</ele>
        <time>2020-09-02T14:08:56Z</time>
      </trkpt>
      <trkpt lat="41.701525" lon="2.220094">
        <ele>474.80</ele>
        <time>2020-09-02T14:09:02Z</time>
      </trkpt>
      <trkpt lat="41.701520" lon="2.220113">
        <ele>475.00</ele>
        <time>2020-09-02T14:09:03Z</time>
      </trkpt>
      <trkpt lat="41.701504" lon="2.220166">
        <ele>475.20</ele>
        <time>2020-09-02T14:09:06Z</time>
      </trkpt>
      <trkpt lat="41.701489" lon="2.220226">
        <ele>475.40</ele>
        <time>2020-09-02T14:09:09Z</time>
      </trkpt>
      <trkpt lat="41.701458" lon="2.220360">
        <ele>476.00</ele>
        <time>2020-09-02T14:09:15Z</time>
      </trkpt>
      <trkpt lat="41.701432" lon="2.220447">
        <ele>476.40</ele>
        <time>2020-09-02T14:09:19Z</time>
      </trkpt>
      <trkpt lat="41.701376" lon="2.220534">
        <ele>477.00</ele>
        <time>2020-09-02T14:09:24Z</time>
      </trkpt>
      <trkpt lat="41.701349" lon="2.220564">
        <ele>477.60</ele>
        <time>2020-09-02T14:09:26Z</time>
      </trkpt>
      <trkpt lat="41.701277" lon="2.220629">
        <ele>478.00</ele>
        <time>2020-09-02T14:09:31Z</time>
      </trkpt>
      <trkpt lat="41.701233" lon="2.220668">
        <ele>478.40</ele>
        <time>2020-09-02T14:09:34Z</time>
      </trkpt>
      <trkpt lat="41.701164" lon="2.220726">
        <ele>479.20</ele>
        <time>2020-09-02T14:09:39Z</time>
      </trkpt>
      <trkpt lat="41.701123" lon="2.220759">
        <ele>480.00</ele>
        <time>2020-09-02T14:09:42Z</time>
      </trkpt>
      <trkpt lat="41.701079" lon="2.220829">
        <ele>480.40</ele>
        <time>2020-09-02T14:09:46Z</time>
      </trkpt>
      <trkpt lat="41.701058" lon="2.220895">
        <ele>480.60</ele>
        <time>2020-09-02T14:09:49Z</time>
      </trkpt>
      <trkpt lat="41.701018" lon="2.221003">
        <ele>481.40</ele>
        <time>2020-09-02T14:09:54Z</time>
      </trkpt>
      <trkpt lat="41.700985" lon="2.221080">
        <ele>482.20</ele>
        <time>2020-09-02T14:09:58Z</time>
      </trkpt>
      <trkpt lat="41.700974" lon="2.221099">
        <ele>482.40</ele>
        <time>2020-09-02T14:09:59Z</time>
      </trkpt>
      <trkpt lat="41.700974" lon="2.221099">
        <ele>483.40</ele>
        <time>2020-09-02T14:10:03Z</time>
      </trkpt>
      <trkpt lat="41.700920" lon="2.221155">
        <ele>483.60</ele>
        <time>2020-09-02T14:10:04Z</time>
      </trkpt>
      <trkpt lat="41.700899" lon="2.221168">
        <ele>484.20</ele>
        <time>2020-09-02T14:10:06Z</time>
      </trkpt>
      <trkpt lat="41.700855" lon="2.221182">
        <ele>484.60</ele>
        <time>2020-09-02T14:10:10Z</time>
      </trkpt>
      <trkpt lat="41.700808" lon="2.221208">
        <ele>485.00</ele>
        <time>2020-09-02T14:10:14Z</time>
      </trkpt>
      <trkpt lat="41.700783" lon="2.221222">
        <ele>485.60</ele>
        <time>2020-09-02T14:10:16Z</time>
      </trkpt>
      <trkpt lat="41.700724" lon="2.221236">
        <ele>487.00</ele>
        <time>2020-09-02T14:10:21Z</time>
      </trkpt>
      <trkpt lat="41.700710" lon="2.221242">
        <ele>487.00</ele>
        <time>2020-09-02T14:10:22Z</time>
      </trkpt>
      <trkpt lat="41.700672" lon="2.221254">
        <ele>488.00</ele>
        <time>2020-09-02T14:10:25Z</time>
      </trkpt>
      <trkpt lat="41.700600" lon="2.221282">
        <ele>489.00</ele>
        <time>2020-09-02T14:10:31Z</time>
      </trkpt>
      <trkpt lat="41.700589" lon="2.221288">
        <ele>489.40</ele>
        <time>2020-09-02T14:10:32Z</time>
      </trkpt>
      <trkpt lat="41.700553" lon="2.221313">
        <ele>490.40</ele>
        <time>2020-09-02T14:10:35Z</time>
      </trkpt>
      <trkpt lat="41.700500" lon="2.221337">
        <ele>491.00</ele>
        <time>2020-09-02T14:10:39Z</time>
      </trkpt>
      <trkpt lat="41.700430" lon="2.221348">
        <ele>491.60</ele>
        <time>2020-09-02T14:10:44Z</time>
      </trkpt>
      <trkpt lat="41.700375" lon="2.221352">
        <ele>492.40</ele>
        <time>2020-09-02T14:10:48Z</time>
      </trkpt>
      <trkpt lat="41.700348" lon="2.221362">
        <ele>492.80</ele>
        <time>2020-09-02T14:10:50Z</time>
      </trkpt>
      <trkpt lat="41.700307" lon="2.221369">
        <ele>493.80</ele>
        <time>2020-09-02T14:10:53Z</time>
      </trkpt>
      <trkpt lat="41.700277" lon="2.221370">
        <ele>494.40</ele>
        <time>2020-09-02T14:10:55Z</time>
      </trkpt>
      <trkpt lat="41.700236" lon="2.221379">
        <ele>494.80</ele>
        <time>2020-09-02T14:10:58Z</time>
      </trkpt>
      <trkpt lat="41.700236" lon="2.221379">
        <ele>495.40</ele>
        <time>2020-09-02T14:11:02Z</time>
      </trkpt>
      <trkpt lat="41.700141" lon="2.221429">
        <ele>495.60</ele>
        <time>2020-09-02T14:11:04Z</time>
      </trkpt>
      <trkpt lat="41.700124" lon="2.221441">
        <ele>496.00</ele>
        <time>2020-09-02T14:11:05Z</time>
      </trkpt>
      <trkpt lat="41.700034" lon="2.221504">
        <ele>497.20</ele>
        <time>2020-09-02T14:11:10Z</time>
      </trkpt>
      <trkpt lat="41.699999" lon="2.221546">
        <ele>498.60</ele>
        <time>2020-09-02T14:11:13Z</time>
      </trkpt>
      <trkpt lat="41.699966" lon="2.221571">
        <ele>499.80</ele>
        <time>2020-09-02T14:11:16Z</time>
      </trkpt>
      <trkpt lat="41.699906" lon="2.221575">
        <ele>499.80</ele>
        <time>2020-09-02T14:11:21Z</time>
      </trkpt>
      <trkpt lat="41.699904" lon="2.221577">
        <ele>498.80</ele>
        <time>2020-09-02T14:11:24Z</time>
      </trkpt>
      <trkpt lat="41.699897" lon="2.221578">
        <ele>498.20</ele>
        <time>2020-09-02T14:11:29Z</time>
      </trkpt>
      <trkpt lat="41.699902" lon="2.221574">
        <ele>498.20</ele>
        <time>2020-09-02T14:11:33Z</time>
      </trkpt>
      <trkpt lat="41.699891" lon="2.221566">
        <ele>497.80</ele>
        <time>2020-09-02T14:11:49Z</time>
      </trkpt>
      <trkpt lat="41.699892" lon="2.221565">
        <ele>497.80</ele>
        <time>2020-09-02T14:11:52Z</time>
      </trkpt>
      <trkpt lat="41.699896" lon="2.221565">
        <ele>497.80</ele>
        <time>2020-09-02T14:11:56Z</time>
      </trkpt>
      <trkpt lat="41.699899" lon="2.221565">
        <ele>498.60</ele>
        <time>2020-09-02T14:12:05Z</time>
      </trkpt>
      <trkpt lat="41.699893" lon="2.221564">
        <ele>498.40</ele>
        <time>2020-09-02T14:12:12Z</time>
      </trkpt>
      <trkpt lat="41.699889" lon="2.221578">
        <ele>498.20</ele>
        <time>2020-09-02T14:12:15Z</time>
      </trkpt>
      <trkpt lat="41.699881" lon="2.221594">
        <ele>498.20</ele>
        <time>2020-09-02T14:12:20Z</time>
      </trkpt>
      <trkpt lat="41.699879" lon="2.221596">
        <ele>498.20</ele>
        <time>2020-09-02T14:12:22Z</time>
      </trkpt>
      <trkpt lat="41.699878" lon="2.221601">
        <ele>498.00</ele>
        <time>2020-09-02T14:12:25Z</time>
      </trkpt>
      <trkpt lat="41.699874" lon="2.221609">
        <ele>498.00</ele>
        <time>2020-09-02T14:12:28Z</time>
      </trkpt>
      <trkpt lat="41.699874" lon="2.221612">
        <ele>498.20</ele>
        <time>2020-09-02T14:12:32Z</time>
      </trkpt>
      <trkpt lat="41.699875" lon="2.221611">
        <ele>498.20</ele>
        <time>2020-09-02T14:12:36Z</time>
      </trkpt>
      <trkpt lat="41.699880" lon="2.221607">
        <ele>497.60</ele>
        <time>2020-09-02T14:12:45Z</time>
      </trkpt>
      <trkpt lat="41.699883" lon="2.221605">
        <ele>497.60</ele>
        <time>2020-09-02T14:12:49Z</time>
      </trkpt>
      <trkpt lat="41.699888" lon="2.221594">
        <ele>498.00</ele>
        <time>2020-09-02T14:12:57Z</time>
      </trkpt>
      <trkpt lat="41.699885" lon="2.221582">
        <ele>497.80</ele>
        <time>2020-09-02T14:13:06Z</time>
      </trkpt>
      <trkpt lat="41.699884" lon="2.221568">
        <ele>498.20</ele>
        <time>2020-09-02T14:13:14Z</time>
      </trkpt>
      <trkpt lat="41.699893" lon="2.221561">
        <ele>498.00</ele>
        <time>2020-09-02T14:13:25Z</time>
      </trkpt>
      <trkpt lat="41.699893" lon="2.221559">
        <ele>498.00</ele>
        <time>2020-09-02T14:13:29Z</time>
      </trkpt>
      <trkpt lat="41.699889" lon="2.221543">
        <ele>498.00</ele>
        <time>2020-09-02T14:13:43Z</time>
      </trkpt>
      <trkpt lat="41.699889" lon="2.221544">
        <ele>498.00</ele>
        <time>2020-09-02T14:13:45Z</time>
      </trkpt>
      <trkpt lat="41.699861" lon="2.221589">
        <ele>498.00</ele>
        <time>2020-09-02T14:13:51Z</time>
      </trkpt>
      <trkpt lat="41.699830" lon="2.221621">
        <ele>498.00</ele>
        <time>2020-09-02T14:13:53Z</time>
      </trkpt>
      <trkpt lat="41.699781" lon="2.221660">
        <ele>498.00</ele>
        <time>2020-09-02T14:13:55Z</time>
      </trkpt>
      <trkpt lat="41.699704" lon="2.221762">
        <ele>497.40</ele>
        <time>2020-09-02T14:13:58Z</time>
      </trkpt>
      <trkpt lat="41.699624" lon="2.221842">
        <ele>496.00</ele>
        <time>2020-09-02T14:14:00Z</time>
      </trkpt>
      <trkpt lat="41.699574" lon="2.221882">
        <ele>494.80</ele>
        <time>2020-09-02T14:14:01Z</time>
      </trkpt>
      <trkpt lat="41.699523" lon="2.221917">
        <ele>494.00</ele>
        <time>2020-09-02T14:14:02Z</time>
      </trkpt>
      <trkpt lat="41.699463" lon="2.221943">
        <ele>493.20</ele>
        <time>2020-09-02T14:14:03Z</time>
      </trkpt>
      <trkpt lat="41.699403" lon="2.221946">
        <ele>492.00</ele>
        <time>2020-09-02T14:14:04Z</time>
      </trkpt>
      <trkpt lat="41.699343" lon="2.221949">
        <ele>489.80</ele>
        <time>2020-09-02T14:14:05Z</time>
      </trkpt>
      <trkpt lat="41.699223" lon="2.221955">
        <ele>487.20</ele>
        <time>2020-09-02T14:14:06Z</time>
      </trkpt>
      <trkpt lat="41.699147" lon="2.221952">
        <ele>485.20</ele>
        <time>2020-09-02T14:14:07Z</time>
      </trkpt>
      <trkpt lat="41.699074" lon="2.221954">
        <ele>484.20</ele>
        <time>2020-09-02T14:14:08Z</time>
      </trkpt>
      <trkpt lat="41.698936" lon="2.221971">
        <ele>483.20</ele>
        <time>2020-09-02T14:14:10Z</time>
      </trkpt>
      <trkpt lat="41.698863" lon="2.221986">
        <ele>483.20</ele>
        <time>2020-09-02T14:14:11Z</time>
      </trkpt>
      <trkpt lat="41.698729" lon="2.222015">
        <ele>482.00</ele>
        <time>2020-09-02T14:14:13Z</time>
      </trkpt>
      <trkpt lat="41.698662" lon="2.222015">
        <ele>480.80</ele>
        <time>2020-09-02T14:14:14Z</time>
      </trkpt>
      <trkpt lat="41.698603" lon="2.222009">
        <ele>479.20</ele>
        <time>2020-09-02T14:14:15Z</time>
      </trkpt>
      <trkpt lat="41.698560" lon="2.222003">
        <ele>477.80</ele>
        <time>2020-09-02T14:14:16Z</time>
      </trkpt>
      <trkpt lat="41.698533" lon="2.222015">
        <ele>476.60</ele>
        <time>2020-09-02T14:14:17Z</time>
      </trkpt>
      <trkpt lat="41.698518" lon="2.222051">
        <ele>475.60</ele>
        <time>2020-09-02T14:14:18Z</time>
      </trkpt>
      <trkpt lat="41.698529" lon="2.222112">
        <ele>474.60</ele>
        <time>2020-09-02T14:14:19Z</time>
      </trkpt>
      <trkpt lat="41.698546" lon="2.222185">
        <ele>473.60</ele>
        <time>2020-09-02T14:14:20Z</time>
      </trkpt>
      <trkpt lat="41.698566" lon="2.222266">
        <ele>472.20</ele>
        <time>2020-09-02T14:14:21Z</time>
      </trkpt>
      <trkpt lat="41.698592" lon="2.222354">
        <ele>471.00</ele>
        <time>2020-09-02T14:14:22Z</time>
      </trkpt>
      <trkpt lat="41.698650" lon="2.222542">
        <ele>469.20</ele>
        <time>2020-09-02T14:14:24Z</time>
      </trkpt>
      <trkpt lat="41.698684" lon="2.222640">
        <ele>468.80</ele>
        <time>2020-09-02T14:14:25Z</time>
      </trkpt>
      <trkpt lat="41.698763" lon="2.222821">
        <ele>467.40</ele>
        <time>2020-09-02T14:14:27Z</time>
      </trkpt>
      <trkpt lat="41.698812" lon="2.222905">
        <ele>466.40</ele>
        <time>2020-09-02T14:14:28Z</time>
      </trkpt>
      <trkpt lat="41.698870" lon="2.222976">
        <ele>464.80</ele>
        <time>2020-09-02T14:14:29Z</time>
      </trkpt>
      <trkpt lat="41.698930" lon="2.223032">
        <ele>463.20</ele>
        <time>2020-09-02T14:14:30Z</time>
      </trkpt>
      <trkpt lat="41.698987" lon="2.223079">
        <ele>461.80</ele>
        <time>2020-09-02T14:14:31Z</time>
      </trkpt>
      <trkpt lat="41.699028" lon="2.223132">
        <ele>461.00</ele>
        <time>2020-09-02T14:14:32Z</time>
      </trkpt>
      <trkpt lat="41.699046" lon="2.223195">
        <ele>460.40</ele>
        <time>2020-09-02T14:14:33Z</time>
      </trkpt>
      <trkpt lat="41.699044" lon="2.223270">
        <ele>459.60</ele>
        <time>2020-09-02T14:14:34Z</time>
      </trkpt>
      <trkpt lat="41.699024" lon="2.223349">
        <ele>459.00</ele>
        <time>2020-09-02T14:14:35Z</time>
      </trkpt>
      <trkpt lat="41.698981" lon="2.223425">
        <ele>456.40</ele>
        <time>2020-09-02T14:14:36Z</time>
      </trkpt>
      <trkpt lat="41.698924" lon="2.223482">
        <ele>456.40</ele>
        <time>2020-09-02T14:14:37Z</time>
      </trkpt>
      <trkpt lat="41.698856" lon="2.223516">
        <ele>455.60</ele>
        <time>2020-09-02T14:14:38Z</time>
      </trkpt>
      <trkpt lat="41.698792" lon="2.223513">
        <ele>455.00</ele>
        <time>2020-09-02T14:14:39Z</time>
      </trkpt>
      <trkpt lat="41.698726" lon="2.223485">
        <ele>454.60</ele>
        <time>2020-09-02T14:14:40Z</time>
      </trkpt>
      <trkpt lat="41.698661" lon="2.223440">
        <ele>454.00</ele>
        <time>2020-09-02T14:14:41Z</time>
      </trkpt>
      <trkpt lat="41.698596" lon="2.223377">
        <ele>453.00</ele>
        <time>2020-09-02T14:14:42Z</time>
      </trkpt>
      <trkpt lat="41.698531" lon="2.223304">
        <ele>451.40</ele>
        <time>2020-09-02T14:14:43Z</time>
      </trkpt>
      <trkpt lat="41.698460" lon="2.223228">
        <ele>449.60</ele>
        <time>2020-09-02T14:14:44Z</time>
      </trkpt>
      <trkpt lat="41.698383" lon="2.223147">
        <ele>447.60</ele>
        <time>2020-09-02T14:14:45Z</time>
      </trkpt>
      <trkpt lat="41.698298" lon="2.223068">
        <ele>445.60</ele>
        <time>2020-09-02T14:14:46Z</time>
      </trkpt>
      <trkpt lat="41.698214" lon="2.222983">
        <ele>443.80</ele>
        <time>2020-09-02T14:14:47Z</time>
      </trkpt>
      <trkpt lat="41.698070" lon="2.222818">
        <ele>442.20</ele>
        <time>2020-09-02T14:14:49Z</time>
      </trkpt>
      <trkpt lat="41.697969" lon="2.222675">
        <ele>442.20</ele>
        <time>2020-09-02T14:14:51Z</time>
      </trkpt>
      <trkpt lat="41.697930" lon="2.222628">
        <ele>442.00</ele>
        <time>2020-09-02T14:14:52Z</time>
      </trkpt>
      <trkpt lat="41.697895" lon="2.222610">
        <ele>442.00</ele>
        <time>2020-09-02T14:14:53Z</time>
      </trkpt>
      <trkpt lat="41.697873" lon="2.222623">
        <ele>441.60</ele>
        <time>2020-09-02T14:14:54Z</time>
      </trkpt>
      <trkpt lat="41.697862" lon="2.222659">
        <ele>440.60</ele>
        <time>2020-09-02T14:14:55Z</time>
      </trkpt>
      <trkpt lat="41.697864" lon="2.222709">
        <ele>440.00</ele>
        <time>2020-09-02T14:14:56Z</time>
      </trkpt>
      <trkpt lat="41.697878" lon="2.222754">
        <ele>439.60</ele>
        <time>2020-09-02T14:14:57Z</time>
      </trkpt>
      <trkpt lat="41.697909" lon="2.222795">
        <ele>439.20</ele>
        <time>2020-09-02T14:14:58Z</time>
      </trkpt>
      <trkpt lat="41.698006" lon="2.222908">
        <ele>439.40</ele>
        <time>2020-09-02T14:15:01Z</time>
      </trkpt>
      <trkpt lat="41.698189" lon="2.223087">
        <ele>439.80</ele>
        <time>2020-09-02T14:15:06Z</time>
      </trkpt>
      <trkpt lat="41.698327" lon="2.223295">
        <ele>440.20</ele>
        <time>2020-09-02T14:15:11Z</time>
      </trkpt>
      <trkpt lat="41.698374" lon="2.223377">
        <ele>440.60</ele>
        <time>2020-09-02T14:15:13Z</time>
      </trkpt>
      <trkpt lat="41.698549" lon="2.223655">
        <ele>440.80</ele>
        <time>2020-09-02T14:15:19Z</time>
      </trkpt>
      <trkpt lat="41.698742" lon="2.223897">
        <ele>441.60</ele>
        <time>2020-09-02T14:15:25Z</time>
      </trkpt>
      <trkpt lat="41.698887" lon="2.224046">
        <ele>442.20</ele>
        <time>2020-09-02T14:15:30Z</time>
      </trkpt>
      <trkpt lat="41.699027" lon="2.224079">
        <ele>442.00</ele>
        <time>2020-09-02T14:15:34Z</time>
      </trkpt>
      <trkpt lat="41.699294" lon="2.224073">
        <ele>441.60</ele>
        <time>2020-09-02T14:15:40Z</time>
      </trkpt>
      <trkpt lat="41.699470" lon="2.224065">
        <ele>440.60</ele>
        <time>2020-09-02T14:15:44Z</time>
      </trkpt>
      <trkpt lat="41.699502" lon="2.224062">
        <ele>440.80</ele>
        <time>2020-09-02T14:15:45Z</time>
      </trkpt>
      <trkpt lat="41.699583" lon="2.224045">
        <ele>441.80</ele>
        <time>2020-09-02T14:15:48Z</time>
      </trkpt>
      <trkpt lat="41.699656" lon="2.224041">
        <ele>442.80</ele>
        <time>2020-09-02T14:15:51Z</time>
      </trkpt>
      <trkpt lat="41.699796" lon="2.224072">
        <ele>444.00</ele>
        <time>2020-09-02T14:15:57Z</time>
      </trkpt>
      <trkpt lat="41.699889" lon="2.224112">
        <ele>444.80</ele>
        <time>2020-09-02T14:16:01Z</time>
      </trkpt>
      <trkpt lat="41.699988" lon="2.224143">
        <ele>445.20</ele>
        <time>2020-09-02T14:16:05Z</time>
      </trkpt>
      <trkpt lat="41.700071" lon="2.224152">
        <ele>445.60</ele>
        <time>2020-09-02T14:16:08Z</time>
      </trkpt>
      <trkpt lat="41.700239" lon="2.224189">
        <ele>446.20</ele>
        <time>2020-09-02T14:16:15Z</time>
      </trkpt>
      <trkpt lat="41.700271" lon="2.224201">
        <ele>446.40</ele>
        <time>2020-09-02T14:16:16Z</time>
      </trkpt>
      <trkpt lat="41.700307" lon="2.224216">
        <ele>446.40</ele>
        <time>2020-09-02T14:16:17Z</time>
      </trkpt>
      <trkpt lat="41.700383" lon="2.224272">
        <ele>446.00</ele>
        <time>2020-09-02T14:16:19Z</time>
      </trkpt>
      <trkpt lat="41.700421" lon="2.224325">
        <ele>445.60</ele>
        <time>2020-09-02T14:16:20Z</time>
      </trkpt>
      <trkpt lat="41.700457" lon="2.224394">
        <ele>444.60</ele>
        <time>2020-09-02T14:16:21Z</time>
      </trkpt>
      <trkpt lat="41.700476" lon="2.224547">
        <ele>443.00</ele>
        <time>2020-09-02T14:16:23Z</time>
      </trkpt>
      <trkpt lat="41.700413" lon="2.224641">
        <ele>442.60</ele>
        <time>2020-09-02T14:16:25Z</time>
      </trkpt>
      <trkpt lat="41.700286" lon="2.224622">
        <ele>442.40</ele>
        <time>2020-09-02T14:16:28Z</time>
      </trkpt>
      <trkpt lat="41.700167" lon="2.224599">
        <ele>442.20</ele>
        <time>2020-09-02T14:16:30Z</time>
      </trkpt>
      <trkpt lat="41.700102" lon="2.224591">
        <ele>442.00</ele>
        <time>2020-09-02T14:16:31Z</time>
      </trkpt>
      <trkpt lat="41.700034" lon="2.224588">
        <ele>442.00</ele>
        <time>2020-09-02T14:16:32Z</time>
      </trkpt>
      <trkpt lat="41.699850" lon="2.224592">
        <ele>441.40</ele>
        <time>2020-09-02T14:16:35Z</time>
      </trkpt>
      <trkpt lat="41.699785" lon="2.224622">
        <ele>440.80</ele>
        <time>2020-09-02T14:16:37Z</time>
      </trkpt>
      <trkpt lat="41.699754" lon="2.224645">
        <ele>440.60</ele>
        <time>2020-09-02T14:16:40Z</time>
      </trkpt>
      <trkpt lat="41.699756" lon="2.224643">
        <ele>440.60</ele>
        <time>2020-09-02T14:16:41Z</time>
      </trkpt>
      <trkpt lat="41.699758" lon="2.224639">
        <ele>440.20</ele>
        <time>2020-09-02T14:16:46Z</time>
      </trkpt>
      <trkpt lat="41.699765" lon="2.224636">
        <ele>439.80</ele>
        <time>2020-09-02T14:16:57Z</time>
      </trkpt>
      <trkpt lat="41.699764" lon="2.224636">
        <ele>439.60</ele>
        <time>2020-09-02T14:16:58Z</time>
      </trkpt>
      <trkpt lat="41.699764" lon="2.224637">
        <ele>439.60</ele>
        <time>2020-09-02T14:16:59Z</time>
      </trkpt>
      <trkpt lat="41.699763" lon="2.224637">
        <ele>439.40</ele>
        <time>2020-09-02T14:17:02Z</time>
      </trkpt>
      <trkpt lat="41.699765" lon="2.224640">
        <ele>439.00</ele>
        <time>2020-09-02T14:17:10Z</time>
      </trkpt>
      <trkpt lat="41.699745" lon="2.224628">
        <ele>439.00</ele>
        <time>2020-09-02T14:17:18Z</time>
      </trkpt>
      <trkpt lat="41.699731" lon="2.224618">
        <ele>439.00</ele>
        <time>2020-09-02T14:17:19Z</time>
      </trkpt>
      <trkpt lat="41.699669" lon="2.224561">
        <ele>438.80</ele>
        <time>2020-09-02T14:17:21Z</time>
      </trkpt>
      <trkpt lat="41.699628" lon="2.224523">
        <ele>438.40</ele>
        <time>2020-09-02T14:17:22Z</time>
      </trkpt>
      <trkpt lat="41.699534" lon="2.224438">
        <ele>437.20</ele>
        <time>2020-09-02T14:17:24Z</time>
      </trkpt>
      <trkpt lat="41.699481" lon="2.224399">
        <ele>436.60</ele>
        <time>2020-09-02T14:17:25Z</time>
      </trkpt>
      <trkpt lat="41.699423" lon="2.224364">
        <ele>436.00</ele>
        <time>2020-09-02T14:17:26Z</time>
      </trkpt>
      <trkpt lat="41.699329" lon="2.224338">
        <ele>434.60</ele>
        <time>2020-09-02T14:17:27Z</time>
      </trkpt>
      <trkpt lat="41.699235" lon="2.224313">
        <ele>434.40</ele>
        <time>2020-09-02T14:17:29Z</time>
      </trkpt>
      <trkpt lat="41.699096" lon="2.224329">
        <ele>433.40</ele>
        <time>2020-09-02T14:17:31Z</time>
      </trkpt>
      <trkpt lat="41.698937" lon="2.224343">
        <ele>432.60</ele>
        <time>2020-09-02T14:17:33Z</time>
      </trkpt>
      <trkpt lat="41.698856" lon="2.224325">
        <ele>432.00</ele>
        <time>2020-09-02T14:17:34Z</time>
      </trkpt>
      <trkpt lat="41.698777" lon="2.224290">
        <ele>431.40</ele>
        <time>2020-09-02T14:17:35Z</time>
      </trkpt>
      <trkpt lat="41.698703" lon="2.224244">
        <ele>430.80</ele>
        <time>2020-09-02T14:17:36Z</time>
      </trkpt>
      <trkpt lat="41.698629" lon="2.224187">
        <ele>430.20</ele>
        <time>2020-09-02T14:17:37Z</time>
      </trkpt>
      <trkpt lat="41.698562" lon="2.224117">
        <ele>429.20</ele>
        <time>2020-09-02T14:17:38Z</time>
      </trkpt>
      <trkpt lat="41.698506" lon="2.224038">
        <ele>428.20</ele>
        <time>2020-09-02T14:17:39Z</time>
      </trkpt>
      <trkpt lat="41.698456" lon="2.223955">
        <ele>427.20</ele>
        <time>2020-09-02T14:17:40Z</time>
      </trkpt>
      <trkpt lat="41.698408" lon="2.223882">
        <ele>426.80</ele>
        <time>2020-09-02T14:17:41Z</time>
      </trkpt>
      <trkpt lat="41.698358" lon="2.223836">
        <ele>426.40</ele>
        <time>2020-09-02T14:17:42Z</time>
      </trkpt>
      <trkpt lat="41.698312" lon="2.223809">
        <ele>426.20</ele>
        <time>2020-09-02T14:17:43Z</time>
      </trkpt>
      <trkpt lat="41.698271" lon="2.223794">
        <ele>426.20</ele>
        <time>2020-09-02T14:17:44Z</time>
      </trkpt>
      <trkpt lat="41.698180" lon="2.223760">
        <ele>426.20</ele>
        <time>2020-09-02T14:17:46Z</time>
      </trkpt>
      <trkpt lat="41.698131" lon="2.223722">
        <ele>426.20</ele>
        <time>2020-09-02T14:17:47Z</time>
      </trkpt>
      <trkpt lat="41.697993" lon="2.223641">
        <ele>425.40</ele>
        <time>2020-09-02T14:17:49Z</time>
      </trkpt>
      <trkpt lat="41.697911" lon="2.223604">
        <ele>424.60</ele>
        <time>2020-09-02T14:17:50Z</time>
      </trkpt>
      <trkpt lat="41.697833" lon="2.223553">
        <ele>423.60</ele>
        <time>2020-09-02T14:17:51Z</time>
      </trkpt>
      <trkpt lat="41.697755" lon="2.223489">
        <ele>422.20</ele>
        <time>2020-09-02T14:17:52Z</time>
      </trkpt>
      <trkpt lat="41.697684" lon="2.223412">
        <ele>420.80</ele>
        <time>2020-09-02T14:17:53Z</time>
      </trkpt>
      <trkpt lat="41.697619" lon="2.223325">
        <ele>419.80</ele>
        <time>2020-09-02T14:17:54Z</time>
      </trkpt>
      <trkpt lat="41.697561" lon="2.223237">
        <ele>418.80</ele>
        <time>2020-09-02T14:17:55Z</time>
      </trkpt>
      <trkpt lat="41.697508" lon="2.223159">
        <ele>417.60</ele>
        <time>2020-09-02T14:17:56Z</time>
      </trkpt>
      <trkpt lat="41.697455" lon="2.223092">
        <ele>416.40</ele>
        <time>2020-09-02T14:17:57Z</time>
      </trkpt>
      <trkpt lat="41.697401" lon="2.223037">
        <ele>415.40</ele>
        <time>2020-09-02T14:17:58Z</time>
      </trkpt>
      <trkpt lat="41.697337" lon="2.223002">
        <ele>414.40</ele>
        <time>2020-09-02T14:17:59Z</time>
      </trkpt>
      <trkpt lat="41.697266" lon="2.222981">
        <ele>412.60</ele>
        <time>2020-09-02T14:18:00Z</time>
      </trkpt>
      <trkpt lat="41.697189" lon="2.222974">
        <ele>410.60</ele>
        <time>2020-09-02T14:18:01Z</time>
      </trkpt>
      <trkpt lat="41.697104" lon="2.222974">
        <ele>409.20</ele>
        <time>2020-09-02T14:18:02Z</time>
      </trkpt>
      <trkpt lat="41.697014" lon="2.222978">
        <ele>408.00</ele>
        <time>2020-09-02T14:18:03Z</time>
      </trkpt>
      <trkpt lat="41.696835" lon="2.222985">
        <ele>406.40</ele>
        <time>2020-09-02T14:18:05Z</time>
      </trkpt>
      <trkpt lat="41.696753" lon="2.222994">
        <ele>405.80</ele>
        <time>2020-09-02T14:18:06Z</time>
      </trkpt>
      <trkpt lat="41.696672" lon="2.223000">
        <ele>405.00</ele>
        <time>2020-09-02T14:18:07Z</time>
      </trkpt>
      <trkpt lat="41.696593" lon="2.222992">
        <ele>404.00</ele>
        <time>2020-09-02T14:18:08Z</time>
      </trkpt>
      <trkpt lat="41.696442" lon="2.222921">
        <ele>402.40</ele>
        <time>2020-09-02T14:18:10Z</time>
      </trkpt>
      <trkpt lat="41.696284" lon="2.222832">
        <ele>401.20</ele>
        <time>2020-09-02T14:18:12Z</time>
      </trkpt>
      <trkpt lat="41.696100" lon="2.222704">
        <ele>400.40</ele>
        <time>2020-09-02T14:18:15Z</time>
      </trkpt>
      <trkpt lat="41.696044" lon="2.222686">
        <ele>400.20</ele>
        <time>2020-09-02T14:18:16Z</time>
      </trkpt>
      <trkpt lat="41.695998" lon="2.222687">
        <ele>400.00</ele>
        <time>2020-09-02T14:18:17Z</time>
      </trkpt>
      <trkpt lat="41.695966" lon="2.222701">
        <ele>400.40</ele>
        <time>2020-09-02T14:18:18Z</time>
      </trkpt>
      <trkpt lat="41.695881" lon="2.222799">
        <ele>401.40</ele>
        <time>2020-09-02T14:18:22Z</time>
      </trkpt>
      <trkpt lat="41.695827" lon="2.222866">
        <ele>402.80</ele>
        <time>2020-09-02T14:18:25Z</time>
      </trkpt>
      <trkpt lat="41.695748" lon="2.222956">
        <ele>403.80</ele>
        <time>2020-09-02T14:18:29Z</time>
      </trkpt>
      <trkpt lat="41.695729" lon="2.222980">
        <ele>404.00</ele>
        <time>2020-09-02T14:18:30Z</time>
      </trkpt>
      <trkpt lat="41.695714" lon="2.223007">
        <ele>404.20</ele>
        <time>2020-09-02T14:18:31Z</time>
      </trkpt>
      <trkpt lat="41.695696" lon="2.223036">
        <ele>404.40</ele>
        <time>2020-09-02T14:18:32Z</time>
      </trkpt>
      <trkpt lat="41.695665" lon="2.223096">
        <ele>404.60</ele>
        <time>2020-09-02T14:18:34Z</time>
      </trkpt>
      <trkpt lat="41.695665" lon="2.223096">
        <ele>405.20</ele>
        <time>2020-09-02T14:18:36Z</time>
      </trkpt>
      <trkpt lat="41.695628" lon="2.223225">
        <ele>405.20</ele>
        <time>2020-09-02T14:18:38Z</time>
      </trkpt>
      <trkpt lat="41.695604" lon="2.223324">
        <ele>405.80</ele>
        <time>2020-09-02T14:18:41Z</time>
      </trkpt>
      <trkpt lat="41.695587" lon="2.223378">
        <ele>406.40</ele>
        <time>2020-09-02T14:18:43Z</time>
      </trkpt>
      <trkpt lat="41.695546" lon="2.223469">
        <ele>407.60</ele>
        <time>2020-09-02T14:18:47Z</time>
      </trkpt>
      <trkpt lat="41.695536" lon="2.223488">
        <ele>407.80</ele>
        <time>2020-09-02T14:18:48Z</time>
      </trkpt>
      <trkpt lat="41.695497" lon="2.223542">
        <ele>408.60</ele>
        <time>2020-09-02T14:18:51Z</time>
      </trkpt>
      <trkpt lat="41.695461" lon="2.223600">
        <ele>409.40</ele>
        <time>2020-09-02T14:18:54Z</time>
      </trkpt>
      <trkpt lat="41.695442" lon="2.223643">
        <ele>409.80</ele>
        <time>2020-09-02T14:18:56Z</time>
      </trkpt>
      <trkpt lat="41.695417" lon="2.223702">
        <ele>410.40</ele>
        <time>2020-09-02T14:18:59Z</time>
      </trkpt>
      <trkpt lat="41.695398" lon="2.223743">
        <ele>410.80</ele>
        <time>2020-09-02T14:19:01Z</time>
      </trkpt>
      <trkpt lat="41.695396" lon="2.223770">
        <ele>411.00</ele>
        <time>2020-09-02T14:19:02Z</time>
      </trkpt>
      <trkpt lat="41.695379" lon="2.223844">
        <ele>412.00</ele>
        <time>2020-09-02T14:19:05Z</time>
      </trkpt>
      <trkpt lat="41.695348" lon="2.223937">
        <ele>413.00</ele>
        <time>2020-09-02T14:19:09Z</time>
      </trkpt>
      <trkpt lat="41.695338" lon="2.223958">
        <ele>413.20</ele>
        <time>2020-09-02T14:19:10Z</time>
      </trkpt>
      <trkpt lat="41.695318" lon="2.224004">
        <ele>413.40</ele>
        <time>2020-09-02T14:19:12Z</time>
      </trkpt>
      <trkpt lat="41.695275" lon="2.224089">
        <ele>414.20</ele>
        <time>2020-09-02T14:19:16Z</time>
      </trkpt>
      <trkpt lat="41.695243" lon="2.224125">
        <ele>414.60</ele>
        <time>2020-09-02T14:19:18Z</time>
      </trkpt>
      <trkpt lat="41.695090" lon="2.224315">
        <ele>415.00</ele>
        <time>2020-09-02T14:19:27Z</time>
      </trkpt>
      <trkpt lat="41.695070" lon="2.224339">
        <ele>415.20</ele>
        <time>2020-09-02T14:19:28Z</time>
      </trkpt>
      <trkpt lat="41.695050" lon="2.224393">
        <ele>415.40</ele>
        <time>2020-09-02T14:19:30Z</time>
      </trkpt>
      <trkpt lat="41.695020" lon="2.224509">
        <ele>416.20</ele>
        <time>2020-09-02T14:19:34Z</time>
      </trkpt>
      <trkpt lat="41.695006" lon="2.224566">
        <ele>416.40</ele>
        <time>2020-09-02T14:19:36Z</time>
      </trkpt>
      <trkpt lat="41.694999" lon="2.224724">
        <ele>417.60</ele>
        <time>2020-09-02T14:19:41Z</time>
      </trkpt>
      <trkpt lat="41.695005" lon="2.224824">
        <ele>418.00</ele>
        <time>2020-09-02T14:19:44Z</time>
      </trkpt>
      <trkpt lat="41.695009" lon="2.224916">
        <ele>418.40</ele>
        <time>2020-09-02T14:19:47Z</time>
      </trkpt>
      <trkpt lat="41.695005" lon="2.224946">
        <ele>418.80</ele>
        <time>2020-09-02T14:19:48Z</time>
      </trkpt>
      <trkpt lat="41.694981" lon="2.225036">
        <ele>419.20</ele>
        <time>2020-09-02T14:19:51Z</time>
      </trkpt>
      <trkpt lat="41.694966" lon="2.225095">
        <ele>419.80</ele>
        <time>2020-09-02T14:19:53Z</time>
      </trkpt>
      <trkpt lat="41.694934" lon="2.225191">
        <ele>420.20</ele>
        <time>2020-09-02T14:19:56Z</time>
      </trkpt>
      <trkpt lat="41.694882" lon="2.225325">
        <ele>420.60</ele>
        <time>2020-09-02T14:20:00Z</time>
      </trkpt>
      <trkpt lat="41.694862" lon="2.225393">
        <ele>420.80</ele>
        <time>2020-09-02T14:20:02Z</time>
      </trkpt>
      <trkpt lat="41.694862" lon="2.225393">
        <ele>422.00</ele>
        <time>2020-09-02T14:20:05Z</time>
      </trkpt>
      <trkpt lat="41.694806" lon="2.225636">
        <ele>422.60</ele>
        <time>2020-09-02T14:20:09Z</time>
      </trkpt>
      <trkpt lat="41.694821" lon="2.225914">
        <ele>421.60</ele>
        <time>2020-09-02T14:20:15Z</time>
      </trkpt>
      <trkpt lat="41.694842" lon="2.226068">
        <ele>420.80</ele>
        <time>2020-09-02T14:20:17Z</time>
      </trkpt>
      <trkpt lat="41.694872" lon="2.226245">
        <ele>419.20</ele>
        <time>2020-09-02T14:20:19Z</time>
      </trkpt>
      <trkpt lat="41.694893" lon="2.226341">
        <ele>417.80</ele>
        <time>2020-09-02T14:20:20Z</time>
      </trkpt>
      <trkpt lat="41.694914" lon="2.226437">
        <ele>416.40</ele>
        <time>2020-09-02T14:20:21Z</time>
      </trkpt>
      <trkpt lat="41.694976" lon="2.226620">
        <ele>414.80</ele>
        <time>2020-09-02T14:20:23Z</time>
      </trkpt>
      <trkpt lat="41.695057" lon="2.226797">
        <ele>413.40</ele>
        <time>2020-09-02T14:20:25Z</time>
      </trkpt>
      <trkpt lat="41.695115" lon="2.227013">
        <ele>412.20</ele>
        <time>2020-09-02T14:20:27Z</time>
      </trkpt>
      <trkpt lat="41.695136" lon="2.227139">
        <ele>411.20</ele>
        <time>2020-09-02T14:20:28Z</time>
      </trkpt>
      <trkpt lat="41.695150" lon="2.227274">
        <ele>410.20</ele>
        <time>2020-09-02T14:20:29Z</time>
      </trkpt>
      <trkpt lat="41.695160" lon="2.227414">
        <ele>409.00</ele>
        <time>2020-09-02T14:20:30Z</time>
      </trkpt>
      <trkpt lat="41.695172" lon="2.227558">
        <ele>407.60</ele>
        <time>2020-09-02T14:20:31Z</time>
      </trkpt>
      <trkpt lat="41.695188" lon="2.227706">
        <ele>406.00</ele>
        <time>2020-09-02T14:20:32Z</time>
      </trkpt>
      <trkpt lat="41.695207" lon="2.227846">
        <ele>404.80</ele>
        <time>2020-09-02T14:20:33Z</time>
      </trkpt>
      <trkpt lat="41.695220" lon="2.227923">
        <ele>404.00</ele>
        <time>2020-09-02T14:20:34Z</time>
      </trkpt>
      <trkpt lat="41.695233" lon="2.228000">
        <ele>403.40</ele>
        <time>2020-09-02T14:20:35Z</time>
      </trkpt>
      <trkpt lat="41.695259" lon="2.228154">
        <ele>403.00</ele>
        <time>2020-09-02T14:20:36Z</time>
      </trkpt>
      <trkpt lat="41.695293" lon="2.228370">
        <ele>402.80</ele>
        <time>2020-09-02T14:20:40Z</time>
      </trkpt>
      <trkpt lat="41.695300" lon="2.228438">
        <ele>404.00</ele>
        <time>2020-09-02T14:20:43Z</time>
      </trkpt>
      <trkpt lat="41.695299" lon="2.228437">
        <ele>404.60</ele>
        <time>2020-09-02T14:20:45Z</time>
      </trkpt>
      <trkpt lat="41.695290" lon="2.228430">
        <ele>404.80</ele>
        <time>2020-09-02T14:20:51Z</time>
      </trkpt>
      <trkpt lat="41.695280" lon="2.228432">
        <ele>404.60</ele>
        <time>2020-09-02T14:20:55Z</time>
      </trkpt>
      <trkpt lat="41.695273" lon="2.228432">
        <ele>404.60</ele>
        <time>2020-09-02T14:20:58Z</time>
      </trkpt>
      <trkpt lat="41.695267" lon="2.228431">
        <ele>404.40</ele>
        <time>2020-09-02T14:21:00Z</time>
      </trkpt>
      <trkpt lat="41.695267" lon="2.228430">
        <ele>404.40</ele>
        <time>2020-09-02T14:21:01Z</time>
      </trkpt>
      <trkpt lat="41.695273" lon="2.228420">
        <ele>404.20</ele>
        <time>2020-09-02T14:21:04Z</time>
      </trkpt>
      <trkpt lat="41.695277" lon="2.228412">
        <ele>404.20</ele>
        <time>2020-09-02T14:21:06Z</time>
      </trkpt>
      <trkpt lat="41.695285" lon="2.228407">
        <ele>403.80</ele>
        <time>2020-09-02T14:21:13Z</time>
      </trkpt>
      <trkpt lat="41.695287" lon="2.228394">
        <ele>403.40</ele>
        <time>2020-09-02T14:21:18Z</time>
      </trkpt>
      <trkpt lat="41.695284" lon="2.228382">
        <ele>403.00</ele>
        <time>2020-09-02T14:21:22Z</time>
      </trkpt>
      <trkpt lat="41.695284" lon="2.228372">
        <ele>403.00</ele>
        <time>2020-09-02T14:21:26Z</time>
      </trkpt>
      <trkpt lat="41.695285" lon="2.228370">
        <ele>402.80</ele>
        <time>2020-09-02T14:21:29Z</time>
      </trkpt>
      <trkpt lat="41.695287" lon="2.228423">
        <ele>403.00</ele>
        <time>2020-09-02T14:21:33Z</time>
      </trkpt>
      <trkpt lat="41.695278" lon="2.228474">
        <ele>403.20</ele>
        <time>2020-09-02T14:21:35Z</time>
      </trkpt>
      <trkpt lat="41.695260" lon="2.228526">
        <ele>403.40</ele>
        <time>2020-09-02T14:21:37Z</time>
      </trkpt>
      <trkpt lat="41.695233" lon="2.228582">
        <ele>403.40</ele>
        <time>2020-09-02T14:21:39Z</time>
      </trkpt>
      <trkpt lat="41.695221" lon="2.228612">
        <ele>403.60</ele>
        <time>2020-09-02T14:21:40Z</time>
      </trkpt>
      <trkpt lat="41.695209" lon="2.228644">
        <ele>403.80</ele>
        <time>2020-09-02T14:21:41Z</time>
      </trkpt>
      <trkpt lat="41.695154" lon="2.228777">
        <ele>404.40</ele>
        <time>2020-09-02T14:21:45Z</time>
      </trkpt>
      <trkpt lat="41.695122" lon="2.228882">
        <ele>404.40</ele>
        <time>2020-09-02T14:21:48Z</time>
      </trkpt>
      <trkpt lat="41.695037" lon="2.229159">
        <ele>405.00</ele>
        <time>2020-09-02T14:21:56Z</time>
      </trkpt>
      <trkpt lat="41.694964" lon="2.229301">
        <ele>405.40</ele>
        <time>2020-09-02T14:22:01Z</time>
      </trkpt>
      <trkpt lat="41.694912" lon="2.229387">
        <ele>405.60</ele>
        <time>2020-09-02T14:22:04Z</time>
      </trkpt>
      <trkpt lat="41.694825" lon="2.229583">
        <ele>405.80</ele>
        <time>2020-09-02T14:22:11Z</time>
      </trkpt>
      <trkpt lat="41.694742" lon="2.229745">
        <ele>406.20</ele>
        <time>2020-09-02T14:22:18Z</time>
      </trkpt>
      <trkpt lat="41.694655" lon="2.229935">
        <ele>406.40</ele>
        <time>2020-09-02T14:22:26Z</time>
      </trkpt>
      <trkpt lat="41.694651" lon="2.229960">
        <ele>406.40</ele>
        <time>2020-09-02T14:22:27Z</time>
      </trkpt>
      <trkpt lat="41.694636" lon="2.230106">
        <ele>407.00</ele>
        <time>2020-09-02T14:22:33Z</time>
      </trkpt>
      <trkpt lat="41.694652" lon="2.230146">
        <ele>406.80</ele>
        <time>2020-09-02T14:22:37Z</time>
      </trkpt>
      <trkpt lat="41.694664" lon="2.230136">
        <ele>407.00</ele>
        <time>2020-09-02T14:22:38Z</time>
      </trkpt>
      <trkpt lat="41.694666" lon="2.230007">
        <ele>406.80</ele>
        <time>2020-09-02T14:22:42Z</time>
      </trkpt>
      <trkpt lat="41.694733" lon="2.229734">
        <ele>406.60</ele>
        <time>2020-09-02T14:22:48Z</time>
      </trkpt>
      <trkpt lat="41.694814" lon="2.229598">
        <ele>406.20</ele>
        <time>2020-09-02T14:22:51Z</time>
      </trkpt>
      <trkpt lat="41.694874" lon="2.229487">
        <ele>405.80</ele>
        <time>2020-09-02T14:22:53Z</time>
      </trkpt>
      <trkpt lat="41.694962" lon="2.229314">
        <ele>405.40</ele>
        <time>2020-09-02T14:22:56Z</time>
      </trkpt>
      <trkpt lat="41.695052" lon="2.229138">
        <ele>405.00</ele>
        <time>2020-09-02T14:22:59Z</time>
      </trkpt>
      <trkpt lat="41.695075" lon="2.229073">
        <ele>405.00</ele>
        <time>2020-09-02T14:23:00Z</time>
      </trkpt>
      <trkpt lat="41.695157" lon="2.228800">
        <ele>405.00</ele>
        <time>2020-09-02T14:23:04Z</time>
      </trkpt>
      <trkpt lat="41.695213" lon="2.228669">
        <ele>404.60</ele>
        <time>2020-09-02T14:23:06Z</time>
      </trkpt>
      <trkpt lat="41.695253" lon="2.228569">
        <ele>403.00</ele>
        <time>2020-09-02T14:23:07Z</time>
      </trkpt>
      <trkpt lat="41.695293" lon="2.228468">
        <ele>403.00</ele>
        <time>2020-09-02T14:23:09Z</time>
      </trkpt>
      <trkpt lat="41.695309" lon="2.228393">
        <ele>402.60</ele>
        <time>2020-09-02T14:23:10Z</time>
      </trkpt>
      <trkpt lat="41.695270" lon="2.228270">
        <ele>401.80</ele>
        <time>2020-09-02T14:23:12Z</time>
      </trkpt>
      <trkpt lat="41.695171" lon="2.228199">
        <ele>401.20</ele>
        <time>2020-09-02T14:23:14Z</time>
      </trkpt>
      <trkpt lat="41.695108" lon="2.228166">
        <ele>400.20</ele>
        <time>2020-09-02T14:23:15Z</time>
      </trkpt>
      <trkpt lat="41.694951" lon="2.228062">
        <ele>398.60</ele>
        <time>2020-09-02T14:23:17Z</time>
      </trkpt>
      <trkpt lat="41.694870" lon="2.227996">
        <ele>397.60</ele>
        <time>2020-09-02T14:23:18Z</time>
      </trkpt>
      <trkpt lat="41.694792" lon="2.227928">
        <ele>396.40</ele>
        <time>2020-09-02T14:23:19Z</time>
      </trkpt>
      <trkpt lat="41.694717" lon="2.227862">
        <ele>394.60</ele>
        <time>2020-09-02T14:23:20Z</time>
      </trkpt>
      <trkpt lat="41.694651" lon="2.227802">
        <ele>393.00</ele>
        <time>2020-09-02T14:23:21Z</time>
      </trkpt>
      <trkpt lat="41.694588" lon="2.227764">
        <ele>392.20</ele>
        <time>2020-09-02T14:23:22Z</time>
      </trkpt>
      <trkpt lat="41.694527" lon="2.227747">
        <ele>391.40</ele>
        <time>2020-09-02T14:23:23Z</time>
      </trkpt>
      <trkpt lat="41.694475" lon="2.227759">
        <ele>390.60</ele>
        <time>2020-09-02T14:23:24Z</time>
      </trkpt>
      <trkpt lat="41.694429" lon="2.227788">
        <ele>389.60</ele>
        <time>2020-09-02T14:23:25Z</time>
      </trkpt>
      <trkpt lat="41.694440" lon="2.227873">
        <ele>388.40</ele>
        <time>2020-09-02T14:23:26Z</time>
      </trkpt>
      <trkpt lat="41.694459" lon="2.227955">
        <ele>387.40</ele>
        <time>2020-09-02T14:23:27Z</time>
      </trkpt>
      <trkpt lat="41.694475" lon="2.228038">
        <ele>386.80</ele>
        <time>2020-09-02T14:23:28Z</time>
      </trkpt>
      <trkpt lat="41.694470" lon="2.228126">
        <ele>386.20</ele>
        <time>2020-09-02T14:23:29Z</time>
      </trkpt>
      <trkpt lat="41.694430" lon="2.228259">
        <ele>385.20</ele>
        <time>2020-09-02T14:23:31Z</time>
      </trkpt>
      <trkpt lat="41.694374" lon="2.228308">
        <ele>384.40</ele>
        <time>2020-09-02T14:23:32Z</time>
      </trkpt>
      <trkpt lat="41.694307" lon="2.228353">
        <ele>383.60</ele>
        <time>2020-09-02T14:23:33Z</time>
      </trkpt>
      <trkpt lat="41.694158" lon="2.228427">
        <ele>383.00</ele>
        <time>2020-09-02T14:23:35Z</time>
      </trkpt>
      <trkpt lat="41.694086" lon="2.228457">
        <ele>382.60</ele>
        <time>2020-09-02T14:23:36Z</time>
      </trkpt>
      <trkpt lat="41.694016" lon="2.228489">
        <ele>382.40</ele>
        <time>2020-09-02T14:23:37Z</time>
      </trkpt>
      <trkpt lat="41.693950" lon="2.228532">
        <ele>382.40</ele>
        <time>2020-09-02T14:23:38Z</time>
      </trkpt>
      <trkpt lat="41.693839" lon="2.228648">
        <ele>382.20</ele>
        <time>2020-09-02T14:23:40Z</time>
      </trkpt>
      <trkpt lat="41.693612" lon="2.229028">
        <ele>381.40</ele>
        <time>2020-09-02T14:23:44Z</time>
      </trkpt>
      <trkpt lat="41.693503" lon="2.229237">
        <ele>379.60</ele>
        <time>2020-09-02T14:23:46Z</time>
      </trkpt>
      <trkpt lat="41.693383" lon="2.229372">
        <ele>379.00</ele>
        <time>2020-09-02T14:23:48Z</time>
      </trkpt>
      <trkpt lat="41.693246" lon="2.229408">
        <ele>379.20</ele>
        <time>2020-09-02T14:23:50Z</time>
      </trkpt>
      <trkpt lat="41.693189" lon="2.229397">
        <ele>379.80</ele>
        <time>2020-09-02T14:23:51Z</time>
      </trkpt>
      <trkpt lat="41.693138" lon="2.229379">
        <ele>380.60</ele>
        <time>2020-09-02T14:23:52Z</time>
      </trkpt>
      <trkpt lat="41.693095" lon="2.229355">
        <ele>381.20</ele>
        <time>2020-09-02T14:23:53Z</time>
      </trkpt>
      <trkpt lat="41.693060" lon="2.229324">
        <ele>381.60</ele>
        <time>2020-09-02T14:23:54Z</time>
      </trkpt>
      <trkpt lat="41.693024" lon="2.229293">
        <ele>382.00</ele>
        <time>2020-09-02T14:23:55Z</time>
      </trkpt>
      <trkpt lat="41.692979" lon="2.229248">
        <ele>382.20</ele>
        <time>2020-09-02T14:23:56Z</time>
      </trkpt>
      <trkpt lat="41.692842" lon="2.229114">
        <ele>383.60</ele>
        <time>2020-09-02T14:23:59Z</time>
      </trkpt>
      <trkpt lat="41.692769" lon="2.229050">
        <ele>384.40</ele>
        <time>2020-09-02T14:24:01Z</time>
      </trkpt>
      <trkpt lat="41.692690" lon="2.228998">
        <ele>384.80</ele>
        <time>2020-09-02T14:24:03Z</time>
      </trkpt>
      <trkpt lat="41.692522" lon="2.228893">
        <ele>386.00</ele>
        <time>2020-09-02T14:24:07Z</time>
      </trkpt>
      <trkpt lat="41.692483" lon="2.228869">
        <ele>386.20</ele>
        <time>2020-09-02T14:24:08Z</time>
      </trkpt>
      <trkpt lat="41.692332" lon="2.228774">
        <ele>387.00</ele>
        <time>2020-09-02T14:24:12Z</time>
      </trkpt>
      <trkpt lat="41.692294" lon="2.228750">
        <ele>387.00</ele>
        <time>2020-09-02T14:24:13Z</time>
      </trkpt>
      <trkpt lat="41.692215" lon="2.228670">
        <ele>388.20</ele>
        <time>2020-09-02T14:24:16Z</time>
      </trkpt>
      <trkpt lat="41.692215" lon="2.228670">
        <ele>389.40</ele>
        <time>2020-09-02T14:24:18Z</time>
      </trkpt>
      <trkpt lat="41.692108" lon="2.228537">
        <ele>390.20</ele>
        <time>2020-09-02T14:24:21Z</time>
      </trkpt>
      <trkpt lat="41.692071" lon="2.228486">
        <ele>390.60</ele>
        <time>2020-09-02T14:24:23Z</time>
      </trkpt>
      <trkpt lat="41.691914" lon="2.228353">
        <ele>391.60</ele>
        <time>2020-09-02T14:24:30Z</time>
      </trkpt>
      <trkpt lat="41.691892" lon="2.228336">
        <ele>391.80</ele>
        <time>2020-09-02T14:24:31Z</time>
      </trkpt>
      <trkpt lat="41.691793" lon="2.228269">
        <ele>392.60</ele>
        <time>2020-09-02T14:24:35Z</time>
      </trkpt>
      <trkpt lat="41.691722" lon="2.228218">
        <ele>393.40</ele>
        <time>2020-09-02T14:24:38Z</time>
      </trkpt>
      <trkpt lat="41.691672" lon="2.228194">
        <ele>393.60</ele>
        <time>2020-09-02T14:24:40Z</time>
      </trkpt>
      <trkpt lat="41.691544" lon="2.228139">
        <ele>394.20</ele>
        <time>2020-09-02T14:24:45Z</time>
      </trkpt>
      <trkpt lat="41.691356" lon="2.228037">
        <ele>393.40</ele>
        <time>2020-09-02T14:24:50Z</time>
      </trkpt>
      <trkpt lat="41.691240" lon="2.227960">
        <ele>391.40</ele>
        <time>2020-09-02T14:24:52Z</time>
      </trkpt>
      <trkpt lat="41.691184" lon="2.227914">
        <ele>390.20</ele>
        <time>2020-09-02T14:24:53Z</time>
      </trkpt>
      <trkpt lat="41.691123" lon="2.227853">
        <ele>389.40</ele>
        <time>2020-09-02T14:24:54Z</time>
      </trkpt>
      <trkpt lat="41.691071" lon="2.227778">
        <ele>389.00</ele>
        <time>2020-09-02T14:24:55Z</time>
      </trkpt>
      <trkpt lat="41.690940" lon="2.227552">
        <ele>388.40</ele>
        <time>2020-09-02T14:24:58Z</time>
      </trkpt>
      <trkpt lat="41.690728" lon="2.227163">
        <ele>389.00</ele>
        <time>2020-09-02T14:25:04Z</time>
      </trkpt>
      <trkpt lat="41.690603" lon="2.226806">
        <ele>388.80</ele>
        <time>2020-09-02T14:25:09Z</time>
      </trkpt>
      <trkpt lat="41.690573" lon="2.226741">
        <ele>388.60</ele>
        <time>2020-09-02T14:25:10Z</time>
      </trkpt>
      <trkpt lat="41.690495" lon="2.226629">
        <ele>388.40</ele>
        <time>2020-09-02T14:25:12Z</time>
      </trkpt>
      <trkpt lat="41.690449" lon="2.226577">
        <ele>388.40</ele>
        <time>2020-09-02T14:25:13Z</time>
      </trkpt>
      <trkpt lat="41.690398" lon="2.226525">
        <ele>388.20</ele>
        <time>2020-09-02T14:25:14Z</time>
      </trkpt>
      <trkpt lat="41.690344" lon="2.226471">
        <ele>388.00</ele>
        <time>2020-09-02T14:25:15Z</time>
      </trkpt>
      <trkpt lat="41.690224" lon="2.226359">
        <ele>387.20</ele>
        <time>2020-09-02T14:25:17Z</time>
      </trkpt>
      <trkpt lat="41.690154" lon="2.226304">
        <ele>386.80</ele>
        <time>2020-09-02T14:25:18Z</time>
      </trkpt>
      <trkpt lat="41.690078" lon="2.226253">
        <ele>386.20</ele>
        <time>2020-09-02T14:25:19Z</time>
      </trkpt>
      <trkpt lat="41.689998" lon="2.226197">
        <ele>385.40</ele>
        <time>2020-09-02T14:25:20Z</time>
      </trkpt>
      <trkpt lat="41.689922" lon="2.226128">
        <ele>384.20</ele>
        <time>2020-09-02T14:25:21Z</time>
      </trkpt>
      <trkpt lat="41.689851" lon="2.226045">
        <ele>382.80</ele>
        <time>2020-09-02T14:25:22Z</time>
      </trkpt>
      <trkpt lat="41.689791" lon="2.225951">
        <ele>381.40</ele>
        <time>2020-09-02T14:25:23Z</time>
      </trkpt>
      <trkpt lat="41.689738" lon="2.225853">
        <ele>380.20</ele>
        <time>2020-09-02T14:25:24Z</time>
      </trkpt>
      <trkpt lat="41.689647" lon="2.225636">
        <ele>378.40</ele>
        <time>2020-09-02T14:25:26Z</time>
      </trkpt>
      <trkpt lat="41.689604" lon="2.225518">
        <ele>377.20</ele>
        <time>2020-09-02T14:25:27Z</time>
      </trkpt>
      <trkpt lat="41.689561" lon="2.225397">
        <ele>375.80</ele>
        <time>2020-09-02T14:25:28Z</time>
      </trkpt>
      <trkpt lat="41.689517" lon="2.225276">
        <ele>374.80</ele>
        <time>2020-09-02T14:25:29Z</time>
      </trkpt>
      <trkpt lat="41.689437" lon="2.225037">
        <ele>373.40</ele>
        <time>2020-09-02T14:25:31Z</time>
      </trkpt>
      <trkpt lat="41.689355" lon="2.224820">
        <ele>372.80</ele>
        <time>2020-09-02T14:25:33Z</time>
      </trkpt>
      <trkpt lat="41.689128" lon="2.224395">
        <ele>373.60</ele>
        <time>2020-09-02T14:25:38Z</time>
      </trkpt>
      <trkpt lat="41.689040" lon="2.224246">
        <ele>374.00</ele>
        <time>2020-09-02T14:25:40Z</time>
      </trkpt>
      <trkpt lat="41.689040" lon="2.224246">
        <ele>374.20</ele>
        <time>2020-09-02T14:25:41Z</time>
      </trkpt>
      <trkpt lat="41.688824" lon="2.223788">
        <ele>373.00</ele>
        <time>2020-09-02T14:25:45Z</time>
      </trkpt>
      <trkpt lat="41.688775" lon="2.223685">
        <ele>372.00</ele>
        <time>2020-09-02T14:25:46Z</time>
      </trkpt>
      <trkpt lat="41.688724" lon="2.223582">
        <ele>370.80</ele>
        <time>2020-09-02T14:25:47Z</time>
      </trkpt>
      <trkpt lat="41.688665" lon="2.223482">
        <ele>369.00</ele>
        <time>2020-09-02T14:25:48Z</time>
      </trkpt>
      <trkpt lat="41.688604" lon="2.223392">
        <ele>368.00</ele>
        <time>2020-09-02T14:25:49Z</time>
      </trkpt>
      <trkpt lat="41.688537" lon="2.223320">
        <ele>367.00</ele>
        <time>2020-09-02T14:25:50Z</time>
      </trkpt>
      <trkpt lat="41.688465" lon="2.223273">
        <ele>365.20</ele>
        <time>2020-09-02T14:25:51Z</time>
      </trkpt>
      <trkpt lat="41.688379" lon="2.223264">
        <ele>363.20</ele>
        <time>2020-09-02T14:25:52Z</time>
      </trkpt>
      <trkpt lat="41.688303" lon="2.223259">
        <ele>362.00</ele>
        <time>2020-09-02T14:25:53Z</time>
      </trkpt>
      <trkpt lat="41.688186" lon="2.223336">
        <ele>361.40</ele>
        <time>2020-09-02T14:25:55Z</time>
      </trkpt>
      <trkpt lat="41.688118" lon="2.223417">
        <ele>361.40</ele>
        <time>2020-09-02T14:25:56Z</time>
      </trkpt>
      <trkpt lat="41.688074" lon="2.223498">
        <ele>361.60</ele>
        <time>2020-09-02T14:25:57Z</time>
      </trkpt>
      <trkpt lat="41.688001" lon="2.223647">
        <ele>362.60</ele>
        <time>2020-09-02T14:25:59Z</time>
      </trkpt>
      <trkpt lat="41.687961" lon="2.223715">
        <ele>362.80</ele>
        <time>2020-09-02T14:26:00Z</time>
      </trkpt>
      <trkpt lat="41.687790" lon="2.223872">
        <ele>362.80</ele>
        <time>2020-09-02T14:26:03Z</time>
      </trkpt>
      <trkpt lat="41.687720" lon="2.223898">
        <ele>362.80</ele>
        <time>2020-09-02T14:26:04Z</time>
      </trkpt>
      <trkpt lat="41.687649" lon="2.223912">
        <ele>362.60</ele>
        <time>2020-09-02T14:26:05Z</time>
      </trkpt>
      <trkpt lat="41.687510" lon="2.223942">
        <ele>361.80</ele>
        <time>2020-09-02T14:26:07Z</time>
      </trkpt>
      <trkpt lat="41.687443" lon="2.223971">
        <ele>361.60</ele>
        <time>2020-09-02T14:26:08Z</time>
      </trkpt>
      <trkpt lat="41.687308" lon="2.224049">
        <ele>361.00</ele>
        <time>2020-09-02T14:26:10Z</time>
      </trkpt>
      <trkpt lat="41.687106" lon="2.224197">
        <ele>360.00</ele>
        <time>2020-09-02T14:26:13Z</time>
      </trkpt>
      <trkpt lat="41.687040" lon="2.224255">
        <ele>359.20</ele>
        <time>2020-09-02T14:26:14Z</time>
      </trkpt>
      <trkpt lat="41.686977" lon="2.224315">
        <ele>358.40</ele>
        <time>2020-09-02T14:26:15Z</time>
      </trkpt>
      <trkpt lat="41.686849" lon="2.224424">
        <ele>357.60</ele>
        <time>2020-09-02T14:26:17Z</time>
      </trkpt>
      <trkpt lat="41.686781" lon="2.224457">
        <ele>357.00</ele>
        <time>2020-09-02T14:26:18Z</time>
      </trkpt>
      <trkpt lat="41.686708" lon="2.224484">
        <ele>356.20</ele>
        <time>2020-09-02T14:26:19Z</time>
      </trkpt>
      <trkpt lat="41.686631" lon="2.224504">
        <ele>355.80</ele>
        <time>2020-09-02T14:26:20Z</time>
      </trkpt>
      <trkpt lat="41.686381" lon="2.224534">
        <ele>354.60</ele>
        <time>2020-09-02T14:26:23Z</time>
      </trkpt>
      <trkpt lat="41.686293" lon="2.224535">
        <ele>354.00</ele>
        <time>2020-09-02T14:26:24Z</time>
      </trkpt>
      <trkpt lat="41.686206" lon="2.224543">
        <ele>353.40</ele>
        <time>2020-09-02T14:26:25Z</time>
      </trkpt>
      <trkpt lat="41.686025" lon="2.224585">
        <ele>351.00</ele>
        <time>2020-09-02T14:26:27Z</time>
      </trkpt>
      <trkpt lat="41.685926" lon="2.224606">
        <ele>350.00</ele>
        <time>2020-09-02T14:26:28Z</time>
      </trkpt>
      <trkpt lat="41.685830" lon="2.224603">
        <ele>349.40</ele>
        <time>2020-09-02T14:26:29Z</time>
      </trkpt>
      <trkpt lat="41.685650" lon="2.224571">
        <ele>349.40</ele>
        <time>2020-09-02T14:26:31Z</time>
      </trkpt>
      <trkpt lat="41.685454" lon="2.224498">
        <ele>351.00</ele>
        <time>2020-09-02T14:26:34Z</time>
      </trkpt>
      <trkpt lat="41.685305" lon="2.224437">
        <ele>351.80</ele>
        <time>2020-09-02T14:26:37Z</time>
      </trkpt>
      <trkpt lat="41.685255" lon="2.224418">
        <ele>352.20</ele>
        <time>2020-09-02T14:26:38Z</time>
      </trkpt>
      <trkpt lat="41.685155" lon="2.224378">
        <ele>352.40</ele>
        <time>2020-09-02T14:26:40Z</time>
      </trkpt>
      <trkpt lat="41.684923" lon="2.224289">
        <ele>352.40</ele>
        <time>2020-09-02T14:26:44Z</time>
      </trkpt>
      <trkpt lat="41.684791" lon="2.224214">
        <ele>350.60</ele>
        <time>2020-09-02T14:26:46Z</time>
      </trkpt>
      <trkpt lat="41.684656" lon="2.224101">
        <ele>349.20</ele>
        <time>2020-09-02T14:26:48Z</time>
      </trkpt>
      <trkpt lat="41.684585" lon="2.224033">
        <ele>348.60</ele>
        <time>2020-09-02T14:26:49Z</time>
      </trkpt>
      <trkpt lat="41.684524" lon="2.223953">
        <ele>348.20</ele>
        <time>2020-09-02T14:26:50Z</time>
      </trkpt>
      <trkpt lat="41.684470" lon="2.223868">
        <ele>347.80</ele>
        <time>2020-09-02T14:26:51Z</time>
      </trkpt>
      <trkpt lat="41.684285" lon="2.223612">
        <ele>346.40</ele>
        <time>2020-09-02T14:26:54Z</time>
      </trkpt>
      <trkpt lat="41.684218" lon="2.223548">
        <ele>345.80</ele>
        <time>2020-09-02T14:26:55Z</time>
      </trkpt>
      <trkpt lat="41.684124" lon="2.223538">
        <ele>343.00</ele>
        <time>2020-09-02T14:26:56Z</time>
      </trkpt>
      <trkpt lat="41.684029" lon="2.223529">
        <ele>341.80</ele>
        <time>2020-09-02T14:26:58Z</time>
      </trkpt>
      <trkpt lat="41.683958" lon="2.223570">
        <ele>340.60</ele>
        <time>2020-09-02T14:26:59Z</time>
      </trkpt>
      <trkpt lat="41.683879" lon="2.223605">
        <ele>339.40</ele>
        <time>2020-09-02T14:27:00Z</time>
      </trkpt>
      <trkpt lat="41.683702" lon="2.223614">
        <ele>337.80</ele>
        <time>2020-09-02T14:27:02Z</time>
      </trkpt>
      <trkpt lat="41.683537" lon="2.223569">
        <ele>336.80</ele>
        <time>2020-09-02T14:27:04Z</time>
      </trkpt>
      <trkpt lat="41.683457" lon="2.223564">
        <ele>336.00</ele>
        <time>2020-09-02T14:27:05Z</time>
      </trkpt>
      <trkpt lat="41.683376" lon="2.223570">
        <ele>335.40</ele>
        <time>2020-09-02T14:27:06Z</time>
      </trkpt>
      <trkpt lat="41.683210" lon="2.223606">
        <ele>335.40</ele>
        <time>2020-09-02T14:27:08Z</time>
      </trkpt>
      <trkpt lat="41.683127" lon="2.223626">
        <ele>335.20</ele>
        <time>2020-09-02T14:27:09Z</time>
      </trkpt>
      <trkpt lat="41.682961" lon="2.223663">
        <ele>335.40</ele>
        <time>2020-09-02T14:27:11Z</time>
      </trkpt>
      <trkpt lat="41.682799" lon="2.223689">
        <ele>335.80</ele>
        <time>2020-09-02T14:27:13Z</time>
      </trkpt>
      <trkpt lat="41.682717" lon="2.223692">
        <ele>335.80</ele>
        <time>2020-09-02T14:27:14Z</time>
      </trkpt>
      <trkpt lat="41.682556" lon="2.223689">
        <ele>335.80</ele>
        <time>2020-09-02T14:27:16Z</time>
      </trkpt>
      <trkpt lat="41.682247" lon="2.223720">
        <ele>333.80</ele>
        <time>2020-09-02T14:27:20Z</time>
      </trkpt>
      <trkpt lat="41.682167" lon="2.223742">
        <ele>332.60</ele>
        <time>2020-09-02T14:27:21Z</time>
      </trkpt>
      <trkpt lat="41.682081" lon="2.223765">
        <ele>331.00</ele>
        <time>2020-09-02T14:27:22Z</time>
      </trkpt>
      <trkpt lat="41.681989" lon="2.223786">
        <ele>329.60</ele>
        <time>2020-09-02T14:27:23Z</time>
      </trkpt>
      <trkpt lat="41.681895" lon="2.223809">
        <ele>328.40</ele>
        <time>2020-09-02T14:27:24Z</time>
      </trkpt>
      <trkpt lat="41.681701" lon="2.223860">
        <ele>326.60</ele>
        <time>2020-09-02T14:27:26Z</time>
      </trkpt>
      <trkpt lat="41.681498" lon="2.223916">
        <ele>324.80</ele>
        <time>2020-09-02T14:27:28Z</time>
      </trkpt>
      <trkpt lat="41.681388" lon="2.223946">
        <ele>323.80</ele>
        <time>2020-09-02T14:27:29Z</time>
      </trkpt>
      <trkpt lat="41.681284" lon="2.223975">
        <ele>322.00</ele>
        <time>2020-09-02T14:27:30Z</time>
      </trkpt>
      <trkpt lat="41.681187" lon="2.224003">
        <ele>320.40</ele>
        <time>2020-09-02T14:27:31Z</time>
      </trkpt>
      <trkpt lat="41.681091" lon="2.224023">
        <ele>319.60</ele>
        <time>2020-09-02T14:27:32Z</time>
      </trkpt>
      <trkpt lat="41.680996" lon="2.224025">
        <ele>319.20</ele>
        <time>2020-09-02T14:27:33Z</time>
      </trkpt>
      <trkpt lat="41.680911" lon="2.224005">
        <ele>318.60</ele>
        <time>2020-09-02T14:27:34Z</time>
      </trkpt>
      <trkpt lat="41.680831" lon="2.223971">
        <ele>318.20</ele>
        <time>2020-09-02T14:27:35Z</time>
      </trkpt>
      <trkpt lat="41.680573" lon="2.223907">
        <ele>317.00</ele>
        <time>2020-09-02T14:27:38Z</time>
      </trkpt>
      <trkpt lat="41.680398" lon="2.223889">
        <ele>315.20</ele>
        <time>2020-09-02T14:27:40Z</time>
      </trkpt>
      <trkpt lat="41.680310" lon="2.223895">
        <ele>314.00</ele>
        <time>2020-09-02T14:27:41Z</time>
      </trkpt>
      <trkpt lat="41.680222" lon="2.223905">
        <ele>312.60</ele>
        <time>2020-09-02T14:27:42Z</time>
      </trkpt>
      <trkpt lat="41.680027" lon="2.223910">
        <ele>311.40</ele>
        <time>2020-09-02T14:27:44Z</time>
      </trkpt>
      <trkpt lat="41.679926" lon="2.223898">
        <ele>311.00</ele>
        <time>2020-09-02T14:27:45Z</time>
      </trkpt>
      <trkpt lat="41.679843" lon="2.223873">
        <ele>311.20</ele>
        <time>2020-09-02T14:27:46Z</time>
      </trkpt>
      <trkpt lat="41.679772" lon="2.223843">
        <ele>311.80</ele>
        <time>2020-09-02T14:27:47Z</time>
      </trkpt>
      <trkpt lat="41.679708" lon="2.223805">
        <ele>312.40</ele>
        <time>2020-09-02T14:27:48Z</time>
      </trkpt>
      <trkpt lat="41.679602" lon="2.223725">
        <ele>313.80</ele>
        <time>2020-09-02T14:27:50Z</time>
      </trkpt>
      <trkpt lat="41.679512" lon="2.223652">
        <ele>314.80</ele>
        <time>2020-09-02T14:27:52Z</time>
      </trkpt>
      <trkpt lat="41.679399" lon="2.223554">
        <ele>316.60</ele>
        <time>2020-09-02T14:27:55Z</time>
      </trkpt>
      <trkpt lat="41.679323" lon="2.223495">
        <ele>317.40</ele>
        <time>2020-09-02T14:27:57Z</time>
      </trkpt>
      <trkpt lat="41.679300" lon="2.223452">
        <ele>317.80</ele>
        <time>2020-09-02T14:27:58Z</time>
      </trkpt>
      <trkpt lat="41.679272" lon="2.223420">
        <ele>318.00</ele>
        <time>2020-09-02T14:27:59Z</time>
      </trkpt>
      <trkpt lat="41.679064" lon="2.223376">
        <ele>318.40</ele>
        <time>2020-09-02T14:28:04Z</time>
      </trkpt>
      <trkpt lat="41.678901" lon="2.223401">
        <ele>318.60</ele>
        <time>2020-09-02T14:28:08Z</time>
      </trkpt>
      <trkpt lat="41.678835" lon="2.223440">
        <ele>318.80</ele>
        <time>2020-09-02T14:28:10Z</time>
      </trkpt>
      <trkpt lat="41.678749" lon="2.223528">
        <ele>319.20</ele>
        <time>2020-09-02T14:28:13Z</time>
      </trkpt>
      <trkpt lat="41.678680" lon="2.223621">
        <ele>320.20</ele>
        <time>2020-09-02T14:28:16Z</time>
      </trkpt>
      <trkpt lat="41.678659" lon="2.223652">
        <ele>320.40</ele>
        <time>2020-09-02T14:28:17Z</time>
      </trkpt>
      <trkpt lat="41.678612" lon="2.223706">
        <ele>321.20</ele>
        <time>2020-09-02T14:28:19Z</time>
      </trkpt>
      <trkpt lat="41.678590" lon="2.223733">
        <ele>321.40</ele>
        <time>2020-09-02T14:28:20Z</time>
      </trkpt>
      <trkpt lat="41.678508" lon="2.223836">
        <ele>322.40</ele>
        <time>2020-09-02T14:28:24Z</time>
      </trkpt>
      <trkpt lat="41.678488" lon="2.223859">
        <ele>322.40</ele>
        <time>2020-09-02T14:28:25Z</time>
      </trkpt>
      <trkpt lat="41.678421" lon="2.223945">
        <ele>322.80</ele>
        <time>2020-09-02T14:28:29Z</time>
      </trkpt>
      <trkpt lat="41.678370" lon="2.224002">
        <ele>323.60</ele>
        <time>2020-09-02T14:28:32Z</time>
      </trkpt>
      <trkpt lat="41.678312" lon="2.224093">
        <ele>324.00</ele>
        <time>2020-09-02T14:28:36Z</time>
      </trkpt>
      <trkpt lat="41.678294" lon="2.224117">
        <ele>324.00</ele>
        <time>2020-09-02T14:28:38Z</time>
      </trkpt>
      <trkpt lat="41.678297" lon="2.224119">
        <ele>323.60</ele>
        <time>2020-09-02T14:28:45Z</time>
      </trkpt>
      <trkpt lat="41.678300" lon="2.224121">
        <ele>323.40</ele>
        <time>2020-09-02T14:28:52Z</time>
      </trkpt>
      <trkpt lat="41.678300" lon="2.224117">
        <ele>323.20</ele>
        <time>2020-09-02T14:28:56Z</time>
      </trkpt>
      <trkpt lat="41.678300" lon="2.224112">
        <ele>323.00</ele>
        <time>2020-09-02T14:29:00Z</time>
      </trkpt>
      <trkpt lat="41.678299" lon="2.224112">
        <ele>323.00</ele>
        <time>2020-09-02T14:29:02Z</time>
      </trkpt>
      <trkpt lat="41.678299" lon="2.224111">
        <ele>323.00</ele>
        <time>2020-09-02T14:29:05Z</time>
      </trkpt>
      <trkpt lat="41.678300" lon="2.224112">
        <ele>322.80</ele>
        <time>2020-09-02T14:29:09Z</time>
      </trkpt>
      <trkpt lat="41.678301" lon="2.224110">
        <ele>322.80</ele>
        <time>2020-09-02T14:29:12Z</time>
      </trkpt>
      <trkpt lat="41.678300" lon="2.224115">
        <ele>322.80</ele>
        <time>2020-09-02T14:29:22Z</time>
      </trkpt>
      <trkpt lat="41.678305" lon="2.224113">
        <ele>322.40</ele>
        <time>2020-09-02T14:29:27Z</time>
      </trkpt>
      <trkpt lat="41.678305" lon="2.224111">
        <ele>322.40</ele>
        <time>2020-09-02T14:29:39Z</time>
      </trkpt>
      <trkpt lat="41.678304" lon="2.224115">
        <ele>322.20</ele>
        <time>2020-09-02T14:29:42Z</time>
      </trkpt>
      <trkpt lat="41.678301" lon="2.224120">
        <ele>322.00</ele>
        <time>2020-09-02T14:29:50Z</time>
      </trkpt>
      <trkpt lat="41.678301" lon="2.224120">
        <ele>322.20</ele>
        <time>2020-09-02T14:29:51Z</time>
      </trkpt>
      <trkpt lat="41.678301" lon="2.224120">
        <ele>322.20</ele>
        <time>2020-09-02T14:29:52Z</time>
      </trkpt>
      <trkpt lat="41.678301" lon="2.224119">
        <ele>322.20</ele>
        <time>2020-09-02T14:29:53Z</time>
      </trkpt>
      <trkpt lat="41.678300" lon="2.224120">
        <ele>322.00</ele>
        <time>2020-09-02T14:29:54Z</time>
      </trkpt>
      <trkpt lat="41.678298" lon="2.224121">
        <ele>322.00</ele>
        <time>2020-09-02T14:29:56Z</time>
      </trkpt>
      <trkpt lat="41.678291" lon="2.224142">
        <ele>322.00</ele>
        <time>2020-09-02T14:29:58Z</time>
      </trkpt>
      <trkpt lat="41.678303" lon="2.224218">
        <ele>322.20</ele>
        <time>2020-09-02T14:30:01Z</time>
      </trkpt>
      <trkpt lat="41.678341" lon="2.224257">
        <ele>322.40</ele>
        <time>2020-09-02T14:30:03Z</time>
      </trkpt>
      <trkpt lat="41.678388" lon="2.224288">
        <ele>322.40</ele>
        <time>2020-09-02T14:30:05Z</time>
      </trkpt>
      <trkpt lat="41.678511" lon="2.224370">
        <ele>323.60</ele>
        <time>2020-09-02T14:30:10Z</time>
      </trkpt>
      <trkpt lat="41.678560" lon="2.224404">
        <ele>324.20</ele>
        <time>2020-09-02T14:30:12Z</time>
      </trkpt>
      <trkpt lat="41.678587" lon="2.224417">
        <ele>324.40</ele>
        <time>2020-09-02T14:30:13Z</time>
      </trkpt>
      <trkpt lat="41.678641" lon="2.224446">
        <ele>324.80</ele>
        <time>2020-09-02T14:30:15Z</time>
      </trkpt>
      <trkpt lat="41.678763" lon="2.224517">
        <ele>325.60</ele>
        <time>2020-09-02T14:30:20Z</time>
      </trkpt>
      <trkpt lat="41.678790" lon="2.224533">
        <ele>325.80</ele>
        <time>2020-09-02T14:30:21Z</time>
      </trkpt>
      <trkpt lat="41.678913" lon="2.224628">
        <ele>326.80</ele>
        <time>2020-09-02T14:30:26Z</time>
      </trkpt>
      <trkpt lat="41.678936" lon="2.224645">
        <ele>327.00</ele>
        <time>2020-09-02T14:30:27Z</time>
      </trkpt>
      <trkpt lat="41.679085" lon="2.224720">
        <ele>328.00</ele>
        <time>2020-09-02T14:30:33Z</time>
      </trkpt>
      <trkpt lat="41.679186" lon="2.224795">
        <ele>329.00</ele>
        <time>2020-09-02T14:30:37Z</time>
      </trkpt>
      <trkpt lat="41.679208" lon="2.224821">
        <ele>329.20</ele>
        <time>2020-09-02T14:30:38Z</time>
      </trkpt>
      <trkpt lat="41.679320" lon="2.224920">
        <ele>329.80</ele>
        <time>2020-09-02T14:30:43Z</time>
      </trkpt>
      <trkpt lat="41.679341" lon="2.224934">
        <ele>330.00</ele>
        <time>2020-09-02T14:30:44Z</time>
      </trkpt>
      <trkpt lat="41.679362" lon="2.224945">
        <ele>330.40</ele>
        <time>2020-09-02T14:30:45Z</time>
      </trkpt>
      <trkpt lat="41.679383" lon="2.224958">
        <ele>330.80</ele>
        <time>2020-09-02T14:30:46Z</time>
      </trkpt>
      <trkpt lat="41.679421" lon="2.225008">
        <ele>331.60</ele>
        <time>2020-09-02T14:30:49Z</time>
      </trkpt>
      <trkpt lat="41.679427" lon="2.225044">
        <ele>332.20</ele>
        <time>2020-09-02T14:30:51Z</time>
      </trkpt>
      <trkpt lat="41.679420" lon="2.225061">
        <ele>332.40</ele>
        <time>2020-09-02T14:30:52Z</time>
      </trkpt>
      <trkpt lat="41.679408" lon="2.225075">
        <ele>332.60</ele>
        <time>2020-09-02T14:30:53Z</time>
      </trkpt>
      <trkpt lat="41.679341" lon="2.225201">
        <ele>332.60</ele>
        <time>2020-09-02T14:30:58Z</time>
      </trkpt>
      <trkpt lat="41.679249" lon="2.225479">
        <ele>332.80</ele>
        <time>2020-09-02T14:31:06Z</time>
      </trkpt>
      <trkpt lat="41.679175" lon="2.225708">
        <ele>331.60</ele>
        <time>2020-09-02T14:31:11Z</time>
      </trkpt>
      <trkpt lat="41.679158" lon="2.225758">
        <ele>331.40</ele>
        <time>2020-09-02T14:31:12Z</time>
      </trkpt>
      <trkpt lat="41.679004" lon="2.226128">
        <ele>330.80</ele>
        <time>2020-09-02T14:31:19Z</time>
      </trkpt>
      <trkpt lat="41.678978" lon="2.226222">
        <ele>330.40</ele>
        <time>2020-09-02T14:31:20Z</time>
      </trkpt>
      <trkpt lat="41.678952" lon="2.226315">
        <ele>330.20</ele>
        <time>2020-09-02T14:31:22Z</time>
      </trkpt>
      <trkpt lat="41.678872" lon="2.226701">
        <ele>329.40</ele>
        <time>2020-09-02T14:31:28Z</time>
      </trkpt>
      <trkpt lat="41.678890" lon="2.226840">
        <ele>329.60</ele>
        <time>2020-09-02T14:31:30Z</time>
      </trkpt>
      <trkpt lat="41.678930" lon="2.226976">
        <ele>329.80</ele>
        <time>2020-09-02T14:31:32Z</time>
      </trkpt>
      <trkpt lat="41.678958" lon="2.227043">
        <ele>329.80</ele>
        <time>2020-09-02T14:31:33Z</time>
      </trkpt>
      <trkpt lat="41.679053" lon="2.227294">
        <ele>329.80</ele>
        <time>2020-09-02T14:31:37Z</time>
      </trkpt>
      <trkpt lat="41.679074" lon="2.227353">
        <ele>329.80</ele>
        <time>2020-09-02T14:31:38Z</time>
      </trkpt>
      <trkpt lat="41.679114" lon="2.227477">
        <ele>330.20</ele>
        <time>2020-09-02T14:31:40Z</time>
      </trkpt>
      <trkpt lat="41.679241" lon="2.227830">
        <ele>329.60</ele>
        <time>2020-09-02T14:31:46Z</time>
      </trkpt>
      <trkpt lat="41.679271" lon="2.227887">
        <ele>329.60</ele>
        <time>2020-09-02T14:31:47Z</time>
      </trkpt>
      <trkpt lat="41.679306" lon="2.227944">
        <ele>329.40</ele>
        <time>2020-09-02T14:31:48Z</time>
      </trkpt>
      <trkpt lat="41.679339" lon="2.228003">
        <ele>329.40</ele>
        <time>2020-09-02T14:31:49Z</time>
      </trkpt>
      <trkpt lat="41.679371" lon="2.228064">
        <ele>329.40</ele>
        <time>2020-09-02T14:31:50Z</time>
      </trkpt>
      <trkpt lat="41.679445" lon="2.228182">
        <ele>329.20</ele>
        <time>2020-09-02T14:31:52Z</time>
      </trkpt>
      <trkpt lat="41.679584" lon="2.228413">
        <ele>328.40</ele>
        <time>2020-09-02T14:31:56Z</time>
      </trkpt>
      <trkpt lat="41.679620" lon="2.228442">
        <ele>328.20</ele>
        <time>2020-09-02T14:31:57Z</time>
      </trkpt>
      <trkpt lat="41.679660" lon="2.228448">
        <ele>328.00</ele>
        <time>2020-09-02T14:31:58Z</time>
      </trkpt>
      <trkpt lat="41.679745" lon="2.228421">
        <ele>328.20</ele>
        <time>2020-09-02T14:32:00Z</time>
      </trkpt>
      <trkpt lat="41.679864" lon="2.228420">
        <ele>328.60</ele>
        <time>2020-09-02T14:32:03Z</time>
      </trkpt>
      <trkpt lat="41.679892" lon="2.228460">
        <ele>328.60</ele>
        <time>2020-09-02T14:32:04Z</time>
      </trkpt>
      <trkpt lat="41.679913" lon="2.228517">
        <ele>328.60</ele>
        <time>2020-09-02T14:32:05Z</time>
      </trkpt>
      <trkpt lat="41.679928" lon="2.228667">
        <ele>327.80</ele>
        <time>2020-09-02T14:32:07Z</time>
      </trkpt>
      <trkpt lat="41.679924" lon="2.228855">
        <ele>326.80</ele>
        <time>2020-09-02T14:32:09Z</time>
      </trkpt>
      <trkpt lat="41.679923" lon="2.229066">
        <ele>325.40</ele>
        <time>2020-09-02T14:32:11Z</time>
      </trkpt>
      <trkpt lat="41.679923" lon="2.229172">
        <ele>324.20</ele>
        <time>2020-09-02T14:32:12Z</time>
      </trkpt>
      <trkpt lat="41.679921" lon="2.229277">
        <ele>323.00</ele>
        <time>2020-09-02T14:32:13Z</time>
      </trkpt>
      <trkpt lat="41.679918" lon="2.229375">
        <ele>321.80</ele>
        <time>2020-09-02T14:32:14Z</time>
      </trkpt>
      <trkpt lat="41.679918" lon="2.229466">
        <ele>321.00</ele>
        <time>2020-09-02T14:32:15Z</time>
      </trkpt>
      <trkpt lat="41.679912" lon="2.229550">
        <ele>320.60</ele>
        <time>2020-09-02T14:32:16Z</time>
      </trkpt>
      <trkpt lat="41.679896" lon="2.229623">
        <ele>320.20</ele>
        <time>2020-09-02T14:32:17Z</time>
      </trkpt>
      <trkpt lat="41.679871" lon="2.229680">
        <ele>320.00</ele>
        <time>2020-09-02T14:32:18Z</time>
      </trkpt>
      <trkpt lat="41.679835" lon="2.229719">
        <ele>319.80</ele>
        <time>2020-09-02T14:32:19Z</time>
      </trkpt>
      <trkpt lat="41.679789" lon="2.229728">
        <ele>319.20</ele>
        <time>2020-09-02T14:32:20Z</time>
      </trkpt>
      <trkpt lat="41.679735" lon="2.229720">
        <ele>318.40</ele>
        <time>2020-09-02T14:32:21Z</time>
      </trkpt>
      <trkpt lat="41.679673" lon="2.229698">
        <ele>317.20</ele>
        <time>2020-09-02T14:32:22Z</time>
      </trkpt>
      <trkpt lat="41.679606" lon="2.229671">
        <ele>315.80</ele>
        <time>2020-09-02T14:32:23Z</time>
      </trkpt>
      <trkpt lat="41.679534" lon="2.229641">
        <ele>314.80</ele>
        <time>2020-09-02T14:32:24Z</time>
      </trkpt>
      <trkpt lat="41.679455" lon="2.229615">
        <ele>313.60</ele>
        <time>2020-09-02T14:32:25Z</time>
      </trkpt>
      <trkpt lat="41.679373" lon="2.229595">
        <ele>312.40</ele>
        <time>2020-09-02T14:32:26Z</time>
      </trkpt>
      <trkpt lat="41.679289" lon="2.229589">
        <ele>311.00</ele>
        <time>2020-09-02T14:32:27Z</time>
      </trkpt>
      <trkpt lat="41.679204" lon="2.229601">
        <ele>309.60</ele>
        <time>2020-09-02T14:32:28Z</time>
      </trkpt>
      <trkpt lat="41.679117" lon="2.229626">
        <ele>308.40</ele>
        <time>2020-09-02T14:32:29Z</time>
      </trkpt>
      <trkpt lat="41.679028" lon="2.229659">
        <ele>307.40</ele>
        <time>2020-09-02T14:32:30Z</time>
      </trkpt>
      <trkpt lat="41.678934" lon="2.229701">
        <ele>305.80</ele>
        <time>2020-09-02T14:32:31Z</time>
      </trkpt>
      <trkpt lat="41.678789" lon="2.229772">
        <ele>302.20</ele>
        <time>2020-09-02T14:32:32Z</time>
      </trkpt>
      <trkpt lat="41.678643" lon="2.229842">
        <ele>300.80</ele>
        <time>2020-09-02T14:32:34Z</time>
      </trkpt>
      <trkpt lat="41.678546" lon="2.229887">
        <ele>299.60</ele>
        <time>2020-09-02T14:32:35Z</time>
      </trkpt>
      <trkpt lat="41.678366" lon="2.229967">
        <ele>298.00</ele>
        <time>2020-09-02T14:32:37Z</time>
      </trkpt>
      <trkpt lat="41.678226" lon="2.230043">
        <ele>297.40</ele>
        <time>2020-09-02T14:32:39Z</time>
      </trkpt>
      <trkpt lat="41.678180" lon="2.230100">
        <ele>297.40</ele>
        <time>2020-09-02T14:32:40Z</time>
      </trkpt>
      <trkpt lat="41.678155" lon="2.230159">
        <ele>297.20</ele>
        <time>2020-09-02T14:32:41Z</time>
      </trkpt>
      <trkpt lat="41.678158" lon="2.230215">
        <ele>297.00</ele>
        <time>2020-09-02T14:32:42Z</time>
      </trkpt>
      <trkpt lat="41.678183" lon="2.230258">
        <ele>296.80</ele>
        <time>2020-09-02T14:32:43Z</time>
      </trkpt>
      <trkpt lat="41.678361" lon="2.230357">
        <ele>296.40</ele>
        <time>2020-09-02T14:32:47Z</time>
      </trkpt>
      <trkpt lat="41.678501" lon="2.230426">
        <ele>296.20</ele>
        <time>2020-09-02T14:32:50Z</time>
      </trkpt>
      <trkpt lat="41.678548" lon="2.230473">
        <ele>295.60</ele>
        <time>2020-09-02T14:32:51Z</time>
      </trkpt>
      <trkpt lat="41.678593" lon="2.230536">
        <ele>295.20</ele>
        <time>2020-09-02T14:32:52Z</time>
      </trkpt>
      <trkpt lat="41.678627" lon="2.230616">
        <ele>294.60</ele>
        <time>2020-09-02T14:32:53Z</time>
      </trkpt>
      <trkpt lat="41.678637" lon="2.230703">
        <ele>294.00</ele>
        <time>2020-09-02T14:32:54Z</time>
      </trkpt>
      <trkpt lat="41.678626" lon="2.230782">
        <ele>293.60</ele>
        <time>2020-09-02T14:32:55Z</time>
      </trkpt>
      <trkpt lat="41.678596" lon="2.230842">
        <ele>293.00</ele>
        <time>2020-09-02T14:32:56Z</time>
      </trkpt>
      <trkpt lat="41.678509" lon="2.230915">
        <ele>292.60</ele>
        <time>2020-09-02T14:32:58Z</time>
      </trkpt>
      <trkpt lat="41.678353" lon="2.230952">
        <ele>293.20</ele>
        <time>2020-09-02T14:33:02Z</time>
      </trkpt>
      <trkpt lat="41.678136" lon="2.230973">
        <ele>294.60</ele>
        <time>2020-09-02T14:33:08Z</time>
      </trkpt>
      <trkpt lat="41.678066" lon="2.231003">
        <ele>295.20</ele>
        <time>2020-09-02T14:33:10Z</time>
      </trkpt>
      <trkpt lat="41.677993" lon="2.231034">
        <ele>296.00</ele>
        <time>2020-09-02T14:33:12Z</time>
      </trkpt>
      <trkpt lat="41.677872" lon="2.231139">
        <ele>296.40</ele>
        <time>2020-09-02T14:33:16Z</time>
      </trkpt>
      <trkpt lat="41.677817" lon="2.231219">
        <ele>296.60</ele>
        <time>2020-09-02T14:33:18Z</time>
      </trkpt>
      <trkpt lat="41.677732" lon="2.231419">
        <ele>297.00</ele>
        <time>2020-09-02T14:33:22Z</time>
      </trkpt>
      <trkpt lat="41.677705" lon="2.231535">
        <ele>297.40</ele>
        <time>2020-09-02T14:33:24Z</time>
      </trkpt>
      <trkpt lat="41.677655" lon="2.231822">
        <ele>297.40</ele>
        <time>2020-09-02T14:33:29Z</time>
      </trkpt>
      <trkpt lat="41.677596" lon="2.232274">
        <ele>296.80</ele>
        <time>2020-09-02T14:33:36Z</time>
      </trkpt>
      <trkpt lat="41.677586" lon="2.232340">
        <ele>296.60</ele>
        <time>2020-09-02T14:33:37Z</time>
      </trkpt>
      <trkpt lat="41.677574" lon="2.232410">
        <ele>296.60</ele>
        <time>2020-09-02T14:33:38Z</time>
      </trkpt>
      <trkpt lat="41.677559" lon="2.232487">
        <ele>296.40</ele>
        <time>2020-09-02T14:33:39Z</time>
      </trkpt>
      <trkpt lat="41.677542" lon="2.232569">
        <ele>296.20</ele>
        <time>2020-09-02T14:33:40Z</time>
      </trkpt>
      <trkpt lat="41.677523" lon="2.232652">
        <ele>296.00</ele>
        <time>2020-09-02T14:33:41Z</time>
      </trkpt>
      <trkpt lat="41.677501" lon="2.232734">
        <ele>295.40</ele>
        <time>2020-09-02T14:33:42Z</time>
      </trkpt>
      <trkpt lat="41.677481" lon="2.232813">
        <ele>295.00</ele>
        <time>2020-09-02T14:33:43Z</time>
      </trkpt>
      <trkpt lat="41.677456" lon="2.232974">
        <ele>294.00</ele>
        <time>2020-09-02T14:33:45Z</time>
      </trkpt>
      <trkpt lat="41.677457" lon="2.233058">
        <ele>293.80</ele>
        <time>2020-09-02T14:33:46Z</time>
      </trkpt>
      <trkpt lat="41.677468" lon="2.233141">
        <ele>293.40</ele>
        <time>2020-09-02T14:33:47Z</time>
      </trkpt>
      <trkpt lat="41.677522" lon="2.233292">
        <ele>293.00</ele>
        <time>2020-09-02T14:33:49Z</time>
      </trkpt>
      <trkpt lat="41.677567" lon="2.233360">
        <ele>292.60</ele>
        <time>2020-09-02T14:33:50Z</time>
      </trkpt>
      <trkpt lat="41.677621" lon="2.233413">
        <ele>292.00</ele>
        <time>2020-09-02T14:33:51Z</time>
      </trkpt>
      <trkpt lat="41.677677" lon="2.233456">
        <ele>291.40</ele>
        <time>2020-09-02T14:33:52Z</time>
      </trkpt>
      <trkpt lat="41.677794" lon="2.233545">
        <ele>290.80</ele>
        <time>2020-09-02T14:33:54Z</time>
      </trkpt>
      <trkpt lat="41.677813" lon="2.233651">
        <ele>290.40</ele>
        <time>2020-09-02T14:33:55Z</time>
      </trkpt>
      <trkpt lat="41.677831" lon="2.233757">
        <ele>290.20</ele>
        <time>2020-09-02T14:33:57Z</time>
      </trkpt>
      <trkpt lat="41.677791" lon="2.233798">
        <ele>290.20</ele>
        <time>2020-09-02T14:33:58Z</time>
      </trkpt>
      <trkpt lat="41.677747" lon="2.233812">
        <ele>290.20</ele>
        <time>2020-09-02T14:33:59Z</time>
      </trkpt>
      <trkpt lat="41.677564" lon="2.233871">
        <ele>291.20</ele>
        <time>2020-09-02T14:34:04Z</time>
      </trkpt>
      <trkpt lat="41.677546" lon="2.233916">
        <ele>291.80</ele>
        <time>2020-09-02T14:34:05Z</time>
      </trkpt>
      <trkpt lat="41.677548" lon="2.234007">
        <ele>292.60</ele>
        <time>2020-09-02T14:34:07Z</time>
      </trkpt>
      <trkpt lat="41.677560" lon="2.234053">
        <ele>293.00</ele>
        <time>2020-09-02T14:34:08Z</time>
      </trkpt>
      <trkpt lat="41.677602" lon="2.234177">
        <ele>294.20</ele>
        <time>2020-09-02T14:34:11Z</time>
      </trkpt>
      <trkpt lat="41.677621" lon="2.234251">
        <ele>295.20</ele>
        <time>2020-09-02T14:34:13Z</time>
      </trkpt>
      <trkpt lat="41.677607" lon="2.234288">
        <ele>295.80</ele>
        <time>2020-09-02T14:34:14Z</time>
      </trkpt>
      <trkpt lat="41.677583" lon="2.234313">
        <ele>296.40</ele>
        <time>2020-09-02T14:34:15Z</time>
      </trkpt>
      <trkpt lat="41.677556" lon="2.234323">
        <ele>296.60</ele>
        <time>2020-09-02T14:34:16Z</time>
      </trkpt>
      <trkpt lat="41.677525" lon="2.234324">
        <ele>297.00</ele>
        <time>2020-09-02T14:34:17Z</time>
      </trkpt>
      <trkpt lat="41.677494" lon="2.234319">
        <ele>297.40</ele>
        <time>2020-09-02T14:34:18Z</time>
      </trkpt>
      <trkpt lat="41.677392" lon="2.234307">
        <ele>298.40</ele>
        <time>2020-09-02T14:34:21Z</time>
      </trkpt>
      <trkpt lat="41.677359" lon="2.234305">
        <ele>298.60</ele>
        <time>2020-09-02T14:34:22Z</time>
      </trkpt>
      <trkpt lat="41.677267" lon="2.234302">
        <ele>299.60</ele>
        <time>2020-09-02T14:34:25Z</time>
      </trkpt>
      <trkpt lat="41.677123" lon="2.234340">
        <ele>300.60</ele>
        <time>2020-09-02T14:34:30Z</time>
      </trkpt>
      <trkpt lat="41.676981" lon="2.234403">
        <ele>301.60</ele>
        <time>2020-09-02T14:34:36Z</time>
      </trkpt>
      <trkpt lat="41.676933" lon="2.234427">
        <ele>301.60</ele>
        <time>2020-09-02T14:34:38Z</time>
      </trkpt>
      <trkpt lat="41.676882" lon="2.234454">
        <ele>301.80</ele>
        <time>2020-09-02T14:34:40Z</time>
      </trkpt>
      <trkpt lat="41.676805" lon="2.234481">
        <ele>302.20</ele>
        <time>2020-09-02T14:34:43Z</time>
      </trkpt>
      <trkpt lat="41.676778" lon="2.234489">
        <ele>302.20</ele>
        <time>2020-09-02T14:34:44Z</time>
      </trkpt>
      <trkpt lat="41.676722" lon="2.234479">
        <ele>302.60</ele>
        <time>2020-09-02T14:34:46Z</time>
      </trkpt>
      <trkpt lat="41.676695" lon="2.234466">
        <ele>302.60</ele>
        <time>2020-09-02T14:34:47Z</time>
      </trkpt>
      <trkpt lat="41.676643" lon="2.234433">
        <ele>302.80</ele>
        <time>2020-09-02T14:34:49Z</time>
      </trkpt>
      <trkpt lat="41.676617" lon="2.234414">
        <ele>302.80</ele>
        <time>2020-09-02T14:34:50Z</time>
      </trkpt>
      <trkpt lat="41.676585" lon="2.234398">
        <ele>302.80</ele>
        <time>2020-09-02T14:34:51Z</time>
      </trkpt>
      <trkpt lat="41.676558" lon="2.234381">
        <ele>302.80</ele>
        <time>2020-09-02T14:34:52Z</time>
      </trkpt>
      <trkpt lat="41.676558" lon="2.234381">
        <ele>302.80</ele>
        <time>2020-09-02T14:34:53Z</time>
      </trkpt>
      <trkpt lat="41.676460" lon="2.234363">
        <ele>303.40</ele>
        <time>2020-09-02T14:34:56Z</time>
      </trkpt>
      <trkpt lat="41.676322" lon="2.234479">
        <ele>303.80</ele>
        <time>2020-09-02T14:35:00Z</time>
      </trkpt>
      <trkpt lat="41.676295" lon="2.234518">
        <ele>303.80</ele>
        <time>2020-09-02T14:35:01Z</time>
      </trkpt>
      <trkpt lat="41.676217" lon="2.234753">
        <ele>304.60</ele>
        <time>2020-09-02T14:35:06Z</time>
      </trkpt>
      <trkpt lat="41.676215" lon="2.234811">
        <ele>304.60</ele>
        <time>2020-09-02T14:35:07Z</time>
      </trkpt>
      <trkpt lat="41.676214" lon="2.235079">
        <ele>304.00</ele>
        <time>2020-09-02T14:35:11Z</time>
      </trkpt>
      <trkpt lat="41.676216" lon="2.235369">
        <ele>304.00</ele>
        <time>2020-09-02T14:35:16Z</time>
      </trkpt>
      <trkpt lat="41.676225" lon="2.235475">
        <ele>304.80</ele>
        <time>2020-09-02T14:35:18Z</time>
      </trkpt>
      <trkpt lat="41.676225" lon="2.235475">
        <ele>305.20</ele>
        <time>2020-09-02T14:35:20Z</time>
      </trkpt>
      <trkpt lat="41.676305" lon="2.235765">
        <ele>306.00</ele>
        <time>2020-09-02T14:35:24Z</time>
      </trkpt>
      <trkpt lat="41.676366" lon="2.235933">
        <ele>307.00</ele>
        <time>2020-09-02T14:35:28Z</time>
      </trkpt>
      <trkpt lat="41.676406" lon="2.236036">
        <ele>308.00</ele>
        <time>2020-09-02T14:35:31Z</time>
      </trkpt>
      <trkpt lat="41.676421" lon="2.236065">
        <ele>308.40</ele>
        <time>2020-09-02T14:35:32Z</time>
      </trkpt>
      <trkpt lat="41.676493" lon="2.236163">
        <ele>309.60</ele>
        <time>2020-09-02T14:35:36Z</time>
      </trkpt>
      <trkpt lat="41.676520" lon="2.236198">
        <ele>310.20</ele>
        <time>2020-09-02T14:35:38Z</time>
      </trkpt>
      <trkpt lat="41.676544" lon="2.236225">
        <ele>310.60</ele>
        <time>2020-09-02T14:35:40Z</time>
      </trkpt>
      <trkpt lat="41.676611" lon="2.236269">
        <ele>311.40</ele>
        <time>2020-09-02T14:35:45Z</time>
      </trkpt>
      <trkpt lat="41.676634" lon="2.236288">
        <ele>311.60</ele>
        <time>2020-09-02T14:35:47Z</time>
      </trkpt>
      <trkpt lat="41.676671" lon="2.236306">
        <ele>312.20</ele>
        <time>2020-09-02T14:35:50Z</time>
      </trkpt>
      <trkpt lat="41.676715" lon="2.236312">
        <ele>312.80</ele>
        <time>2020-09-02T14:35:53Z</time>
      </trkpt>
      <trkpt lat="41.676756" lon="2.236324">
        <ele>313.40</ele>
        <time>2020-09-02T14:35:56Z</time>
      </trkpt>
      <trkpt lat="41.676787" lon="2.236333">
        <ele>313.80</ele>
        <time>2020-09-02T14:35:58Z</time>
      </trkpt>
      <trkpt lat="41.676829" lon="2.236359">
        <ele>314.80</ele>
        <time>2020-09-02T14:36:01Z</time>
      </trkpt>
      <trkpt lat="41.676838" lon="2.236375">
        <ele>315.00</ele>
        <time>2020-09-02T14:36:02Z</time>
      </trkpt>
      <trkpt lat="41.676870" lon="2.236414">
        <ele>315.40</ele>
        <time>2020-09-02T14:36:05Z</time>
      </trkpt>
      <trkpt lat="41.676894" lon="2.236420">
        <ele>315.60</ele>
        <time>2020-09-02T14:36:07Z</time>
      </trkpt>
      <trkpt lat="41.676942" lon="2.236433">
        <ele>316.00</ele>
        <time>2020-09-02T14:36:10Z</time>
      </trkpt>
      <trkpt lat="41.676998" lon="2.236499">
        <ele>317.20</ele>
        <time>2020-09-02T14:36:14Z</time>
      </trkpt>
      <trkpt lat="41.677020" lon="2.236549">
        <ele>318.00</ele>
        <time>2020-09-02T14:36:17Z</time>
      </trkpt>
      <trkpt lat="41.677030" lon="2.236562">
        <ele>318.20</ele>
        <time>2020-09-02T14:36:18Z</time>
      </trkpt>
      <trkpt lat="41.677066" lon="2.236597">
        <ele>319.40</ele>
        <time>2020-09-02T14:36:21Z</time>
      </trkpt>
      <trkpt lat="41.677080" lon="2.236608">
        <ele>319.60</ele>
        <time>2020-09-02T14:36:22Z</time>
      </trkpt>
      <trkpt lat="41.677150" lon="2.236665">
        <ele>320.40</ele>
        <time>2020-09-02T14:36:27Z</time>
      </trkpt>
      <trkpt lat="41.677197" lon="2.236729">
        <ele>320.80</ele>
        <time>2020-09-02T14:36:31Z</time>
      </trkpt>
      <trkpt lat="41.677257" lon="2.236801">
        <ele>321.60</ele>
        <time>2020-09-02T14:36:36Z</time>
      </trkpt>
      <trkpt lat="41.677308" lon="2.236842">
        <ele>322.40</ele>
        <time>2020-09-02T14:36:40Z</time>
      </trkpt>
      <trkpt lat="41.677323" lon="2.236851">
        <ele>322.60</ele>
        <time>2020-09-02T14:36:41Z</time>
      </trkpt>
      <trkpt lat="41.677413" lon="2.236864">
        <ele>323.80</ele>
        <time>2020-09-02T14:36:47Z</time>
      </trkpt>
      <trkpt lat="41.677486" lon="2.236950">
        <ele>324.80</ele>
        <time>2020-09-02T14:36:53Z</time>
      </trkpt>
      <trkpt lat="41.677505" lon="2.236983">
        <ele>325.20</ele>
        <time>2020-09-02T14:36:55Z</time>
      </trkpt>
      <trkpt lat="41.677527" lon="2.237009">
        <ele>325.60</ele>
        <time>2020-09-02T14:36:57Z</time>
      </trkpt>
      <trkpt lat="41.677548" lon="2.237029">
        <ele>326.00</ele>
        <time>2020-09-02T14:36:59Z</time>
      </trkpt>
      <trkpt lat="41.677568" lon="2.237055">
        <ele>326.20</ele>
        <time>2020-09-02T14:37:01Z</time>
      </trkpt>
      <trkpt lat="41.677618" lon="2.237122">
        <ele>327.00</ele>
        <time>2020-09-02T14:37:06Z</time>
      </trkpt>
      <trkpt lat="41.677646" lon="2.237136">
        <ele>327.60</ele>
        <time>2020-09-02T14:37:08Z</time>
      </trkpt>
      <trkpt lat="41.677686" lon="2.237164">
        <ele>328.20</ele>
        <time>2020-09-02T14:37:11Z</time>
      </trkpt>
      <trkpt lat="41.677762" lon="2.237220">
        <ele>329.00</ele>
        <time>2020-09-02T14:37:16Z</time>
      </trkpt>
      <trkpt lat="41.677790" lon="2.237245">
        <ele>329.40</ele>
        <time>2020-09-02T14:37:18Z</time>
      </trkpt>
      <trkpt lat="41.677861" lon="2.237307">
        <ele>330.40</ele>
        <time>2020-09-02T14:37:23Z</time>
      </trkpt>
      <trkpt lat="41.677890" lon="2.237325">
        <ele>330.80</ele>
        <time>2020-09-02T14:37:25Z</time>
      </trkpt>
      <trkpt lat="41.677949" lon="2.237370">
        <ele>331.80</ele>
        <time>2020-09-02T14:37:29Z</time>
      </trkpt>
      <trkpt lat="41.678004" lon="2.237424">
        <ele>332.80</ele>
        <time>2020-09-02T14:37:33Z</time>
      </trkpt>
      <trkpt lat="41.678017" lon="2.237439">
        <ele>332.80</ele>
        <time>2020-09-02T14:37:34Z</time>
      </trkpt>
      <trkpt lat="41.678096" lon="2.237516">
        <ele>334.00</ele>
        <time>2020-09-02T14:37:39Z</time>
      </trkpt>
      <trkpt lat="41.678103" lon="2.237537">
        <ele>334.20</ele>
        <time>2020-09-02T14:37:40Z</time>
      </trkpt>
      <trkpt lat="41.678151" lon="2.237653">
        <ele>335.20</ele>
        <time>2020-09-02T14:37:45Z</time>
      </trkpt>
      <trkpt lat="41.678195" lon="2.237719">
        <ele>336.00</ele>
        <time>2020-09-02T14:37:48Z</time>
      </trkpt>
      <trkpt lat="41.678210" lon="2.237739">
        <ele>336.60</ele>
        <time>2020-09-02T14:37:49Z</time>
      </trkpt>
      <trkpt lat="41.678210" lon="2.237739">
        <ele>336.60</ele>
        <time>2020-09-02T14:37:50Z</time>
      </trkpt>
      <trkpt lat="41.678261" lon="2.237801">
        <ele>336.80</ele>
        <time>2020-09-02T14:37:52Z</time>
      </trkpt>
      <trkpt lat="41.678312" lon="2.237906">
        <ele>337.60</ele>
        <time>2020-09-02T14:37:56Z</time>
      </trkpt>
      <trkpt lat="41.678388" lon="2.238028">
        <ele>338.80</ele>
        <time>2020-09-02T14:38:01Z</time>
      </trkpt>
      <trkpt lat="41.678422" lon="2.238082">
        <ele>339.00</ele>
        <time>2020-09-02T14:38:03Z</time>
      </trkpt>
      <trkpt lat="41.678503" lon="2.238214">
        <ele>340.00</ele>
        <time>2020-09-02T14:38:08Z</time>
      </trkpt>
      <trkpt lat="41.678592" lon="2.238340">
        <ele>340.80</ele>
        <time>2020-09-02T14:38:13Z</time>
      </trkpt>
      <trkpt lat="41.678623" lon="2.238396">
        <ele>341.00</ele>
        <time>2020-09-02T14:38:15Z</time>
      </trkpt>
      <trkpt lat="41.678731" lon="2.238561">
        <ele>342.00</ele>
        <time>2020-09-02T14:38:21Z</time>
      </trkpt>
      <trkpt lat="41.678750" lon="2.238592">
        <ele>342.00</ele>
        <time>2020-09-02T14:38:22Z</time>
      </trkpt>
      <trkpt lat="41.678808" lon="2.238684">
        <ele>342.40</ele>
        <time>2020-09-02T14:38:25Z</time>
      </trkpt>
      <trkpt lat="41.678827" lon="2.238716">
        <ele>342.60</ele>
        <time>2020-09-02T14:38:26Z</time>
      </trkpt>
      <trkpt lat="41.678932" lon="2.238872">
        <ele>343.00</ele>
        <time>2020-09-02T14:38:31Z</time>
      </trkpt>
      <trkpt lat="41.678954" lon="2.238902">
        <ele>343.20</ele>
        <time>2020-09-02T14:38:32Z</time>
      </trkpt>
      <trkpt lat="41.679168" lon="2.239143">
        <ele>343.80</ele>
        <time>2020-09-02T14:38:40Z</time>
      </trkpt>
      <trkpt lat="41.679268" lon="2.239371">
        <ele>343.80</ele>
        <time>2020-09-02T14:38:45Z</time>
      </trkpt>
      <trkpt lat="41.679315" lon="2.239517">
        <ele>344.20</ele>
        <time>2020-09-02T14:38:48Z</time>
      </trkpt>
      <trkpt lat="41.679371" lon="2.239659">
        <ele>344.20</ele>
        <time>2020-09-02T14:38:51Z</time>
      </trkpt>
      <trkpt lat="41.679384" lon="2.239713">
        <ele>344.20</ele>
        <time>2020-09-02T14:38:52Z</time>
      </trkpt>
      <trkpt lat="41.679440" lon="2.239929">
        <ele>345.20</ele>
        <time>2020-09-02T14:38:56Z</time>
      </trkpt>
      <trkpt lat="41.679518" lon="2.240064">
        <ele>345.40</ele>
        <time>2020-09-02T14:38:59Z</time>
      </trkpt>
      <trkpt lat="41.679569" lon="2.240153">
        <ele>345.00</ele>
        <time>2020-09-02T14:39:01Z</time>
      </trkpt>
      <trkpt lat="41.679561" lon="2.240262">
        <ele>344.60</ele>
        <time>2020-09-02T14:39:03Z</time>
      </trkpt>
      <trkpt lat="41.679457" lon="2.240342">
        <ele>344.80</ele>
        <time>2020-09-02T14:39:06Z</time>
      </trkpt>
      <trkpt lat="41.679344" lon="2.240380">
        <ele>345.80</ele>
        <time>2020-09-02T14:39:09Z</time>
      </trkpt>
      <trkpt lat="41.679303" lon="2.240388">
        <ele>346.20</ele>
        <time>2020-09-02T14:39:10Z</time>
      </trkpt>
      <trkpt lat="41.679179" lon="2.240419">
        <ele>347.00</ele>
        <time>2020-09-02T14:39:13Z</time>
      </trkpt>
      <trkpt lat="41.679098" lon="2.240456">
        <ele>347.60</ele>
        <time>2020-09-02T14:39:15Z</time>
      </trkpt>
      <trkpt lat="41.678941" lon="2.240530">
        <ele>348.20</ele>
        <time>2020-09-02T14:39:19Z</time>
      </trkpt>
      <trkpt lat="41.678906" lon="2.240538">
        <ele>348.60</ele>
        <time>2020-09-02T14:39:20Z</time>
      </trkpt>
      <trkpt lat="41.678838" lon="2.240542">
        <ele>350.00</ele>
        <time>2020-09-02T14:39:22Z</time>
      </trkpt>
      <trkpt lat="41.678733" lon="2.240539">
        <ele>351.00</ele>
        <time>2020-09-02T14:39:25Z</time>
      </trkpt>
      <trkpt lat="41.678467" lon="2.240585">
        <ele>351.80</ele>
        <time>2020-09-02T14:39:32Z</time>
      </trkpt>
      <trkpt lat="41.678399" lon="2.240625">
        <ele>352.20</ele>
        <time>2020-09-02T14:39:34Z</time>
      </trkpt>
      <trkpt lat="41.678319" lon="2.240727">
        <ele>352.40</ele>
        <time>2020-09-02T14:39:37Z</time>
      </trkpt>
      <trkpt lat="41.678229" lon="2.240993">
        <ele>352.40</ele>
        <time>2020-09-02T14:39:43Z</time>
      </trkpt>
      <trkpt lat="41.678154" lon="2.241385">
        <ele>353.20</ele>
        <time>2020-09-02T14:39:52Z</time>
      </trkpt>
      <trkpt lat="41.678152" lon="2.241427">
        <ele>353.20</ele>
        <time>2020-09-02T14:39:53Z</time>
      </trkpt>
      <trkpt lat="41.678115" lon="2.241688">
        <ele>353.40</ele>
        <time>2020-09-02T14:40:00Z</time>
      </trkpt>
      <trkpt lat="41.678079" lon="2.241776">
        <ele>353.40</ele>
        <time>2020-09-02T14:40:05Z</time>
      </trkpt>
      <trkpt lat="41.678072" lon="2.241768">
        <ele>353.80</ele>
        <time>2020-09-02T14:40:13Z</time>
      </trkpt>
      <trkpt lat="41.678068" lon="2.241768">
        <ele>353.40</ele>
        <time>2020-09-02T14:40:23Z</time>
      </trkpt>
      <trkpt lat="41.678042" lon="2.241766">
        <ele>353.20</ele>
        <time>2020-09-02T14:40:25Z</time>
      </trkpt>
      <trkpt lat="41.678042" lon="2.241766">
        <ele>352.40</ele>
        <time>2020-09-02T14:40:27Z</time>
      </trkpt>
      <trkpt lat="41.677915" lon="2.241704">
        <ele>352.20</ele>
        <time>2020-09-02T14:40:30Z</time>
      </trkpt>
      <trkpt lat="41.677886" lon="2.241673">
        <ele>352.20</ele>
        <time>2020-09-02T14:40:31Z</time>
      </trkpt>
      <trkpt lat="41.677856" lon="2.241643">
        <ele>352.20</ele>
        <time>2020-09-02T14:40:32Z</time>
      </trkpt>
      <trkpt lat="41.677830" lon="2.241605">
        <ele>352.20</ele>
        <time>2020-09-02T14:40:33Z</time>
      </trkpt>
      <trkpt lat="41.677805" lon="2.241562">
        <ele>352.00</ele>
        <time>2020-09-02T14:40:34Z</time>
      </trkpt>
      <trkpt lat="41.677754" lon="2.241471">
        <ele>351.80</ele>
        <time>2020-09-02T14:40:36Z</time>
      </trkpt>
      <trkpt lat="41.677611" lon="2.241264">
        <ele>351.00</ele>
        <time>2020-09-02T14:40:41Z</time>
      </trkpt>
      <trkpt lat="41.677580" lon="2.241225">
        <ele>351.00</ele>
        <time>2020-09-02T14:40:42Z</time>
      </trkpt>
      <trkpt lat="41.677516" lon="2.241149">
        <ele>351.00</ele>
        <time>2020-09-02T14:40:44Z</time>
      </trkpt>
      <trkpt lat="41.677358" lon="2.240958">
        <ele>351.00</ele>
        <time>2020-09-02T14:40:48Z</time>
      </trkpt>
      <trkpt lat="41.677302" lon="2.240829">
        <ele>351.00</ele>
        <time>2020-09-02T14:40:50Z</time>
      </trkpt>
      <trkpt lat="41.677274" lon="2.240675">
        <ele>350.80</ele>
        <time>2020-09-02T14:40:52Z</time>
      </trkpt>
      <trkpt lat="41.677239" lon="2.240449">
        <ele>350.20</ele>
        <time>2020-09-02T14:40:55Z</time>
      </trkpt>
      <trkpt lat="41.677224" lon="2.240378">
        <ele>349.60</ele>
        <time>2020-09-02T14:40:56Z</time>
      </trkpt>
      <trkpt lat="41.677200" lon="2.240321">
        <ele>349.40</ele>
        <time>2020-09-02T14:40:57Z</time>
      </trkpt>
      <trkpt lat="41.677133" lon="2.240260">
        <ele>349.00</ele>
        <time>2020-09-02T14:40:59Z</time>
      </trkpt>
      <trkpt lat="41.677095" lon="2.240261">
        <ele>349.00</ele>
        <time>2020-09-02T14:41:00Z</time>
      </trkpt>
      <trkpt lat="41.677010" lon="2.240285">
        <ele>349.20</ele>
        <time>2020-09-02T14:41:02Z</time>
      </trkpt>
      <trkpt lat="41.676866" lon="2.240312">
        <ele>349.20</ele>
        <time>2020-09-02T14:41:05Z</time>
      </trkpt>
      <trkpt lat="41.676820" lon="2.240318">
        <ele>349.20</ele>
        <time>2020-09-02T14:41:06Z</time>
      </trkpt>
      <trkpt lat="41.676728" lon="2.240332">
        <ele>349.00</ele>
        <time>2020-09-02T14:41:08Z</time>
      </trkpt>
      <trkpt lat="41.676681" lon="2.240341">
        <ele>349.00</ele>
        <time>2020-09-02T14:41:09Z</time>
      </trkpt>
      <trkpt lat="41.676372" lon="2.240397">
        <ele>350.40</ele>
        <time>2020-09-02T14:41:16Z</time>
      </trkpt>
      <trkpt lat="41.676329" lon="2.240403">
        <ele>350.80</ele>
        <time>2020-09-02T14:41:17Z</time>
      </trkpt>
      <trkpt lat="41.676097" lon="2.240435">
        <ele>351.40</ele>
        <time>2020-09-02T14:41:22Z</time>
      </trkpt>
      <trkpt lat="41.676007" lon="2.240445">
        <ele>351.60</ele>
        <time>2020-09-02T14:41:24Z</time>
      </trkpt>
      <trkpt lat="41.675888" lon="2.240444">
        <ele>351.80</ele>
        <time>2020-09-02T14:41:27Z</time>
      </trkpt>
      <trkpt lat="41.675844" lon="2.240441">
        <ele>352.00</ele>
        <time>2020-09-02T14:41:28Z</time>
      </trkpt>
      <trkpt lat="41.675758" lon="2.240436">
        <ele>352.00</ele>
        <time>2020-09-02T14:41:30Z</time>
      </trkpt>
      <trkpt lat="41.675637" lon="2.240452">
        <ele>352.20</ele>
        <time>2020-09-02T14:41:33Z</time>
      </trkpt>
      <trkpt lat="41.675563" lon="2.240483">
        <ele>353.20</ele>
        <time>2020-09-02T14:41:35Z</time>
      </trkpt>
      <trkpt lat="41.675478" lon="2.240555">
        <ele>353.80</ele>
        <time>2020-09-02T14:41:38Z</time>
      </trkpt>
      <trkpt lat="41.675398" lon="2.240676">
        <ele>354.20</ele>
        <time>2020-09-02T14:41:42Z</time>
      </trkpt>
      <trkpt lat="41.675379" lon="2.240725">
        <ele>354.00</ele>
        <time>2020-09-02T14:41:43Z</time>
      </trkpt>
      <trkpt lat="41.675329" lon="2.240845">
        <ele>352.20</ele>
        <time>2020-09-02T14:41:45Z</time>
      </trkpt>
      <trkpt lat="41.675272" lon="2.240974">
        <ele>351.00</ele>
        <time>2020-09-02T14:41:47Z</time>
      </trkpt>
      <trkpt lat="41.675242" lon="2.241042">
        <ele>350.80</ele>
        <time>2020-09-02T14:41:48Z</time>
      </trkpt>
      <trkpt lat="41.675147" lon="2.241242">
        <ele>350.40</ele>
        <time>2020-09-02T14:41:51Z</time>
      </trkpt>
      <trkpt lat="41.675037" lon="2.241308">
        <ele>350.20</ele>
        <time>2020-09-02T14:41:53Z</time>
      </trkpt>
      <trkpt lat="41.674928" lon="2.241280">
        <ele>350.40</ele>
        <time>2020-09-02T14:41:55Z</time>
      </trkpt>
      <trkpt lat="41.674872" lon="2.241258">
        <ele>350.40</ele>
        <time>2020-09-02T14:41:56Z</time>
      </trkpt>
      <trkpt lat="41.674812" lon="2.241253">
        <ele>350.40</ele>
        <time>2020-09-02T14:41:57Z</time>
      </trkpt>
      <trkpt lat="41.674706" lon="2.241273">
        <ele>350.80</ele>
        <time>2020-09-02T14:41:59Z</time>
      </trkpt>
      <trkpt lat="41.674663" lon="2.241289">
        <ele>351.00</ele>
        <time>2020-09-02T14:42:00Z</time>
      </trkpt>
      <trkpt lat="41.674625" lon="2.241304">
        <ele>351.40</ele>
        <time>2020-09-02T14:42:01Z</time>
      </trkpt>
      <trkpt lat="41.674577" lon="2.241331">
        <ele>351.60</ele>
        <time>2020-09-02T14:42:02Z</time>
      </trkpt>
      <trkpt lat="41.674534" lon="2.241359">
        <ele>352.00</ele>
        <time>2020-09-02T14:42:03Z</time>
      </trkpt>
      <trkpt lat="41.674499" lon="2.241393">
        <ele>352.40</ele>
        <time>2020-09-02T14:42:04Z</time>
      </trkpt>
      <trkpt lat="41.674444" lon="2.241489">
        <ele>352.60</ele>
        <time>2020-09-02T14:42:06Z</time>
      </trkpt>
      <trkpt lat="41.674412" lon="2.241605">
        <ele>353.00</ele>
        <time>2020-09-02T14:42:08Z</time>
      </trkpt>
      <trkpt lat="41.674403" lon="2.241658">
        <ele>353.40</ele>
        <time>2020-09-02T14:42:09Z</time>
      </trkpt>
      <trkpt lat="41.674398" lon="2.241752">
        <ele>354.40</ele>
        <time>2020-09-02T14:42:11Z</time>
      </trkpt>
      <trkpt lat="41.674387" lon="2.241795">
        <ele>355.00</ele>
        <time>2020-09-02T14:42:12Z</time>
      </trkpt>
      <trkpt lat="41.674372" lon="2.241833">
        <ele>355.40</ele>
        <time>2020-09-02T14:42:13Z</time>
      </trkpt>
      <trkpt lat="41.674320" lon="2.241929">
        <ele>356.40</ele>
        <time>2020-09-02T14:42:16Z</time>
      </trkpt>
      <trkpt lat="41.674299" lon="2.241959">
        <ele>356.80</ele>
        <time>2020-09-02T14:42:17Z</time>
      </trkpt>
      <trkpt lat="41.674244" lon="2.242053">
        <ele>357.20</ele>
        <time>2020-09-02T14:42:20Z</time>
      </trkpt>
      <trkpt lat="41.674208" lon="2.242155">
        <ele>357.80</ele>
        <time>2020-09-02T14:42:23Z</time>
      </trkpt>
      <trkpt lat="41.674191" lon="2.242271">
        <ele>358.60</ele>
        <time>2020-09-02T14:42:26Z</time>
      </trkpt>
      <trkpt lat="41.674188" lon="2.242311">
        <ele>359.00</ele>
        <time>2020-09-02T14:42:27Z</time>
      </trkpt>
      <trkpt lat="41.674192" lon="2.242351">
        <ele>359.40</ele>
        <time>2020-09-02T14:42:28Z</time>
      </trkpt>
      <trkpt lat="41.674201" lon="2.242391">
        <ele>359.80</ele>
        <time>2020-09-02T14:42:29Z</time>
      </trkpt>
      <trkpt lat="41.674201" lon="2.242391">
        <ele>360.40</ele>
        <time>2020-09-02T14:42:30Z</time>
      </trkpt>
      <trkpt lat="41.674224" lon="2.242539">
        <ele>361.00</ele>
        <time>2020-09-02T14:42:33Z</time>
      </trkpt>
      <trkpt lat="41.674225" lon="2.242609">
        <ele>361.40</ele>
        <time>2020-09-02T14:42:35Z</time>
      </trkpt>
      <trkpt lat="41.674222" lon="2.242753">
        <ele>362.60</ele>
        <time>2020-09-02T14:42:39Z</time>
      </trkpt>
      <trkpt lat="41.674228" lon="2.242785">
        <ele>362.60</ele>
        <time>2020-09-02T14:42:40Z</time>
      </trkpt>
      <trkpt lat="41.674308" lon="2.242998">
        <ele>363.00</ele>
        <time>2020-09-02T14:42:46Z</time>
      </trkpt>
      <trkpt lat="41.674334" lon="2.243067">
        <ele>363.40</ele>
        <time>2020-09-02T14:42:48Z</time>
      </trkpt>
      <trkpt lat="41.674359" lon="2.243137">
        <ele>363.60</ele>
        <time>2020-09-02T14:42:50Z</time>
      </trkpt>
      <trkpt lat="41.674369" lon="2.243173">
        <ele>363.80</ele>
        <time>2020-09-02T14:42:51Z</time>
      </trkpt>
      <trkpt lat="41.674386" lon="2.243316">
        <ele>364.60</ele>
        <time>2020-09-02T14:42:55Z</time>
      </trkpt>
      <trkpt lat="41.674387" lon="2.243402">
        <ele>364.80</ele>
        <time>2020-09-02T14:42:57Z</time>
      </trkpt>
      <trkpt lat="41.674396" lon="2.243503">
        <ele>364.80</ele>
        <time>2020-09-02T14:42:59Z</time>
      </trkpt>
      <trkpt lat="41.674399" lon="2.243617">
        <ele>364.60</ele>
        <time>2020-09-02T14:43:01Z</time>
      </trkpt>
      <trkpt lat="41.674381" lon="2.243779">
        <ele>363.40</ele>
        <time>2020-09-02T14:43:04Z</time>
      </trkpt>
      <trkpt lat="41.674370" lon="2.243996">
        <ele>362.80</ele>
        <time>2020-09-02T14:43:08Z</time>
      </trkpt>
      <trkpt lat="41.674390" lon="2.244287">
        <ele>362.40</ele>
        <time>2020-09-02T14:43:14Z</time>
      </trkpt>
      <trkpt lat="41.674449" lon="2.244411">
        <ele>362.40</ele>
        <time>2020-09-02T14:43:17Z</time>
      </trkpt>
      <trkpt lat="41.674483" lon="2.244455">
        <ele>362.40</ele>
        <time>2020-09-02T14:43:18Z</time>
      </trkpt>
      <trkpt lat="41.674614" lon="2.244628">
        <ele>361.00</ele>
        <time>2020-09-02T14:43:21Z</time>
      </trkpt>
      <trkpt lat="41.674665" lon="2.244698">
        <ele>360.20</ele>
        <time>2020-09-02T14:43:22Z</time>
      </trkpt>
      <trkpt lat="41.674712" lon="2.244776">
        <ele>359.60</ele>
        <time>2020-09-02T14:43:23Z</time>
      </trkpt>
      <trkpt lat="41.674751" lon="2.244862">
        <ele>359.00</ele>
        <time>2020-09-02T14:43:24Z</time>
      </trkpt>
      <trkpt lat="41.674812" lon="2.245059">
        <ele>358.40</ele>
        <time>2020-09-02T14:43:26Z</time>
      </trkpt>
      <trkpt lat="41.674879" lon="2.245403">
        <ele>357.00</ele>
        <time>2020-09-02T14:43:29Z</time>
      </trkpt>
      <trkpt lat="41.674934" lon="2.245637">
        <ele>355.60</ele>
        <time>2020-09-02T14:43:31Z</time>
      </trkpt>
      <trkpt lat="41.674975" lon="2.245748">
        <ele>355.00</ele>
        <time>2020-09-02T14:43:32Z</time>
      </trkpt>
      <trkpt lat="41.675023" lon="2.245857">
        <ele>354.60</ele>
        <time>2020-09-02T14:43:33Z</time>
      </trkpt>
      <trkpt lat="41.675096" lon="2.246080">
        <ele>352.00</ele>
        <time>2020-09-02T14:43:35Z</time>
      </trkpt>
      <trkpt lat="41.675099" lon="2.246198">
        <ele>351.00</ele>
        <time>2020-09-02T14:43:36Z</time>
      </trkpt>
      <trkpt lat="41.675044" lon="2.246284">
        <ele>350.00</ele>
        <time>2020-09-02T14:43:37Z</time>
      </trkpt>
      <trkpt lat="41.674971" lon="2.246453">
        <ele>349.80</ele>
        <time>2020-09-02T14:43:39Z</time>
      </trkpt>
      <trkpt lat="41.674958" lon="2.246543">
        <ele>350.00</ele>
        <time>2020-09-02T14:43:40Z</time>
      </trkpt>
      <trkpt lat="41.674952" lon="2.246717">
        <ele>350.80</ele>
        <time>2020-09-02T14:43:42Z</time>
      </trkpt>
      <trkpt lat="41.674957" lon="2.246798">
        <ele>351.00</ele>
        <time>2020-09-02T14:43:43Z</time>
      </trkpt>
      <trkpt lat="41.674958" lon="2.246954">
        <ele>352.00</ele>
        <time>2020-09-02T14:43:45Z</time>
      </trkpt>
      <trkpt lat="41.674957" lon="2.247030">
        <ele>352.60</ele>
        <time>2020-09-02T14:43:46Z</time>
      </trkpt>
      <trkpt lat="41.674955" lon="2.247106">
        <ele>352.80</ele>
        <time>2020-09-02T14:43:47Z</time>
      </trkpt>
      <trkpt lat="41.674923" lon="2.247248">
        <ele>353.20</ele>
        <time>2020-09-02T14:43:49Z</time>
      </trkpt>
      <trkpt lat="41.674896" lon="2.247308">
        <ele>353.40</ele>
        <time>2020-09-02T14:43:50Z</time>
      </trkpt>
      <trkpt lat="41.674862" lon="2.247362">
        <ele>353.60</ele>
        <time>2020-09-02T14:43:51Z</time>
      </trkpt>
      <trkpt lat="41.674755" lon="2.247511">
        <ele>353.40</ele>
        <time>2020-09-02T14:43:54Z</time>
      </trkpt>
      <trkpt lat="41.674722" lon="2.247567">
        <ele>353.60</ele>
        <time>2020-09-02T14:43:55Z</time>
      </trkpt>
      <trkpt lat="41.674682" lon="2.247699">
        <ele>353.80</ele>
        <time>2020-09-02T14:43:57Z</time>
      </trkpt>
      <trkpt lat="41.674671" lon="2.247837">
        <ele>354.20</ele>
        <time>2020-09-02T14:43:59Z</time>
      </trkpt>
      <trkpt lat="41.674677" lon="2.247966">
        <ele>354.80</ele>
        <time>2020-09-02T14:44:01Z</time>
      </trkpt>
      <trkpt lat="41.674710" lon="2.248156">
        <ele>355.40</ele>
        <time>2020-09-02T14:44:04Z</time>
      </trkpt>
      <trkpt lat="41.674734" lon="2.248286">
        <ele>356.20</ele>
        <time>2020-09-02T14:44:06Z</time>
      </trkpt>
      <trkpt lat="41.674786" lon="2.248535">
        <ele>357.60</ele>
        <time>2020-09-02T14:44:10Z</time>
      </trkpt>
      <trkpt lat="41.674823" lon="2.248717">
        <ele>358.20</ele>
        <time>2020-09-02T14:44:13Z</time>
      </trkpt>
      <trkpt lat="41.674830" lon="2.248778">
        <ele>358.20</ele>
        <time>2020-09-02T14:44:14Z</time>
      </trkpt>
      <trkpt lat="41.674819" lon="2.249153">
        <ele>358.60</ele>
        <time>2020-09-02T14:44:20Z</time>
      </trkpt>
      <trkpt lat="41.674804" lon="2.249209">
        <ele>358.60</ele>
        <time>2020-09-02T14:44:21Z</time>
      </trkpt>
      <trkpt lat="41.674786" lon="2.249262">
        <ele>359.00</ele>
        <time>2020-09-02T14:44:22Z</time>
      </trkpt>
      <trkpt lat="41.674745" lon="2.249363">
        <ele>359.80</ele>
        <time>2020-09-02T14:44:24Z</time>
      </trkpt>
      <trkpt lat="41.674674" lon="2.249569">
        <ele>360.60</ele>
        <time>2020-09-02T14:44:28Z</time>
      </trkpt>
      <trkpt lat="41.674562" lon="2.249866">
        <ele>361.00</ele>
        <time>2020-09-02T14:44:34Z</time>
      </trkpt>
      <trkpt lat="41.674545" lon="2.249914">
        <ele>361.60</ele>
        <time>2020-09-02T14:44:35Z</time>
      </trkpt>
      <trkpt lat="41.674527" lon="2.249962">
        <ele>362.00</ele>
        <time>2020-09-02T14:44:36Z</time>
      </trkpt>
      <trkpt lat="41.674452" lon="2.250155">
        <ele>362.60</ele>
        <time>2020-09-02T14:44:40Z</time>
      </trkpt>
      <trkpt lat="41.674384" lon="2.250340">
        <ele>362.80</ele>
        <time>2020-09-02T14:44:44Z</time>
      </trkpt>
      <trkpt lat="41.674328" lon="2.250485">
        <ele>363.20</ele>
        <time>2020-09-02T14:44:47Z</time>
      </trkpt>
      <trkpt lat="41.674248" lon="2.250736">
        <ele>364.20</ele>
        <time>2020-09-02T14:44:52Z</time>
      </trkpt>
      <trkpt lat="41.674228" lon="2.250782">
        <ele>364.40</ele>
        <time>2020-09-02T14:44:53Z</time>
      </trkpt>
      <trkpt lat="41.674109" lon="2.251003">
        <ele>365.00</ele>
        <time>2020-09-02T14:44:58Z</time>
      </trkpt>
      <trkpt lat="41.674019" lon="2.251111">
        <ele>365.00</ele>
        <time>2020-09-02T14:45:01Z</time>
      </trkpt>
      <trkpt lat="41.673790" lon="2.251390">
        <ele>363.80</ele>
        <time>2020-09-02T14:45:08Z</time>
      </trkpt>
      <trkpt lat="41.673588" lon="2.251624">
        <ele>363.20</ele>
        <time>2020-09-02T14:45:13Z</time>
      </trkpt>
      <trkpt lat="41.673458" lon="2.251781">
        <ele>362.60</ele>
        <time>2020-09-02T14:45:16Z</time>
      </trkpt>
      <trkpt lat="41.673365" lon="2.251910">
        <ele>361.80</ele>
        <time>2020-09-02T14:45:18Z</time>
      </trkpt>
      <trkpt lat="41.673260" lon="2.252063">
        <ele>360.60</ele>
        <time>2020-09-02T14:45:20Z</time>
      </trkpt>
      <trkpt lat="41.673205" lon="2.252147">
        <ele>359.40</ele>
        <time>2020-09-02T14:45:21Z</time>
      </trkpt>
      <trkpt lat="41.673146" lon="2.252238">
        <ele>358.40</ele>
        <time>2020-09-02T14:45:22Z</time>
      </trkpt>
      <trkpt lat="41.673024" lon="2.252441">
        <ele>356.40</ele>
        <time>2020-09-02T14:45:24Z</time>
      </trkpt>
      <trkpt lat="41.672965" lon="2.252550">
        <ele>355.40</ele>
        <time>2020-09-02T14:45:25Z</time>
      </trkpt>
      <trkpt lat="41.672912" lon="2.252665">
        <ele>354.20</ele>
        <time>2020-09-02T14:45:26Z</time>
      </trkpt>
      <trkpt lat="41.672864" lon="2.252790">
        <ele>353.20</ele>
        <time>2020-09-02T14:45:27Z</time>
      </trkpt>
      <trkpt lat="41.672792" lon="2.253071">
        <ele>351.20</ele>
        <time>2020-09-02T14:45:29Z</time>
      </trkpt>
      <trkpt lat="41.672764" lon="2.253223">
        <ele>349.60</ele>
        <time>2020-09-02T14:45:30Z</time>
      </trkpt>
      <trkpt lat="41.672734" lon="2.253376">
        <ele>348.40</ele>
        <time>2020-09-02T14:45:31Z</time>
      </trkpt>
      <trkpt lat="41.672659" lon="2.253679">
        <ele>346.60</ele>
        <time>2020-09-02T14:45:33Z</time>
      </trkpt>
      <trkpt lat="41.672607" lon="2.253825">
        <ele>345.60</ele>
        <time>2020-09-02T14:45:34Z</time>
      </trkpt>
      <trkpt lat="41.672542" lon="2.253965">
        <ele>344.20</ele>
        <time>2020-09-02T14:45:35Z</time>
      </trkpt>
      <trkpt lat="41.672466" lon="2.254092">
        <ele>342.40</ele>
        <time>2020-09-02T14:45:36Z</time>
      </trkpt>
      <trkpt lat="41.672385" lon="2.254217">
        <ele>340.60</ele>
        <time>2020-09-02T14:45:37Z</time>
      </trkpt>
      <trkpt lat="41.672300" lon="2.254344">
        <ele>339.20</ele>
        <time>2020-09-02T14:45:38Z</time>
      </trkpt>
      <trkpt lat="41.672216" lon="2.254472">
        <ele>337.80</ele>
        <time>2020-09-02T14:45:39Z</time>
      </trkpt>
      <trkpt lat="41.672133" lon="2.254599">
        <ele>336.60</ele>
        <time>2020-09-02T14:45:40Z</time>
      </trkpt>
      <trkpt lat="41.671958" lon="2.254847">
        <ele>335.00</ele>
        <time>2020-09-02T14:45:42Z</time>
      </trkpt>
      <trkpt lat="41.671788" lon="2.255076">
        <ele>332.80</ele>
        <time>2020-09-02T14:45:44Z</time>
      </trkpt>
      <trkpt lat="41.671737" lon="2.255132">
        <ele>330.40</ele>
        <time>2020-09-02T14:45:45Z</time>
      </trkpt>
      <trkpt lat="41.671686" lon="2.255187">
        <ele>330.40</ele>
        <time>2020-09-02T14:45:46Z</time>
      </trkpt>
      <trkpt lat="41.671482" lon="2.255409">
        <ele>329.60</ele>
        <time>2020-09-02T14:45:48Z</time>
      </trkpt>
      <trkpt lat="41.671432" lon="2.255513">
        <ele>329.40</ele>
        <time>2020-09-02T14:45:49Z</time>
      </trkpt>
      <trkpt lat="41.671397" lon="2.255629">
        <ele>329.40</ele>
        <time>2020-09-02T14:45:50Z</time>
      </trkpt>
      <trkpt lat="41.671363" lon="2.255904">
        <ele>328.20</ele>
        <time>2020-09-02T14:45:52Z</time>
      </trkpt>
      <trkpt lat="41.671356" lon="2.256059">
        <ele>326.80</ele>
        <time>2020-09-02T14:45:53Z</time>
      </trkpt>
      <trkpt lat="41.671344" lon="2.256227">
        <ele>324.80</ele>
        <time>2020-09-02T14:45:54Z</time>
      </trkpt>
      <trkpt lat="41.671334" lon="2.256405">
        <ele>322.60</ele>
        <time>2020-09-02T14:45:55Z</time>
      </trkpt>
      <trkpt lat="41.671328" lon="2.256592">
        <ele>320.80</ele>
        <time>2020-09-02T14:45:56Z</time>
      </trkpt>
      <trkpt lat="41.671324" lon="2.256786">
        <ele>319.00</ele>
        <time>2020-09-02T14:45:57Z</time>
      </trkpt>
      <trkpt lat="41.671317" lon="2.256985">
        <ele>316.80</ele>
        <time>2020-09-02T14:45:58Z</time>
      </trkpt>
      <trkpt lat="41.671310" lon="2.257188">
        <ele>314.20</ele>
        <time>2020-09-02T14:45:59Z</time>
      </trkpt>
      <trkpt lat="41.671299" lon="2.257389">
        <ele>311.80</ele>
        <time>2020-09-02T14:46:00Z</time>
      </trkpt>
      <trkpt lat="41.671289" lon="2.257584">
        <ele>310.80</ele>
        <time>2020-09-02T14:46:01Z</time>
      </trkpt>
      <trkpt lat="41.671258" lon="2.258274">
        <ele>310.60</ele>
        <time>2020-09-02T14:46:05Z</time>
      </trkpt>
      <trkpt lat="41.671207" lon="2.258840">
        <ele>311.20</ele>
        <time>2020-09-02T14:46:09Z</time>
      </trkpt>
      <trkpt lat="41.671183" lon="2.258963">
        <ele>309.40</ele>
        <time>2020-09-02T14:46:10Z</time>
      </trkpt>
      <trkpt lat="41.671155" lon="2.259080">
        <ele>307.80</ele>
        <time>2020-09-02T14:46:11Z</time>
      </trkpt>
      <trkpt lat="41.671087" lon="2.259303">
        <ele>306.40</ele>
        <time>2020-09-02T14:46:13Z</time>
      </trkpt>
      <trkpt lat="41.671049" lon="2.259405">
        <ele>306.20</ele>
        <time>2020-09-02T14:46:14Z</time>
      </trkpt>
      <trkpt lat="41.670933" lon="2.259667">
        <ele>307.60</ele>
        <time>2020-09-02T14:46:17Z</time>
      </trkpt>
      <trkpt lat="41.670892" lon="2.259741">
        <ele>308.40</ele>
        <time>2020-09-02T14:46:18Z</time>
      </trkpt>
      <trkpt lat="41.670851" lon="2.259810">
        <ele>309.00</ele>
        <time>2020-09-02T14:46:19Z</time>
      </trkpt>
      <trkpt lat="41.670771" lon="2.259944">
        <ele>310.40</ele>
        <time>2020-09-02T14:46:21Z</time>
      </trkpt>
      <trkpt lat="41.670630" lon="2.260131">
        <ele>311.80</ele>
        <time>2020-09-02T14:46:24Z</time>
      </trkpt>
      <trkpt lat="41.670577" lon="2.260186">
        <ele>312.00</ele>
        <time>2020-09-02T14:46:25Z</time>
      </trkpt>
      <trkpt lat="41.670299" lon="2.260467">
        <ele>312.00</ele>
        <time>2020-09-02T14:46:30Z</time>
      </trkpt>
      <trkpt lat="41.670196" lon="2.260579">
        <ele>311.60</ele>
        <time>2020-09-02T14:46:32Z</time>
      </trkpt>
      <trkpt lat="41.670058" lon="2.260747">
        <ele>310.80</ele>
        <time>2020-09-02T14:46:35Z</time>
      </trkpt>
      <trkpt lat="41.669970" lon="2.260865">
        <ele>310.40</ele>
        <time>2020-09-02T14:46:37Z</time>
      </trkpt>
      <trkpt lat="41.669845" lon="2.260896">
        <ele>310.40</ele>
        <time>2020-09-02T14:46:39Z</time>
      </trkpt>
      <trkpt lat="41.669716" lon="2.260832">
        <ele>310.00</ele>
        <time>2020-09-02T14:46:41Z</time>
      </trkpt>
      <trkpt lat="41.669654" lon="2.260792">
        <ele>309.80</ele>
        <time>2020-09-02T14:46:42Z</time>
      </trkpt>
      <trkpt lat="41.669591" lon="2.260760">
        <ele>309.20</ele>
        <time>2020-09-02T14:46:43Z</time>
      </trkpt>
      <trkpt lat="41.669467" lon="2.260715">
        <ele>308.60</ele>
        <time>2020-09-02T14:46:45Z</time>
      </trkpt>
      <trkpt lat="41.669274" lon="2.260615">
        <ele>307.80</ele>
        <time>2020-09-02T14:46:48Z</time>
      </trkpt>
      <trkpt lat="41.669084" lon="2.260518">
        <ele>307.60</ele>
        <time>2020-09-02T14:46:51Z</time>
      </trkpt>
      <trkpt lat="41.669032" lon="2.260514">
        <ele>307.40</ele>
        <time>2020-09-02T14:46:52Z</time>
      </trkpt>
      <trkpt lat="41.668987" lon="2.260547">
        <ele>307.20</ele>
        <time>2020-09-02T14:46:53Z</time>
      </trkpt>
      <trkpt lat="41.668973" lon="2.260688">
        <ele>307.00</ele>
        <time>2020-09-02T14:46:55Z</time>
      </trkpt>
      <trkpt lat="41.668981" lon="2.260761">
        <ele>307.00</ele>
        <time>2020-09-02T14:46:56Z</time>
      </trkpt>
      <trkpt lat="41.669043" lon="2.260972">
        <ele>307.60</ele>
        <time>2020-09-02T14:46:59Z</time>
      </trkpt>
      <trkpt lat="41.669069" lon="2.261169">
        <ele>308.20</ele>
        <time>2020-09-02T14:47:02Z</time>
      </trkpt>
      <trkpt lat="41.669081" lon="2.261227">
        <ele>308.60</ele>
        <time>2020-09-02T14:47:03Z</time>
      </trkpt>
      <trkpt lat="41.669111" lon="2.261342">
        <ele>309.40</ele>
        <time>2020-09-02T14:47:05Z</time>
      </trkpt>
      <trkpt lat="41.669128" lon="2.261399">
        <ele>309.60</ele>
        <time>2020-09-02T14:47:06Z</time>
      </trkpt>
      <trkpt lat="41.669134" lon="2.261459">
        <ele>309.80</ele>
        <time>2020-09-02T14:47:07Z</time>
      </trkpt>
      <trkpt lat="41.669151" lon="2.261714">
        <ele>310.20</ele>
        <time>2020-09-02T14:47:11Z</time>
      </trkpt>
      <trkpt lat="41.669194" lon="2.261977">
        <ele>310.40</ele>
        <time>2020-09-02T14:47:15Z</time>
      </trkpt>
      <trkpt lat="41.669227" lon="2.262095">
        <ele>310.20</ele>
        <time>2020-09-02T14:47:17Z</time>
      </trkpt>
      <trkpt lat="41.669235" lon="2.262141">
        <ele>310.00</ele>
        <time>2020-09-02T14:47:18Z</time>
      </trkpt>
      <trkpt lat="41.669294" lon="2.262386">
        <ele>309.80</ele>
        <time>2020-09-02T14:47:23Z</time>
      </trkpt>
      <trkpt lat="41.669426" lon="2.262710">
        <ele>310.00</ele>
        <time>2020-09-02T14:47:28Z</time>
      </trkpt>
      <trkpt lat="41.669484" lon="2.262844">
        <ele>310.00</ele>
        <time>2020-09-02T14:47:30Z</time>
      </trkpt>
      <trkpt lat="41.669610" lon="2.263115">
        <ele>309.80</ele>
        <time>2020-09-02T14:47:34Z</time>
      </trkpt>
      <trkpt lat="41.669679" lon="2.263244">
        <ele>309.80</ele>
        <time>2020-09-02T14:47:36Z</time>
      </trkpt>
      <trkpt lat="41.669722" lon="2.263305">
        <ele>309.60</ele>
        <time>2020-09-02T14:47:37Z</time>
      </trkpt>
      <trkpt lat="41.669935" lon="2.263605">
        <ele>308.00</ele>
        <time>2020-09-02T14:47:41Z</time>
      </trkpt>
      <trkpt lat="41.670064" lon="2.263786">
        <ele>306.20</ele>
        <time>2020-09-02T14:47:43Z</time>
      </trkpt>
      <trkpt lat="41.670128" lon="2.263872">
        <ele>305.00</ele>
        <time>2020-09-02T14:47:44Z</time>
      </trkpt>
      <trkpt lat="41.670190" lon="2.263951">
        <ele>303.80</ele>
        <time>2020-09-02T14:47:45Z</time>
      </trkpt>
      <trkpt lat="41.670242" lon="2.264020">
        <ele>303.20</ele>
        <time>2020-09-02T14:47:46Z</time>
      </trkpt>
      <trkpt lat="41.670278" lon="2.264085">
        <ele>302.60</ele>
        <time>2020-09-02T14:47:47Z</time>
      </trkpt>
      <trkpt lat="41.670262" lon="2.264123">
        <ele>301.60</ele>
        <time>2020-09-02T14:47:48Z</time>
      </trkpt>
      <trkpt lat="41.670246" lon="2.264161">
        <ele>301.60</ele>
        <time>2020-09-02T14:47:49Z</time>
      </trkpt>
      <trkpt lat="41.670181" lon="2.264312">
        <ele>301.00</ele>
        <time>2020-09-02T14:47:51Z</time>
      </trkpt>
      <trkpt lat="41.670131" lon="2.264359">
        <ele>300.60</ele>
        <time>2020-09-02T14:47:52Z</time>
      </trkpt>
      <trkpt lat="41.669961" lon="2.264496">
        <ele>299.20</ele>
        <time>2020-09-02T14:47:55Z</time>
      </trkpt>
      <trkpt lat="41.669838" lon="2.264539">
        <ele>298.60</ele>
        <time>2020-09-02T14:47:57Z</time>
      </trkpt>
      <trkpt lat="41.669318" lon="2.264664">
        <ele>299.80</ele>
        <time>2020-09-02T14:48:06Z</time>
      </trkpt>
      <trkpt lat="41.668819" lon="2.264804">
        <ele>299.40</ele>
        <time>2020-09-02T14:48:14Z</time>
      </trkpt>
      <trkpt lat="41.668378" lon="2.264930">
        <ele>298.00</ele>
        <time>2020-09-02T14:48:21Z</time>
      </trkpt>
      <trkpt lat="41.668252" lon="2.264976">
        <ele>297.60</ele>
        <time>2020-09-02T14:48:23Z</time>
      </trkpt>
      <trkpt lat="41.668138" lon="2.265020">
        <ele>297.20</ele>
        <time>2020-09-02T14:48:25Z</time>
      </trkpt>
      <trkpt lat="41.668023" lon="2.265103">
        <ele>297.60</ele>
        <time>2020-09-02T14:48:27Z</time>
      </trkpt>
      <trkpt lat="41.667744" lon="2.265361">
        <ele>297.20</ele>
        <time>2020-09-02T14:48:32Z</time>
      </trkpt>
      <trkpt lat="41.667685" lon="2.265415">
        <ele>296.80</ele>
        <time>2020-09-02T14:48:33Z</time>
      </trkpt>
      <trkpt lat="41.667627" lon="2.265470">
        <ele>296.20</ele>
        <time>2020-09-02T14:48:34Z</time>
      </trkpt>
      <trkpt lat="41.667569" lon="2.265527">
        <ele>295.80</ele>
        <time>2020-09-02T14:48:35Z</time>
      </trkpt>
      <trkpt lat="41.667324" lon="2.265765">
        <ele>294.60</ele>
        <time>2020-09-02T14:48:39Z</time>
      </trkpt>
      <trkpt lat="41.667262" lon="2.265828">
        <ele>294.20</ele>
        <time>2020-09-02T14:48:40Z</time>
      </trkpt>
      <trkpt lat="41.667128" lon="2.265951">
        <ele>293.20</ele>
        <time>2020-09-02T14:48:42Z</time>
      </trkpt>
      <trkpt lat="41.666923" lon="2.266139">
        <ele>292.20</ele>
        <time>2020-09-02T14:48:45Z</time>
      </trkpt>
      <trkpt lat="41.666863" lon="2.266196">
        <ele>291.80</ele>
        <time>2020-09-02T14:48:46Z</time>
      </trkpt>
      <trkpt lat="41.666788" lon="2.266307">
        <ele>291.00</ele>
        <time>2020-09-02T14:48:48Z</time>
      </trkpt>
      <trkpt lat="41.666775" lon="2.266370">
        <ele>290.80</ele>
        <time>2020-09-02T14:48:49Z</time>
      </trkpt>
      <trkpt lat="41.666794" lon="2.266436">
        <ele>290.60</ele>
        <time>2020-09-02T14:48:50Z</time>
      </trkpt>
      <trkpt lat="41.666832" lon="2.266501">
        <ele>290.40</ele>
        <time>2020-09-02T14:48:51Z</time>
      </trkpt>
      <trkpt lat="41.666879" lon="2.266563">
        <ele>290.40</ele>
        <time>2020-09-02T14:48:52Z</time>
      </trkpt>
      <trkpt lat="41.667025" lon="2.266776">
        <ele>290.20</ele>
        <time>2020-09-02T14:48:55Z</time>
      </trkpt>
      <trkpt lat="41.667074" lon="2.266852">
        <ele>289.80</ele>
        <time>2020-09-02T14:48:56Z</time>
      </trkpt>
      <trkpt lat="41.667074" lon="2.266852">
        <ele>289.00</ele>
        <time>2020-09-02T14:48:58Z</time>
      </trkpt>
      <trkpt lat="41.667174" lon="2.266965">
        <ele>288.60</ele>
        <time>2020-09-02T14:48:59Z</time>
      </trkpt>
      <trkpt lat="41.667373" lon="2.267192">
        <ele>288.40</ele>
        <time>2020-09-02T14:49:01Z</time>
      </trkpt>
      <trkpt lat="41.667538" lon="2.267263">
        <ele>287.60</ele>
        <time>2020-09-02T14:49:03Z</time>
      </trkpt>
      <trkpt lat="41.667722" lon="2.267341">
        <ele>286.20</ele>
        <time>2020-09-02T14:49:05Z</time>
      </trkpt>
      <trkpt lat="41.667787" lon="2.267423">
        <ele>285.40</ele>
        <time>2020-09-02T14:49:06Z</time>
      </trkpt>
      <trkpt lat="41.667861" lon="2.267510">
        <ele>284.80</ele>
        <time>2020-09-02T14:49:07Z</time>
      </trkpt>
      <trkpt lat="41.667925" lon="2.267611">
        <ele>284.40</ele>
        <time>2020-09-02T14:49:08Z</time>
      </trkpt>
      <trkpt lat="41.668031" lon="2.267834">
        <ele>283.60</ele>
        <time>2020-09-02T14:49:10Z</time>
      </trkpt>
      <trkpt lat="41.668140" lon="2.268052">
        <ele>282.40</ele>
        <time>2020-09-02T14:49:12Z</time>
      </trkpt>
      <trkpt lat="41.668188" lon="2.268159">
        <ele>282.00</ele>
        <time>2020-09-02T14:49:13Z</time>
      </trkpt>
      <trkpt lat="41.668235" lon="2.268265">
        <ele>281.40</ele>
        <time>2020-09-02T14:49:14Z</time>
      </trkpt>
      <trkpt lat="41.668332" lon="2.268472">
        <ele>279.40</ele>
        <time>2020-09-02T14:49:16Z</time>
      </trkpt>
      <trkpt lat="41.668475" lon="2.268790">
        <ele>278.40</ele>
        <time>2020-09-02T14:49:19Z</time>
      </trkpt>
      <trkpt lat="41.668521" lon="2.268896">
        <ele>278.40</ele>
        <time>2020-09-02T14:49:20Z</time>
      </trkpt>
      <trkpt lat="41.668801" lon="2.269521">
        <ele>277.20</ele>
        <time>2020-09-02T14:49:26Z</time>
      </trkpt>
      <trkpt lat="41.668911" lon="2.269835">
        <ele>276.60</ele>
        <time>2020-09-02T14:49:29Z</time>
      </trkpt>
      <trkpt lat="41.668857" lon="2.270056">
        <ele>276.60</ele>
        <time>2020-09-02T14:49:31Z</time>
      </trkpt>
      <trkpt lat="41.668810" lon="2.270144">
        <ele>276.60</ele>
        <time>2020-09-02T14:49:32Z</time>
      </trkpt>
      <trkpt lat="41.668754" lon="2.270224">
        <ele>277.00</ele>
        <time>2020-09-02T14:49:33Z</time>
      </trkpt>
      <trkpt lat="41.668700" lon="2.270296">
        <ele>277.20</ele>
        <time>2020-09-02T14:49:34Z</time>
      </trkpt>
      <trkpt lat="41.668597" lon="2.270457">
        <ele>277.80</ele>
        <time>2020-09-02T14:49:36Z</time>
      </trkpt>
      <trkpt lat="41.668525" lon="2.270637">
        <ele>278.00</ele>
        <time>2020-09-02T14:49:38Z</time>
      </trkpt>
      <trkpt lat="41.668502" lon="2.270732">
        <ele>278.00</ele>
        <time>2020-09-02T14:49:39Z</time>
      </trkpt>
      <trkpt lat="41.668486" lon="2.270830">
        <ele>278.00</ele>
        <time>2020-09-02T14:49:40Z</time>
      </trkpt>
      <trkpt lat="41.668486" lon="2.271024">
        <ele>277.40</ele>
        <time>2020-09-02T14:49:42Z</time>
      </trkpt>
      <trkpt lat="41.668498" lon="2.271117">
        <ele>277.00</ele>
        <time>2020-09-02T14:49:43Z</time>
      </trkpt>
      <trkpt lat="41.668522" lon="2.271207">
        <ele>276.80</ele>
        <time>2020-09-02T14:49:44Z</time>
      </trkpt>
      <trkpt lat="41.668604" lon="2.271369">
        <ele>276.60</ele>
        <time>2020-09-02T14:49:46Z</time>
      </trkpt>
      <trkpt lat="41.668929" lon="2.271894">
        <ele>277.00</ele>
        <time>2020-09-02T14:49:53Z</time>
      </trkpt>
      <trkpt lat="41.668929" lon="2.271894">
        <ele>276.20</ele>
        <time>2020-09-02T14:50:01Z</time>
      </trkpt>
      <trkpt lat="41.669385" lon="2.272613">
        <ele>276.00</ele>
        <time>2020-09-02T14:50:03Z</time>
      </trkpt>
      <trkpt lat="41.669677" lon="2.273024">
        <ele>276.20</ele>
        <time>2020-09-02T14:50:09Z</time>
      </trkpt>
      <trkpt lat="41.669794" lon="2.273177">
        <ele>275.00</ele>
        <time>2020-09-02T14:50:11Z</time>
      </trkpt>
      <trkpt lat="41.669931" lon="2.273338">
        <ele>273.80</ele>
        <time>2020-09-02T14:50:13Z</time>
      </trkpt>
      <trkpt lat="41.670004" lon="2.273422">
        <ele>273.20</ele>
        <time>2020-09-02T14:50:14Z</time>
      </trkpt>
      <trkpt lat="41.670078" lon="2.273512">
        <ele>272.20</ele>
        <time>2020-09-02T14:50:15Z</time>
      </trkpt>
      <trkpt lat="41.670230" lon="2.273706">
        <ele>270.20</ele>
        <time>2020-09-02T14:50:17Z</time>
      </trkpt>
      <trkpt lat="41.670310" lon="2.273808">
        <ele>268.60</ele>
        <time>2020-09-02T14:50:18Z</time>
      </trkpt>
      <trkpt lat="41.670389" lon="2.273917">
        <ele>267.40</ele>
        <time>2020-09-02T14:50:19Z</time>
      </trkpt>
      <trkpt lat="41.670541" lon="2.274148">
        <ele>266.00</ele>
        <time>2020-09-02T14:50:21Z</time>
      </trkpt>
      <trkpt lat="41.670691" lon="2.274395">
        <ele>264.80</ele>
        <time>2020-09-02T14:50:23Z</time>
      </trkpt>
      <trkpt lat="41.670839" lon="2.274654">
        <ele>263.00</ele>
        <time>2020-09-02T14:50:25Z</time>
      </trkpt>
      <trkpt lat="41.670912" lon="2.274788">
        <ele>261.40</ele>
        <time>2020-09-02T14:50:26Z</time>
      </trkpt>
      <trkpt lat="41.670986" lon="2.274923">
        <ele>259.80</ele>
        <time>2020-09-02T14:50:27Z</time>
      </trkpt>
      <trkpt lat="41.671061" lon="2.275058">
        <ele>258.80</ele>
        <time>2020-09-02T14:50:28Z</time>
      </trkpt>
      <trkpt lat="41.671203" lon="2.275342">
        <ele>256.60</ele>
        <time>2020-09-02T14:50:30Z</time>
      </trkpt>
      <trkpt lat="41.671256" lon="2.275500">
        <ele>254.80</ele>
        <time>2020-09-02T14:50:31Z</time>
      </trkpt>
      <trkpt lat="41.671293" lon="2.275663">
        <ele>253.40</ele>
        <time>2020-09-02T14:50:32Z</time>
      </trkpt>
      <trkpt lat="41.671354" lon="2.275981">
        <ele>252.00</ele>
        <time>2020-09-02T14:50:34Z</time>
      </trkpt>
      <trkpt lat="41.671398" lon="2.276134">
        <ele>251.00</ele>
        <time>2020-09-02T14:50:35Z</time>
      </trkpt>
      <trkpt lat="41.671411" lon="2.276279">
        <ele>250.00</ele>
        <time>2020-09-02T14:50:36Z</time>
      </trkpt>
      <trkpt lat="41.671436" lon="2.276550">
        <ele>248.80</ele>
        <time>2020-09-02T14:50:38Z</time>
      </trkpt>
      <trkpt lat="41.671482" lon="2.276798">
        <ele>248.40</ele>
        <time>2020-09-02T14:50:40Z</time>
      </trkpt>
      <trkpt lat="41.671527" lon="2.277029">
        <ele>248.00</ele>
        <time>2020-09-02T14:50:42Z</time>
      </trkpt>
      <trkpt lat="41.671540" lon="2.277145">
        <ele>247.80</ele>
        <time>2020-09-02T14:50:43Z</time>
      </trkpt>
      <trkpt lat="41.671563" lon="2.277254">
        <ele>247.60</ele>
        <time>2020-09-02T14:50:44Z</time>
      </trkpt>
      <trkpt lat="41.671665" lon="2.277394">
        <ele>247.40</ele>
        <time>2020-09-02T14:50:46Z</time>
      </trkpt>
      <trkpt lat="41.671808" lon="2.277368">
        <ele>247.00</ele>
        <time>2020-09-02T14:50:48Z</time>
      </trkpt>
      <trkpt lat="41.671881" lon="2.277333">
        <ele>246.80</ele>
        <time>2020-09-02T14:50:49Z</time>
      </trkpt>
      <trkpt lat="41.671955" lon="2.277320">
        <ele>246.80</ele>
        <time>2020-09-02T14:50:50Z</time>
      </trkpt>
      <trkpt lat="41.672029" lon="2.277330">
        <ele>246.80</ele>
        <time>2020-09-02T14:50:51Z</time>
      </trkpt>
      <trkpt lat="41.672105" lon="2.277357">
        <ele>246.80</ele>
        <time>2020-09-02T14:50:52Z</time>
      </trkpt>
      <trkpt lat="41.672322" lon="2.277475">
        <ele>247.80</ele>
        <time>2020-09-02T14:50:55Z</time>
      </trkpt>
      <trkpt lat="41.672397" lon="2.277515">
        <ele>248.20</ele>
        <time>2020-09-02T14:50:56Z</time>
      </trkpt>
      <trkpt lat="41.672613" lon="2.277637">
        <ele>249.00</ele>
        <time>2020-09-02T14:50:59Z</time>
      </trkpt>
      <trkpt lat="41.672686" lon="2.277678">
        <ele>249.20</ele>
        <time>2020-09-02T14:51:00Z</time>
      </trkpt>
      <trkpt lat="41.672891" lon="2.277794">
        <ele>249.60</ele>
        <time>2020-09-02T14:51:03Z</time>
      </trkpt>
      <trkpt lat="41.673456" lon="2.278066">
        <ele>249.20</ele>
        <time>2020-09-02T14:51:11Z</time>
      </trkpt>
      <trkpt lat="41.673767" lon="2.278242">
        <ele>249.40</ele>
        <time>2020-09-02T14:51:16Z</time>
      </trkpt>
      <trkpt lat="41.673856" lon="2.278279">
        <ele>249.80</ele>
        <time>2020-09-02T14:51:17Z</time>
      </trkpt>
      <trkpt lat="41.673945" lon="2.278316">
        <ele>249.80</ele>
        <time>2020-09-02T14:51:19Z</time>
      </trkpt>
      <trkpt lat="41.674004" lon="2.278325">
        <ele>249.80</ele>
        <time>2020-09-02T14:51:20Z</time>
      </trkpt>
      <trkpt lat="41.674065" lon="2.278333">
        <ele>249.60</ele>
        <time>2020-09-02T14:51:21Z</time>
      </trkpt>
      <trkpt lat="41.674375" lon="2.278385">
        <ele>249.60</ele>
        <time>2020-09-02T14:51:26Z</time>
      </trkpt>
      <trkpt lat="41.674743" lon="2.278373">
        <ele>250.20</ele>
        <time>2020-09-02T14:51:32Z</time>
      </trkpt>
      <trkpt lat="41.674805" lon="2.278369">
        <ele>250.40</ele>
        <time>2020-09-02T14:51:33Z</time>
      </trkpt>
      <trkpt lat="41.675174" lon="2.278344">
        <ele>251.20</ele>
        <time>2020-09-02T14:51:39Z</time>
      </trkpt>
      <trkpt lat="41.675238" lon="2.278335">
        <ele>251.20</ele>
        <time>2020-09-02T14:51:40Z</time>
      </trkpt>
      <trkpt lat="41.675302" lon="2.278327">
        <ele>251.40</ele>
        <time>2020-09-02T14:51:41Z</time>
      </trkpt>
      <trkpt lat="41.675747" lon="2.278273">
        <ele>252.40</ele>
        <time>2020-09-02T14:51:48Z</time>
      </trkpt>
      <trkpt lat="41.675930" lon="2.278257">
        <ele>252.60</ele>
        <time>2020-09-02T14:51:51Z</time>
      </trkpt>
      <trkpt lat="41.676148" lon="2.278239">
        <ele>253.40</ele>
        <time>2020-09-02T14:51:55Z</time>
      </trkpt>
      <trkpt lat="41.676254" lon="2.278226">
        <ele>254.60</ele>
        <time>2020-09-02T14:51:57Z</time>
      </trkpt>
      <trkpt lat="41.676364" lon="2.278214">
        <ele>255.00</ele>
        <time>2020-09-02T14:51:59Z</time>
      </trkpt>
      <trkpt lat="41.676674" lon="2.278165">
        <ele>255.60</ele>
        <time>2020-09-02T14:52:05Z</time>
      </trkpt>
      <trkpt lat="41.676724" lon="2.278147">
        <ele>255.80</ele>
        <time>2020-09-02T14:52:06Z</time>
      </trkpt>
      <trkpt lat="41.677028" lon="2.278000">
        <ele>256.80</ele>
        <time>2020-09-02T14:52:12Z</time>
      </trkpt>
      <trkpt lat="41.677079" lon="2.277973">
        <ele>257.20</ele>
        <time>2020-09-02T14:52:13Z</time>
      </trkpt>
      <trkpt lat="41.677183" lon="2.277927">
        <ele>257.40</ele>
        <time>2020-09-02T14:52:15Z</time>
      </trkpt>
      <trkpt lat="41.677292" lon="2.277920">
        <ele>257.60</ele>
        <time>2020-09-02T14:52:17Z</time>
      </trkpt>
      <trkpt lat="41.677345" lon="2.277949">
        <ele>257.40</ele>
        <time>2020-09-02T14:52:18Z</time>
      </trkpt>
      <trkpt lat="41.677391" lon="2.277997">
        <ele>257.20</ele>
        <time>2020-09-02T14:52:19Z</time>
      </trkpt>
      <trkpt lat="41.677440" lon="2.278131">
        <ele>257.00</ele>
        <time>2020-09-02T14:52:21Z</time>
      </trkpt>
      <trkpt lat="41.677452" lon="2.278284">
        <ele>257.20</ele>
        <time>2020-09-02T14:52:23Z</time>
      </trkpt>
      <trkpt lat="41.677465" lon="2.278594">
        <ele>257.60</ele>
        <time>2020-09-02T14:52:27Z</time>
      </trkpt>
      <trkpt lat="41.677474" lon="2.278672">
        <ele>257.80</ele>
        <time>2020-09-02T14:52:28Z</time>
      </trkpt>
      <trkpt lat="41.677489" lon="2.278749">
        <ele>257.80</ele>
        <time>2020-09-02T14:52:29Z</time>
      </trkpt>
      <trkpt lat="41.677542" lon="2.278891">
        <ele>257.80</ele>
        <time>2020-09-02T14:52:31Z</time>
      </trkpt>
      <trkpt lat="41.677809" lon="2.279359">
        <ele>256.40</ele>
        <time>2020-09-02T14:52:38Z</time>
      </trkpt>
      <trkpt lat="41.677809" lon="2.279359">
        <ele>256.20</ele>
        <time>2020-09-02T14:52:42Z</time>
      </trkpt>
      <trkpt lat="41.678194" lon="2.280000">
        <ele>256.20</ele>
        <time>2020-09-02T14:52:47Z</time>
      </trkpt>
      <trkpt lat="41.678315" lon="2.280209">
        <ele>255.60</ele>
        <time>2020-09-02T14:52:50Z</time>
      </trkpt>
      <trkpt lat="41.678394" lon="2.280345">
        <ele>255.40</ele>
        <time>2020-09-02T14:52:52Z</time>
      </trkpt>
      <trkpt lat="41.678589" lon="2.280664">
        <ele>255.80</ele>
        <time>2020-09-02T14:52:57Z</time>
      </trkpt>
      <trkpt lat="41.678941" lon="2.281258">
        <ele>254.80</ele>
        <time>2020-09-02T14:53:06Z</time>
      </trkpt>
      <trkpt lat="41.678981" lon="2.281325">
        <ele>254.80</ele>
        <time>2020-09-02T14:53:07Z</time>
      </trkpt>
      <trkpt lat="41.679295" lon="2.281862">
        <ele>256.60</ele>
        <time>2020-09-02T14:53:15Z</time>
      </trkpt>
      <trkpt lat="41.679379" lon="2.282001">
        <ele>256.60</ele>
        <time>2020-09-02T14:53:17Z</time>
      </trkpt>
      <trkpt lat="41.679584" lon="2.282354">
        <ele>256.60</ele>
        <time>2020-09-02T14:53:22Z</time>
      </trkpt>
      <trkpt lat="41.679747" lon="2.282643">
        <ele>256.60</ele>
        <time>2020-09-02T14:53:26Z</time>
      </trkpt>
      <trkpt lat="41.680008" lon="2.283061">
        <ele>257.80</ele>
        <time>2020-09-02T14:53:32Z</time>
      </trkpt>
      <trkpt lat="41.680103" lon="2.283182">
        <ele>258.20</ele>
        <time>2020-09-02T14:53:34Z</time>
      </trkpt>
      <trkpt lat="41.680313" lon="2.283485">
        <ele>258.80</ele>
        <time>2020-09-02T14:53:39Z</time>
      </trkpt>
      <trkpt lat="41.680355" lon="2.283545">
        <ele>259.00</ele>
        <time>2020-09-02T14:53:40Z</time>
      </trkpt>
      <trkpt lat="41.680505" lon="2.283766">
        <ele>260.20</ele>
        <time>2020-09-02T14:53:44Z</time>
      </trkpt>
      <trkpt lat="41.680552" lon="2.283813">
        <ele>260.40</ele>
        <time>2020-09-02T14:53:45Z</time>
      </trkpt>
      <trkpt lat="41.680598" lon="2.283859">
        <ele>260.60</ele>
        <time>2020-09-02T14:53:46Z</time>
      </trkpt>
      <trkpt lat="41.680741" lon="2.284006">
        <ele>261.60</ele>
        <time>2020-09-02T14:53:49Z</time>
      </trkpt>
      <trkpt lat="41.680851" lon="2.284183">
        <ele>262.00</ele>
        <time>2020-09-02T14:53:52Z</time>
      </trkpt>
      <trkpt lat="41.681083" lon="2.284691">
        <ele>262.40</ele>
        <time>2020-09-02T14:54:00Z</time>
      </trkpt>
      <trkpt lat="41.681127" lon="2.284745">
        <ele>262.80</ele>
        <time>2020-09-02T14:54:01Z</time>
      </trkpt>
      <trkpt lat="41.681300" lon="2.284962">
        <ele>263.20</ele>
        <time>2020-09-02T14:54:05Z</time>
      </trkpt>
      <trkpt lat="41.681446" lon="2.285251">
        <ele>263.40</ele>
        <time>2020-09-02T14:54:10Z</time>
      </trkpt>
      <trkpt lat="41.681535" lon="2.285401">
        <ele>263.80</ele>
        <time>2020-09-02T14:54:13Z</time>
      </trkpt>
    </trkseg>
  </trk>
</gpx>
